<?xml version="1.0" encoding="UTF-8" standalone="no" ?>
<gpx xmlns="http://www.topografix.com/GPX/1/1" xmlns:xsi="http://www.w3.org/2001/XMLSchema-instance" xsi:schemaLocation="http://www.topografix.com/GPX/1/1 http://www.topografix.com/GPX/1/1/gpx.xsd" version="1.1" creator="VisuGPX - https://www.visugpx.com">
  <metadata>
    <name>52 K fin 100 miles</name>
  </metadata>
  <trk>
    <name><![CDATA[10543281-100 Miles Sud de France 2019]]></name>
    <trkseg>
      <trkpt lat="42.51857" lon="2.06626">
        <ele>1755</ele>
        <time>2020-08-05T12:21:41Z</time>
      </trkpt>
      <trkpt lat="42.5178" lon="2.06624">
        <ele>1752</ele>
        <time>2020-08-05T12:22:20Z</time>
      </trkpt>
      <trkpt lat="42.51777" lon="2.06545">
        <ele>1752</ele>
        <time>2020-08-05T12:22:49Z</time>
      </trkpt>
      <trkpt lat="42.51763" lon="2.06522">
        <ele>1751</ele>
        <time>2020-08-05T12:23:00Z</time>
      </trkpt>
      <trkpt lat="42.51771" lon="2.06479">
        <ele>1753</ele>
        <time>2020-08-05T12:23:16Z</time>
      </trkpt>
      <trkpt lat="42.51796" lon="2.06449">
        <ele>1757</ele>
        <time>2020-08-05T12:23:33Z</time>
      </trkpt>
      <trkpt lat="42.51817" lon="2.06449">
        <ele>1758</ele>
        <time>2020-08-05T12:23:43Z</time>
      </trkpt>
      <trkpt lat="42.51839" lon="2.0644">
        <ele>1760</ele>
        <time>2020-08-05T12:23:55Z</time>
      </trkpt>
      <trkpt lat="42.51863" lon="2.06453">
        <ele>1761</ele>
        <time>2020-08-05T12:24:08Z</time>
      </trkpt>
      <trkpt lat="42.51893" lon="2.06445">
        <ele>1764</ele>
        <time>2020-08-05T12:24:23Z</time>
      </trkpt>
      <trkpt lat="42.51912" lon="2.06449">
        <ele>1765</ele>
        <time>2020-08-05T12:24:33Z</time>
      </trkpt>
      <trkpt lat="42.51935" lon="2.0645">
        <ele>1767</ele>
        <time>2020-08-05T12:24:44Z</time>
      </trkpt>
      <trkpt lat="42.51946" lon="2.06409">
        <ele>1768</ele>
        <time>2020-08-05T12:25:00Z</time>
      </trkpt>
      <trkpt lat="42.51963" lon="2.06389">
        <ele>1769</ele>
        <time>2020-08-05T12:25:12Z</time>
      </trkpt>
      <trkpt lat="42.51976" lon="2.06368">
        <ele>1770</ele>
        <time>2020-08-05T12:25:22Z</time>
      </trkpt>
      <trkpt lat="42.51987" lon="2.06335">
        <ele>1771</ele>
        <time>2020-08-05T12:25:35Z</time>
      </trkpt>
      <trkpt lat="42.52006" lon="2.06272">
        <ele>1775</ele>
        <time>2020-08-05T12:26:00Z</time>
      </trkpt>
      <trkpt lat="42.52007" lon="2.06257">
        <ele>1776</ele>
        <time>2020-08-05T12:26:06Z</time>
      </trkpt>
      <trkpt lat="42.52013" lon="2.06231">
        <ele>1777</ele>
        <time>2020-08-05T12:26:16Z</time>
      </trkpt>
      <trkpt lat="42.52015" lon="2.06198">
        <ele>1777</ele>
        <time>2020-08-05T12:26:28Z</time>
      </trkpt>
      <trkpt lat="42.52004" lon="2.06204">
        <ele>1777</ele>
        <time>2020-08-05T12:26:34Z</time>
      </trkpt>
      <trkpt lat="42.51981" lon="2.06198">
        <ele>1777</ele>
        <time>2020-08-05T12:26:46Z</time>
      </trkpt>
      <trkpt lat="42.51924" lon="2.06177">
        <ele>1778</ele>
        <time>2020-08-05T12:27:15Z</time>
      </trkpt>
      <trkpt lat="42.51834" lon="2.06115">
        <ele>1783</ele>
        <time>2020-08-05T12:28:06Z</time>
      </trkpt>
      <trkpt lat="42.51786" lon="2.06119">
        <ele>1781</ele>
        <time>2020-08-05T12:28:30Z</time>
      </trkpt>
      <trkpt lat="42.51776" lon="2.06125">
        <ele>1781</ele>
        <time>2020-08-05T12:28:35Z</time>
      </trkpt>
      <trkpt lat="42.51747" lon="2.06133">
        <ele>1780</ele>
        <time>2020-08-05T12:28:50Z</time>
      </trkpt>
      <trkpt lat="42.51712" lon="2.06123">
        <ele>1780</ele>
        <time>2020-08-05T12:29:08Z</time>
      </trkpt>
      <trkpt lat="42.51696" lon="2.06169">
        <ele>1778</ele>
        <time>2020-08-05T12:29:27Z</time>
      </trkpt>
      <trkpt lat="42.51691" lon="2.0623">
        <ele>1776</ele>
        <time>2020-08-05T12:29:49Z</time>
      </trkpt>
      <trkpt lat="42.51711" lon="2.06296">
        <ele>1771</ele>
        <time>2020-08-05T12:30:16Z</time>
      </trkpt>
      <trkpt lat="42.51676" lon="2.06449">
        <ele>1754</ele>
        <time>2020-08-05T12:31:15Z</time>
      </trkpt>
      <trkpt lat="42.51662" lon="2.06596">
        <ele>1750</ele>
        <time>2020-08-05T12:32:09Z</time>
      </trkpt>
      <trkpt lat="42.51642" lon="2.06675">
        <ele>1750</ele>
        <time>2020-08-05T12:32:40Z</time>
      </trkpt>
      <trkpt lat="42.5167" lon="2.06728">
        <ele>1750</ele>
        <time>2020-08-05T12:33:04Z</time>
      </trkpt>
      <trkpt lat="42.51689" lon="2.06781">
        <ele>1751</ele>
        <time>2020-08-05T12:33:26Z</time>
      </trkpt>
      <trkpt lat="42.5169" lon="2.06837">
        <ele>1752</ele>
        <time>2020-08-05T12:33:47Z</time>
      </trkpt>
      <trkpt lat="42.51739" lon="2.06818">
        <ele>1755</ele>
        <time>2020-08-05T12:34:12Z</time>
      </trkpt>
      <trkpt lat="42.51734" lon="2.06857">
        <ele>1757</ele>
        <time>2020-08-05T12:34:27Z</time>
      </trkpt>
      <trkpt lat="42.51721" lon="2.06896">
        <ele>1757</ele>
        <time>2020-08-05T12:34:43Z</time>
      </trkpt>
      <trkpt lat="42.51713" lon="2.06912">
        <ele>1756</ele>
        <time>2020-08-05T12:34:50Z</time>
      </trkpt>
      <trkpt lat="42.51696" lon="2.06936">
        <ele>1755</ele>
        <time>2020-08-05T12:35:02Z</time>
      </trkpt>
      <trkpt lat="42.51677" lon="2.06972">
        <ele>1754</ele>
        <time>2020-08-05T12:35:18Z</time>
      </trkpt>
      <trkpt lat="42.51665" lon="2.06982">
        <ele>1752</ele>
        <time>2020-08-05T12:35:25Z</time>
      </trkpt>
      <trkpt lat="42.51656" lon="2.06994">
        <ele>1751</ele>
        <time>2020-08-05T12:35:32Z</time>
      </trkpt>
      <trkpt lat="42.51647" lon="2.06994">
        <ele>1750</ele>
        <time>2020-08-05T12:35:36Z</time>
      </trkpt>
      <trkpt lat="42.51645" lon="2.07014">
        <ele>1751</ele>
        <time>2020-08-05T12:35:44Z</time>
      </trkpt>
      <trkpt lat="42.5163" lon="2.07046">
        <ele>1750</ele>
        <time>2020-08-05T12:35:58Z</time>
      </trkpt>
      <trkpt lat="42.51628" lon="2.07059">
        <ele>1749</ele>
        <time>2020-08-05T12:36:02Z</time>
      </trkpt>
      <trkpt lat="42.51618" lon="2.07077">
        <ele>1748</ele>
        <time>2020-08-05T12:36:11Z</time>
      </trkpt>
      <trkpt lat="42.5157" lon="2.07139">
        <ele>1747</ele>
        <time>2020-08-05T12:36:44Z</time>
      </trkpt>
      <trkpt lat="42.51534" lon="2.0715">
        <ele>1744</ele>
        <time>2020-08-05T12:37:02Z</time>
      </trkpt>
      <trkpt lat="42.51535" lon="2.0719">
        <ele>1744</ele>
        <time>2020-08-05T12:37:17Z</time>
      </trkpt>
      <trkpt lat="42.51521" lon="2.07234">
        <ele>1741</ele>
        <time>2020-08-05T12:37:35Z</time>
      </trkpt>
      <trkpt lat="42.5153" lon="2.07264">
        <ele>1741</ele>
        <time>2020-08-05T12:37:47Z</time>
      </trkpt>
      <trkpt lat="42.51537" lon="2.07273">
        <ele>1742</ele>
        <time>2020-08-05T12:37:52Z</time>
      </trkpt>
      <trkpt lat="42.51553" lon="2.07284">
        <ele>1743</ele>
        <time>2020-08-05T12:38:01Z</time>
      </trkpt>
      <trkpt lat="42.51565" lon="2.07309">
        <ele>1743</ele>
        <time>2020-08-05T12:38:12Z</time>
      </trkpt>
      <trkpt lat="42.51567" lon="2.07328">
        <ele>1741</ele>
        <time>2020-08-05T12:38:19Z</time>
      </trkpt>
      <trkpt lat="42.51564" lon="2.07352">
        <ele>1739</ele>
        <time>2020-08-05T12:38:28Z</time>
      </trkpt>
      <trkpt lat="42.51566" lon="2.07393">
        <ele>1737</ele>
        <time>2020-08-05T12:38:43Z</time>
      </trkpt>
      <trkpt lat="42.51569" lon="2.07416">
        <ele>1737</ele>
        <time>2020-08-05T12:38:51Z</time>
      </trkpt>
      <trkpt lat="42.51578" lon="2.07447">
        <ele>1736</ele>
        <time>2020-08-05T12:39:04Z</time>
      </trkpt>
      <trkpt lat="42.51586" lon="2.07487">
        <ele>1736</ele>
        <time>2020-08-05T12:39:19Z</time>
      </trkpt>
      <trkpt lat="42.51588" lon="2.07506">
        <ele>1736</ele>
        <time>2020-08-05T12:39:26Z</time>
      </trkpt>
      <trkpt lat="42.51577" lon="2.07528">
        <ele>1735</ele>
        <time>2020-08-05T12:39:36Z</time>
      </trkpt>
      <trkpt lat="42.51571" lon="2.07553">
        <ele>1735</ele>
        <time>2020-08-05T12:39:46Z</time>
      </trkpt>
      <trkpt lat="42.51564" lon="2.07565">
        <ele>1734</ele>
        <time>2020-08-05T12:39:51Z</time>
      </trkpt>
      <trkpt lat="42.51541" lon="2.07681">
        <ele>1733</ele>
        <time>2020-08-05T12:40:36Z</time>
      </trkpt>
      <trkpt lat="42.5152" lon="2.0772">
        <ele>1732</ele>
        <time>2020-08-05T12:40:53Z</time>
      </trkpt>
      <trkpt lat="42.51501" lon="2.07739">
        <ele>1733</ele>
        <time>2020-08-05T12:41:05Z</time>
      </trkpt>
      <trkpt lat="42.51496" lon="2.07748">
        <ele>1733</ele>
        <time>2020-08-05T12:41:09Z</time>
      </trkpt>
      <trkpt lat="42.51491" lon="2.07806">
        <ele>1732</ele>
        <time>2020-08-05T12:41:31Z</time>
      </trkpt>
      <trkpt lat="42.51479" lon="2.07834">
        <ele>1732</ele>
        <time>2020-08-05T12:41:43Z</time>
      </trkpt>
      <trkpt lat="42.51464" lon="2.07853">
        <ele>1731</ele>
        <time>2020-08-05T12:41:53Z</time>
      </trkpt>
      <trkpt lat="42.51444" lon="2.07897">
        <ele>1730</ele>
        <time>2020-08-05T12:42:12Z</time>
      </trkpt>
      <trkpt lat="42.51441" lon="2.07905">
        <ele>1730</ele>
        <time>2020-08-05T12:42:15Z</time>
      </trkpt>
      <trkpt lat="42.51436" lon="2.07948">
        <ele>1727</ele>
        <time>2020-08-05T12:42:32Z</time>
      </trkpt>
      <trkpt lat="42.51416" lon="2.08003">
        <ele>1726</ele>
        <time>2020-08-05T12:42:54Z</time>
      </trkpt>
      <trkpt lat="42.51411" lon="2.08013">
        <ele>1725</ele>
        <time>2020-08-05T12:42:59Z</time>
      </trkpt>
      <trkpt lat="42.51397" lon="2.08024">
        <ele>1724</ele>
        <time>2020-08-05T12:43:07Z</time>
      </trkpt>
      <trkpt lat="42.51394" lon="2.08049">
        <ele>1723</ele>
        <time>2020-08-05T12:43:16Z</time>
      </trkpt>
      <trkpt lat="42.51379" lon="2.08116">
        <ele>1723</ele>
        <time>2020-08-05T12:43:42Z</time>
      </trkpt>
      <trkpt lat="42.51377" lon="2.08152">
        <ele>1723</ele>
        <time>2020-08-05T12:43:55Z</time>
      </trkpt>
      <trkpt lat="42.51362" lon="2.0819">
        <ele>1723</ele>
        <time>2020-08-05T12:44:11Z</time>
      </trkpt>
      <trkpt lat="42.51356" lon="2.0822">
        <ele>1723</ele>
        <time>2020-08-05T12:44:23Z</time>
      </trkpt>
      <trkpt lat="42.51344" lon="2.08246">
        <ele>1723</ele>
        <time>2020-08-05T12:44:34Z</time>
      </trkpt>
      <trkpt lat="42.51339" lon="2.08268">
        <ele>1723</ele>
        <time>2020-08-05T12:44:42Z</time>
      </trkpt>
      <trkpt lat="42.51341" lon="2.08289">
        <ele>1721</ele>
        <time>2020-08-05T12:44:50Z</time>
      </trkpt>
      <trkpt lat="42.51338" lon="2.083">
        <ele>1721</ele>
        <time>2020-08-05T12:44:54Z</time>
      </trkpt>
      <trkpt lat="42.51306" lon="2.08354">
        <ele>1717</ele>
        <time>2020-08-05T12:45:20Z</time>
      </trkpt>
      <trkpt lat="42.5129" lon="2.08397">
        <ele>1716</ele>
        <time>2020-08-05T12:45:38Z</time>
      </trkpt>
      <trkpt lat="42.51258" lon="2.08424">
        <ele>1715</ele>
        <time>2020-08-05T12:45:57Z</time>
      </trkpt>
      <trkpt lat="42.51257" lon="2.08429">
        <ele>1715</ele>
        <time>2020-08-05T12:45:59Z</time>
      </trkpt>
      <trkpt lat="42.51274" lon="2.08435">
        <ele>1715</ele>
        <time>2020-08-05T12:46:07Z</time>
      </trkpt>
      <trkpt lat="42.51281" lon="2.08434">
        <ele>1715</ele>
        <time>2020-08-05T12:46:11Z</time>
      </trkpt>
      <trkpt lat="42.51289" lon="2.0843">
        <ele>1715</ele>
        <time>2020-08-05T12:46:15Z</time>
      </trkpt>
      <trkpt lat="42.5132" lon="2.084">
        <ele>1716</ele>
        <time>2020-08-05T12:46:34Z</time>
      </trkpt>
      <trkpt lat="42.51341" lon="2.08384">
        <ele>1717</ele>
        <time>2020-08-05T12:46:46Z</time>
      </trkpt>
      <trkpt lat="42.51365" lon="2.08373">
        <ele>1715</ele>
        <time>2020-08-05T12:46:59Z</time>
      </trkpt>
      <trkpt lat="42.51386" lon="2.0837">
        <ele>1713</ele>
        <time>2020-08-05T12:47:10Z</time>
      </trkpt>
      <trkpt lat="42.51411" lon="2.08355">
        <ele>1712</ele>
        <time>2020-08-05T12:47:23Z</time>
      </trkpt>
      <trkpt lat="42.51416" lon="2.08348">
        <ele>1712</ele>
        <time>2020-08-05T12:47:27Z</time>
      </trkpt>
      <trkpt lat="42.51439" lon="2.08293">
        <ele>1711</ele>
        <time>2020-08-05T12:47:50Z</time>
      </trkpt>
      <trkpt lat="42.51447" lon="2.08259">
        <ele>1712</ele>
        <time>2020-08-05T12:48:03Z</time>
      </trkpt>
      <trkpt lat="42.51448" lon="2.08238">
        <ele>1713</ele>
        <time>2020-08-05T12:48:11Z</time>
      </trkpt>
      <trkpt lat="42.51453" lon="2.08217">
        <ele>1713</ele>
        <time>2020-08-05T12:48:19Z</time>
      </trkpt>
      <trkpt lat="42.5148" lon="2.08164">
        <ele>1711</ele>
        <time>2020-08-05T12:48:43Z</time>
      </trkpt>
      <trkpt lat="42.51488" lon="2.08156">
        <ele>1710</ele>
        <time>2020-08-05T12:48:48Z</time>
      </trkpt>
      <trkpt lat="42.51537" lon="2.08124">
        <ele>1707</ele>
        <time>2020-08-05T12:49:15Z</time>
      </trkpt>
      <trkpt lat="42.5155" lon="2.08113">
        <ele>1706</ele>
        <time>2020-08-05T12:49:23Z</time>
      </trkpt>
      <trkpt lat="42.51572" lon="2.08075">
        <ele>1705</ele>
        <time>2020-08-05T12:49:41Z</time>
      </trkpt>
      <trkpt lat="42.51581" lon="2.08054">
        <ele>1705</ele>
        <time>2020-08-05T12:49:50Z</time>
      </trkpt>
      <trkpt lat="42.51594" lon="2.08041">
        <ele>1706</ele>
        <time>2020-08-05T12:49:58Z</time>
      </trkpt>
      <trkpt lat="42.51601" lon="2.08041">
        <ele>1706</ele>
        <time>2020-08-05T12:50:01Z</time>
      </trkpt>
      <trkpt lat="42.51627" lon="2.08069">
        <ele>1705</ele>
        <time>2020-08-05T12:50:18Z</time>
      </trkpt>
      <trkpt lat="42.51643" lon="2.08079">
        <ele>1704</ele>
        <time>2020-08-05T12:50:27Z</time>
      </trkpt>
      <trkpt lat="42.51731" lon="2.08107">
        <ele>1707</ele>
        <time>2020-08-05T12:51:12Z</time>
      </trkpt>
      <trkpt lat="42.51781" lon="2.08146">
        <ele>1705</ele>
        <time>2020-08-05T12:51:41Z</time>
      </trkpt>
      <trkpt lat="42.51791" lon="2.0815">
        <ele>1704</ele>
        <time>2020-08-05T12:51:46Z</time>
      </trkpt>
      <trkpt lat="42.51818" lon="2.0817">
        <ele>1702</ele>
        <time>2020-08-05T12:52:01Z</time>
      </trkpt>
      <trkpt lat="42.51826" lon="2.08173">
        <ele>1702</ele>
        <time>2020-08-05T12:52:05Z</time>
      </trkpt>
      <trkpt lat="42.51845" lon="2.08172">
        <ele>1701</ele>
        <time>2020-08-05T12:52:15Z</time>
      </trkpt>
      <trkpt lat="42.51882" lon="2.08151">
        <ele>1700</ele>
        <time>2020-08-05T12:52:35Z</time>
      </trkpt>
      <trkpt lat="42.51903" lon="2.0813">
        <ele>1701</ele>
        <time>2020-08-05T12:52:48Z</time>
      </trkpt>
      <trkpt lat="42.51932" lon="2.08094">
        <ele>1701</ele>
        <time>2020-08-05T12:53:08Z</time>
      </trkpt>
      <trkpt lat="42.51966" lon="2.08033">
        <ele>1703</ele>
        <time>2020-08-05T12:53:36Z</time>
      </trkpt>
      <trkpt lat="42.51996" lon="2.07999">
        <ele>1700</ele>
        <time>2020-08-05T12:53:56Z</time>
      </trkpt>
      <trkpt lat="42.5204" lon="2.07959">
        <ele>1698</ele>
        <time>2020-08-05T12:54:22Z</time>
      </trkpt>
      <trkpt lat="42.52092" lon="2.07927">
        <ele>1695</ele>
        <time>2020-08-05T12:54:51Z</time>
      </trkpt>
      <trkpt lat="42.52122" lon="2.07894">
        <ele>1693</ele>
        <time>2020-08-05T12:55:10Z</time>
      </trkpt>
      <trkpt lat="42.52136" lon="2.07888">
        <ele>1691</ele>
        <time>2020-08-05T12:55:17Z</time>
      </trkpt>
      <trkpt lat="42.5215" lon="2.07876">
        <ele>1689</ele>
        <time>2020-08-05T12:55:26Z</time>
      </trkpt>
      <trkpt lat="42.52156" lon="2.07868">
        <ele>1689</ele>
        <time>2020-08-05T12:55:30Z</time>
      </trkpt>
      <trkpt lat="42.52169" lon="2.07838">
        <ele>1690</ele>
        <time>2020-08-05T12:55:43Z</time>
      </trkpt>
      <trkpt lat="42.52182" lon="2.07821">
        <ele>1691</ele>
        <time>2020-08-05T12:55:52Z</time>
      </trkpt>
      <trkpt lat="42.52208" lon="2.0781">
        <ele>1691</ele>
        <time>2020-08-05T12:56:05Z</time>
      </trkpt>
      <trkpt lat="42.52293" lon="2.07826">
        <ele>1688</ele>
        <time>2020-08-05T12:56:48Z</time>
      </trkpt>
      <trkpt lat="42.52324" lon="2.07827">
        <ele>1687</ele>
        <time>2020-08-05T12:57:04Z</time>
      </trkpt>
      <trkpt lat="42.52339" lon="2.07821">
        <ele>1687</ele>
        <time>2020-08-05T12:57:12Z</time>
      </trkpt>
      <trkpt lat="42.5236" lon="2.07794">
        <ele>1687</ele>
        <time>2020-08-05T12:57:26Z</time>
      </trkpt>
      <trkpt lat="42.52369" lon="2.07787">
        <ele>1687</ele>
        <time>2020-08-05T12:57:31Z</time>
      </trkpt>
      <trkpt lat="42.52391" lon="2.07779">
        <ele>1686</ele>
        <time>2020-08-05T12:57:43Z</time>
      </trkpt>
      <trkpt lat="42.5239" lon="2.07813">
        <ele>1685</ele>
        <time>2020-08-05T12:57:55Z</time>
      </trkpt>
      <trkpt lat="42.52363" lon="2.07927">
        <ele>1682</ele>
        <time>2020-08-05T12:58:39Z</time>
      </trkpt>
      <trkpt lat="42.52348" lon="2.07969">
        <ele>1679</ele>
        <time>2020-08-05T12:58:57Z</time>
      </trkpt>
      <trkpt lat="42.5233" lon="2.08003">
        <ele>1676</ele>
        <time>2020-08-05T12:59:12Z</time>
      </trkpt>
      <trkpt lat="42.52326" lon="2.08031">
        <ele>1675</ele>
        <time>2020-08-05T12:59:23Z</time>
      </trkpt>
      <trkpt lat="42.52314" lon="2.0808">
        <ele>1674</ele>
        <time>2020-08-05T12:59:42Z</time>
      </trkpt>
      <trkpt lat="42.5229" lon="2.08161">
        <ele>1674</ele>
        <time>2020-08-05T13:00:14Z</time>
      </trkpt>
      <trkpt lat="42.52281" lon="2.08183">
        <ele>1673</ele>
        <time>2020-08-05T13:00:23Z</time>
      </trkpt>
      <trkpt lat="42.52269" lon="2.08204">
        <ele>1673</ele>
        <time>2020-08-05T13:00:33Z</time>
      </trkpt>
      <trkpt lat="42.52248" lon="2.08274">
        <ele>1671</ele>
        <time>2020-08-05T13:01:01Z</time>
      </trkpt>
      <trkpt lat="42.52229" lon="2.08302">
        <ele>1671</ele>
        <time>2020-08-05T13:01:15Z</time>
      </trkpt>
      <trkpt lat="42.52213" lon="2.0835">
        <ele>1671</ele>
        <time>2020-08-05T13:01:34Z</time>
      </trkpt>
      <trkpt lat="42.52209" lon="2.08374">
        <ele>1670</ele>
        <time>2020-08-05T13:01:43Z</time>
      </trkpt>
      <trkpt lat="42.52197" lon="2.08415">
        <ele>1671</ele>
        <time>2020-08-05T13:02:00Z</time>
      </trkpt>
      <trkpt lat="42.52173" lon="2.08464">
        <ele>1671</ele>
        <time>2020-08-05T13:02:21Z</time>
      </trkpt>
      <trkpt lat="42.52153" lon="2.08527">
        <ele>1671</ele>
        <time>2020-08-05T13:02:47Z</time>
      </trkpt>
      <trkpt lat="42.52141" lon="2.08546">
        <ele>1672</ele>
        <time>2020-08-05T13:02:56Z</time>
      </trkpt>
      <trkpt lat="42.5214" lon="2.08558">
        <ele>1672</ele>
        <time>2020-08-05T13:03:00Z</time>
      </trkpt>
      <trkpt lat="42.52144" lon="2.08587">
        <ele>1672</ele>
        <time>2020-08-05T13:03:11Z</time>
      </trkpt>
      <trkpt lat="42.52149" lon="2.08668">
        <ele>1672</ele>
        <time>2020-08-05T13:03:41Z</time>
      </trkpt>
      <trkpt lat="42.52153" lon="2.08682">
        <ele>1672</ele>
        <time>2020-08-05T13:03:47Z</time>
      </trkpt>
      <trkpt lat="42.52158" lon="2.08697">
        <ele>1671</ele>
        <time>2020-08-05T13:03:53Z</time>
      </trkpt>
      <trkpt lat="42.52188" lon="2.08758">
        <ele>1668</ele>
        <time>2020-08-05T13:04:20Z</time>
      </trkpt>
      <trkpt lat="42.52216" lon="2.08779">
        <ele>1666</ele>
        <time>2020-08-05T13:04:36Z</time>
      </trkpt>
      <trkpt lat="42.52227" lon="2.08791">
        <ele>1665</ele>
        <time>2020-08-05T13:04:43Z</time>
      </trkpt>
      <trkpt lat="42.5224" lon="2.08836">
        <ele>1662</ele>
        <time>2020-08-05T13:05:01Z</time>
      </trkpt>
      <trkpt lat="42.52242" lon="2.08854">
        <ele>1662</ele>
        <time>2020-08-05T13:05:07Z</time>
      </trkpt>
      <trkpt lat="42.52238" lon="2.0887">
        <ele>1661</ele>
        <time>2020-08-05T13:05:14Z</time>
      </trkpt>
      <trkpt lat="42.52204" lon="2.08918">
        <ele>1661</ele>
        <time>2020-08-05T13:05:38Z</time>
      </trkpt>
      <trkpt lat="42.5219" lon="2.08933">
        <ele>1660</ele>
        <time>2020-08-05T13:05:47Z</time>
      </trkpt>
      <trkpt lat="42.52116" lon="2.08998">
        <ele>1659</ele>
        <time>2020-08-05T13:06:31Z</time>
      </trkpt>
      <trkpt lat="42.52064" lon="2.0903">
        <ele>1658</ele>
        <time>2020-08-05T13:07:00Z</time>
      </trkpt>
      <trkpt lat="42.52046" lon="2.09048">
        <ele>1658</ele>
        <time>2020-08-05T13:07:11Z</time>
      </trkpt>
      <trkpt lat="42.52016" lon="2.09097">
        <ele>1659</ele>
        <time>2020-08-05T13:07:34Z</time>
      </trkpt>
      <trkpt lat="42.51997" lon="2.09117">
        <ele>1659</ele>
        <time>2020-08-05T13:07:46Z</time>
      </trkpt>
      <trkpt lat="42.51992" lon="2.09121">
        <ele>1659</ele>
        <time>2020-08-05T13:07:49Z</time>
      </trkpt>
      <trkpt lat="42.5198" lon="2.09124">
        <ele>1659</ele>
        <time>2020-08-05T13:07:55Z</time>
      </trkpt>
      <trkpt lat="42.51969" lon="2.0913">
        <ele>1659</ele>
        <time>2020-08-05T13:08:01Z</time>
      </trkpt>
      <trkpt lat="42.51953" lon="2.09153">
        <ele>1659</ele>
        <time>2020-08-05T13:08:13Z</time>
      </trkpt>
      <trkpt lat="42.51887" lon="2.092">
        <ele>1660</ele>
        <time>2020-08-05T13:08:50Z</time>
      </trkpt>
      <trkpt lat="42.51871" lon="2.09224">
        <ele>1658</ele>
        <time>2020-08-05T13:09:02Z</time>
      </trkpt>
      <trkpt lat="42.51865" lon="2.09228">
        <ele>1658</ele>
        <time>2020-08-05T13:09:06Z</time>
      </trkpt>
      <trkpt lat="42.51826" lon="2.09238">
        <ele>1657</ele>
        <time>2020-08-05T13:09:26Z</time>
      </trkpt>
      <trkpt lat="42.51811" lon="2.0925">
        <ele>1656</ele>
        <time>2020-08-05T13:09:34Z</time>
      </trkpt>
      <trkpt lat="42.51773" lon="2.09296">
        <ele>1656</ele>
        <time>2020-08-05T13:10:00Z</time>
      </trkpt>
      <trkpt lat="42.51763" lon="2.09316">
        <ele>1656</ele>
        <time>2020-08-05T13:10:09Z</time>
      </trkpt>
      <trkpt lat="42.51745" lon="2.09335">
        <ele>1656</ele>
        <time>2020-08-05T13:10:20Z</time>
      </trkpt>
      <trkpt lat="42.51732" lon="2.09366">
        <ele>1655</ele>
        <time>2020-08-05T13:10:33Z</time>
      </trkpt>
      <trkpt lat="42.51719" lon="2.09386">
        <ele>1655</ele>
        <time>2020-08-05T13:10:43Z</time>
      </trkpt>
      <trkpt lat="42.51705" lon="2.09383">
        <ele>1655</ele>
        <time>2020-08-05T13:10:50Z</time>
      </trkpt>
      <trkpt lat="42.51667" lon="2.09382">
        <ele>1655</ele>
        <time>2020-08-05T13:11:09Z</time>
      </trkpt>
      <trkpt lat="42.51633" lon="2.09376">
        <ele>1655</ele>
        <time>2020-08-05T13:11:26Z</time>
      </trkpt>
      <trkpt lat="42.5161" lon="2.09377">
        <ele>1655</ele>
        <time>2020-08-05T13:11:38Z</time>
      </trkpt>
      <trkpt lat="42.51586" lon="2.09373">
        <ele>1656</ele>
        <time>2020-08-05T13:11:50Z</time>
      </trkpt>
      <trkpt lat="42.51572" lon="2.09369">
        <ele>1656</ele>
        <time>2020-08-05T13:11:57Z</time>
      </trkpt>
      <trkpt lat="42.51506" lon="2.09329">
        <ele>1660</ele>
        <time>2020-08-05T13:12:33Z</time>
      </trkpt>
      <trkpt lat="42.51464" lon="2.09324">
        <ele>1661</ele>
        <time>2020-08-05T13:12:54Z</time>
      </trkpt>
      <trkpt lat="42.51448" lon="2.09319">
        <ele>1662</ele>
        <time>2020-08-05T13:13:03Z</time>
      </trkpt>
      <trkpt lat="42.51423" lon="2.09322">
        <ele>1663</ele>
        <time>2020-08-05T13:13:15Z</time>
      </trkpt>
      <trkpt lat="42.51429" lon="2.09378">
        <ele>1662</ele>
        <time>2020-08-05T13:13:36Z</time>
      </trkpt>
      <trkpt lat="42.51445" lon="2.09438">
        <ele>1661</ele>
        <time>2020-08-05T13:14:00Z</time>
      </trkpt>
      <trkpt lat="42.51469" lon="2.09492">
        <ele>1660</ele>
        <time>2020-08-05T13:14:23Z</time>
      </trkpt>
      <trkpt lat="42.515" lon="2.09549">
        <ele>1658</ele>
        <time>2020-08-05T13:14:49Z</time>
      </trkpt>
      <trkpt lat="42.51527" lon="2.09586">
        <ele>1658</ele>
        <time>2020-08-05T13:15:08Z</time>
      </trkpt>
      <trkpt lat="42.51545" lon="2.09627">
        <ele>1658</ele>
        <time>2020-08-05T13:15:26Z</time>
      </trkpt>
      <trkpt lat="42.51548" lon="2.09689">
        <ele>1658</ele>
        <time>2020-08-05T13:15:49Z</time>
      </trkpt>
      <trkpt lat="42.51541" lon="2.09706">
        <ele>1659</ele>
        <time>2020-08-05T13:15:56Z</time>
      </trkpt>
      <trkpt lat="42.5154" lon="2.09741">
        <ele>1659</ele>
        <time>2020-08-05T13:16:09Z</time>
      </trkpt>
      <trkpt lat="42.51534" lon="2.09782">
        <ele>1659</ele>
        <time>2020-08-05T13:16:24Z</time>
      </trkpt>
      <trkpt lat="42.5153" lon="2.09788">
        <ele>1659</ele>
        <time>2020-08-05T13:16:27Z</time>
      </trkpt>
      <trkpt lat="42.51499" lon="2.09811">
        <ele>1658</ele>
        <time>2020-08-05T13:16:45Z</time>
      </trkpt>
      <trkpt lat="42.51489" lon="2.09815">
        <ele>1657</ele>
        <time>2020-08-05T13:16:50Z</time>
      </trkpt>
      <trkpt lat="42.51451" lon="2.09807">
        <ele>1656</ele>
        <time>2020-08-05T13:17:09Z</time>
      </trkpt>
      <trkpt lat="42.51437" lon="2.09811">
        <ele>1656</ele>
        <time>2020-08-05T13:17:16Z</time>
      </trkpt>
      <trkpt lat="42.51391" lon="2.09863">
        <ele>1654</ele>
        <time>2020-08-05T13:17:46Z</time>
      </trkpt>
      <trkpt lat="42.51378" lon="2.09882">
        <ele>1654</ele>
        <time>2020-08-05T13:17:56Z</time>
      </trkpt>
      <trkpt lat="42.51374" lon="2.09892">
        <ele>1654</ele>
        <time>2020-08-05T13:18:00Z</time>
      </trkpt>
      <trkpt lat="42.51369" lon="2.09916">
        <ele>1654</ele>
        <time>2020-08-05T13:18:09Z</time>
      </trkpt>
      <trkpt lat="42.51356" lon="2.10049">
        <ele>1658</ele>
        <time>2020-08-05T13:18:59Z</time>
      </trkpt>
      <trkpt lat="42.51361" lon="2.10064">
        <ele>1658</ele>
        <time>2020-08-05T13:19:05Z</time>
      </trkpt>
      <trkpt lat="42.51383" lon="2.10081">
        <ele>1657</ele>
        <time>2020-08-05T13:19:18Z</time>
      </trkpt>
      <trkpt lat="42.51392" lon="2.10099">
        <ele>1656</ele>
        <time>2020-08-05T13:19:26Z</time>
      </trkpt>
      <trkpt lat="42.514" lon="2.10125">
        <ele>1655</ele>
        <time>2020-08-05T13:19:36Z</time>
      </trkpt>
      <trkpt lat="42.51402" lon="2.10163">
        <ele>1654</ele>
        <time>2020-08-05T13:19:50Z</time>
      </trkpt>
      <trkpt lat="42.51409" lon="2.10199">
        <ele>1653</ele>
        <time>2020-08-05T13:20:04Z</time>
      </trkpt>
      <trkpt lat="42.514" lon="2.10224">
        <ele>1652</ele>
        <time>2020-08-05T13:20:14Z</time>
      </trkpt>
      <trkpt lat="42.51368" lon="2.10281">
        <ele>1650</ele>
        <time>2020-08-05T13:20:41Z</time>
      </trkpt>
      <trkpt lat="42.5136" lon="2.10308">
        <ele>1649</ele>
        <time>2020-08-05T13:20:51Z</time>
      </trkpt>
      <trkpt lat="42.51329" lon="2.10367">
        <ele>1649</ele>
        <time>2020-08-05T13:21:18Z</time>
      </trkpt>
      <trkpt lat="42.51342" lon="2.10393">
        <ele>1647</ele>
        <time>2020-08-05T13:21:30Z</time>
      </trkpt>
      <trkpt lat="42.51345" lon="2.10413">
        <ele>1647</ele>
        <time>2020-08-05T13:21:37Z</time>
      </trkpt>
      <trkpt lat="42.5138" lon="2.10458">
        <ele>1645</ele>
        <time>2020-08-05T13:22:01Z</time>
      </trkpt>
      <trkpt lat="42.51405" lon="2.10455">
        <ele>1644</ele>
        <time>2020-08-05T13:22:14Z</time>
      </trkpt>
      <trkpt lat="42.51415" lon="2.10451">
        <ele>1643</ele>
        <time>2020-08-05T13:22:19Z</time>
      </trkpt>
      <trkpt lat="42.51425" lon="2.10443">
        <ele>1643</ele>
        <time>2020-08-05T13:22:25Z</time>
      </trkpt>
      <trkpt lat="42.51442" lon="2.10452">
        <ele>1642</ele>
        <time>2020-08-05T13:22:34Z</time>
      </trkpt>
      <trkpt lat="42.5145" lon="2.1046">
        <ele>1641</ele>
        <time>2020-08-05T13:22:39Z</time>
      </trkpt>
      <trkpt lat="42.51451" lon="2.10465">
        <ele>1641</ele>
        <time>2020-08-05T13:22:41Z</time>
      </trkpt>
      <trkpt lat="42.51471" lon="2.10497">
        <ele>1637</ele>
        <time>2020-08-05T13:22:56Z</time>
      </trkpt>
      <trkpt lat="42.51473" lon="2.10541">
        <ele>1636</ele>
        <time>2020-08-05T13:23:13Z</time>
      </trkpt>
      <trkpt lat="42.51453" lon="2.10601">
        <ele>1638</ele>
        <time>2020-08-05T13:23:37Z</time>
      </trkpt>
      <trkpt lat="42.51452" lon="2.10628">
        <ele>1638</ele>
        <time>2020-08-05T13:23:47Z</time>
      </trkpt>
      <trkpt lat="42.51445" lon="2.10654">
        <ele>1639</ele>
        <time>2020-08-05T13:23:57Z</time>
      </trkpt>
      <trkpt lat="42.51437" lon="2.10662">
        <ele>1640</ele>
        <time>2020-08-05T13:24:02Z</time>
      </trkpt>
      <trkpt lat="42.5144" lon="2.10693">
        <ele>1642</ele>
        <time>2020-08-05T13:24:14Z</time>
      </trkpt>
      <trkpt lat="42.51461" lon="2.10758">
        <ele>1640</ele>
        <time>2020-08-05T13:24:40Z</time>
      </trkpt>
      <trkpt lat="42.51464" lon="2.10809">
        <ele>1634</ele>
        <time>2020-08-05T13:24:59Z</time>
      </trkpt>
      <trkpt lat="42.51451" lon="2.10872">
        <ele>1630</ele>
        <time>2020-08-05T13:25:23Z</time>
      </trkpt>
      <trkpt lat="42.51419" lon="2.1094">
        <ele>1620</ele>
        <time>2020-08-05T13:25:52Z</time>
      </trkpt>
      <trkpt lat="42.51412" lon="2.10963">
        <ele>1616</ele>
        <time>2020-08-05T13:26:02Z</time>
      </trkpt>
      <trkpt lat="42.51421" lon="2.11023">
        <ele>1606</ele>
        <time>2020-08-05T13:26:24Z</time>
      </trkpt>
      <trkpt lat="42.51423" lon="2.11109">
        <ele>1597</ele>
        <time>2020-08-05T13:26:56Z</time>
      </trkpt>
      <trkpt lat="42.51395" lon="2.11165">
        <ele>1593</ele>
        <time>2020-08-05T13:27:21Z</time>
      </trkpt>
      <trkpt lat="42.51375" lon="2.11198">
        <ele>1592</ele>
        <time>2020-08-05T13:27:37Z</time>
      </trkpt>
      <trkpt lat="42.5136" lon="2.11237">
        <ele>1588</ele>
        <time>2020-08-05T13:27:53Z</time>
      </trkpt>
      <trkpt lat="42.51299" lon="2.11354">
        <ele>1584</ele>
        <time>2020-08-05T13:28:46Z</time>
      </trkpt>
      <trkpt lat="42.51266" lon="2.11408">
        <ele>1588</ele>
        <time>2020-08-05T13:29:12Z</time>
      </trkpt>
      <trkpt lat="42.5126" lon="2.11432">
        <ele>1588</ele>
        <time>2020-08-05T13:29:21Z</time>
      </trkpt>
      <trkpt lat="42.5126" lon="2.11482">
        <ele>1584</ele>
        <time>2020-08-05T13:29:39Z</time>
      </trkpt>
      <trkpt lat="42.51256" lon="2.11481">
        <ele>1585</ele>
        <time>2020-08-05T13:29:41Z</time>
      </trkpt>
      <trkpt lat="42.51254" lon="2.1149">
        <ele>1584</ele>
        <time>2020-08-05T13:29:45Z</time>
      </trkpt>
      <trkpt lat="42.51247" lon="2.11501">
        <ele>1584</ele>
        <time>2020-08-05T13:29:50Z</time>
      </trkpt>
      <trkpt lat="42.51241" lon="2.11506">
        <ele>1584</ele>
        <time>2020-08-05T13:29:54Z</time>
      </trkpt>
      <trkpt lat="42.51227" lon="2.11513">
        <ele>1586</ele>
        <time>2020-08-05T13:30:01Z</time>
      </trkpt>
      <trkpt lat="42.51212" lon="2.11516">
        <ele>1588</ele>
        <time>2020-08-05T13:30:09Z</time>
      </trkpt>
      <trkpt lat="42.51208" lon="2.11552">
        <ele>1586</ele>
        <time>2020-08-05T13:30:22Z</time>
      </trkpt>
      <trkpt lat="42.51188" lon="2.11625">
        <ele>1589</ele>
        <time>2020-08-05T13:30:51Z</time>
      </trkpt>
      <trkpt lat="42.51182" lon="2.11668">
        <ele>1591</ele>
        <time>2020-08-05T13:31:07Z</time>
      </trkpt>
      <trkpt lat="42.51181" lon="2.11738">
        <ele>1595</ele>
        <time>2020-08-05T13:31:33Z</time>
      </trkpt>
      <trkpt lat="42.51195" lon="2.11796">
        <ele>1594</ele>
        <time>2020-08-05T13:31:56Z</time>
      </trkpt>
      <trkpt lat="42.51204" lon="2.11816">
        <ele>1593</ele>
        <time>2020-08-05T13:32:04Z</time>
      </trkpt>
      <trkpt lat="42.51229" lon="2.11842">
        <ele>1588</ele>
        <time>2020-08-05T13:32:20Z</time>
      </trkpt>
      <trkpt lat="42.51226" lon="2.1185">
        <ele>1588</ele>
        <time>2020-08-05T13:32:23Z</time>
      </trkpt>
      <trkpt lat="42.51229" lon="2.11854">
        <ele>1586</ele>
        <time>2020-08-05T13:32:25Z</time>
      </trkpt>
      <trkpt lat="42.51226" lon="2.1185">
        <ele>1588</ele>
        <time>2020-08-05T13:32:27Z</time>
      </trkpt>
      <trkpt lat="42.51159" lon="2.11936">
        <ele>1599</ele>
        <time>2020-08-05T13:33:14Z</time>
      </trkpt>
      <trkpt lat="42.51131" lon="2.11967">
        <ele>1600</ele>
        <time>2020-08-05T13:33:32Z</time>
      </trkpt>
      <trkpt lat="42.511" lon="2.1202">
        <ele>1601</ele>
        <time>2020-08-05T13:33:57Z</time>
      </trkpt>
      <trkpt lat="42.51079" lon="2.12074">
        <ele>1602</ele>
        <time>2020-08-05T13:34:19Z</time>
      </trkpt>
      <trkpt lat="42.51047" lon="2.12139">
        <ele>1597</ele>
        <time>2020-08-05T13:34:48Z</time>
      </trkpt>
      <trkpt lat="42.51044" lon="2.12139">
        <ele>1597</ele>
        <time>2020-08-05T13:34:50Z</time>
      </trkpt>
      <trkpt lat="42.51024" lon="2.12117">
        <ele>1599</ele>
        <time>2020-08-05T13:35:02Z</time>
      </trkpt>
      <trkpt lat="42.51009" lon="2.1211">
        <ele>1599</ele>
        <time>2020-08-05T13:35:10Z</time>
      </trkpt>
      <trkpt lat="42.51001" lon="2.12113">
        <ele>1599</ele>
        <time>2020-08-05T13:35:14Z</time>
      </trkpt>
      <trkpt lat="42.50964" lon="2.12165">
        <ele>1591</ele>
        <time>2020-08-05T13:35:41Z</time>
      </trkpt>
      <trkpt lat="42.50884" lon="2.12295">
        <ele>1580</ele>
        <time>2020-08-05T13:36:44Z</time>
      </trkpt>
      <trkpt lat="42.50855" lon="2.12315">
        <ele>1578</ele>
        <time>2020-08-05T13:37:00Z</time>
      </trkpt>
      <trkpt lat="42.5082" lon="2.12315">
        <ele>1577</ele>
        <time>2020-08-05T13:37:17Z</time>
      </trkpt>
      <trkpt lat="42.50795" lon="2.12291">
        <ele>1576</ele>
        <time>2020-08-05T13:37:33Z</time>
      </trkpt>
      <trkpt lat="42.50778" lon="2.12238">
        <ele>1575</ele>
        <time>2020-08-05T13:37:54Z</time>
      </trkpt>
      <trkpt lat="42.50726" lon="2.12242">
        <ele>1570</ele>
        <time>2020-08-05T13:38:20Z</time>
      </trkpt>
      <trkpt lat="42.50704" lon="2.1222">
        <ele>1568</ele>
        <time>2020-08-05T13:38:34Z</time>
      </trkpt>
      <trkpt lat="42.50707" lon="2.12211">
        <ele>1568</ele>
        <time>2020-08-05T13:38:37Z</time>
      </trkpt>
      <trkpt lat="42.50664" lon="2.12178">
        <ele>1565</ele>
        <time>2020-08-05T13:39:02Z</time>
      </trkpt>
      <trkpt lat="42.50627" lon="2.12131">
        <ele>1560</ele>
        <time>2020-08-05T13:39:28Z</time>
      </trkpt>
      <trkpt lat="42.50591" lon="2.12096">
        <ele>1556</ele>
        <time>2020-08-05T13:39:50Z</time>
      </trkpt>
      <trkpt lat="42.50581" lon="2.12083">
        <ele>1555</ele>
        <time>2020-08-05T13:39:57Z</time>
      </trkpt>
      <trkpt lat="42.50571" lon="2.12056">
        <ele>1551</ele>
        <time>2020-08-05T13:40:08Z</time>
      </trkpt>
      <trkpt lat="42.5054" lon="2.11947">
        <ele>1541</ele>
        <time>2020-08-05T13:40:51Z</time>
      </trkpt>
      <trkpt lat="42.50542" lon="2.11933">
        <ele>1540</ele>
        <time>2020-08-05T13:40:56Z</time>
      </trkpt>
      <trkpt lat="42.50534" lon="2.11923">
        <ele>1539</ele>
        <time>2020-08-05T13:41:02Z</time>
      </trkpt>
      <trkpt lat="42.50428" lon="2.11955">
        <ele>1529</ele>
        <time>2020-08-05T13:41:56Z</time>
      </trkpt>
      <trkpt lat="42.50398" lon="2.11914">
        <ele>1522</ele>
        <time>2020-08-05T13:42:17Z</time>
      </trkpt>
      <trkpt lat="42.5039" lon="2.11909">
        <ele>1521</ele>
        <time>2020-08-05T13:42:22Z</time>
      </trkpt>
      <trkpt lat="42.50384" lon="2.11909">
        <ele>1520</ele>
        <time>2020-08-05T13:42:25Z</time>
      </trkpt>
      <trkpt lat="42.50354" lon="2.11957">
        <ele>1517</ele>
        <time>2020-08-05T13:42:48Z</time>
      </trkpt>
      <trkpt lat="42.50351" lon="2.11973">
        <ele>1517</ele>
        <time>2020-08-05T13:42:54Z</time>
      </trkpt>
      <trkpt lat="42.5034" lon="2.11971">
        <ele>1515</ele>
        <time>2020-08-05T13:43:00Z</time>
      </trkpt>
      <trkpt lat="42.50333" lon="2.11975">
        <ele>1514</ele>
        <time>2020-08-05T13:43:03Z</time>
      </trkpt>
      <trkpt lat="42.503" lon="2.12032">
        <ele>1503</ele>
        <time>2020-08-05T13:43:30Z</time>
      </trkpt>
      <trkpt lat="42.50247" lon="2.12028">
        <ele>1492</ele>
        <time>2020-08-05T13:43:57Z</time>
      </trkpt>
      <trkpt lat="42.50232" lon="2.1203">
        <ele>1489</ele>
        <time>2020-08-05T13:44:04Z</time>
      </trkpt>
      <trkpt lat="42.50205" lon="2.12059">
        <ele>1482</ele>
        <time>2020-08-05T13:44:21Z</time>
      </trkpt>
      <trkpt lat="42.50197" lon="2.12063">
        <ele>1481</ele>
        <time>2020-08-05T13:44:26Z</time>
      </trkpt>
      <trkpt lat="42.50192" lon="2.12044">
        <ele>1481</ele>
        <time>2020-08-05T13:44:33Z</time>
      </trkpt>
      <trkpt lat="42.50188" lon="2.12002">
        <ele>1484</ele>
        <time>2020-08-05T13:44:49Z</time>
      </trkpt>
      <trkpt lat="42.50158" lon="2.11939">
        <ele>1481</ele>
        <time>2020-08-05T13:45:16Z</time>
      </trkpt>
      <trkpt lat="42.50154" lon="2.11912">
        <ele>1481</ele>
        <time>2020-08-05T13:45:27Z</time>
      </trkpt>
      <trkpt lat="42.50155" lon="2.11887">
        <ele>1481</ele>
        <time>2020-08-05T13:45:36Z</time>
      </trkpt>
      <trkpt lat="42.50138" lon="2.119">
        <ele>1481</ele>
        <time>2020-08-05T13:45:46Z</time>
      </trkpt>
      <trkpt lat="42.50102" lon="2.11918">
        <ele>1482</ele>
        <time>2020-08-05T13:46:05Z</time>
      </trkpt>
      <trkpt lat="42.50094" lon="2.11928">
        <ele>1482</ele>
        <time>2020-08-05T13:46:10Z</time>
      </trkpt>
      <trkpt lat="42.50086" lon="2.11945">
        <ele>1482</ele>
        <time>2020-08-05T13:46:18Z</time>
      </trkpt>
      <trkpt lat="42.50078" lon="2.11953">
        <ele>1484</ele>
        <time>2020-08-05T13:46:23Z</time>
      </trkpt>
      <trkpt lat="42.50046" lon="2.12021">
        <ele>1497</ele>
        <time>2020-08-05T13:46:52Z</time>
      </trkpt>
      <trkpt lat="42.50045" lon="2.12038">
        <ele>1497</ele>
        <time>2020-08-05T13:46:59Z</time>
      </trkpt>
      <trkpt lat="42.50052" lon="2.12077">
        <ele>1493</ele>
        <time>2020-08-05T13:47:13Z</time>
      </trkpt>
      <trkpt lat="42.50034" lon="2.12111">
        <ele>1501</ele>
        <time>2020-08-05T13:47:29Z</time>
      </trkpt>
      <trkpt lat="42.50006" lon="2.12144">
        <ele>1510</ele>
        <time>2020-08-05T13:47:48Z</time>
      </trkpt>
      <trkpt lat="42.50005" lon="2.12155">
        <ele>1509</ele>
        <time>2020-08-05T13:47:52Z</time>
      </trkpt>
      <trkpt lat="42.50015" lon="2.12173">
        <ele>1507</ele>
        <time>2020-08-05T13:48:00Z</time>
      </trkpt>
      <trkpt lat="42.50032" lon="2.12195">
        <ele>1505</ele>
        <time>2020-08-05T13:48:12Z</time>
      </trkpt>
      <trkpt lat="42.50053" lon="2.12237">
        <ele>1506</ele>
        <time>2020-08-05T13:48:30Z</time>
      </trkpt>
      <trkpt lat="42.50055" lon="2.12252">
        <ele>1508</ele>
        <time>2020-08-05T13:48:36Z</time>
      </trkpt>
      <trkpt lat="42.50045" lon="2.12276">
        <ele>1511</ele>
        <time>2020-08-05T13:48:46Z</time>
      </trkpt>
      <trkpt lat="42.50042" lon="2.12291">
        <ele>1512</ele>
        <time>2020-08-05T13:48:52Z</time>
      </trkpt>
      <trkpt lat="42.50012" lon="2.12381">
        <ele>1519</ele>
        <time>2020-08-05T13:49:28Z</time>
      </trkpt>
      <trkpt lat="42.49985" lon="2.1244">
        <ele>1521</ele>
        <time>2020-08-05T13:49:54Z</time>
      </trkpt>
      <trkpt lat="42.4996" lon="2.12481">
        <ele>1523</ele>
        <time>2020-08-05T13:50:14Z</time>
      </trkpt>
      <trkpt lat="42.49903" lon="2.12558">
        <ele>1526</ele>
        <time>2020-08-05T13:50:54Z</time>
      </trkpt>
      <trkpt lat="42.49887" lon="2.12585">
        <ele>1527</ele>
        <time>2020-08-05T13:51:07Z</time>
      </trkpt>
      <trkpt lat="42.4986" lon="2.12607">
        <ele>1527</ele>
        <time>2020-08-05T13:51:22Z</time>
      </trkpt>
      <trkpt lat="42.49824" lon="2.12629">
        <ele>1527</ele>
        <time>2020-08-05T13:51:42Z</time>
      </trkpt>
      <trkpt lat="42.49782" lon="2.12646">
        <ele>1522</ele>
        <time>2020-08-05T13:52:04Z</time>
      </trkpt>
      <trkpt lat="42.49747" lon="2.1268">
        <ele>1516</ele>
        <time>2020-08-05T13:52:26Z</time>
      </trkpt>
      <trkpt lat="42.49733" lon="2.1269">
        <ele>1513</ele>
        <time>2020-08-05T13:52:34Z</time>
      </trkpt>
      <trkpt lat="42.49649" lon="2.12726">
        <ele>1498</ele>
        <time>2020-08-05T13:53:18Z</time>
      </trkpt>
      <trkpt lat="42.49643" lon="2.12726">
        <ele>1498</ele>
        <time>2020-08-05T13:53:21Z</time>
      </trkpt>
      <trkpt lat="42.49629" lon="2.12719">
        <ele>1498</ele>
        <time>2020-08-05T13:53:28Z</time>
      </trkpt>
      <trkpt lat="42.49606" lon="2.12751">
        <ele>1491</ele>
        <time>2020-08-05T13:53:45Z</time>
      </trkpt>
      <trkpt lat="42.49581" lon="2.12767">
        <ele>1485</ele>
        <time>2020-08-05T13:53:58Z</time>
      </trkpt>
      <trkpt lat="42.49566" lon="2.12767">
        <ele>1484</ele>
        <time>2020-08-05T13:54:06Z</time>
      </trkpt>
      <trkpt lat="42.49551" lon="2.12763">
        <ele>1484</ele>
        <time>2020-08-05T13:54:14Z</time>
      </trkpt>
      <trkpt lat="42.49529" lon="2.12755">
        <ele>1484</ele>
        <time>2020-08-05T13:54:25Z</time>
      </trkpt>
      <trkpt lat="42.49504" lon="2.12741">
        <ele>1485</ele>
        <time>2020-08-05T13:54:39Z</time>
      </trkpt>
      <trkpt lat="42.49494" lon="2.12738">
        <ele>1485</ele>
        <time>2020-08-05T13:54:44Z</time>
      </trkpt>
      <trkpt lat="42.49471" lon="2.12744">
        <ele>1485</ele>
        <time>2020-08-05T13:54:55Z</time>
      </trkpt>
      <trkpt lat="42.49462" lon="2.12749">
        <ele>1484</ele>
        <time>2020-08-05T13:55:00Z</time>
      </trkpt>
      <trkpt lat="42.49455" lon="2.12766">
        <ele>1485</ele>
        <time>2020-08-05T13:55:07Z</time>
      </trkpt>
      <trkpt lat="42.49445" lon="2.12773">
        <ele>1486</ele>
        <time>2020-08-05T13:55:13Z</time>
      </trkpt>
      <trkpt lat="42.49434" lon="2.12795">
        <ele>1490</ele>
        <time>2020-08-05T13:55:23Z</time>
      </trkpt>
      <trkpt lat="42.4942" lon="2.12809">
        <ele>1494</ele>
        <time>2020-08-05T13:55:32Z</time>
      </trkpt>
      <trkpt lat="42.4942" lon="2.12814">
        <ele>1495</ele>
        <time>2020-08-05T13:55:33Z</time>
      </trkpt>
      <trkpt lat="42.49442" lon="2.12848">
        <ele>1493</ele>
        <time>2020-08-05T13:55:50Z</time>
      </trkpt>
      <trkpt lat="42.49449" lon="2.12906">
        <ele>1499</ele>
        <time>2020-08-05T13:56:12Z</time>
      </trkpt>
      <trkpt lat="42.49452" lon="2.12916">
        <ele>1500</ele>
        <time>2020-08-05T13:56:16Z</time>
      </trkpt>
      <trkpt lat="42.49452" lon="2.12931">
        <ele>1501</ele>
        <time>2020-08-05T13:56:21Z</time>
      </trkpt>
      <trkpt lat="42.49448" lon="2.12946">
        <ele>1503</ele>
        <time>2020-08-05T13:56:27Z</time>
      </trkpt>
      <trkpt lat="42.49423" lon="2.12981">
        <ele>1512</ele>
        <time>2020-08-05T13:56:45Z</time>
      </trkpt>
      <trkpt lat="42.49416" lon="2.12998">
        <ele>1514</ele>
        <time>2020-08-05T13:56:52Z</time>
      </trkpt>
      <trkpt lat="42.49414" lon="2.1305">
        <ele>1515</ele>
        <time>2020-08-05T13:57:12Z</time>
      </trkpt>
      <trkpt lat="42.49389" lon="2.1316">
        <ele>1511</ele>
        <time>2020-08-05T13:57:54Z</time>
      </trkpt>
      <trkpt lat="42.49384" lon="2.13173">
        <ele>1510</ele>
        <time>2020-08-05T13:57:59Z</time>
      </trkpt>
      <trkpt lat="42.49375" lon="2.13186">
        <ele>1510</ele>
        <time>2020-08-05T13:58:06Z</time>
      </trkpt>
      <trkpt lat="42.49332" lon="2.13207">
        <ele>1514</ele>
        <time>2020-08-05T13:58:29Z</time>
      </trkpt>
      <trkpt lat="42.49329" lon="2.13216">
        <ele>1514</ele>
        <time>2020-08-05T13:58:33Z</time>
      </trkpt>
      <trkpt lat="42.49326" lon="2.13247">
        <ele>1512</ele>
        <time>2020-08-05T13:58:44Z</time>
      </trkpt>
      <trkpt lat="42.4934" lon="2.13275">
        <ele>1514</ele>
        <time>2020-08-05T13:58:57Z</time>
      </trkpt>
      <trkpt lat="42.49349" lon="2.13301">
        <ele>1517</ele>
        <time>2020-08-05T13:59:07Z</time>
      </trkpt>
      <trkpt lat="42.4936" lon="2.13315">
        <ele>1519</ele>
        <time>2020-08-05T13:59:15Z</time>
      </trkpt>
      <trkpt lat="42.49377" lon="2.13322">
        <ele>1520</ele>
        <time>2020-08-05T13:59:24Z</time>
      </trkpt>
      <trkpt lat="42.49403" lon="2.13324">
        <ele>1520</ele>
        <time>2020-08-05T13:59:37Z</time>
      </trkpt>
      <trkpt lat="42.49402" lon="2.13329">
        <ele>1521</ele>
        <time>2020-08-05T13:59:39Z</time>
      </trkpt>
      <trkpt lat="42.49368" lon="2.13363">
        <ele>1527</ele>
        <time>2020-08-05T14:00:00Z</time>
      </trkpt>
      <trkpt lat="42.49355" lon="2.13398">
        <ele>1533</ele>
        <time>2020-08-05T14:00:14Z</time>
      </trkpt>
      <trkpt lat="42.4935" lon="2.13421">
        <ele>1536</ele>
        <time>2020-08-05T14:00:23Z</time>
      </trkpt>
      <trkpt lat="42.49337" lon="2.13444">
        <ele>1536</ele>
        <time>2020-08-05T14:00:34Z</time>
      </trkpt>
      <trkpt lat="42.4934" lon="2.1346">
        <ele>1536</ele>
        <time>2020-08-05T14:00:40Z</time>
      </trkpt>
      <trkpt lat="42.4934" lon="2.13531">
        <ele>1534</ele>
        <time>2020-08-05T14:01:06Z</time>
      </trkpt>
      <trkpt lat="42.49345" lon="2.1353">
        <ele>1533</ele>
        <time>2020-08-05T14:01:09Z</time>
      </trkpt>
      <trkpt lat="42.49347" lon="2.13576">
        <ele>1531</ele>
        <time>2020-08-05T14:01:26Z</time>
      </trkpt>
      <trkpt lat="42.49371" lon="2.13606">
        <ele>1528</ele>
        <time>2020-08-05T14:01:42Z</time>
      </trkpt>
      <trkpt lat="42.49372" lon="2.13624">
        <ele>1526</ele>
        <time>2020-08-05T14:01:49Z</time>
      </trkpt>
      <trkpt lat="42.49365" lon="2.13633">
        <ele>1524</ele>
        <time>2020-08-05T14:01:53Z</time>
      </trkpt>
      <trkpt lat="42.49353" lon="2.13638">
        <ele>1523</ele>
        <time>2020-08-05T14:02:00Z</time>
      </trkpt>
      <trkpt lat="42.49331" lon="2.13626">
        <ele>1523</ele>
        <time>2020-08-05T14:02:11Z</time>
      </trkpt>
      <trkpt lat="42.49311" lon="2.13627">
        <ele>1524</ele>
        <time>2020-08-05T14:02:22Z</time>
      </trkpt>
      <trkpt lat="42.49282" lon="2.13643">
        <ele>1522</ele>
        <time>2020-08-05T14:02:37Z</time>
      </trkpt>
      <trkpt lat="42.49244" lon="2.13657">
        <ele>1521</ele>
        <time>2020-08-05T14:02:57Z</time>
      </trkpt>
      <trkpt lat="42.49202" lon="2.13675">
        <ele>1523</ele>
        <time>2020-08-05T14:03:19Z</time>
      </trkpt>
      <trkpt lat="42.49193" lon="2.13681">
        <ele>1524</ele>
        <time>2020-08-05T14:03:24Z</time>
      </trkpt>
      <trkpt lat="42.49185" lon="2.13693">
        <ele>1523</ele>
        <time>2020-08-05T14:03:30Z</time>
      </trkpt>
      <trkpt lat="42.49181" lon="2.13708">
        <ele>1522</ele>
        <time>2020-08-05T14:03:36Z</time>
      </trkpt>
      <trkpt lat="42.49184" lon="2.13729">
        <ele>1519</ele>
        <time>2020-08-05T14:03:44Z</time>
      </trkpt>
      <trkpt lat="42.4919" lon="2.13737">
        <ele>1517</ele>
        <time>2020-08-05T14:03:48Z</time>
      </trkpt>
      <trkpt lat="42.49194" lon="2.13766">
        <ele>1514</ele>
        <time>2020-08-05T14:03:59Z</time>
      </trkpt>
      <trkpt lat="42.49193" lon="2.13779">
        <ele>1514</ele>
        <time>2020-08-05T14:04:04Z</time>
      </trkpt>
      <trkpt lat="42.4915" lon="2.13788">
        <ele>1521</ele>
        <time>2020-08-05T14:04:25Z</time>
      </trkpt>
      <trkpt lat="42.49107" lon="2.13843">
        <ele>1530</ele>
        <time>2020-08-05T14:04:55Z</time>
      </trkpt>
      <trkpt lat="42.49098" lon="2.13865">
        <ele>1532</ele>
        <time>2020-08-05T14:05:04Z</time>
      </trkpt>
      <trkpt lat="42.49081" lon="2.13859">
        <ele>1536</ele>
        <time>2020-08-05T14:05:13Z</time>
      </trkpt>
      <trkpt lat="42.4907" lon="2.1386">
        <ele>1539</ele>
        <time>2020-08-05T14:05:19Z</time>
      </trkpt>
      <trkpt lat="42.4905" lon="2.13876">
        <ele>1544</ele>
        <time>2020-08-05T14:05:30Z</time>
      </trkpt>
      <trkpt lat="42.49046" lon="2.13883">
        <ele>1545</ele>
        <time>2020-08-05T14:05:33Z</time>
      </trkpt>
      <trkpt lat="42.4903" lon="2.13959">
        <ele>1554</ele>
        <time>2020-08-05T14:06:03Z</time>
      </trkpt>
      <trkpt lat="42.49026" lon="2.13995">
        <ele>1557</ele>
        <time>2020-08-05T14:06:16Z</time>
      </trkpt>
      <trkpt lat="42.49049" lon="2.14047">
        <ele>1556</ele>
        <time>2020-08-05T14:06:38Z</time>
      </trkpt>
      <trkpt lat="42.49063" lon="2.14111">
        <ele>1557</ele>
        <time>2020-08-05T14:07:03Z</time>
      </trkpt>
      <trkpt lat="42.49069" lon="2.14114">
        <ele>1555</ele>
        <time>2020-08-05T14:07:06Z</time>
      </trkpt>
      <trkpt lat="42.49066" lon="2.14136">
        <ele>1557</ele>
        <time>2020-08-05T14:07:15Z</time>
      </trkpt>
      <trkpt lat="42.49075" lon="2.14172">
        <ele>1558</ele>
        <time>2020-08-05T14:07:29Z</time>
      </trkpt>
      <trkpt lat="42.49076" lon="2.14197">
        <ele>1561</ele>
        <time>2020-08-05T14:07:38Z</time>
      </trkpt>
      <trkpt lat="42.4909" lon="2.14223">
        <ele>1561</ele>
        <time>2020-08-05T14:07:50Z</time>
      </trkpt>
      <trkpt lat="42.49106" lon="2.14267">
        <ele>1566</ele>
        <time>2020-08-05T14:08:08Z</time>
      </trkpt>
      <trkpt lat="42.49115" lon="2.14283">
        <ele>1567</ele>
        <time>2020-08-05T14:08:15Z</time>
      </trkpt>
      <trkpt lat="42.49162" lon="2.14343">
        <ele>1571</ele>
        <time>2020-08-05T14:08:47Z</time>
      </trkpt>
      <trkpt lat="42.49167" lon="2.14359">
        <ele>1570</ele>
        <time>2020-08-05T14:08:54Z</time>
      </trkpt>
      <trkpt lat="42.49135" lon="2.14355">
        <ele>1576</ele>
        <time>2020-08-05T14:09:10Z</time>
      </trkpt>
      <trkpt lat="42.49112" lon="2.14361">
        <ele>1581</ele>
        <time>2020-08-05T14:09:22Z</time>
      </trkpt>
      <trkpt lat="42.49098" lon="2.14377">
        <ele>1586</ele>
        <time>2020-08-05T14:09:31Z</time>
      </trkpt>
      <trkpt lat="42.49092" lon="2.14377">
        <ele>1588</ele>
        <time>2020-08-05T14:09:34Z</time>
      </trkpt>
      <trkpt lat="42.49085" lon="2.14394">
        <ele>1593</ele>
        <time>2020-08-05T14:09:41Z</time>
      </trkpt>
      <trkpt lat="42.49069" lon="2.14456">
        <ele>1606</ele>
        <time>2020-08-05T14:10:05Z</time>
      </trkpt>
      <trkpt lat="42.49038" lon="2.14489">
        <ele>1618</ele>
        <time>2020-08-05T14:10:25Z</time>
      </trkpt>
      <trkpt lat="42.48925" lon="2.14567">
        <ele>1654</ele>
        <time>2020-08-05T14:11:28Z</time>
      </trkpt>
      <trkpt lat="42.48817" lon="2.14692">
        <ele>1701</ele>
        <time>2020-08-05T14:12:40Z</time>
      </trkpt>
      <trkpt lat="42.48802" lon="2.14685">
        <ele>1706</ele>
        <time>2020-08-05T14:12:47Z</time>
      </trkpt>
      <trkpt lat="42.48768" lon="2.14615">
        <ele>1705</ele>
        <time>2020-08-05T14:13:18Z</time>
      </trkpt>
      <trkpt lat="42.48784" lon="2.14724">
        <ele>1717</ele>
        <time>2020-08-05T14:13:59Z</time>
      </trkpt>
      <trkpt lat="42.48784" lon="2.14782">
        <ele>1718</ele>
        <time>2020-08-05T14:14:21Z</time>
      </trkpt>
      <trkpt lat="42.48774" lon="2.14804">
        <ele>1720</ele>
        <time>2020-08-05T14:14:30Z</time>
      </trkpt>
      <trkpt lat="42.48765" lon="2.14816">
        <ele>1723</ele>
        <time>2020-08-05T14:14:37Z</time>
      </trkpt>
      <trkpt lat="42.48763" lon="2.14824">
        <ele>1723</ele>
        <time>2020-08-05T14:14:40Z</time>
      </trkpt>
      <trkpt lat="42.48749" lon="2.14822">
        <ele>1730</ele>
        <time>2020-08-05T14:14:47Z</time>
      </trkpt>
      <trkpt lat="42.4874" lon="2.14818">
        <ele>1733</ele>
        <time>2020-08-05T14:14:52Z</time>
      </trkpt>
      <trkpt lat="42.48728" lon="2.14823">
        <ele>1737</ele>
        <time>2020-08-05T14:14:58Z</time>
      </trkpt>
      <trkpt lat="42.48697" lon="2.14853">
        <ele>1741</ele>
        <time>2020-08-05T14:15:17Z</time>
      </trkpt>
      <trkpt lat="42.48656" lon="2.149">
        <ele>1744</ele>
        <time>2020-08-05T14:15:44Z</time>
      </trkpt>
      <trkpt lat="42.48638" lon="2.14911">
        <ele>1749</ele>
        <time>2020-08-05T14:15:54Z</time>
      </trkpt>
      <trkpt lat="42.48601" lon="2.14926">
        <ele>1763</ele>
        <time>2020-08-05T14:16:13Z</time>
      </trkpt>
      <trkpt lat="42.48573" lon="2.14962">
        <ele>1772</ele>
        <time>2020-08-05T14:16:32Z</time>
      </trkpt>
      <trkpt lat="42.48559" lon="2.14993">
        <ele>1776</ele>
        <time>2020-08-05T14:16:46Z</time>
      </trkpt>
      <trkpt lat="42.48538" lon="2.15052">
        <ele>1787</ele>
        <time>2020-08-05T14:17:10Z</time>
      </trkpt>
      <trkpt lat="42.48512" lon="2.15175">
        <ele>1795</ele>
        <time>2020-08-05T14:17:57Z</time>
      </trkpt>
      <trkpt lat="42.48478" lon="2.15241">
        <ele>1807</ele>
        <time>2020-08-05T14:18:27Z</time>
      </trkpt>
      <trkpt lat="42.48413" lon="2.15344">
        <ele>1827</ele>
        <time>2020-08-05T14:19:17Z</time>
      </trkpt>
      <trkpt lat="42.48367" lon="2.15405">
        <ele>1839</ele>
        <time>2020-08-05T14:19:49Z</time>
      </trkpt>
      <trkpt lat="42.48345" lon="2.15448">
        <ele>1847</ele>
        <time>2020-08-05T14:20:08Z</time>
      </trkpt>
      <trkpt lat="42.48331" lon="2.15494">
        <ele>1852</ele>
        <time>2020-08-05T14:20:27Z</time>
      </trkpt>
      <trkpt lat="42.48317" lon="2.15522">
        <ele>1859</ele>
        <time>2020-08-05T14:20:39Z</time>
      </trkpt>
      <trkpt lat="42.48315" lon="2.15538">
        <ele>1861</ele>
        <time>2020-08-05T14:20:45Z</time>
      </trkpt>
      <trkpt lat="42.48316" lon="2.15568">
        <ele>1863</ele>
        <time>2020-08-05T14:20:56Z</time>
      </trkpt>
      <trkpt lat="42.48311" lon="2.15589">
        <ele>1865</ele>
        <time>2020-08-05T14:21:04Z</time>
      </trkpt>
      <trkpt lat="42.48299" lon="2.15605">
        <ele>1869</ele>
        <time>2020-08-05T14:21:13Z</time>
      </trkpt>
      <trkpt lat="42.48279" lon="2.15616">
        <ele>1875</ele>
        <time>2020-08-05T14:21:24Z</time>
      </trkpt>
      <trkpt lat="42.48261" lon="2.15632">
        <ele>1879</ele>
        <time>2020-08-05T14:21:34Z</time>
      </trkpt>
      <trkpt lat="42.48234" lon="2.15668">
        <ele>1885</ele>
        <time>2020-08-05T14:21:53Z</time>
      </trkpt>
      <trkpt lat="42.48197" lon="2.15707">
        <ele>1890</ele>
        <time>2020-08-05T14:22:17Z</time>
      </trkpt>
      <trkpt lat="42.48173" lon="2.15741">
        <ele>1892</ele>
        <time>2020-08-05T14:22:34Z</time>
      </trkpt>
      <trkpt lat="42.48139" lon="2.15798">
        <ele>1891</ele>
        <time>2020-08-05T14:23:01Z</time>
      </trkpt>
      <trkpt lat="42.4806" lon="2.15876">
        <ele>1901</ele>
        <time>2020-08-05T14:23:50Z</time>
      </trkpt>
      <trkpt lat="42.48043" lon="2.159">
        <ele>1903</ele>
        <time>2020-08-05T14:24:02Z</time>
      </trkpt>
      <trkpt lat="42.48019" lon="2.15951">
        <ele>1905</ele>
        <time>2020-08-05T14:24:25Z</time>
      </trkpt>
      <trkpt lat="42.47985" lon="2.16047">
        <ele>1910</ele>
        <time>2020-08-05T14:25:04Z</time>
      </trkpt>
      <trkpt lat="42.47968" lon="2.16159">
        <ele>1915</ele>
        <time>2020-08-05T14:25:46Z</time>
      </trkpt>
      <trkpt lat="42.47853" lon="2.16189">
        <ele>1924</ele>
        <time>2020-08-05T14:26:45Z</time>
      </trkpt>
      <trkpt lat="42.47811" lon="2.1621">
        <ele>1926</ele>
        <time>2020-08-05T14:27:07Z</time>
      </trkpt>
      <trkpt lat="42.47788" lon="2.16226">
        <ele>1926</ele>
        <time>2020-08-05T14:27:20Z</time>
      </trkpt>
      <trkpt lat="42.47764" lon="2.16244">
        <ele>1925</ele>
        <time>2020-08-05T14:27:34Z</time>
      </trkpt>
      <trkpt lat="42.47721" lon="2.16284">
        <ele>1914</ele>
        <time>2020-08-05T14:28:00Z</time>
      </trkpt>
      <trkpt lat="42.47684" lon="2.16311">
        <ele>1909</ele>
        <time>2020-08-05T14:28:21Z</time>
      </trkpt>
      <trkpt lat="42.47652" lon="2.16318">
        <ele>1911</ele>
        <time>2020-08-05T14:28:37Z</time>
      </trkpt>
      <trkpt lat="42.47619" lon="2.16338">
        <ele>1905</ele>
        <time>2020-08-05T14:28:55Z</time>
      </trkpt>
      <trkpt lat="42.47567" lon="2.16339">
        <ele>1915</ele>
        <time>2020-08-05T14:29:21Z</time>
      </trkpt>
      <trkpt lat="42.47554" lon="2.16349">
        <ele>1917</ele>
        <time>2020-08-05T14:29:29Z</time>
      </trkpt>
      <trkpt lat="42.47547" lon="2.16366">
        <ele>1914</ele>
        <time>2020-08-05T14:29:36Z</time>
      </trkpt>
      <trkpt lat="42.47547" lon="2.16379">
        <ele>1910</ele>
        <time>2020-08-05T14:29:41Z</time>
      </trkpt>
      <trkpt lat="42.47557" lon="2.16413">
        <ele>1893</ele>
        <time>2020-08-05T14:29:54Z</time>
      </trkpt>
      <trkpt lat="42.47555" lon="2.16473">
        <ele>1883</ele>
        <time>2020-08-05T14:30:17Z</time>
      </trkpt>
      <trkpt lat="42.4754" lon="2.16507">
        <ele>1886</ele>
        <time>2020-08-05T14:30:31Z</time>
      </trkpt>
      <trkpt lat="42.47528" lon="2.16524">
        <ele>1890</ele>
        <time>2020-08-05T14:30:40Z</time>
      </trkpt>
      <trkpt lat="42.47488" lon="2.16646">
        <ele>1879</ele>
        <time>2020-08-05T14:31:29Z</time>
      </trkpt>
      <trkpt lat="42.47466" lon="2.16676">
        <ele>1881</ele>
        <time>2020-08-05T14:31:45Z</time>
      </trkpt>
      <trkpt lat="42.47451" lon="2.16703">
        <ele>1886</ele>
        <time>2020-08-05T14:31:57Z</time>
      </trkpt>
      <trkpt lat="42.47448" lon="2.1673">
        <ele>1884</ele>
        <time>2020-08-05T14:32:07Z</time>
      </trkpt>
      <trkpt lat="42.47459" lon="2.16811">
        <ele>1877</ele>
        <time>2020-08-05T14:32:38Z</time>
      </trkpt>
      <trkpt lat="42.47461" lon="2.16848">
        <ele>1878</ele>
        <time>2020-08-05T14:32:51Z</time>
      </trkpt>
      <trkpt lat="42.47459" lon="2.16953">
        <ele>1878</ele>
        <time>2020-08-05T14:33:30Z</time>
      </trkpt>
      <trkpt lat="42.47454" lon="2.17003">
        <ele>1876</ele>
        <time>2020-08-05T14:33:49Z</time>
      </trkpt>
      <trkpt lat="42.47444" lon="2.1705">
        <ele>1875</ele>
        <time>2020-08-05T14:34:07Z</time>
      </trkpt>
      <trkpt lat="42.47449" lon="2.17188">
        <ele>1853</ele>
        <time>2020-08-05T14:34:58Z</time>
      </trkpt>
      <trkpt lat="42.4743" lon="2.17262">
        <ele>1853</ele>
        <time>2020-08-05T14:35:27Z</time>
      </trkpt>
      <trkpt lat="42.47417" lon="2.17296">
        <ele>1850</ele>
        <time>2020-08-05T14:35:41Z</time>
      </trkpt>
      <trkpt lat="42.47385" lon="2.17357">
        <ele>1844</ele>
        <time>2020-08-05T14:36:08Z</time>
      </trkpt>
      <trkpt lat="42.47355" lon="2.17387">
        <ele>1844</ele>
        <time>2020-08-05T14:36:27Z</time>
      </trkpt>
      <trkpt lat="42.47328" lon="2.17407">
        <ele>1845</ele>
        <time>2020-08-05T14:36:43Z</time>
      </trkpt>
      <trkpt lat="42.47305" lon="2.17418">
        <ele>1844</ele>
        <time>2020-08-05T14:36:55Z</time>
      </trkpt>
      <trkpt lat="42.47275" lon="2.17425">
        <ele>1847</ele>
        <time>2020-08-05T14:37:10Z</time>
      </trkpt>
      <trkpt lat="42.4725" lon="2.17438">
        <ele>1846</ele>
        <time>2020-08-05T14:37:23Z</time>
      </trkpt>
      <trkpt lat="42.47221" lon="2.17462">
        <ele>1832</ele>
        <time>2020-08-05T14:37:40Z</time>
      </trkpt>
      <trkpt lat="42.47196" lon="2.17469">
        <ele>1827</ele>
        <time>2020-08-05T14:37:53Z</time>
      </trkpt>
      <trkpt lat="42.47148" lon="2.17445">
        <ele>1830</ele>
        <time>2020-08-05T14:38:19Z</time>
      </trkpt>
      <trkpt lat="42.47128" lon="2.17442">
        <ele>1829</ele>
        <time>2020-08-05T14:38:29Z</time>
      </trkpt>
      <trkpt lat="42.47071" lon="2.17462">
        <ele>1816</ele>
        <time>2020-08-05T14:38:58Z</time>
      </trkpt>
      <trkpt lat="42.46992" lon="2.17513">
        <ele>1800</ele>
        <time>2020-08-05T14:39:42Z</time>
      </trkpt>
      <trkpt lat="42.46912" lon="2.1755">
        <ele>1788</ele>
        <time>2020-08-05T14:40:24Z</time>
      </trkpt>
      <trkpt lat="42.46842" lon="2.17591">
        <ele>1785</ele>
        <time>2020-08-05T14:41:03Z</time>
      </trkpt>
      <trkpt lat="42.46777" lon="2.17635">
        <ele>1769</ele>
        <time>2020-08-05T14:41:39Z</time>
      </trkpt>
      <trkpt lat="42.4674" lon="2.17652">
        <ele>1763</ele>
        <time>2020-08-05T14:41:58Z</time>
      </trkpt>
      <trkpt lat="42.46638" lon="2.17662">
        <ele>1764</ele>
        <time>2020-08-05T14:42:50Z</time>
      </trkpt>
      <trkpt lat="42.46603" lon="2.17656">
        <ele>1768</ele>
        <time>2020-08-05T14:43:07Z</time>
      </trkpt>
      <trkpt lat="42.46523" lon="2.17635">
        <ele>1784</ele>
        <time>2020-08-05T14:43:48Z</time>
      </trkpt>
      <trkpt lat="42.46448" lon="2.17626">
        <ele>1786</ele>
        <time>2020-08-05T14:44:26Z</time>
      </trkpt>
      <trkpt lat="42.46383" lon="2.17596">
        <ele>1790</ele>
        <time>2020-08-05T14:45:00Z</time>
      </trkpt>
      <trkpt lat="42.46353" lon="2.17565">
        <ele>1797</ele>
        <time>2020-08-05T14:45:19Z</time>
      </trkpt>
      <trkpt lat="42.46326" lon="2.17532">
        <ele>1807</ele>
        <time>2020-08-05T14:45:37Z</time>
      </trkpt>
      <trkpt lat="42.46301" lon="2.17518">
        <ele>1810</ele>
        <time>2020-08-05T14:45:51Z</time>
      </trkpt>
      <trkpt lat="42.46271" lon="2.17511">
        <ele>1810</ele>
        <time>2020-08-05T14:46:06Z</time>
      </trkpt>
      <trkpt lat="42.46226" lon="2.17508">
        <ele>1809</ele>
        <time>2020-08-05T14:46:28Z</time>
      </trkpt>
      <trkpt lat="42.46176" lon="2.17511">
        <ele>1808</ele>
        <time>2020-08-05T14:46:54Z</time>
      </trkpt>
      <trkpt lat="42.46171" lon="2.17508">
        <ele>1808</ele>
        <time>2020-08-05T14:46:56Z</time>
      </trkpt>
      <trkpt lat="42.46105" lon="2.17495">
        <ele>1812</ele>
        <time>2020-08-05T14:47:30Z</time>
      </trkpt>
      <trkpt lat="42.46061" lon="2.17607">
        <ele>1810</ele>
        <time>2020-08-05T14:48:16Z</time>
      </trkpt>
      <trkpt lat="42.4609" lon="2.17622">
        <ele>1808</ele>
        <time>2020-08-05T14:48:32Z</time>
      </trkpt>
      <trkpt lat="42.46105" lon="2.17643">
        <ele>1808</ele>
        <time>2020-08-05T14:48:43Z</time>
      </trkpt>
      <trkpt lat="42.46122" lon="2.17648">
        <ele>1807</ele>
        <time>2020-08-05T14:48:52Z</time>
      </trkpt>
      <trkpt lat="42.46133" lon="2.17657">
        <ele>1806</ele>
        <time>2020-08-05T14:48:58Z</time>
      </trkpt>
      <trkpt lat="42.46151" lon="2.17678">
        <ele>1807</ele>
        <time>2020-08-05T14:49:10Z</time>
      </trkpt>
      <trkpt lat="42.46162" lon="2.17686">
        <ele>1808</ele>
        <time>2020-08-05T14:49:16Z</time>
      </trkpt>
      <trkpt lat="42.46278" lon="2.17721">
        <ele>1797</ele>
        <time>2020-08-05T14:50:16Z</time>
      </trkpt>
      <trkpt lat="42.46375" lon="2.17775">
        <ele>1785</ele>
        <time>2020-08-05T14:51:08Z</time>
      </trkpt>
      <trkpt lat="42.4641" lon="2.17787">
        <ele>1779</ele>
        <time>2020-08-05T14:51:26Z</time>
      </trkpt>
      <trkpt lat="42.46436" lon="2.1779">
        <ele>1775</ele>
        <time>2020-08-05T14:51:39Z</time>
      </trkpt>
      <trkpt lat="42.46457" lon="2.17813">
        <ele>1776</ele>
        <time>2020-08-05T14:51:53Z</time>
      </trkpt>
      <trkpt lat="42.46477" lon="2.17813">
        <ele>1772</ele>
        <time>2020-08-05T14:52:03Z</time>
      </trkpt>
      <trkpt lat="42.46486" lon="2.17826">
        <ele>1772</ele>
        <time>2020-08-05T14:52:09Z</time>
      </trkpt>
      <trkpt lat="42.4652" lon="2.17845">
        <ele>1770</ele>
        <time>2020-08-05T14:52:28Z</time>
      </trkpt>
      <trkpt lat="42.46524" lon="2.17844">
        <ele>1769</ele>
        <time>2020-08-05T14:52:30Z</time>
      </trkpt>
      <trkpt lat="42.46522" lon="2.1783">
        <ele>1765</ele>
        <time>2020-08-05T14:52:35Z</time>
      </trkpt>
      <trkpt lat="42.46527" lon="2.17828">
        <ele>1764</ele>
        <time>2020-08-05T14:52:38Z</time>
      </trkpt>
      <trkpt lat="42.46565" lon="2.17844">
        <ele>1760</ele>
        <time>2020-08-05T14:52:57Z</time>
      </trkpt>
      <trkpt lat="42.46578" lon="2.17846">
        <ele>1757</ele>
        <time>2020-08-05T14:53:04Z</time>
      </trkpt>
      <trkpt lat="42.46609" lon="2.17844">
        <ele>1753</ele>
        <time>2020-08-05T14:53:20Z</time>
      </trkpt>
      <trkpt lat="42.46653" lon="2.17837">
        <ele>1746</ele>
        <time>2020-08-05T14:53:42Z</time>
      </trkpt>
      <trkpt lat="42.46671" lon="2.17838">
        <ele>1745</ele>
        <time>2020-08-05T14:53:51Z</time>
      </trkpt>
      <trkpt lat="42.46715" lon="2.17846">
        <ele>1743</ele>
        <time>2020-08-05T14:54:13Z</time>
      </trkpt>
      <trkpt lat="42.4679" lon="2.17839">
        <ele>1731</ele>
        <time>2020-08-05T14:54:51Z</time>
      </trkpt>
      <trkpt lat="42.46821" lon="2.1784">
        <ele>1727</ele>
        <time>2020-08-05T14:55:06Z</time>
      </trkpt>
      <trkpt lat="42.46832" lon="2.17844">
        <ele>1726</ele>
        <time>2020-08-05T14:55:12Z</time>
      </trkpt>
      <trkpt lat="42.46859" lon="2.17888">
        <ele>1731</ele>
        <time>2020-08-05T14:55:33Z</time>
      </trkpt>
      <trkpt lat="42.46894" lon="2.17898">
        <ele>1725</ele>
        <time>2020-08-05T14:55:51Z</time>
      </trkpt>
      <trkpt lat="42.46924" lon="2.17912">
        <ele>1721</ele>
        <time>2020-08-05T14:56:07Z</time>
      </trkpt>
      <trkpt lat="42.46973" lon="2.17929">
        <ele>1711</ele>
        <time>2020-08-05T14:56:32Z</time>
      </trkpt>
      <trkpt lat="42.4703" lon="2.17971">
        <ele>1709</ele>
        <time>2020-08-05T14:57:04Z</time>
      </trkpt>
      <trkpt lat="42.47077" lon="2.17993">
        <ele>1703</ele>
        <time>2020-08-05T14:57:29Z</time>
      </trkpt>
      <trkpt lat="42.47087" lon="2.18">
        <ele>1702</ele>
        <time>2020-08-05T14:57:35Z</time>
      </trkpt>
      <trkpt lat="42.47089" lon="2.18012">
        <ele>1706</ele>
        <time>2020-08-05T14:57:40Z</time>
      </trkpt>
      <trkpt lat="42.47094" lon="2.18023">
        <ele>1710</ele>
        <time>2020-08-05T14:57:44Z</time>
      </trkpt>
      <trkpt lat="42.47103" lon="2.18028">
        <ele>1710</ele>
        <time>2020-08-05T14:57:49Z</time>
      </trkpt>
      <trkpt lat="42.47128" lon="2.1802">
        <ele>1703</ele>
        <time>2020-08-05T14:58:02Z</time>
      </trkpt>
      <trkpt lat="42.47141" lon="2.18019">
        <ele>1701</ele>
        <time>2020-08-05T14:58:09Z</time>
      </trkpt>
      <trkpt lat="42.47154" lon="2.18027">
        <ele>1701</ele>
        <time>2020-08-05T14:58:16Z</time>
      </trkpt>
      <trkpt lat="42.47198" lon="2.18035">
        <ele>1696</ele>
        <time>2020-08-05T14:58:38Z</time>
      </trkpt>
      <trkpt lat="42.47206" lon="2.1804">
        <ele>1696</ele>
        <time>2020-08-05T14:58:42Z</time>
      </trkpt>
      <trkpt lat="42.47218" lon="2.18059">
        <ele>1700</ele>
        <time>2020-08-05T14:58:52Z</time>
      </trkpt>
      <trkpt lat="42.47226" lon="2.18063">
        <ele>1700</ele>
        <time>2020-08-05T14:58:56Z</time>
      </trkpt>
      <trkpt lat="42.47262" lon="2.18062">
        <ele>1692</ele>
        <time>2020-08-05T14:59:14Z</time>
      </trkpt>
      <trkpt lat="42.47274" lon="2.18066">
        <ele>1691</ele>
        <time>2020-08-05T14:59:20Z</time>
      </trkpt>
      <trkpt lat="42.47283" lon="2.18072">
        <ele>1691</ele>
        <time>2020-08-05T14:59:25Z</time>
      </trkpt>
      <trkpt lat="42.47304" lon="2.18091">
        <ele>1693</ele>
        <time>2020-08-05T14:59:38Z</time>
      </trkpt>
      <trkpt lat="42.47347" lon="2.18105">
        <ele>1690</ele>
        <time>2020-08-05T15:00:00Z</time>
      </trkpt>
      <trkpt lat="42.47374" lon="2.18111">
        <ele>1689</ele>
        <time>2020-08-05T15:00:13Z</time>
      </trkpt>
      <trkpt lat="42.47533" lon="2.18111">
        <ele>1670</ele>
        <time>2020-08-05T15:01:33Z</time>
      </trkpt>
      <trkpt lat="42.47537" lon="2.18122">
        <ele>1674</ele>
        <time>2020-08-05T15:01:38Z</time>
      </trkpt>
      <trkpt lat="42.47549" lon="2.18122">
        <ele>1673</ele>
        <time>2020-08-05T15:01:44Z</time>
      </trkpt>
      <trkpt lat="42.4757" lon="2.18129">
        <ele>1673</ele>
        <time>2020-08-05T15:01:54Z</time>
      </trkpt>
      <trkpt lat="42.4763" lon="2.18166">
        <ele>1678</ele>
        <time>2020-08-05T15:02:27Z</time>
      </trkpt>
      <trkpt lat="42.47634" lon="2.18172">
        <ele>1679</ele>
        <time>2020-08-05T15:02:30Z</time>
      </trkpt>
      <trkpt lat="42.47633" lon="2.18178">
        <ele>1680</ele>
        <time>2020-08-05T15:02:33Z</time>
      </trkpt>
      <trkpt lat="42.47621" lon="2.18194">
        <ele>1684</ele>
        <time>2020-08-05T15:02:41Z</time>
      </trkpt>
      <trkpt lat="42.47619" lon="2.18203">
        <ele>1686</ele>
        <time>2020-08-05T15:02:45Z</time>
      </trkpt>
      <trkpt lat="42.47588" lon="2.1822">
        <ele>1690</ele>
        <time>2020-08-05T15:03:01Z</time>
      </trkpt>
      <trkpt lat="42.47561" lon="2.18249">
        <ele>1696</ele>
        <time>2020-08-05T15:03:18Z</time>
      </trkpt>
      <trkpt lat="42.47557" lon="2.18256">
        <ele>1697</ele>
        <time>2020-08-05T15:03:22Z</time>
      </trkpt>
      <trkpt lat="42.47556" lon="2.18266">
        <ele>1698</ele>
        <time>2020-08-05T15:03:25Z</time>
      </trkpt>
      <trkpt lat="42.47559" lon="2.18294">
        <ele>1701</ele>
        <time>2020-08-05T15:03:36Z</time>
      </trkpt>
      <trkpt lat="42.47542" lon="2.1833">
        <ele>1706</ele>
        <time>2020-08-05T15:03:52Z</time>
      </trkpt>
      <trkpt lat="42.47546" lon="2.18348">
        <ele>1711</ele>
        <time>2020-08-05T15:03:59Z</time>
      </trkpt>
      <trkpt lat="42.47545" lon="2.18354">
        <ele>1712</ele>
        <time>2020-08-05T15:04:01Z</time>
      </trkpt>
      <trkpt lat="42.47539" lon="2.18363">
        <ele>1714</ele>
        <time>2020-08-05T15:04:05Z</time>
      </trkpt>
      <trkpt lat="42.47537" lon="2.18388">
        <ele>1721</ele>
        <time>2020-08-05T15:04:15Z</time>
      </trkpt>
      <trkpt lat="42.47531" lon="2.18411">
        <ele>1726</ele>
        <time>2020-08-05T15:04:24Z</time>
      </trkpt>
      <trkpt lat="42.47532" lon="2.1843">
        <ele>1731</ele>
        <time>2020-08-05T15:04:31Z</time>
      </trkpt>
      <trkpt lat="42.47527" lon="2.1845">
        <ele>1736</ele>
        <time>2020-08-05T15:04:39Z</time>
      </trkpt>
      <trkpt lat="42.47514" lon="2.18484">
        <ele>1743</ele>
        <time>2020-08-05T15:04:53Z</time>
      </trkpt>
      <trkpt lat="42.47488" lon="2.18536">
        <ele>1757</ele>
        <time>2020-08-05T15:05:16Z</time>
      </trkpt>
      <trkpt lat="42.47485" lon="2.18573">
        <ele>1768</ele>
        <time>2020-08-05T15:05:30Z</time>
      </trkpt>
      <trkpt lat="42.47488" lon="2.186">
        <ele>1775</ele>
        <time>2020-08-05T15:05:40Z</time>
      </trkpt>
      <trkpt lat="42.4748" lon="2.18644">
        <ele>1790</ele>
        <time>2020-08-05T15:05:56Z</time>
      </trkpt>
      <trkpt lat="42.47478" lon="2.18674">
        <ele>1800</ele>
        <time>2020-08-05T15:06:07Z</time>
      </trkpt>
      <trkpt lat="42.47466" lon="2.18704">
        <ele>1811</ele>
        <time>2020-08-05T15:06:20Z</time>
      </trkpt>
      <trkpt lat="42.47458" lon="2.18732">
        <ele>1821</ele>
        <time>2020-08-05T15:06:31Z</time>
      </trkpt>
      <trkpt lat="42.47459" lon="2.18745">
        <ele>1825</ele>
        <time>2020-08-05T15:06:36Z</time>
      </trkpt>
      <trkpt lat="42.47464" lon="2.18758">
        <ele>1829</ele>
        <time>2020-08-05T15:06:41Z</time>
      </trkpt>
      <trkpt lat="42.47464" lon="2.18772">
        <ele>1833</ele>
        <time>2020-08-05T15:06:47Z</time>
      </trkpt>
      <trkpt lat="42.47473" lon="2.18779">
        <ele>1835</ele>
        <time>2020-08-05T15:06:52Z</time>
      </trkpt>
      <trkpt lat="42.47472" lon="2.18788">
        <ele>1837</ele>
        <time>2020-08-05T15:06:55Z</time>
      </trkpt>
      <trkpt lat="42.47496" lon="2.18793">
        <ele>1840</ele>
        <time>2020-08-05T15:07:07Z</time>
      </trkpt>
      <trkpt lat="42.47496" lon="2.18803">
        <ele>1844</ele>
        <time>2020-08-05T15:07:11Z</time>
      </trkpt>
      <trkpt lat="42.47502" lon="2.188">
        <ele>1844</ele>
        <time>2020-08-05T15:07:14Z</time>
      </trkpt>
      <trkpt lat="42.47505" lon="2.18803">
        <ele>1846</ele>
        <time>2020-08-05T15:07:16Z</time>
      </trkpt>
      <trkpt lat="42.47506" lon="2.18818">
        <ele>1852</ele>
        <time>2020-08-05T15:07:22Z</time>
      </trkpt>
      <trkpt lat="42.4751" lon="2.18822">
        <ele>1855</ele>
        <time>2020-08-05T15:07:24Z</time>
      </trkpt>
      <trkpt lat="42.47515" lon="2.18822">
        <ele>1857</ele>
        <time>2020-08-05T15:07:27Z</time>
      </trkpt>
      <trkpt lat="42.47522" lon="2.18837">
        <ele>1865</ele>
        <time>2020-08-05T15:07:33Z</time>
      </trkpt>
      <trkpt lat="42.47528" lon="2.18828">
        <ele>1864</ele>
        <time>2020-08-05T15:07:38Z</time>
      </trkpt>
      <trkpt lat="42.4753" lon="2.18839">
        <ele>1868</ele>
        <time>2020-08-05T15:07:42Z</time>
      </trkpt>
      <trkpt lat="42.47541" lon="2.18829">
        <ele>1869</ele>
        <time>2020-08-05T15:07:48Z</time>
      </trkpt>
      <trkpt lat="42.47543" lon="2.18838">
        <ele>1873</ele>
        <time>2020-08-05T15:07:52Z</time>
      </trkpt>
      <trkpt lat="42.47548" lon="2.18839">
        <ele>1875</ele>
        <time>2020-08-05T15:07:54Z</time>
      </trkpt>
      <trkpt lat="42.47559" lon="2.18835">
        <ele>1878</ele>
        <time>2020-08-05T15:08:00Z</time>
      </trkpt>
      <trkpt lat="42.47566" lon="2.18841">
        <ele>1882</ele>
        <time>2020-08-05T15:08:04Z</time>
      </trkpt>
      <trkpt lat="42.47573" lon="2.18826">
        <ele>1880</ele>
        <time>2020-08-05T15:08:11Z</time>
      </trkpt>
      <trkpt lat="42.4759" lon="2.18819">
        <ele>1880</ele>
        <time>2020-08-05T15:08:20Z</time>
      </trkpt>
      <trkpt lat="42.47603" lon="2.18826">
        <ele>1879</ele>
        <time>2020-08-05T15:08:27Z</time>
      </trkpt>
      <trkpt lat="42.4762" lon="2.18883">
        <ele>1892</ele>
        <time>2020-08-05T15:08:49Z</time>
      </trkpt>
      <trkpt lat="42.4763" lon="2.18927">
        <ele>1902</ele>
        <time>2020-08-05T15:09:06Z</time>
      </trkpt>
      <trkpt lat="42.4764" lon="2.19006">
        <ele>1919</ele>
        <time>2020-08-05T15:09:36Z</time>
      </trkpt>
      <trkpt lat="42.47662" lon="2.19074">
        <ele>1931</ele>
        <time>2020-08-05T15:10:03Z</time>
      </trkpt>
      <trkpt lat="42.47666" lon="2.1908">
        <ele>1931</ele>
        <time>2020-08-05T15:10:06Z</time>
      </trkpt>
      <trkpt lat="42.47667" lon="2.19095">
        <ele>1936</ele>
        <time>2020-08-05T15:10:12Z</time>
      </trkpt>
      <trkpt lat="42.47675" lon="2.19102">
        <ele>1934</ele>
        <time>2020-08-05T15:10:17Z</time>
      </trkpt>
      <trkpt lat="42.47675" lon="2.19122">
        <ele>1940</ele>
        <time>2020-08-05T15:10:24Z</time>
      </trkpt>
      <trkpt lat="42.47682" lon="2.19141">
        <ele>1943</ele>
        <time>2020-08-05T15:10:32Z</time>
      </trkpt>
      <trkpt lat="42.4769" lon="2.19148">
        <ele>1942</ele>
        <time>2020-08-05T15:10:37Z</time>
      </trkpt>
      <trkpt lat="42.47691" lon="2.19156">
        <ele>1944</ele>
        <time>2020-08-05T15:10:40Z</time>
      </trkpt>
      <trkpt lat="42.47696" lon="2.19158">
        <ele>1943</ele>
        <time>2020-08-05T15:10:42Z</time>
      </trkpt>
      <trkpt lat="42.47703" lon="2.19177">
        <ele>1947</ele>
        <time>2020-08-05T15:10:50Z</time>
      </trkpt>
      <trkpt lat="42.47713" lon="2.19173">
        <ele>1941</ele>
        <time>2020-08-05T15:10:55Z</time>
      </trkpt>
      <trkpt lat="42.47815" lon="2.19231">
        <ele>1942</ele>
        <time>2020-08-05T15:11:51Z</time>
      </trkpt>
      <trkpt lat="42.47882" lon="2.19285">
        <ele>1961</ele>
        <time>2020-08-05T15:12:30Z</time>
      </trkpt>
      <trkpt lat="42.47907" lon="2.19315">
        <ele>1972</ele>
        <time>2020-08-05T15:12:46Z</time>
      </trkpt>
      <trkpt lat="42.47925" lon="2.1935">
        <ele>1982</ele>
        <time>2020-08-05T15:13:02Z</time>
      </trkpt>
      <trkpt lat="42.47927" lon="2.19401">
        <ele>1990</ele>
        <time>2020-08-05T15:13:21Z</time>
      </trkpt>
      <trkpt lat="42.47911" lon="2.19453">
        <ele>1998</ele>
        <time>2020-08-05T15:13:42Z</time>
      </trkpt>
      <trkpt lat="42.47849" lon="2.19575">
        <ele>2028</ele>
        <time>2020-08-05T15:14:36Z</time>
      </trkpt>
      <trkpt lat="42.47842" lon="2.19625">
        <ele>2030</ele>
        <time>2020-08-05T15:14:55Z</time>
      </trkpt>
      <trkpt lat="42.47835" lon="2.19652">
        <ele>2033</ele>
        <time>2020-08-05T15:15:06Z</time>
      </trkpt>
      <trkpt lat="42.47835" lon="2.19698">
        <ele>2037</ele>
        <time>2020-08-05T15:15:23Z</time>
      </trkpt>
      <trkpt lat="42.47809" lon="2.19783">
        <ele>2055</ele>
        <time>2020-08-05T15:15:57Z</time>
      </trkpt>
      <trkpt lat="42.47808" lon="2.19817">
        <ele>2057</ele>
        <time>2020-08-05T15:16:09Z</time>
      </trkpt>
      <trkpt lat="42.47785" lon="2.19841">
        <ele>2060</ele>
        <time>2020-08-05T15:16:24Z</time>
      </trkpt>
      <trkpt lat="42.47744" lon="2.19857">
        <ele>2065</ele>
        <time>2020-08-05T15:16:45Z</time>
      </trkpt>
      <trkpt lat="42.47725" lon="2.19869">
        <ele>2070</ele>
        <time>2020-08-05T15:16:56Z</time>
      </trkpt>
      <trkpt lat="42.47691" lon="2.19903">
        <ele>2075</ele>
        <time>2020-08-05T15:17:17Z</time>
      </trkpt>
      <trkpt lat="42.47609" lon="2.19992">
        <ele>2086</ele>
        <time>2020-08-05T15:18:09Z</time>
      </trkpt>
      <trkpt lat="42.4759" lon="2.20035">
        <ele>2088</ele>
        <time>2020-08-05T15:18:28Z</time>
      </trkpt>
      <trkpt lat="42.47579" lon="2.20083">
        <ele>2085</ele>
        <time>2020-08-05T15:18:46Z</time>
      </trkpt>
      <trkpt lat="42.47576" lon="2.20109">
        <ele>2088</ele>
        <time>2020-08-05T15:18:56Z</time>
      </trkpt>
      <trkpt lat="42.47576" lon="2.20136">
        <ele>2089</ele>
        <time>2020-08-05T15:19:06Z</time>
      </trkpt>
      <trkpt lat="42.47547" lon="2.20264">
        <ele>2122</ele>
        <time>2020-08-05T15:19:56Z</time>
      </trkpt>
      <trkpt lat="42.47509" lon="2.2037">
        <ele>2153</ele>
        <time>2020-08-05T15:20:39Z</time>
      </trkpt>
      <trkpt lat="42.47487" lon="2.2041">
        <ele>2167</ele>
        <time>2020-08-05T15:20:57Z</time>
      </trkpt>
      <trkpt lat="42.47479" lon="2.20416">
        <ele>2171</ele>
        <time>2020-08-05T15:21:02Z</time>
      </trkpt>
      <trkpt lat="42.47471" lon="2.20442">
        <ele>2179</ele>
        <time>2020-08-05T15:21:12Z</time>
      </trkpt>
      <trkpt lat="42.47474" lon="2.20456">
        <ele>2179</ele>
        <time>2020-08-05T15:21:18Z</time>
      </trkpt>
      <trkpt lat="42.47472" lon="2.2046">
        <ele>2181</ele>
        <time>2020-08-05T15:21:20Z</time>
      </trkpt>
      <trkpt lat="42.47464" lon="2.20464">
        <ele>2184</ele>
        <time>2020-08-05T15:21:24Z</time>
      </trkpt>
      <trkpt lat="42.47459" lon="2.20478">
        <ele>2187</ele>
        <time>2020-08-05T15:21:30Z</time>
      </trkpt>
      <trkpt lat="42.47457" lon="2.20492">
        <ele>2189</ele>
        <time>2020-08-05T15:21:35Z</time>
      </trkpt>
      <trkpt lat="42.47461" lon="2.20494">
        <ele>2188</ele>
        <time>2020-08-05T15:21:37Z</time>
      </trkpt>
      <trkpt lat="42.47477" lon="2.20492">
        <ele>2184</ele>
        <time>2020-08-05T15:21:45Z</time>
      </trkpt>
      <trkpt lat="42.47487" lon="2.20495">
        <ele>2181</ele>
        <time>2020-08-05T15:21:50Z</time>
      </trkpt>
      <trkpt lat="42.47472" lon="2.20546">
        <ele>2197</ele>
        <time>2020-08-05T15:22:10Z</time>
      </trkpt>
      <trkpt lat="42.47473" lon="2.20572">
        <ele>2203</ele>
        <time>2020-08-05T15:22:20Z</time>
      </trkpt>
      <trkpt lat="42.47467" lon="2.20609">
        <ele>2213</ele>
        <time>2020-08-05T15:22:34Z</time>
      </trkpt>
      <trkpt lat="42.47456" lon="2.20634">
        <ele>2220</ele>
        <time>2020-08-05T15:22:45Z</time>
      </trkpt>
      <trkpt lat="42.4744" lon="2.20644">
        <ele>2224</ele>
        <time>2020-08-05T15:22:54Z</time>
      </trkpt>
      <trkpt lat="42.47425" lon="2.20661">
        <ele>2228</ele>
        <time>2020-08-05T15:23:03Z</time>
      </trkpt>
      <trkpt lat="42.47407" lon="2.20712">
        <ele>2243</ele>
        <time>2020-08-05T15:23:24Z</time>
      </trkpt>
      <trkpt lat="42.47385" lon="2.2076">
        <ele>2257</ele>
        <time>2020-08-05T15:23:45Z</time>
      </trkpt>
      <trkpt lat="42.47371" lon="2.20783">
        <ele>2264</ele>
        <time>2020-08-05T15:23:56Z</time>
      </trkpt>
      <trkpt lat="42.47349" lon="2.20792">
        <ele>2267</ele>
        <time>2020-08-05T15:24:08Z</time>
      </trkpt>
      <trkpt lat="42.47327" lon="2.20807">
        <ele>2273</ele>
        <time>2020-08-05T15:24:20Z</time>
      </trkpt>
      <trkpt lat="42.4729" lon="2.2088">
        <ele>2296</ele>
        <time>2020-08-05T15:24:53Z</time>
      </trkpt>
      <trkpt lat="42.47268" lon="2.20898">
        <ele>2302</ele>
        <time>2020-08-05T15:25:05Z</time>
      </trkpt>
      <trkpt lat="42.47214" lon="2.20914">
        <ele>2321</ele>
        <time>2020-08-05T15:25:33Z</time>
      </trkpt>
      <trkpt lat="42.47199" lon="2.20927">
        <ele>2328</ele>
        <time>2020-08-05T15:25:42Z</time>
      </trkpt>
      <trkpt lat="42.47204" lon="2.20973">
        <ele>2328</ele>
        <time>2020-08-05T15:25:59Z</time>
      </trkpt>
      <trkpt lat="42.47246" lon="2.21072">
        <ele>2337</ele>
        <time>2020-08-05T15:26:41Z</time>
      </trkpt>
      <trkpt lat="42.47318" lon="2.21111">
        <ele>2349</ele>
        <time>2020-08-05T15:27:20Z</time>
      </trkpt>
      <trkpt lat="42.47286" lon="2.21138">
        <ele>2355</ele>
        <time>2020-08-05T15:27:39Z</time>
      </trkpt>
      <trkpt lat="42.47243" lon="2.21195">
        <ele>2362</ele>
        <time>2020-08-05T15:28:09Z</time>
      </trkpt>
      <trkpt lat="42.47215" lon="2.2127">
        <ele>2365</ele>
        <time>2020-08-05T15:28:40Z</time>
      </trkpt>
      <trkpt lat="42.47231" lon="2.2129">
        <ele>2365</ele>
        <time>2020-08-05T15:28:51Z</time>
      </trkpt>
      <trkpt lat="42.47274" lon="2.21296">
        <ele>2372</ele>
        <time>2020-08-05T15:29:13Z</time>
      </trkpt>
      <trkpt lat="42.47289" lon="2.21315">
        <ele>2375</ele>
        <time>2020-08-05T15:29:23Z</time>
      </trkpt>
      <trkpt lat="42.47322" lon="2.21332">
        <ele>2384</ele>
        <time>2020-08-05T15:29:41Z</time>
      </trkpt>
      <trkpt lat="42.47357" lon="2.21513">
        <ele>2359</ele>
        <time>2020-08-05T15:30:50Z</time>
      </trkpt>
      <trkpt lat="42.47306" lon="2.21424">
        <ele>2350</ele>
        <time>2020-08-05T15:31:31Z</time>
      </trkpt>
      <trkpt lat="42.47212" lon="2.21392">
        <ele>2331</ele>
        <time>2020-08-05T15:32:20Z</time>
      </trkpt>
      <trkpt lat="42.47122" lon="2.21398">
        <ele>2311</ele>
        <time>2020-08-05T15:33:05Z</time>
      </trkpt>
      <trkpt lat="42.47052" lon="2.21445">
        <ele>2276</ele>
        <time>2020-08-05T15:33:44Z</time>
      </trkpt>
      <trkpt lat="42.47131" lon="2.21445">
        <ele>2293</ele>
        <time>2020-08-05T15:34:23Z</time>
      </trkpt>
      <trkpt lat="42.47198" lon="2.21493">
        <ele>2287</ele>
        <time>2020-08-05T15:35:01Z</time>
      </trkpt>
      <trkpt lat="42.47219" lon="2.21556">
        <ele>2277</ele>
        <time>2020-08-05T15:35:27Z</time>
      </trkpt>
      <trkpt lat="42.47151" lon="2.21519">
        <ele>2265</ele>
        <time>2020-08-05T15:36:04Z</time>
      </trkpt>
      <trkpt lat="42.47087" lon="2.21541">
        <ele>2249</ele>
        <time>2020-08-05T15:36:37Z</time>
      </trkpt>
      <trkpt lat="42.47013" lon="2.21592">
        <ele>2226</ele>
        <time>2020-08-05T15:37:18Z</time>
      </trkpt>
      <trkpt lat="42.46965" lon="2.216">
        <ele>2210</ele>
        <time>2020-08-05T15:37:42Z</time>
      </trkpt>
      <trkpt lat="42.46949" lon="2.21557">
        <ele>2212</ele>
        <time>2020-08-05T15:38:00Z</time>
      </trkpt>
      <trkpt lat="42.46952" lon="2.21638">
        <ele>2197</ele>
        <time>2020-08-05T15:38:30Z</time>
      </trkpt>
      <trkpt lat="42.46994" lon="2.21657">
        <ele>2201</ele>
        <time>2020-08-05T15:38:52Z</time>
      </trkpt>
      <trkpt lat="42.47034" lon="2.21652">
        <ele>2205</ele>
        <time>2020-08-05T15:39:12Z</time>
      </trkpt>
      <trkpt lat="42.47034" lon="2.21649">
        <ele>2206</ele>
        <time>2020-08-05T15:39:13Z</time>
      </trkpt>
      <trkpt lat="42.4706" lon="2.21648">
        <ele>2206</ele>
        <time>2020-08-05T15:39:26Z</time>
      </trkpt>
      <trkpt lat="42.47069" lon="2.21654">
        <ele>2204</ele>
        <time>2020-08-05T15:39:32Z</time>
      </trkpt>
      <trkpt lat="42.47074" lon="2.21667">
        <ele>2200</ele>
        <time>2020-08-05T15:39:37Z</time>
      </trkpt>
      <trkpt lat="42.47072" lon="2.21671">
        <ele>2199</ele>
        <time>2020-08-05T15:39:39Z</time>
      </trkpt>
      <trkpt lat="42.47067" lon="2.21667">
        <ele>2200</ele>
        <time>2020-08-05T15:39:42Z</time>
      </trkpt>
      <trkpt lat="42.47059" lon="2.21667">
        <ele>2200</ele>
        <time>2020-08-05T15:39:46Z</time>
      </trkpt>
      <trkpt lat="42.47045" lon="2.21676">
        <ele>2196</ele>
        <time>2020-08-05T15:39:53Z</time>
      </trkpt>
      <trkpt lat="42.46957" lon="2.21763">
        <ele>2155</ele>
        <time>2020-08-05T15:40:48Z</time>
      </trkpt>
      <trkpt lat="42.46925" lon="2.21766">
        <ele>2152</ele>
        <time>2020-08-05T15:41:04Z</time>
      </trkpt>
      <trkpt lat="42.46894" lon="2.21721">
        <ele>2164</ele>
        <time>2020-08-05T15:41:27Z</time>
      </trkpt>
      <trkpt lat="42.46874" lon="2.21718">
        <ele>2163</ele>
        <time>2020-08-05T15:41:37Z</time>
      </trkpt>
      <trkpt lat="42.46934" lon="2.21824">
        <ele>2138</ele>
        <time>2020-08-05T15:42:26Z</time>
      </trkpt>
      <trkpt lat="42.46953" lon="2.21882">
        <ele>2128</ele>
        <time>2020-08-05T15:42:49Z</time>
      </trkpt>
      <trkpt lat="42.4694" lon="2.21963">
        <ele>2114</ele>
        <time>2020-08-05T15:43:20Z</time>
      </trkpt>
      <trkpt lat="42.46977" lon="2.2194">
        <ele>2117</ele>
        <time>2020-08-05T15:43:40Z</time>
      </trkpt>
      <trkpt lat="42.46979" lon="2.21968">
        <ele>2112</ele>
        <time>2020-08-05T15:43:51Z</time>
      </trkpt>
      <trkpt lat="42.46978" lon="2.22017">
        <ele>2101</ele>
        <time>2020-08-05T15:44:09Z</time>
      </trkpt>
      <trkpt lat="42.46973" lon="2.22046">
        <ele>2094</ele>
        <time>2020-08-05T15:44:20Z</time>
      </trkpt>
      <trkpt lat="42.46962" lon="2.2208">
        <ele>2085</ele>
        <time>2020-08-05T15:44:34Z</time>
      </trkpt>
      <trkpt lat="42.46964" lon="2.22088">
        <ele>2083</ele>
        <time>2020-08-05T15:44:37Z</time>
      </trkpt>
      <trkpt lat="42.46957" lon="2.22099">
        <ele>2080</ele>
        <time>2020-08-05T15:44:42Z</time>
      </trkpt>
      <trkpt lat="42.46933" lon="2.22152">
        <ele>2058</ele>
        <time>2020-08-05T15:45:05Z</time>
      </trkpt>
      <trkpt lat="42.46925" lon="2.22162">
        <ele>2052</ele>
        <time>2020-08-05T15:45:10Z</time>
      </trkpt>
      <trkpt lat="42.46908" lon="2.22202">
        <ele>2035</ele>
        <time>2020-08-05T15:45:28Z</time>
      </trkpt>
      <trkpt lat="42.46905" lon="2.22224">
        <ele>2027</ele>
        <time>2020-08-05T15:45:36Z</time>
      </trkpt>
      <trkpt lat="42.46899" lon="2.22224">
        <ele>2026</ele>
        <time>2020-08-05T15:45:39Z</time>
      </trkpt>
      <trkpt lat="42.46894" lon="2.22259">
        <ele>2013</ele>
        <time>2020-08-05T15:45:52Z</time>
      </trkpt>
      <trkpt lat="42.46864" lon="2.22286">
        <ele>2000</ele>
        <time>2020-08-05T15:46:10Z</time>
      </trkpt>
      <trkpt lat="42.46855" lon="2.22306">
        <ele>1992</ele>
        <time>2020-08-05T15:46:19Z</time>
      </trkpt>
      <trkpt lat="42.46869" lon="2.2234">
        <ele>1987</ele>
        <time>2020-08-05T15:46:33Z</time>
      </trkpt>
      <trkpt lat="42.46857" lon="2.22377">
        <ele>1975</ele>
        <time>2020-08-05T15:46:48Z</time>
      </trkpt>
      <trkpt lat="42.46848" lon="2.22417">
        <ele>1963</ele>
        <time>2020-08-05T15:47:03Z</time>
      </trkpt>
      <trkpt lat="42.46856" lon="2.2243">
        <ele>1963</ele>
        <time>2020-08-05T15:47:10Z</time>
      </trkpt>
      <trkpt lat="42.46866" lon="2.22439">
        <ele>1964</ele>
        <time>2020-08-05T15:47:16Z</time>
      </trkpt>
      <trkpt lat="42.46867" lon="2.22455">
        <ele>1960</ele>
        <time>2020-08-05T15:47:22Z</time>
      </trkpt>
      <trkpt lat="42.46864" lon="2.22457">
        <ele>1959</ele>
        <time>2020-08-05T15:47:23Z</time>
      </trkpt>
      <trkpt lat="42.46865" lon="2.22471">
        <ele>1956</ele>
        <time>2020-08-05T15:47:28Z</time>
      </trkpt>
      <trkpt lat="42.46859" lon="2.22476">
        <ele>1953</ele>
        <time>2020-08-05T15:47:32Z</time>
      </trkpt>
      <trkpt lat="42.46859" lon="2.2248">
        <ele>1952</ele>
        <time>2020-08-05T15:47:33Z</time>
      </trkpt>
      <trkpt lat="42.46847" lon="2.22498">
        <ele>1943</ele>
        <time>2020-08-05T15:47:42Z</time>
      </trkpt>
      <trkpt lat="42.46844" lon="2.22511">
        <ele>1940</ele>
        <time>2020-08-05T15:47:47Z</time>
      </trkpt>
      <trkpt lat="42.46827" lon="2.22528">
        <ele>1931</ele>
        <time>2020-08-05T15:47:58Z</time>
      </trkpt>
      <trkpt lat="42.4682" lon="2.22542">
        <ele>1926</ele>
        <time>2020-08-05T15:48:04Z</time>
      </trkpt>
      <trkpt lat="42.46812" lon="2.22546">
        <ele>1922</ele>
        <time>2020-08-05T15:48:08Z</time>
      </trkpt>
      <trkpt lat="42.46814" lon="2.22548">
        <ele>1922</ele>
        <time>2020-08-05T15:48:10Z</time>
      </trkpt>
      <trkpt lat="42.46786" lon="2.22575">
        <ele>1906</ele>
        <time>2020-08-05T15:48:27Z</time>
      </trkpt>
      <trkpt lat="42.46779" lon="2.22577">
        <ele>1903</ele>
        <time>2020-08-05T15:48:30Z</time>
      </trkpt>
      <trkpt lat="42.46775" lon="2.22587">
        <ele>1899</ele>
        <time>2020-08-05T15:48:35Z</time>
      </trkpt>
      <trkpt lat="42.46752" lon="2.22611">
        <ele>1884</ele>
        <time>2020-08-05T15:48:49Z</time>
      </trkpt>
      <trkpt lat="42.4674" lon="2.22613">
        <ele>1879</ele>
        <time>2020-08-05T15:48:55Z</time>
      </trkpt>
      <trkpt lat="42.46733" lon="2.22611">
        <ele>1877</ele>
        <time>2020-08-05T15:48:59Z</time>
      </trkpt>
      <trkpt lat="42.46721" lon="2.22595">
        <ele>1875</ele>
        <time>2020-08-05T15:49:07Z</time>
      </trkpt>
      <trkpt lat="42.46713" lon="2.22595">
        <ele>1871</ele>
        <time>2020-08-05T15:49:11Z</time>
      </trkpt>
      <trkpt lat="42.46717" lon="2.2259">
        <ele>1874</ele>
        <time>2020-08-05T15:49:14Z</time>
      </trkpt>
      <trkpt lat="42.46704" lon="2.22569">
        <ele>1873</ele>
        <time>2020-08-05T15:49:24Z</time>
      </trkpt>
      <trkpt lat="42.46687" lon="2.2255">
        <ele>1869</ele>
        <time>2020-08-05T15:49:35Z</time>
      </trkpt>
      <trkpt lat="42.46663" lon="2.22538">
        <ele>1861</ele>
        <time>2020-08-05T15:49:48Z</time>
      </trkpt>
      <trkpt lat="42.46649" lon="2.22517">
        <ele>1861</ele>
        <time>2020-08-05T15:49:58Z</time>
      </trkpt>
      <trkpt lat="42.46638" lon="2.22505">
        <ele>1859</ele>
        <time>2020-08-05T15:50:05Z</time>
      </trkpt>
      <trkpt lat="42.46607" lon="2.22488">
        <ele>1852</ele>
        <time>2020-08-05T15:50:22Z</time>
      </trkpt>
      <trkpt lat="42.46592" lon="2.22472">
        <ele>1850</ele>
        <time>2020-08-05T15:50:32Z</time>
      </trkpt>
      <trkpt lat="42.46582" lon="2.22472">
        <ele>1846</ele>
        <time>2020-08-05T15:50:37Z</time>
      </trkpt>
      <trkpt lat="42.4658" lon="2.22479">
        <ele>1844</ele>
        <time>2020-08-05T15:50:40Z</time>
      </trkpt>
      <trkpt lat="42.46582" lon="2.22488">
        <ele>1843</ele>
        <time>2020-08-05T15:50:43Z</time>
      </trkpt>
      <trkpt lat="42.46581" lon="2.22499">
        <ele>1841</ele>
        <time>2020-08-05T15:50:47Z</time>
      </trkpt>
      <trkpt lat="42.46577" lon="2.22505">
        <ele>1839</ele>
        <time>2020-08-05T15:50:50Z</time>
      </trkpt>
      <trkpt lat="42.46573" lon="2.22506">
        <ele>1838</ele>
        <time>2020-08-05T15:50:52Z</time>
      </trkpt>
      <trkpt lat="42.46545" lon="2.22486">
        <ele>1836</ele>
        <time>2020-08-05T15:51:08Z</time>
      </trkpt>
      <trkpt lat="42.46499" lon="2.22436">
        <ele>1833</ele>
        <time>2020-08-05T15:51:37Z</time>
      </trkpt>
      <trkpt lat="42.46491" lon="2.22411">
        <ele>1835</ele>
        <time>2020-08-05T15:51:47Z</time>
      </trkpt>
      <trkpt lat="42.46479" lon="2.2239">
        <ele>1838</ele>
        <time>2020-08-05T15:51:57Z</time>
      </trkpt>
      <trkpt lat="42.4645" lon="2.2235">
        <ele>1840</ele>
        <time>2020-08-05T15:52:18Z</time>
      </trkpt>
      <trkpt lat="42.46425" lon="2.22346">
        <ele>1839</ele>
        <time>2020-08-05T15:52:31Z</time>
      </trkpt>
      <trkpt lat="42.46419" lon="2.2233">
        <ele>1839</ele>
        <time>2020-08-05T15:52:37Z</time>
      </trkpt>
      <trkpt lat="42.46412" lon="2.22319">
        <ele>1840</ele>
        <time>2020-08-05T15:52:43Z</time>
      </trkpt>
      <trkpt lat="42.46402" lon="2.22318">
        <ele>1841</ele>
        <time>2020-08-05T15:52:48Z</time>
      </trkpt>
      <trkpt lat="42.46395" lon="2.2232">
        <ele>1841</ele>
        <time>2020-08-05T15:52:51Z</time>
      </trkpt>
      <trkpt lat="42.46376" lon="2.2234">
        <ele>1840</ele>
        <time>2020-08-05T15:53:03Z</time>
      </trkpt>
      <trkpt lat="42.46363" lon="2.22339">
        <ele>1841</ele>
        <time>2020-08-05T15:53:10Z</time>
      </trkpt>
      <trkpt lat="42.46343" lon="2.22348">
        <ele>1842</ele>
        <time>2020-08-05T15:53:20Z</time>
      </trkpt>
      <trkpt lat="42.46313" lon="2.22386">
        <ele>1850</ele>
        <time>2020-08-05T15:53:41Z</time>
      </trkpt>
      <trkpt lat="42.46307" lon="2.22415">
        <ele>1853</ele>
        <time>2020-08-05T15:53:52Z</time>
      </trkpt>
      <trkpt lat="42.46301" lon="2.22432">
        <ele>1857</ele>
        <time>2020-08-05T15:53:59Z</time>
      </trkpt>
      <trkpt lat="42.46282" lon="2.22466">
        <ele>1866</ele>
        <time>2020-08-05T15:54:15Z</time>
      </trkpt>
      <trkpt lat="42.46277" lon="2.22481">
        <ele>1870</ele>
        <time>2020-08-05T15:54:21Z</time>
      </trkpt>
      <trkpt lat="42.46275" lon="2.22534">
        <ele>1875</ele>
        <time>2020-08-05T15:54:40Z</time>
      </trkpt>
      <trkpt lat="42.46262" lon="2.22573">
        <ele>1882</ele>
        <time>2020-08-05T15:54:56Z</time>
      </trkpt>
      <trkpt lat="42.46263" lon="2.22601">
        <ele>1885</ele>
        <time>2020-08-05T15:55:06Z</time>
      </trkpt>
      <trkpt lat="42.46261" lon="2.22614">
        <ele>1887</ele>
        <time>2020-08-05T15:55:11Z</time>
      </trkpt>
      <trkpt lat="42.46244" lon="2.22669">
        <ele>1899</ele>
        <time>2020-08-05T15:55:33Z</time>
      </trkpt>
      <trkpt lat="42.46244" lon="2.22683">
        <ele>1900</ele>
        <time>2020-08-05T15:55:39Z</time>
      </trkpt>
      <trkpt lat="42.46232" lon="2.2273">
        <ele>1911</ele>
        <time>2020-08-05T15:55:57Z</time>
      </trkpt>
      <trkpt lat="42.46232" lon="2.22754">
        <ele>1914</ele>
        <time>2020-08-05T15:56:06Z</time>
      </trkpt>
      <trkpt lat="42.46238" lon="2.22793">
        <ele>1915</ele>
        <time>2020-08-05T15:56:20Z</time>
      </trkpt>
      <trkpt lat="42.46245" lon="2.22871">
        <ele>1918</ele>
        <time>2020-08-05T15:56:49Z</time>
      </trkpt>
      <trkpt lat="42.46241" lon="2.22878">
        <ele>1920</ele>
        <time>2020-08-05T15:56:53Z</time>
      </trkpt>
      <trkpt lat="42.46208" lon="2.229">
        <ele>1928</ele>
        <time>2020-08-05T15:57:11Z</time>
      </trkpt>
      <trkpt lat="42.46161" lon="2.22936">
        <ele>1937</ele>
        <time>2020-08-05T15:57:38Z</time>
      </trkpt>
      <trkpt lat="42.46136" lon="2.22958">
        <ele>1940</ele>
        <time>2020-08-05T15:57:53Z</time>
      </trkpt>
      <trkpt lat="42.46127" lon="2.2297">
        <ele>1940</ele>
        <time>2020-08-05T15:57:59Z</time>
      </trkpt>
      <trkpt lat="42.46128" lon="2.22989">
        <ele>1940</ele>
        <time>2020-08-05T15:58:06Z</time>
      </trkpt>
      <trkpt lat="42.46136" lon="2.23004">
        <ele>1939</ele>
        <time>2020-08-05T15:58:13Z</time>
      </trkpt>
      <trkpt lat="42.46128" lon="2.23016">
        <ele>1940</ele>
        <time>2020-08-05T15:58:19Z</time>
      </trkpt>
      <trkpt lat="42.46125" lon="2.23028">
        <ele>1941</ele>
        <time>2020-08-05T15:58:24Z</time>
      </trkpt>
      <trkpt lat="42.46128" lon="2.23043">
        <ele>1941</ele>
        <time>2020-08-05T15:58:30Z</time>
      </trkpt>
      <trkpt lat="42.46138" lon="2.2307">
        <ele>1942</ele>
        <time>2020-08-05T15:58:41Z</time>
      </trkpt>
      <trkpt lat="42.46128" lon="2.23089">
        <ele>1943</ele>
        <time>2020-08-05T15:58:49Z</time>
      </trkpt>
      <trkpt lat="42.46118" lon="2.23101">
        <ele>1944</ele>
        <time>2020-08-05T15:58:56Z</time>
      </trkpt>
      <trkpt lat="42.46106" lon="2.23109">
        <ele>1945</ele>
        <time>2020-08-05T15:59:03Z</time>
      </trkpt>
      <trkpt lat="42.4612" lon="2.23117">
        <ele>1945</ele>
        <time>2020-08-05T15:59:10Z</time>
      </trkpt>
      <trkpt lat="42.46139" lon="2.23121">
        <ele>1945</ele>
        <time>2020-08-05T15:59:20Z</time>
      </trkpt>
      <trkpt lat="42.46163" lon="2.23121">
        <ele>1945</ele>
        <time>2020-08-05T15:59:32Z</time>
      </trkpt>
      <trkpt lat="42.46214" lon="2.23129">
        <ele>1942</ele>
        <time>2020-08-05T15:59:58Z</time>
      </trkpt>
      <trkpt lat="42.46239" lon="2.23137">
        <ele>1942</ele>
        <time>2020-08-05T16:00:11Z</time>
      </trkpt>
      <trkpt lat="42.46272" lon="2.23154">
        <ele>1938</ele>
        <time>2020-08-05T16:00:28Z</time>
      </trkpt>
      <trkpt lat="42.46308" lon="2.23201">
        <ele>1933</ele>
        <time>2020-08-05T16:00:53Z</time>
      </trkpt>
      <trkpt lat="42.46383" lon="2.23273">
        <ele>1916</ele>
        <time>2020-08-05T16:01:39Z</time>
      </trkpt>
      <trkpt lat="42.46414" lon="2.23309">
        <ele>1908</ele>
        <time>2020-08-05T16:02:00Z</time>
      </trkpt>
      <trkpt lat="42.46424" lon="2.23326">
        <ele>1905</ele>
        <time>2020-08-05T16:02:08Z</time>
      </trkpt>
      <trkpt lat="42.46432" lon="2.23384">
        <ele>1900</ele>
        <time>2020-08-05T16:02:30Z</time>
      </trkpt>
      <trkpt lat="42.4647" lon="2.23426">
        <ele>1891</ele>
        <time>2020-08-05T16:02:54Z</time>
      </trkpt>
      <trkpt lat="42.46495" lon="2.23498">
        <ele>1886</ele>
        <time>2020-08-05T16:03:23Z</time>
      </trkpt>
      <trkpt lat="42.46495" lon="2.23523">
        <ele>1886</ele>
        <time>2020-08-05T16:03:33Z</time>
      </trkpt>
      <trkpt lat="42.4649" lon="2.23555">
        <ele>1888</ele>
        <time>2020-08-05T16:03:45Z</time>
      </trkpt>
      <trkpt lat="42.46486" lon="2.23611">
        <ele>1893</ele>
        <time>2020-08-05T16:04:05Z</time>
      </trkpt>
      <trkpt lat="42.46515" lon="2.23742">
        <ele>1895</ele>
        <time>2020-08-05T16:04:56Z</time>
      </trkpt>
      <trkpt lat="42.46533" lon="2.23847">
        <ele>1898</ele>
        <time>2020-08-05T16:05:36Z</time>
      </trkpt>
      <trkpt lat="42.46551" lon="2.23906">
        <ele>1898</ele>
        <time>2020-08-05T16:05:59Z</time>
      </trkpt>
      <trkpt lat="42.46566" lon="2.23933">
        <ele>1895</ele>
        <time>2020-08-05T16:06:12Z</time>
      </trkpt>
      <trkpt lat="42.46579" lon="2.23953">
        <ele>1892</ele>
        <time>2020-08-05T16:06:22Z</time>
      </trkpt>
      <trkpt lat="42.46612" lon="2.23987">
        <ele>1888</ele>
        <time>2020-08-05T16:06:42Z</time>
      </trkpt>
      <trkpt lat="42.46643" lon="2.24037">
        <ele>1883</ele>
        <time>2020-08-05T16:07:07Z</time>
      </trkpt>
      <trkpt lat="42.46667" lon="2.24127">
        <ele>1878</ele>
        <time>2020-08-05T16:07:42Z</time>
      </trkpt>
      <trkpt lat="42.46672" lon="2.24207">
        <ele>1888</ele>
        <time>2020-08-05T16:08:11Z</time>
      </trkpt>
      <trkpt lat="42.46667" lon="2.24234">
        <ele>1894</ele>
        <time>2020-08-05T16:08:22Z</time>
      </trkpt>
      <trkpt lat="42.46626" lon="2.24357">
        <ele>1921</ele>
        <time>2020-08-05T16:09:12Z</time>
      </trkpt>
      <trkpt lat="42.46584" lon="2.24499">
        <ele>1921</ele>
        <time>2020-08-05T16:10:08Z</time>
      </trkpt>
      <trkpt lat="42.4657" lon="2.24531">
        <ele>1929</ele>
        <time>2020-08-05T16:10:22Z</time>
      </trkpt>
      <trkpt lat="42.46537" lon="2.24587">
        <ele>1938</ele>
        <time>2020-08-05T16:10:48Z</time>
      </trkpt>
      <trkpt lat="42.46498" lon="2.24643">
        <ele>1944</ele>
        <time>2020-08-05T16:11:17Z</time>
      </trkpt>
      <trkpt lat="42.46458" lon="2.24685">
        <ele>1956</ele>
        <time>2020-08-05T16:11:42Z</time>
      </trkpt>
      <trkpt lat="42.46432" lon="2.24725">
        <ele>1963</ele>
        <time>2020-08-05T16:12:02Z</time>
      </trkpt>
      <trkpt lat="42.46423" lon="2.24747">
        <ele>1964</ele>
        <time>2020-08-05T16:12:11Z</time>
      </trkpt>
      <trkpt lat="42.46421" lon="2.24761">
        <ele>1966</ele>
        <time>2020-08-05T16:12:16Z</time>
      </trkpt>
      <trkpt lat="42.46425" lon="2.24767">
        <ele>1966</ele>
        <time>2020-08-05T16:12:19Z</time>
      </trkpt>
      <trkpt lat="42.46426" lon="2.24781">
        <ele>1967</ele>
        <time>2020-08-05T16:12:24Z</time>
      </trkpt>
      <trkpt lat="42.4642" lon="2.24791">
        <ele>1969</ele>
        <time>2020-08-05T16:12:29Z</time>
      </trkpt>
      <trkpt lat="42.4642" lon="2.24796">
        <ele>1969</ele>
        <time>2020-08-05T16:12:31Z</time>
      </trkpt>
      <trkpt lat="42.46429" lon="2.24819">
        <ele>1970</ele>
        <time>2020-08-05T16:12:41Z</time>
      </trkpt>
      <trkpt lat="42.46429" lon="2.24834">
        <ele>1972</ele>
        <time>2020-08-05T16:12:46Z</time>
      </trkpt>
      <trkpt lat="42.46434" lon="2.24851">
        <ele>1974</ele>
        <time>2020-08-05T16:12:53Z</time>
      </trkpt>
      <trkpt lat="42.46441" lon="2.24859">
        <ele>1974</ele>
        <time>2020-08-05T16:12:57Z</time>
      </trkpt>
      <trkpt lat="42.46439" lon="2.24871">
        <ele>1975</ele>
        <time>2020-08-05T16:13:02Z</time>
      </trkpt>
      <trkpt lat="42.46444" lon="2.24894">
        <ele>1978</ele>
        <time>2020-08-05T16:13:11Z</time>
      </trkpt>
      <trkpt lat="42.4641" lon="2.24969">
        <ele>1999</ele>
        <time>2020-08-05T16:13:43Z</time>
      </trkpt>
      <trkpt lat="42.4639" lon="2.25004">
        <ele>2012</ele>
        <time>2020-08-05T16:14:00Z</time>
      </trkpt>
      <trkpt lat="42.46348" lon="2.25055">
        <ele>2036</ele>
        <time>2020-08-05T16:14:28Z</time>
      </trkpt>
      <trkpt lat="42.463" lon="2.25105">
        <ele>2058</ele>
        <time>2020-08-05T16:14:58Z</time>
      </trkpt>
      <trkpt lat="42.46228" lon="2.25166">
        <ele>2083</ele>
        <time>2020-08-05T16:15:41Z</time>
      </trkpt>
      <trkpt lat="42.46201" lon="2.2518">
        <ele>2097</ele>
        <time>2020-08-05T16:15:55Z</time>
      </trkpt>
      <trkpt lat="42.46166" lon="2.25193">
        <ele>2112</ele>
        <time>2020-08-05T16:16:13Z</time>
      </trkpt>
      <trkpt lat="42.46148" lon="2.2521">
        <ele>2123</ele>
        <time>2020-08-05T16:16:24Z</time>
      </trkpt>
      <trkpt lat="42.46148" lon="2.2522">
        <ele>2129</ele>
        <time>2020-08-05T16:16:28Z</time>
      </trkpt>
      <trkpt lat="42.46163" lon="2.25234">
        <ele>2136</ele>
        <time>2020-08-05T16:16:37Z</time>
      </trkpt>
      <trkpt lat="42.46221" lon="2.25257">
        <ele>2136</ele>
        <time>2020-08-05T16:17:07Z</time>
      </trkpt>
      <trkpt lat="42.46231" lon="2.25271">
        <ele>2141</ele>
        <time>2020-08-05T16:17:15Z</time>
      </trkpt>
      <trkpt lat="42.46218" lon="2.25291">
        <ele>2155</ele>
        <time>2020-08-05T16:17:24Z</time>
      </trkpt>
      <trkpt lat="42.46196" lon="2.25301">
        <ele>2166</ele>
        <time>2020-08-05T16:17:36Z</time>
      </trkpt>
      <trkpt lat="42.46191" lon="2.25314">
        <ele>2174</ele>
        <time>2020-08-05T16:17:41Z</time>
      </trkpt>
      <trkpt lat="42.46203" lon="2.25335">
        <ele>2182</ele>
        <time>2020-08-05T16:17:51Z</time>
      </trkpt>
      <trkpt lat="42.46238" lon="2.25378">
        <ele>2193</ele>
        <time>2020-08-05T16:18:15Z</time>
      </trkpt>
      <trkpt lat="42.46298" lon="2.25419">
        <ele>2206</ele>
        <time>2020-08-05T16:18:49Z</time>
      </trkpt>
      <trkpt lat="42.46388" lon="2.25472">
        <ele>2235</ele>
        <time>2020-08-05T16:19:38Z</time>
      </trkpt>
      <trkpt lat="42.46443" lon="2.25513">
        <ele>2254</ele>
        <time>2020-08-05T16:20:09Z</time>
      </trkpt>
      <trkpt lat="42.46472" lon="2.25548">
        <ele>2264</ele>
        <time>2020-08-05T16:20:28Z</time>
      </trkpt>
      <trkpt lat="42.46496" lon="2.25594">
        <ele>2274</ele>
        <time>2020-08-05T16:20:49Z</time>
      </trkpt>
      <trkpt lat="42.465" lon="2.25636">
        <ele>2280</ele>
        <time>2020-08-05T16:21:05Z</time>
      </trkpt>
      <trkpt lat="42.46505" lon="2.25647">
        <ele>2280</ele>
        <time>2020-08-05T16:21:10Z</time>
      </trkpt>
      <trkpt lat="42.46504" lon="2.25659">
        <ele>2282</ele>
        <time>2020-08-05T16:21:14Z</time>
      </trkpt>
      <trkpt lat="42.46556" lon="2.25794">
        <ele>2289</ele>
        <time>2020-08-05T16:22:10Z</time>
      </trkpt>
      <trkpt lat="42.46568" lon="2.25813">
        <ele>2292</ele>
        <time>2020-08-05T16:22:20Z</time>
      </trkpt>
      <trkpt lat="42.46574" lon="2.25845">
        <ele>2295</ele>
        <time>2020-08-05T16:22:32Z</time>
      </trkpt>
      <trkpt lat="42.46584" lon="2.25871">
        <ele>2294</ele>
        <time>2020-08-05T16:22:43Z</time>
      </trkpt>
      <trkpt lat="42.46566" lon="2.2586">
        <ele>2294</ele>
        <time>2020-08-05T16:22:52Z</time>
      </trkpt>
      <trkpt lat="42.46511" lon="2.25853">
        <ele>2292</ele>
        <time>2020-08-05T16:23:20Z</time>
      </trkpt>
      <trkpt lat="42.46487" lon="2.25855">
        <ele>2293</ele>
        <time>2020-08-05T16:23:32Z</time>
      </trkpt>
      <trkpt lat="42.46469" lon="2.25862">
        <ele>2295</ele>
        <time>2020-08-05T16:23:42Z</time>
      </trkpt>
      <trkpt lat="42.4643" lon="2.2589">
        <ele>2298</ele>
        <time>2020-08-05T16:24:04Z</time>
      </trkpt>
      <trkpt lat="42.46405" lon="2.25914">
        <ele>2300</ele>
        <time>2020-08-05T16:24:19Z</time>
      </trkpt>
      <trkpt lat="42.46362" lon="2.2598">
        <ele>2301</ele>
        <time>2020-08-05T16:24:51Z</time>
      </trkpt>
      <trkpt lat="42.46331" lon="2.26015">
        <ele>2304</ele>
        <time>2020-08-05T16:25:12Z</time>
      </trkpt>
      <trkpt lat="42.46278" lon="2.26093">
        <ele>2302</ele>
        <time>2020-08-05T16:25:51Z</time>
      </trkpt>
      <trkpt lat="42.46263" lon="2.26107">
        <ele>2304</ele>
        <time>2020-08-05T16:26:00Z</time>
      </trkpt>
      <trkpt lat="42.46238" lon="2.26141">
        <ele>2306</ele>
        <time>2020-08-05T16:26:18Z</time>
      </trkpt>
      <trkpt lat="42.46231" lon="2.26145">
        <ele>2308</ele>
        <time>2020-08-05T16:26:21Z</time>
      </trkpt>
      <trkpt lat="42.46218" lon="2.2616">
        <ele>2310</ele>
        <time>2020-08-05T16:26:30Z</time>
      </trkpt>
      <trkpt lat="42.46194" lon="2.26181">
        <ele>2316</ele>
        <time>2020-08-05T16:26:44Z</time>
      </trkpt>
      <trkpt lat="42.46177" lon="2.26211">
        <ele>2315</ele>
        <time>2020-08-05T16:26:58Z</time>
      </trkpt>
      <trkpt lat="42.46154" lon="2.26234">
        <ele>2319</ele>
        <time>2020-08-05T16:27:13Z</time>
      </trkpt>
      <trkpt lat="42.46153" lon="2.2624">
        <ele>2318</ele>
        <time>2020-08-05T16:27:15Z</time>
      </trkpt>
      <trkpt lat="42.4613" lon="2.26271">
        <ele>2320</ele>
        <time>2020-08-05T16:27:31Z</time>
      </trkpt>
      <trkpt lat="42.46121" lon="2.26275">
        <ele>2323</ele>
        <time>2020-08-05T16:27:36Z</time>
      </trkpt>
      <trkpt lat="42.46114" lon="2.26284">
        <ele>2323</ele>
        <time>2020-08-05T16:27:41Z</time>
      </trkpt>
      <trkpt lat="42.46103" lon="2.26292">
        <ele>2326</ele>
        <time>2020-08-05T16:27:47Z</time>
      </trkpt>
      <trkpt lat="42.46091" lon="2.26297">
        <ele>2329</ele>
        <time>2020-08-05T16:27:53Z</time>
      </trkpt>
      <trkpt lat="42.46066" lon="2.26323">
        <ele>2332</ele>
        <time>2020-08-05T16:28:09Z</time>
      </trkpt>
      <trkpt lat="42.4606" lon="2.26342">
        <ele>2332</ele>
        <time>2020-08-05T16:28:17Z</time>
      </trkpt>
      <trkpt lat="42.46063" lon="2.26377">
        <ele>2332</ele>
        <time>2020-08-05T16:28:30Z</time>
      </trkpt>
      <trkpt lat="42.46073" lon="2.26431">
        <ele>2332</ele>
        <time>2020-08-05T16:28:50Z</time>
      </trkpt>
      <trkpt lat="42.46085" lon="2.26463">
        <ele>2331</ele>
        <time>2020-08-05T16:29:03Z</time>
      </trkpt>
      <trkpt lat="42.46085" lon="2.2647">
        <ele>2332</ele>
        <time>2020-08-05T16:29:06Z</time>
      </trkpt>
      <trkpt lat="42.46093" lon="2.26492">
        <ele>2331</ele>
        <time>2020-08-05T16:29:15Z</time>
      </trkpt>
      <trkpt lat="42.46103" lon="2.26536">
        <ele>2329</ele>
        <time>2020-08-05T16:29:32Z</time>
      </trkpt>
      <trkpt lat="42.46103" lon="2.26558">
        <ele>2330</ele>
        <time>2020-08-05T16:29:40Z</time>
      </trkpt>
      <trkpt lat="42.46095" lon="2.26594">
        <ele>2334</ele>
        <time>2020-08-05T16:29:54Z</time>
      </trkpt>
      <trkpt lat="42.46079" lon="2.26632">
        <ele>2339</ele>
        <time>2020-08-05T16:30:10Z</time>
      </trkpt>
      <trkpt lat="42.46065" lon="2.26718">
        <ele>2341</ele>
        <time>2020-08-05T16:30:43Z</time>
      </trkpt>
      <trkpt lat="42.46054" lon="2.26758">
        <ele>2343</ele>
        <time>2020-08-05T16:30:58Z</time>
      </trkpt>
      <trkpt lat="42.46038" lon="2.26803">
        <ele>2343</ele>
        <time>2020-08-05T16:31:17Z</time>
      </trkpt>
      <trkpt lat="42.46013" lon="2.26838">
        <ele>2345</ele>
        <time>2020-08-05T16:31:35Z</time>
      </trkpt>
      <trkpt lat="42.45985" lon="2.26889">
        <ele>2343</ele>
        <time>2020-08-05T16:31:58Z</time>
      </trkpt>
      <trkpt lat="42.45964" lon="2.26934">
        <ele>2341</ele>
        <time>2020-08-05T16:32:18Z</time>
      </trkpt>
      <trkpt lat="42.45939" lon="2.26974">
        <ele>2342</ele>
        <time>2020-08-05T16:32:37Z</time>
      </trkpt>
      <trkpt lat="42.45916" lon="2.27061">
        <ele>2343</ele>
        <time>2020-08-05T16:33:11Z</time>
      </trkpt>
      <trkpt lat="42.4591" lon="2.27075">
        <ele>2343</ele>
        <time>2020-08-05T16:33:17Z</time>
      </trkpt>
      <trkpt lat="42.45898" lon="2.27094">
        <ele>2341</ele>
        <time>2020-08-05T16:33:27Z</time>
      </trkpt>
      <trkpt lat="42.45891" lon="2.27101">
        <ele>2340</ele>
        <time>2020-08-05T16:33:31Z</time>
      </trkpt>
      <trkpt lat="42.45871" lon="2.27112">
        <ele>2338</ele>
        <time>2020-08-05T16:33:42Z</time>
      </trkpt>
      <trkpt lat="42.45847" lon="2.27137">
        <ele>2331</ele>
        <time>2020-08-05T16:33:57Z</time>
      </trkpt>
      <trkpt lat="42.45842" lon="2.27153">
        <ele>2326</ele>
        <time>2020-08-05T16:34:03Z</time>
      </trkpt>
      <trkpt lat="42.45833" lon="2.2721">
        <ele>2310</ele>
        <time>2020-08-05T16:34:25Z</time>
      </trkpt>
      <trkpt lat="42.4583" lon="2.27217">
        <ele>2309</ele>
        <time>2020-08-05T16:34:28Z</time>
      </trkpt>
      <trkpt lat="42.45806" lon="2.27236">
        <ele>2305</ele>
        <time>2020-08-05T16:34:42Z</time>
      </trkpt>
      <trkpt lat="42.45782" lon="2.27241">
        <ele>2305</ele>
        <time>2020-08-05T16:34:54Z</time>
      </trkpt>
      <trkpt lat="42.45735" lon="2.27268">
        <ele>2289</ele>
        <time>2020-08-05T16:35:19Z</time>
      </trkpt>
      <trkpt lat="42.45701" lon="2.27297">
        <ele>2263</ele>
        <time>2020-08-05T16:35:40Z</time>
      </trkpt>
      <trkpt lat="42.45688" lon="2.27312">
        <ele>2252</ele>
        <time>2020-08-05T16:35:48Z</time>
      </trkpt>
      <trkpt lat="42.4568" lon="2.27328">
        <ele>2243</ele>
        <time>2020-08-05T16:35:55Z</time>
      </trkpt>
      <trkpt lat="42.45677" lon="2.27346">
        <ele>2234</ele>
        <time>2020-08-05T16:36:02Z</time>
      </trkpt>
      <trkpt lat="42.45678" lon="2.27355">
        <ele>2230</ele>
        <time>2020-08-05T16:36:05Z</time>
      </trkpt>
      <trkpt lat="42.45683" lon="2.27363">
        <ele>2228</ele>
        <time>2020-08-05T16:36:09Z</time>
      </trkpt>
      <trkpt lat="42.45698" lon="2.27367">
        <ele>2229</ele>
        <time>2020-08-05T16:36:17Z</time>
      </trkpt>
      <trkpt lat="42.45704" lon="2.27372">
        <ele>2227</ele>
        <time>2020-08-05T16:36:20Z</time>
      </trkpt>
      <trkpt lat="42.45709" lon="2.27382">
        <ele>2223</ele>
        <time>2020-08-05T16:36:25Z</time>
      </trkpt>
      <trkpt lat="42.45714" lon="2.27385">
        <ele>2222</ele>
        <time>2020-08-05T16:36:28Z</time>
      </trkpt>
      <trkpt lat="42.45715" lon="2.27391">
        <ele>2219</ele>
        <time>2020-08-05T16:36:30Z</time>
      </trkpt>
      <trkpt lat="42.45711" lon="2.27392">
        <ele>2218</ele>
        <time>2020-08-05T16:36:32Z</time>
      </trkpt>
      <trkpt lat="42.45706" lon="2.27399">
        <ele>2214</ele>
        <time>2020-08-05T16:36:36Z</time>
      </trkpt>
      <trkpt lat="42.45717" lon="2.2741">
        <ele>2209</ele>
        <time>2020-08-05T16:36:42Z</time>
      </trkpt>
      <trkpt lat="42.45725" lon="2.27413">
        <ele>2209</ele>
        <time>2020-08-05T16:36:47Z</time>
      </trkpt>
      <trkpt lat="42.45726" lon="2.27419">
        <ele>2206</ele>
        <time>2020-08-05T16:36:49Z</time>
      </trkpt>
      <trkpt lat="42.45738" lon="2.27425">
        <ele>2205</ele>
        <time>2020-08-05T16:36:55Z</time>
      </trkpt>
      <trkpt lat="42.45739" lon="2.27428">
        <ele>2204</ele>
        <time>2020-08-05T16:36:56Z</time>
      </trkpt>
      <trkpt lat="42.45735" lon="2.27436">
        <ele>2200</ele>
        <time>2020-08-05T16:37:00Z</time>
      </trkpt>
      <trkpt lat="42.45741" lon="2.2744">
        <ele>2199</ele>
        <time>2020-08-05T16:37:03Z</time>
      </trkpt>
      <trkpt lat="42.45747" lon="2.27449">
        <ele>2197</ele>
        <time>2020-08-05T16:37:08Z</time>
      </trkpt>
      <trkpt lat="42.45747" lon="2.27453">
        <ele>2195</ele>
        <time>2020-08-05T16:37:09Z</time>
      </trkpt>
      <trkpt lat="42.45743" lon="2.27455">
        <ele>2194</ele>
        <time>2020-08-05T16:37:11Z</time>
      </trkpt>
      <trkpt lat="42.45749" lon="2.27468">
        <ele>2190</ele>
        <time>2020-08-05T16:37:17Z</time>
      </trkpt>
      <trkpt lat="42.45747" lon="2.27489">
        <ele>2182</ele>
        <time>2020-08-05T16:37:25Z</time>
      </trkpt>
      <trkpt lat="42.45756" lon="2.27518">
        <ele>2172</ele>
        <time>2020-08-05T16:37:37Z</time>
      </trkpt>
      <trkpt lat="42.45755" lon="2.2755">
        <ele>2158</ele>
        <time>2020-08-05T16:37:48Z</time>
      </trkpt>
      <trkpt lat="42.45745" lon="2.27579">
        <ele>2142</ele>
        <time>2020-08-05T16:38:00Z</time>
      </trkpt>
      <trkpt lat="42.45739" lon="2.27585">
        <ele>2139</ele>
        <time>2020-08-05T16:38:04Z</time>
      </trkpt>
      <trkpt lat="42.45729" lon="2.27604">
        <ele>2130</ele>
        <time>2020-08-05T16:38:13Z</time>
      </trkpt>
      <trkpt lat="42.4572" lon="2.27615">
        <ele>2124</ele>
        <time>2020-08-05T16:38:19Z</time>
      </trkpt>
      <trkpt lat="42.45694" lon="2.27631">
        <ele>2114</ele>
        <time>2020-08-05T16:38:33Z</time>
      </trkpt>
      <trkpt lat="42.45666" lon="2.27654">
        <ele>2101</ele>
        <time>2020-08-05T16:38:49Z</time>
      </trkpt>
      <trkpt lat="42.45635" lon="2.27688">
        <ele>2086</ele>
        <time>2020-08-05T16:39:09Z</time>
      </trkpt>
      <trkpt lat="42.45623" lon="2.27708">
        <ele>2079</ele>
        <time>2020-08-05T16:39:19Z</time>
      </trkpt>
      <trkpt lat="42.45626" lon="2.27726">
        <ele>2072</ele>
        <time>2020-08-05T16:39:26Z</time>
      </trkpt>
      <trkpt lat="42.45624" lon="2.27739">
        <ele>2067</ele>
        <time>2020-08-05T16:39:30Z</time>
      </trkpt>
      <trkpt lat="42.45635" lon="2.27757">
        <ele>2062</ele>
        <time>2020-08-05T16:39:39Z</time>
      </trkpt>
      <trkpt lat="42.45642" lon="2.27763">
        <ele>2061</ele>
        <time>2020-08-05T16:39:43Z</time>
      </trkpt>
      <trkpt lat="42.45662" lon="2.27772">
        <ele>2059</ele>
        <time>2020-08-05T16:39:54Z</time>
      </trkpt>
      <trkpt lat="42.45667" lon="2.27782">
        <ele>2057</ele>
        <time>2020-08-05T16:39:58Z</time>
      </trkpt>
      <trkpt lat="42.45678" lon="2.27793">
        <ele>2054</ele>
        <time>2020-08-05T16:40:05Z</time>
      </trkpt>
      <trkpt lat="42.45686" lon="2.27816">
        <ele>2048</ele>
        <time>2020-08-05T16:40:14Z</time>
      </trkpt>
      <trkpt lat="42.45689" lon="2.27835">
        <ele>2043</ele>
        <time>2020-08-05T16:40:22Z</time>
      </trkpt>
      <trkpt lat="42.45693" lon="2.27839">
        <ele>2042</ele>
        <time>2020-08-05T16:40:24Z</time>
      </trkpt>
      <trkpt lat="42.4569" lon="2.27851">
        <ele>2037</ele>
        <time>2020-08-05T16:40:29Z</time>
      </trkpt>
      <trkpt lat="42.45693" lon="2.27861">
        <ele>2034</ele>
        <time>2020-08-05T16:40:33Z</time>
      </trkpt>
      <trkpt lat="42.45702" lon="2.27879">
        <ele>2028</ele>
        <time>2020-08-05T16:40:41Z</time>
      </trkpt>
      <trkpt lat="42.45712" lon="2.27892">
        <ele>2024</ele>
        <time>2020-08-05T16:40:48Z</time>
      </trkpt>
      <trkpt lat="42.45727" lon="2.27954">
        <ele>2007</ele>
        <time>2020-08-05T16:41:12Z</time>
      </trkpt>
      <trkpt lat="42.45761" lon="2.28011">
        <ele>1994</ele>
        <time>2020-08-05T16:41:39Z</time>
      </trkpt>
      <trkpt lat="42.45767" lon="2.28057">
        <ele>1985</ele>
        <time>2020-08-05T16:41:56Z</time>
      </trkpt>
      <trkpt lat="42.45773" lon="2.28081">
        <ele>1981</ele>
        <time>2020-08-05T16:42:06Z</time>
      </trkpt>
      <trkpt lat="42.45797" lon="2.28139">
        <ele>1970</ele>
        <time>2020-08-05T16:42:30Z</time>
      </trkpt>
      <trkpt lat="42.45812" lon="2.28165">
        <ele>1965</ele>
        <time>2020-08-05T16:42:42Z</time>
      </trkpt>
      <trkpt lat="42.45824" lon="2.28206">
        <ele>1960</ele>
        <time>2020-08-05T16:42:59Z</time>
      </trkpt>
      <trkpt lat="42.45836" lon="2.28231">
        <ele>1956</ele>
        <time>2020-08-05T16:43:10Z</time>
      </trkpt>
      <trkpt lat="42.4586" lon="2.28262">
        <ele>1949</ele>
        <time>2020-08-05T16:43:26Z</time>
      </trkpt>
      <trkpt lat="42.45864" lon="2.28276">
        <ele>1946</ele>
        <time>2020-08-05T16:43:32Z</time>
      </trkpt>
      <trkpt lat="42.45874" lon="2.28293">
        <ele>1942</ele>
        <time>2020-08-05T16:43:40Z</time>
      </trkpt>
      <trkpt lat="42.45886" lon="2.28331">
        <ele>1935</ele>
        <time>2020-08-05T16:43:55Z</time>
      </trkpt>
      <trkpt lat="42.45893" lon="2.28346">
        <ele>1933</ele>
        <time>2020-08-05T16:44:02Z</time>
      </trkpt>
      <trkpt lat="42.45906" lon="2.28356">
        <ele>1932</ele>
        <time>2020-08-05T16:44:09Z</time>
      </trkpt>
      <trkpt lat="42.45913" lon="2.28372">
        <ele>1931</ele>
        <time>2020-08-05T16:44:16Z</time>
      </trkpt>
      <trkpt lat="42.45917" lon="2.28375">
        <ele>1931</ele>
        <time>2020-08-05T16:44:18Z</time>
      </trkpt>
      <trkpt lat="42.45919" lon="2.28385">
        <ele>1930</ele>
        <time>2020-08-05T16:44:22Z</time>
      </trkpt>
      <trkpt lat="42.45928" lon="2.284">
        <ele>1927</ele>
        <time>2020-08-05T16:44:29Z</time>
      </trkpt>
      <trkpt lat="42.45931" lon="2.28411">
        <ele>1926</ele>
        <time>2020-08-05T16:44:33Z</time>
      </trkpt>
      <trkpt lat="42.45937" lon="2.28417">
        <ele>1925</ele>
        <time>2020-08-05T16:44:37Z</time>
      </trkpt>
      <trkpt lat="42.45938" lon="2.28425">
        <ele>1923</ele>
        <time>2020-08-05T16:44:40Z</time>
      </trkpt>
      <trkpt lat="42.45947" lon="2.28433">
        <ele>1921</ele>
        <time>2020-08-05T16:44:46Z</time>
      </trkpt>
      <trkpt lat="42.45954" lon="2.28447">
        <ele>1918</ele>
        <time>2020-08-05T16:44:52Z</time>
      </trkpt>
      <trkpt lat="42.45967" lon="2.28461">
        <ele>1916</ele>
        <time>2020-08-05T16:45:00Z</time>
      </trkpt>
      <trkpt lat="42.45981" lon="2.28498">
        <ele>1911</ele>
        <time>2020-08-05T16:45:15Z</time>
      </trkpt>
      <trkpt lat="42.45988" lon="2.28508">
        <ele>1910</ele>
        <time>2020-08-05T16:45:21Z</time>
      </trkpt>
      <trkpt lat="42.45992" lon="2.28519">
        <ele>1909</ele>
        <time>2020-08-05T16:45:25Z</time>
      </trkpt>
      <trkpt lat="42.46013" lon="2.28547">
        <ele>1905</ele>
        <time>2020-08-05T16:45:40Z</time>
      </trkpt>
      <trkpt lat="42.46019" lon="2.28552">
        <ele>1904</ele>
        <time>2020-08-05T16:45:43Z</time>
      </trkpt>
      <trkpt lat="42.46036" lon="2.28541">
        <ele>1904</ele>
        <time>2020-08-05T16:45:53Z</time>
      </trkpt>
      <trkpt lat="42.4604" lon="2.28548">
        <ele>1903</ele>
        <time>2020-08-05T16:45:56Z</time>
      </trkpt>
      <trkpt lat="42.46071" lon="2.28569">
        <ele>1900</ele>
        <time>2020-08-05T16:46:13Z</time>
      </trkpt>
      <trkpt lat="42.46079" lon="2.28581">
        <ele>1899</ele>
        <time>2020-08-05T16:46:19Z</time>
      </trkpt>
      <trkpt lat="42.46117" lon="2.2861">
        <ele>1891</ele>
        <time>2020-08-05T16:46:41Z</time>
      </trkpt>
      <trkpt lat="42.46138" lon="2.28632">
        <ele>1885</ele>
        <time>2020-08-05T16:46:54Z</time>
      </trkpt>
      <trkpt lat="42.46146" lon="2.28633">
        <ele>1884</ele>
        <time>2020-08-05T16:46:58Z</time>
      </trkpt>
      <trkpt lat="42.46156" lon="2.28647">
        <ele>1880</ele>
        <time>2020-08-05T16:47:06Z</time>
      </trkpt>
      <trkpt lat="42.46164" lon="2.28645">
        <ele>1879</ele>
        <time>2020-08-05T16:47:10Z</time>
      </trkpt>
      <trkpt lat="42.46176" lon="2.28669">
        <ele>1875</ele>
        <time>2020-08-05T16:47:20Z</time>
      </trkpt>
      <trkpt lat="42.46189" lon="2.28685">
        <ele>1871</ele>
        <time>2020-08-05T16:47:29Z</time>
      </trkpt>
      <trkpt lat="42.46196" lon="2.28701">
        <ele>1867</ele>
        <time>2020-08-05T16:47:36Z</time>
      </trkpt>
      <trkpt lat="42.46203" lon="2.2871">
        <ele>1864</ele>
        <time>2020-08-05T16:47:41Z</time>
      </trkpt>
      <trkpt lat="42.46211" lon="2.28763">
        <ele>1852</ele>
        <time>2020-08-05T16:48:01Z</time>
      </trkpt>
      <trkpt lat="42.46222" lon="2.2878">
        <ele>1848</ele>
        <time>2020-08-05T16:48:09Z</time>
      </trkpt>
      <trkpt lat="42.46231" lon="2.28804">
        <ele>1844</ele>
        <time>2020-08-05T16:48:19Z</time>
      </trkpt>
      <trkpt lat="42.46237" lon="2.28799">
        <ele>1844</ele>
        <time>2020-08-05T16:48:23Z</time>
      </trkpt>
      <trkpt lat="42.46249" lon="2.28815">
        <ele>1841</ele>
        <time>2020-08-05T16:48:31Z</time>
      </trkpt>
      <trkpt lat="42.46255" lon="2.28819">
        <ele>1840</ele>
        <time>2020-08-05T16:48:34Z</time>
      </trkpt>
      <trkpt lat="42.46258" lon="2.28827">
        <ele>1839</ele>
        <time>2020-08-05T16:48:38Z</time>
      </trkpt>
      <trkpt lat="42.4629" lon="2.28845">
        <ele>1833</ele>
        <time>2020-08-05T16:48:55Z</time>
      </trkpt>
      <trkpt lat="42.46292" lon="2.28855">
        <ele>1831</ele>
        <time>2020-08-05T16:48:59Z</time>
      </trkpt>
      <trkpt lat="42.46316" lon="2.28875">
        <ele>1825</ele>
        <time>2020-08-05T16:49:13Z</time>
      </trkpt>
      <trkpt lat="42.46321" lon="2.28888">
        <ele>1822</ele>
        <time>2020-08-05T16:49:18Z</time>
      </trkpt>
      <trkpt lat="42.46338" lon="2.28898">
        <ele>1819</ele>
        <time>2020-08-05T16:49:28Z</time>
      </trkpt>
      <trkpt lat="42.46355" lon="2.28912">
        <ele>1817</ele>
        <time>2020-08-05T16:49:38Z</time>
      </trkpt>
      <trkpt lat="42.46356" lon="2.28926">
        <ele>1815</ele>
        <time>2020-08-05T16:49:43Z</time>
      </trkpt>
      <trkpt lat="42.46374" lon="2.28954">
        <ele>1811</ele>
        <time>2020-08-05T16:49:57Z</time>
      </trkpt>
      <trkpt lat="42.46384" lon="2.28953">
        <ele>1811</ele>
        <time>2020-08-05T16:50:02Z</time>
      </trkpt>
      <trkpt lat="42.46392" lon="2.28959">
        <ele>1810</ele>
        <time>2020-08-05T16:50:06Z</time>
      </trkpt>
      <trkpt lat="42.4641" lon="2.28997">
        <ele>1804</ele>
        <time>2020-08-05T16:50:23Z</time>
      </trkpt>
      <trkpt lat="42.46421" lon="2.29005">
        <ele>1802</ele>
        <time>2020-08-05T16:50:29Z</time>
      </trkpt>
      <trkpt lat="42.46424" lon="2.2901">
        <ele>1801</ele>
        <time>2020-08-05T16:50:32Z</time>
      </trkpt>
      <trkpt lat="42.46443" lon="2.29059">
        <ele>1789</ele>
        <time>2020-08-05T16:50:52Z</time>
      </trkpt>
      <trkpt lat="42.46449" lon="2.29067">
        <ele>1787</ele>
        <time>2020-08-05T16:50:56Z</time>
      </trkpt>
      <trkpt lat="42.4645" lon="2.29078">
        <ele>1785</ele>
        <time>2020-08-05T16:51:00Z</time>
      </trkpt>
      <trkpt lat="42.46464" lon="2.29095">
        <ele>1779</ele>
        <time>2020-08-05T16:51:10Z</time>
      </trkpt>
      <trkpt lat="42.46485" lon="2.29105">
        <ele>1776</ele>
        <time>2020-08-05T16:51:21Z</time>
      </trkpt>
      <trkpt lat="42.46526" lon="2.29101">
        <ele>1768</ele>
        <time>2020-08-05T16:51:41Z</time>
      </trkpt>
      <trkpt lat="42.46541" lon="2.29102">
        <ele>1764</ele>
        <time>2020-08-05T16:51:49Z</time>
      </trkpt>
      <trkpt lat="42.46557" lon="2.29108">
        <ele>1759</ele>
        <time>2020-08-05T16:51:57Z</time>
      </trkpt>
      <trkpt lat="42.46561" lon="2.29115">
        <ele>1756</ele>
        <time>2020-08-05T16:52:00Z</time>
      </trkpt>
      <trkpt lat="42.46563" lon="2.29128">
        <ele>1754</ele>
        <time>2020-08-05T16:52:05Z</time>
      </trkpt>
      <trkpt lat="42.46587" lon="2.29125">
        <ele>1747</ele>
        <time>2020-08-05T16:52:17Z</time>
      </trkpt>
      <trkpt lat="42.46604" lon="2.29136">
        <ele>1741</ele>
        <time>2020-08-05T16:52:27Z</time>
      </trkpt>
      <trkpt lat="42.46619" lon="2.29137">
        <ele>1736</ele>
        <time>2020-08-05T16:52:34Z</time>
      </trkpt>
      <trkpt lat="42.46627" lon="2.29147">
        <ele>1732</ele>
        <time>2020-08-05T16:52:40Z</time>
      </trkpt>
      <trkpt lat="42.46635" lon="2.29152">
        <ele>1728</ele>
        <time>2020-08-05T16:52:44Z</time>
      </trkpt>
      <trkpt lat="42.4667" lon="2.29143">
        <ele>1720</ele>
        <time>2020-08-05T16:53:02Z</time>
      </trkpt>
      <trkpt lat="42.46682" lon="2.29152">
        <ele>1716</ele>
        <time>2020-08-05T16:53:09Z</time>
      </trkpt>
      <trkpt lat="42.46683" lon="2.29161">
        <ele>1713</ele>
        <time>2020-08-05T16:53:12Z</time>
      </trkpt>
      <trkpt lat="42.46678" lon="2.29167">
        <ele>1713</ele>
        <time>2020-08-05T16:53:16Z</time>
      </trkpt>
      <trkpt lat="42.46683" lon="2.29179">
        <ele>1709</ele>
        <time>2020-08-05T16:53:21Z</time>
      </trkpt>
      <trkpt lat="42.46687" lon="2.2918">
        <ele>1708</ele>
        <time>2020-08-05T16:53:23Z</time>
      </trkpt>
      <trkpt lat="42.46691" lon="2.29187">
        <ele>1706</ele>
        <time>2020-08-05T16:53:26Z</time>
      </trkpt>
      <trkpt lat="42.46691" lon="2.29194">
        <ele>1704</ele>
        <time>2020-08-05T16:53:29Z</time>
      </trkpt>
      <trkpt lat="42.46694" lon="2.29194">
        <ele>1704</ele>
        <time>2020-08-05T16:53:30Z</time>
      </trkpt>
      <trkpt lat="42.46701" lon="2.29203">
        <ele>1701</ele>
        <time>2020-08-05T16:53:35Z</time>
      </trkpt>
      <trkpt lat="42.46716" lon="2.29233">
        <ele>1692</ele>
        <time>2020-08-05T16:53:48Z</time>
      </trkpt>
      <trkpt lat="42.46726" lon="2.29242">
        <ele>1689</ele>
        <time>2020-08-05T16:53:54Z</time>
      </trkpt>
      <trkpt lat="42.4673" lon="2.29255">
        <ele>1686</ele>
        <time>2020-08-05T16:53:59Z</time>
      </trkpt>
      <trkpt lat="42.46744" lon="2.29269">
        <ele>1682</ele>
        <time>2020-08-05T16:54:08Z</time>
      </trkpt>
      <trkpt lat="42.46751" lon="2.2929">
        <ele>1678</ele>
        <time>2020-08-05T16:54:17Z</time>
      </trkpt>
      <trkpt lat="42.46766" lon="2.29309">
        <ele>1675</ele>
        <time>2020-08-05T16:54:27Z</time>
      </trkpt>
      <trkpt lat="42.46773" lon="2.29313">
        <ele>1674</ele>
        <time>2020-08-05T16:54:31Z</time>
      </trkpt>
      <trkpt lat="42.46786" lon="2.29333">
        <ele>1671</ele>
        <time>2020-08-05T16:54:41Z</time>
      </trkpt>
      <trkpt lat="42.4679" lon="2.29344">
        <ele>1668</ele>
        <time>2020-08-05T16:54:45Z</time>
      </trkpt>
      <trkpt lat="42.46808" lon="2.29363">
        <ele>1663</ele>
        <time>2020-08-05T16:54:57Z</time>
      </trkpt>
      <trkpt lat="42.46872" lon="2.29452">
        <ele>1639</ele>
        <time>2020-08-05T16:55:42Z</time>
      </trkpt>
      <trkpt lat="42.46885" lon="2.29452">
        <ele>1639</ele>
        <time>2020-08-05T16:55:49Z</time>
      </trkpt>
      <trkpt lat="42.46892" lon="2.2946">
        <ele>1636</ele>
        <time>2020-08-05T16:55:54Z</time>
      </trkpt>
      <trkpt lat="42.46896" lon="2.29461">
        <ele>1636</ele>
        <time>2020-08-05T16:55:56Z</time>
      </trkpt>
      <trkpt lat="42.46924" lon="2.29492">
        <ele>1627</ele>
        <time>2020-08-05T16:56:14Z</time>
      </trkpt>
      <trkpt lat="42.46938" lon="2.29502">
        <ele>1625</ele>
        <time>2020-08-05T16:56:22Z</time>
      </trkpt>
      <trkpt lat="42.46967" lon="2.29529">
        <ele>1618</ele>
        <time>2020-08-05T16:56:39Z</time>
      </trkpt>
      <trkpt lat="42.46984" lon="2.29528">
        <ele>1619</ele>
        <time>2020-08-05T16:56:48Z</time>
      </trkpt>
      <trkpt lat="42.47008" lon="2.29533">
        <ele>1618</ele>
        <time>2020-08-05T16:57:00Z</time>
      </trkpt>
      <trkpt lat="42.47046" lon="2.29549">
        <ele>1617</ele>
        <time>2020-08-05T16:57:20Z</time>
      </trkpt>
      <trkpt lat="42.47054" lon="2.2955">
        <ele>1617</ele>
        <time>2020-08-05T16:57:24Z</time>
      </trkpt>
      <trkpt lat="42.47061" lon="2.29547">
        <ele>1618</ele>
        <time>2020-08-05T16:57:27Z</time>
      </trkpt>
      <trkpt lat="42.47066" lon="2.29569">
        <ele>1612</ele>
        <time>2020-08-05T16:57:36Z</time>
      </trkpt>
      <trkpt lat="42.47075" lon="2.29573">
        <ele>1612</ele>
        <time>2020-08-05T16:57:41Z</time>
      </trkpt>
      <trkpt lat="42.4708" lon="2.29578">
        <ele>1610</ele>
        <time>2020-08-05T16:57:44Z</time>
      </trkpt>
      <trkpt lat="42.47105" lon="2.29615">
        <ele>1603</ele>
        <time>2020-08-05T16:58:02Z</time>
      </trkpt>
      <trkpt lat="42.47138" lon="2.29644">
        <ele>1598</ele>
        <time>2020-08-05T16:58:22Z</time>
      </trkpt>
      <trkpt lat="42.47169" lon="2.29691">
        <ele>1586</ele>
        <time>2020-08-05T16:58:45Z</time>
      </trkpt>
      <trkpt lat="42.47198" lon="2.29713">
        <ele>1582</ele>
        <time>2020-08-05T16:59:02Z</time>
      </trkpt>
      <trkpt lat="42.4723" lon="2.29762">
        <ele>1570</ele>
        <time>2020-08-05T16:59:26Z</time>
      </trkpt>
      <trkpt lat="42.47251" lon="2.29787">
        <ele>1564</ele>
        <time>2020-08-05T16:59:40Z</time>
      </trkpt>
      <trkpt lat="42.47268" lon="2.29794">
        <ele>1563</ele>
        <time>2020-08-05T16:59:49Z</time>
      </trkpt>
      <trkpt lat="42.47286" lon="2.29791">
        <ele>1565</ele>
        <time>2020-08-05T16:59:58Z</time>
      </trkpt>
      <trkpt lat="42.4728" lon="2.29802">
        <ele>1561</ele>
        <time>2020-08-05T17:00:03Z</time>
      </trkpt>
      <trkpt lat="42.47278" lon="2.29814">
        <ele>1557</ele>
        <time>2020-08-05T17:00:08Z</time>
      </trkpt>
      <trkpt lat="42.47298" lon="2.29839">
        <ele>1551</ele>
        <time>2020-08-05T17:00:21Z</time>
      </trkpt>
      <trkpt lat="42.473" lon="2.29858">
        <ele>1547</ele>
        <time>2020-08-05T17:00:28Z</time>
      </trkpt>
      <trkpt lat="42.47311" lon="2.29875">
        <ele>1544</ele>
        <time>2020-08-05T17:00:37Z</time>
      </trkpt>
      <trkpt lat="42.4731" lon="2.29878">
        <ele>1543</ele>
        <time>2020-08-05T17:00:38Z</time>
      </trkpt>
      <trkpt lat="42.47304" lon="2.29878">
        <ele>1543</ele>
        <time>2020-08-05T17:00:41Z</time>
      </trkpt>
      <trkpt lat="42.47305" lon="2.29885">
        <ele>1542</ele>
        <time>2020-08-05T17:00:43Z</time>
      </trkpt>
      <trkpt lat="42.47321" lon="2.29913">
        <ele>1535</ele>
        <time>2020-08-05T17:00:57Z</time>
      </trkpt>
      <trkpt lat="42.4732" lon="2.29918">
        <ele>1534</ele>
        <time>2020-08-05T17:00:58Z</time>
      </trkpt>
      <trkpt lat="42.47331" lon="2.29945">
        <ele>1531</ele>
        <time>2020-08-05T17:01:10Z</time>
      </trkpt>
      <trkpt lat="42.47332" lon="2.29953">
        <ele>1529</ele>
        <time>2020-08-05T17:01:13Z</time>
      </trkpt>
      <trkpt lat="42.47348" lon="2.29982">
        <ele>1525</ele>
        <time>2020-08-05T17:01:26Z</time>
      </trkpt>
      <trkpt lat="42.47351" lon="2.29997">
        <ele>1522</ele>
        <time>2020-08-05T17:01:32Z</time>
      </trkpt>
      <trkpt lat="42.47359" lon="2.30014">
        <ele>1521</ele>
        <time>2020-08-05T17:01:39Z</time>
      </trkpt>
      <trkpt lat="42.47366" lon="2.30021">
        <ele>1521</ele>
        <time>2020-08-05T17:01:44Z</time>
      </trkpt>
      <trkpt lat="42.47388" lon="2.30033">
        <ele>1517</ele>
        <time>2020-08-05T17:01:56Z</time>
      </trkpt>
      <trkpt lat="42.47375" lon="2.30065">
        <ele>1519</ele>
        <time>2020-08-05T17:02:09Z</time>
      </trkpt>
      <trkpt lat="42.47368" lon="2.30076">
        <ele>1522</ele>
        <time>2020-08-05T17:02:14Z</time>
      </trkpt>
      <trkpt lat="42.47405" lon="2.30105">
        <ele>1512</ele>
        <time>2020-08-05T17:02:36Z</time>
      </trkpt>
      <trkpt lat="42.47434" lon="2.30116">
        <ele>1505</ele>
        <time>2020-08-05T17:02:51Z</time>
      </trkpt>
      <trkpt lat="42.47455" lon="2.3013">
        <ele>1502</ele>
        <time>2020-08-05T17:03:03Z</time>
      </trkpt>
      <trkpt lat="42.4747" lon="2.30156">
        <ele>1499</ele>
        <time>2020-08-05T17:03:15Z</time>
      </trkpt>
      <trkpt lat="42.47491" lon="2.30174">
        <ele>1494</ele>
        <time>2020-08-05T17:03:27Z</time>
      </trkpt>
      <trkpt lat="42.4751" lon="2.30205">
        <ele>1489</ele>
        <time>2020-08-05T17:03:42Z</time>
      </trkpt>
      <trkpt lat="42.47575" lon="2.3029">
        <ele>1479</ele>
        <time>2020-08-05T17:04:27Z</time>
      </trkpt>
      <trkpt lat="42.47588" lon="2.30304">
        <ele>1478</ele>
        <time>2020-08-05T17:04:36Z</time>
      </trkpt>
      <trkpt lat="42.47591" lon="2.30312">
        <ele>1478</ele>
        <time>2020-08-05T17:04:39Z</time>
      </trkpt>
      <trkpt lat="42.47593" lon="2.30332">
        <ele>1479</ele>
        <time>2020-08-05T17:04:46Z</time>
      </trkpt>
      <trkpt lat="42.47586" lon="2.30357">
        <ele>1483</ele>
        <time>2020-08-05T17:04:56Z</time>
      </trkpt>
      <trkpt lat="42.47587" lon="2.30363">
        <ele>1485</ele>
        <time>2020-08-05T17:04:59Z</time>
      </trkpt>
      <trkpt lat="42.47592" lon="2.30369">
        <ele>1486</ele>
        <time>2020-08-05T17:05:02Z</time>
      </trkpt>
      <trkpt lat="42.47599" lon="2.30368">
        <ele>1486</ele>
        <time>2020-08-05T17:05:05Z</time>
      </trkpt>
      <trkpt lat="42.47609" lon="2.30358">
        <ele>1485</ele>
        <time>2020-08-05T17:05:12Z</time>
      </trkpt>
      <trkpt lat="42.47617" lon="2.30357">
        <ele>1485</ele>
        <time>2020-08-05T17:05:16Z</time>
      </trkpt>
      <trkpt lat="42.47636" lon="2.30379">
        <ele>1490</ele>
        <time>2020-08-05T17:05:28Z</time>
      </trkpt>
      <trkpt lat="42.47648" lon="2.30388">
        <ele>1493</ele>
        <time>2020-08-05T17:05:35Z</time>
      </trkpt>
      <trkpt lat="42.47654" lon="2.30408">
        <ele>1497</ele>
        <time>2020-08-05T17:05:43Z</time>
      </trkpt>
      <trkpt lat="42.47657" lon="2.3044">
        <ele>1503</ele>
        <time>2020-08-05T17:05:55Z</time>
      </trkpt>
      <trkpt lat="42.47662" lon="2.30444">
        <ele>1504</ele>
        <time>2020-08-05T17:05:58Z</time>
      </trkpt>
      <trkpt lat="42.47665" lon="2.30462">
        <ele>1507</ele>
        <time>2020-08-05T17:06:05Z</time>
      </trkpt>
      <trkpt lat="42.47671" lon="2.30472">
        <ele>1509</ele>
        <time>2020-08-05T17:06:09Z</time>
      </trkpt>
      <trkpt lat="42.47674" lon="2.30522">
        <ele>1518</ele>
        <time>2020-08-05T17:06:28Z</time>
      </trkpt>
      <trkpt lat="42.47693" lon="2.30593">
        <ele>1534</ele>
        <time>2020-08-05T17:06:56Z</time>
      </trkpt>
      <trkpt lat="42.47693" lon="2.30637">
        <ele>1540</ele>
        <time>2020-08-05T17:07:12Z</time>
      </trkpt>
      <trkpt lat="42.47702" lon="2.30642">
        <ele>1542</ele>
        <time>2020-08-05T17:07:17Z</time>
      </trkpt>
      <trkpt lat="42.47708" lon="2.3065">
        <ele>1544</ele>
        <time>2020-08-05T17:07:21Z</time>
      </trkpt>
      <trkpt lat="42.47714" lon="2.30663">
        <ele>1546</ele>
        <time>2020-08-05T17:07:27Z</time>
      </trkpt>
      <trkpt lat="42.47715" lon="2.30686">
        <ele>1549</ele>
        <time>2020-08-05T17:07:35Z</time>
      </trkpt>
      <trkpt lat="42.47722" lon="2.30691">
        <ele>1550</ele>
        <time>2020-08-05T17:07:39Z</time>
      </trkpt>
      <trkpt lat="42.4773" lon="2.30703">
        <ele>1552</ele>
        <time>2020-08-05T17:07:45Z</time>
      </trkpt>
      <trkpt lat="42.47735" lon="2.30741">
        <ele>1555</ele>
        <time>2020-08-05T17:07:59Z</time>
      </trkpt>
      <trkpt lat="42.47741" lon="2.30759">
        <ele>1557</ele>
        <time>2020-08-05T17:08:07Z</time>
      </trkpt>
      <trkpt lat="42.47741" lon="2.30774">
        <ele>1559</ele>
        <time>2020-08-05T17:08:12Z</time>
      </trkpt>
      <trkpt lat="42.47769" lon="2.30786">
        <ele>1566</ele>
        <time>2020-08-05T17:08:27Z</time>
      </trkpt>
      <trkpt lat="42.47793" lon="2.30773">
        <ele>1574</ele>
        <time>2020-08-05T17:08:40Z</time>
      </trkpt>
      <trkpt lat="42.47802" lon="2.30759">
        <ele>1576</ele>
        <time>2020-08-05T17:08:47Z</time>
      </trkpt>
      <trkpt lat="42.47805" lon="2.30759">
        <ele>1577</ele>
        <time>2020-08-05T17:08:48Z</time>
      </trkpt>
      <trkpt lat="42.47818" lon="2.30783">
        <ele>1584</ele>
        <time>2020-08-05T17:08:59Z</time>
      </trkpt>
      <trkpt lat="42.47825" lon="2.30801">
        <ele>1587</ele>
        <time>2020-08-05T17:09:07Z</time>
      </trkpt>
      <trkpt lat="42.47828" lon="2.30817">
        <ele>1589</ele>
        <time>2020-08-05T17:09:13Z</time>
      </trkpt>
      <trkpt lat="42.47816" lon="2.30882">
        <ele>1591</ele>
        <time>2020-08-05T17:09:38Z</time>
      </trkpt>
      <trkpt lat="42.47821" lon="2.30873">
        <ele>1592</ele>
        <time>2020-08-05T17:09:42Z</time>
      </trkpt>
      <trkpt lat="42.47829" lon="2.30847">
        <ele>1592</ele>
        <time>2020-08-05T17:09:52Z</time>
      </trkpt>
      <trkpt lat="42.47835" lon="2.3084">
        <ele>1593</ele>
        <time>2020-08-05T17:09:56Z</time>
      </trkpt>
      <trkpt lat="42.47844" lon="2.30907">
        <ele>1603</ele>
        <time>2020-08-05T17:10:21Z</time>
      </trkpt>
      <trkpt lat="42.47852" lon="2.30941">
        <ele>1613</ele>
        <time>2020-08-05T17:10:34Z</time>
      </trkpt>
      <trkpt lat="42.47856" lon="2.30947">
        <ele>1616</ele>
        <time>2020-08-05T17:10:37Z</time>
      </trkpt>
      <trkpt lat="42.47858" lon="2.30935">
        <ele>1614</ele>
        <time>2020-08-05T17:10:42Z</time>
      </trkpt>
      <trkpt lat="42.47867" lon="2.30922">
        <ele>1616</ele>
        <time>2020-08-05T17:10:48Z</time>
      </trkpt>
      <trkpt lat="42.4787" lon="2.30911">
        <ele>1616</ele>
        <time>2020-08-05T17:10:53Z</time>
      </trkpt>
      <trkpt lat="42.47877" lon="2.30901">
        <ele>1618</ele>
        <time>2020-08-05T17:10:58Z</time>
      </trkpt>
      <trkpt lat="42.4788" lon="2.30899">
        <ele>1619</ele>
        <time>2020-08-05T17:11:00Z</time>
      </trkpt>
      <trkpt lat="42.47884" lon="2.309">
        <ele>1621</ele>
        <time>2020-08-05T17:11:02Z</time>
      </trkpt>
      <trkpt lat="42.47893" lon="2.30967">
        <ele>1633</ele>
        <time>2020-08-05T17:11:27Z</time>
      </trkpt>
      <trkpt lat="42.47902" lon="2.30995">
        <ele>1639</ele>
        <time>2020-08-05T17:11:38Z</time>
      </trkpt>
      <trkpt lat="42.47901" lon="2.31009">
        <ele>1641</ele>
        <time>2020-08-05T17:11:43Z</time>
      </trkpt>
      <trkpt lat="42.47903" lon="2.31021">
        <ele>1643</ele>
        <time>2020-08-05T17:11:48Z</time>
      </trkpt>
      <trkpt lat="42.47916" lon="2.31064">
        <ele>1651</ele>
        <time>2020-08-05T17:12:05Z</time>
      </trkpt>
      <trkpt lat="42.47918" lon="2.31067">
        <ele>1652</ele>
        <time>2020-08-05T17:12:06Z</time>
      </trkpt>
      <trkpt lat="42.47926" lon="2.31062">
        <ele>1655</ele>
        <time>2020-08-05T17:12:11Z</time>
      </trkpt>
      <trkpt lat="42.47943" lon="2.31033">
        <ele>1660</ele>
        <time>2020-08-05T17:12:24Z</time>
      </trkpt>
      <trkpt lat="42.47946" lon="2.31032">
        <ele>1661</ele>
        <time>2020-08-05T17:12:26Z</time>
      </trkpt>
      <trkpt lat="42.4796" lon="2.311">
        <ele>1676</ele>
        <time>2020-08-05T17:12:52Z</time>
      </trkpt>
      <trkpt lat="42.47961" lon="2.31127">
        <ele>1682</ele>
        <time>2020-08-05T17:13:02Z</time>
      </trkpt>
      <trkpt lat="42.4798" lon="2.3109">
        <ele>1683</ele>
        <time>2020-08-05T17:13:19Z</time>
      </trkpt>
      <trkpt lat="42.47985" lon="2.31089">
        <ele>1686</ele>
        <time>2020-08-05T17:13:21Z</time>
      </trkpt>
      <trkpt lat="42.47978" lon="2.3113">
        <ele>1688</ele>
        <time>2020-08-05T17:13:37Z</time>
      </trkpt>
      <trkpt lat="42.47981" lon="2.31137">
        <ele>1690</ele>
        <time>2020-08-05T17:13:40Z</time>
      </trkpt>
      <trkpt lat="42.47979" lon="2.31161">
        <ele>1692</ele>
        <time>2020-08-05T17:13:49Z</time>
      </trkpt>
      <trkpt lat="42.47986" lon="2.31169">
        <ele>1695</ele>
        <time>2020-08-05T17:13:53Z</time>
      </trkpt>
      <trkpt lat="42.47991" lon="2.31159">
        <ele>1695</ele>
        <time>2020-08-05T17:13:58Z</time>
      </trkpt>
      <trkpt lat="42.47996" lon="2.31157">
        <ele>1696</ele>
        <time>2020-08-05T17:14:00Z</time>
      </trkpt>
      <trkpt lat="42.48009" lon="2.31132">
        <ele>1701</ele>
        <time>2020-08-05T17:14:12Z</time>
      </trkpt>
      <trkpt lat="42.48021" lon="2.31116">
        <ele>1707</ele>
        <time>2020-08-05T17:14:20Z</time>
      </trkpt>
      <trkpt lat="42.48033" lon="2.31184">
        <ele>1720</ele>
        <time>2020-08-05T17:14:46Z</time>
      </trkpt>
      <trkpt lat="42.48037" lon="2.31226">
        <ele>1729</ele>
        <time>2020-08-05T17:15:01Z</time>
      </trkpt>
      <trkpt lat="42.48034" lon="2.31248">
        <ele>1732</ele>
        <time>2020-08-05T17:15:10Z</time>
      </trkpt>
      <trkpt lat="42.48035" lon="2.31256">
        <ele>1734</ele>
        <time>2020-08-05T17:15:13Z</time>
      </trkpt>
      <trkpt lat="42.4804" lon="2.31255">
        <ele>1736</ele>
        <time>2020-08-05T17:15:15Z</time>
      </trkpt>
      <trkpt lat="42.48051" lon="2.31244">
        <ele>1737</ele>
        <time>2020-08-05T17:15:22Z</time>
      </trkpt>
      <trkpt lat="42.48067" lon="2.31217">
        <ele>1741</ele>
        <time>2020-08-05T17:15:35Z</time>
      </trkpt>
      <trkpt lat="42.4807" lon="2.31218">
        <ele>1742</ele>
        <time>2020-08-05T17:15:36Z</time>
      </trkpt>
      <trkpt lat="42.48083" lon="2.31313">
        <ele>1754</ele>
        <time>2020-08-05T17:16:12Z</time>
      </trkpt>
      <trkpt lat="42.48083" lon="2.31362">
        <ele>1760</ele>
        <time>2020-08-05T17:16:30Z</time>
      </trkpt>
      <trkpt lat="42.48085" lon="2.31369">
        <ele>1761</ele>
        <time>2020-08-05T17:16:33Z</time>
      </trkpt>
      <trkpt lat="42.48102" lon="2.31373">
        <ele>1763</ele>
        <time>2020-08-05T17:16:42Z</time>
      </trkpt>
      <trkpt lat="42.48118" lon="2.31388">
        <ele>1764</ele>
        <time>2020-08-05T17:16:51Z</time>
      </trkpt>
      <trkpt lat="42.4813" lon="2.31407">
        <ele>1763</ele>
        <time>2020-08-05T17:17:01Z</time>
      </trkpt>
      <trkpt lat="42.48139" lon="2.31411">
        <ele>1762</ele>
        <time>2020-08-05T17:17:05Z</time>
      </trkpt>
      <trkpt lat="42.48144" lon="2.31427">
        <ele>1760</ele>
        <time>2020-08-05T17:17:12Z</time>
      </trkpt>
      <trkpt lat="42.48153" lon="2.31438">
        <ele>1757</ele>
        <time>2020-08-05T17:17:18Z</time>
      </trkpt>
      <trkpt lat="42.48163" lon="2.31444">
        <ele>1754</ele>
        <time>2020-08-05T17:17:23Z</time>
      </trkpt>
      <trkpt lat="42.48176" lon="2.31446">
        <ele>1752</ele>
        <time>2020-08-05T17:17:30Z</time>
      </trkpt>
      <trkpt lat="42.48194" lon="2.31443">
        <ele>1751</ele>
        <time>2020-08-05T17:17:39Z</time>
      </trkpt>
      <trkpt lat="42.48199" lon="2.31446">
        <ele>1749</ele>
        <time>2020-08-05T17:17:42Z</time>
      </trkpt>
      <trkpt lat="42.48202" lon="2.31453">
        <ele>1747</ele>
        <time>2020-08-05T17:17:45Z</time>
      </trkpt>
      <trkpt lat="42.48201" lon="2.31468">
        <ele>1743</ele>
        <time>2020-08-05T17:17:50Z</time>
      </trkpt>
      <trkpt lat="42.48188" lon="2.31488">
        <ele>1740</ele>
        <time>2020-08-05T17:18:00Z</time>
      </trkpt>
      <trkpt lat="42.4819" lon="2.3149">
        <ele>1739</ele>
        <time>2020-08-05T17:18:01Z</time>
      </trkpt>
      <trkpt lat="42.48203" lon="2.31491">
        <ele>1737</ele>
        <time>2020-08-05T17:18:08Z</time>
      </trkpt>
      <trkpt lat="42.48215" lon="2.31486">
        <ele>1736</ele>
        <time>2020-08-05T17:18:14Z</time>
      </trkpt>
      <trkpt lat="42.48217" lon="2.31491">
        <ele>1734</ele>
        <time>2020-08-05T17:18:16Z</time>
      </trkpt>
      <trkpt lat="42.48216" lon="2.31501">
        <ele>1731</ele>
        <time>2020-08-05T17:18:20Z</time>
      </trkpt>
      <trkpt lat="42.48209" lon="2.31511">
        <ele>1729</ele>
        <time>2020-08-05T17:18:25Z</time>
      </trkpt>
      <trkpt lat="42.48203" lon="2.31535">
        <ele>1724</ele>
        <time>2020-08-05T17:18:34Z</time>
      </trkpt>
      <trkpt lat="42.48207" lon="2.31538">
        <ele>1722</ele>
        <time>2020-08-05T17:18:37Z</time>
      </trkpt>
      <trkpt lat="42.48215" lon="2.31537">
        <ele>1720</ele>
        <time>2020-08-05T17:18:41Z</time>
      </trkpt>
      <trkpt lat="42.48219" lon="2.31532">
        <ele>1720</ele>
        <time>2020-08-05T17:18:43Z</time>
      </trkpt>
      <trkpt lat="42.48223" lon="2.31533">
        <ele>1719</ele>
        <time>2020-08-05T17:18:45Z</time>
      </trkpt>
      <trkpt lat="42.48224" lon="2.31536">
        <ele>1717</ele>
        <time>2020-08-05T17:18:47Z</time>
      </trkpt>
      <trkpt lat="42.48218" lon="2.31553">
        <ele>1714</ele>
        <time>2020-08-05T17:18:53Z</time>
      </trkpt>
      <trkpt lat="42.48212" lon="2.31559">
        <ele>1714</ele>
        <time>2020-08-05T17:18:57Z</time>
      </trkpt>
      <trkpt lat="42.4821" lon="2.31568">
        <ele>1712</ele>
        <time>2020-08-05T17:19:01Z</time>
      </trkpt>
      <trkpt lat="42.48212" lon="2.3157">
        <ele>1710</ele>
        <time>2020-08-05T17:19:02Z</time>
      </trkpt>
      <trkpt lat="42.48221" lon="2.31568">
        <ele>1708</ele>
        <time>2020-08-05T17:19:06Z</time>
      </trkpt>
      <trkpt lat="42.48231" lon="2.31554">
        <ele>1709</ele>
        <time>2020-08-05T17:19:14Z</time>
      </trkpt>
      <trkpt lat="42.48234" lon="2.31555">
        <ele>1708</ele>
        <time>2020-08-05T17:19:15Z</time>
      </trkpt>
      <trkpt lat="42.48232" lon="2.3157">
        <ele>1703</ele>
        <time>2020-08-05T17:19:21Z</time>
      </trkpt>
      <trkpt lat="42.48234" lon="2.31572">
        <ele>1701</ele>
        <time>2020-08-05T17:19:22Z</time>
      </trkpt>
      <trkpt lat="42.48247" lon="2.31567">
        <ele>1699</ele>
        <time>2020-08-05T17:19:29Z</time>
      </trkpt>
      <trkpt lat="42.48258" lon="2.31557">
        <ele>1700</ele>
        <time>2020-08-05T17:19:35Z</time>
      </trkpt>
      <trkpt lat="42.48258" lon="2.31569">
        <ele>1696</ele>
        <time>2020-08-05T17:19:40Z</time>
      </trkpt>
      <trkpt lat="42.48251" lon="2.31581">
        <ele>1692</ele>
        <time>2020-08-05T17:19:46Z</time>
      </trkpt>
      <trkpt lat="42.48248" lon="2.31595">
        <ele>1688</ele>
        <time>2020-08-05T17:19:51Z</time>
      </trkpt>
      <trkpt lat="42.48253" lon="2.316">
        <ele>1686</ele>
        <time>2020-08-05T17:19:54Z</time>
      </trkpt>
      <trkpt lat="42.48271" lon="2.31604">
        <ele>1682</ele>
        <time>2020-08-05T17:20:03Z</time>
      </trkpt>
      <trkpt lat="42.48273" lon="2.31614">
        <ele>1679</ele>
        <time>2020-08-05T17:20:07Z</time>
      </trkpt>
      <trkpt lat="42.48266" lon="2.31621">
        <ele>1678</ele>
        <time>2020-08-05T17:20:11Z</time>
      </trkpt>
      <trkpt lat="42.48265" lon="2.31625">
        <ele>1677</ele>
        <time>2020-08-05T17:20:13Z</time>
      </trkpt>
      <trkpt lat="42.48267" lon="2.31634">
        <ele>1673</ele>
        <time>2020-08-05T17:20:16Z</time>
      </trkpt>
      <trkpt lat="42.4827" lon="2.31637">
        <ele>1672</ele>
        <time>2020-08-05T17:20:18Z</time>
      </trkpt>
      <trkpt lat="42.48276" lon="2.31637">
        <ele>1671</ele>
        <time>2020-08-05T17:20:21Z</time>
      </trkpt>
      <trkpt lat="42.48266" lon="2.31667">
        <ele>1663</ele>
        <time>2020-08-05T17:20:33Z</time>
      </trkpt>
      <trkpt lat="42.48266" lon="2.31677">
        <ele>1661</ele>
        <time>2020-08-05T17:20:37Z</time>
      </trkpt>
      <trkpt lat="42.48261" lon="2.31699">
        <ele>1656</ele>
        <time>2020-08-05T17:20:46Z</time>
      </trkpt>
      <trkpt lat="42.48269" lon="2.31713">
        <ele>1650</ele>
        <time>2020-08-05T17:20:52Z</time>
      </trkpt>
      <trkpt lat="42.48265" lon="2.31729">
        <ele>1647</ele>
        <time>2020-08-05T17:20:58Z</time>
      </trkpt>
      <trkpt lat="42.48268" lon="2.3174">
        <ele>1643</ele>
        <time>2020-08-05T17:21:03Z</time>
      </trkpt>
      <trkpt lat="42.48279" lon="2.31741">
        <ele>1640</ele>
        <time>2020-08-05T17:21:08Z</time>
      </trkpt>
      <trkpt lat="42.48292" lon="2.31723">
        <ele>1642</ele>
        <time>2020-08-05T17:21:18Z</time>
      </trkpt>
      <trkpt lat="42.48299" lon="2.3172">
        <ele>1641</ele>
        <time>2020-08-05T17:21:21Z</time>
      </trkpt>
      <trkpt lat="42.48307" lon="2.31711">
        <ele>1642</ele>
        <time>2020-08-05T17:21:26Z</time>
      </trkpt>
      <trkpt lat="42.48309" lon="2.31712">
        <ele>1641</ele>
        <time>2020-08-05T17:21:27Z</time>
      </trkpt>
      <trkpt lat="42.48306" lon="2.31746">
        <ele>1632</ele>
        <time>2020-08-05T17:21:40Z</time>
      </trkpt>
      <trkpt lat="42.48322" lon="2.31746">
        <ele>1628</ele>
        <time>2020-08-05T17:21:48Z</time>
      </trkpt>
      <trkpt lat="42.48326" lon="2.31752">
        <ele>1625</ele>
        <time>2020-08-05T17:21:51Z</time>
      </trkpt>
      <trkpt lat="42.48328" lon="2.31757">
        <ele>1623</ele>
        <time>2020-08-05T17:21:53Z</time>
      </trkpt>
      <trkpt lat="42.48327" lon="2.3179">
        <ele>1615</ele>
        <time>2020-08-05T17:22:05Z</time>
      </trkpt>
      <trkpt lat="42.48332" lon="2.31815">
        <ele>1606</ele>
        <time>2020-08-05T17:22:15Z</time>
      </trkpt>
      <trkpt lat="42.48346" lon="2.31832">
        <ele>1606</ele>
        <time>2020-08-05T17:22:24Z</time>
      </trkpt>
      <trkpt lat="42.48357" lon="2.31852">
        <ele>1606</ele>
        <time>2020-08-05T17:22:34Z</time>
      </trkpt>
      <trkpt lat="42.4837" lon="2.31893">
        <ele>1602</ele>
        <time>2020-08-05T17:22:50Z</time>
      </trkpt>
      <trkpt lat="42.48373" lon="2.31917">
        <ele>1597</ele>
        <time>2020-08-05T17:22:59Z</time>
      </trkpt>
      <trkpt lat="42.48372" lon="2.31971">
        <ele>1584</ele>
        <time>2020-08-05T17:23:19Z</time>
      </trkpt>
      <trkpt lat="42.48383" lon="2.31998">
        <ele>1577</ele>
        <time>2020-08-05T17:23:30Z</time>
      </trkpt>
      <trkpt lat="42.48437" lon="2.32066">
        <ele>1555</ele>
        <time>2020-08-05T17:24:07Z</time>
      </trkpt>
      <trkpt lat="42.48479" lon="2.32098">
        <ele>1548</ele>
        <time>2020-08-05T17:24:31Z</time>
      </trkpt>
      <trkpt lat="42.48515" lon="2.32136">
        <ele>1536</ele>
        <time>2020-08-05T17:24:54Z</time>
      </trkpt>
      <trkpt lat="42.48538" lon="2.32172">
        <ele>1527</ele>
        <time>2020-08-05T17:25:12Z</time>
      </trkpt>
      <trkpt lat="42.48562" lon="2.322">
        <ele>1521</ele>
        <time>2020-08-05T17:25:28Z</time>
      </trkpt>
      <trkpt lat="42.48581" lon="2.32217">
        <ele>1516</ele>
        <time>2020-08-05T17:25:39Z</time>
      </trkpt>
      <trkpt lat="42.48622" lon="2.3224">
        <ele>1505</ele>
        <time>2020-08-05T17:26:01Z</time>
      </trkpt>
      <trkpt lat="42.48643" lon="2.32257">
        <ele>1498</ele>
        <time>2020-08-05T17:26:13Z</time>
      </trkpt>
      <trkpt lat="42.48638" lon="2.32275">
        <ele>1491</ele>
        <time>2020-08-05T17:26:20Z</time>
      </trkpt>
      <trkpt lat="42.4863" lon="2.32281">
        <ele>1489</ele>
        <time>2020-08-05T17:26:25Z</time>
      </trkpt>
      <trkpt lat="42.48575" lon="2.32283">
        <ele>1490</ele>
        <time>2020-08-05T17:26:53Z</time>
      </trkpt>
      <trkpt lat="42.48566" lon="2.32278">
        <ele>1492</ele>
        <time>2020-08-05T17:26:57Z</time>
      </trkpt>
      <trkpt lat="42.48561" lon="2.32278">
        <ele>1493</ele>
        <time>2020-08-05T17:27:00Z</time>
      </trkpt>
      <trkpt lat="42.48562" lon="2.32291">
        <ele>1489</ele>
        <time>2020-08-05T17:27:05Z</time>
      </trkpt>
      <trkpt lat="42.48554" lon="2.32294">
        <ele>1489</ele>
        <time>2020-08-05T17:27:09Z</time>
      </trkpt>
      <trkpt lat="42.48552" lon="2.32297">
        <ele>1489</ele>
        <time>2020-08-05T17:27:10Z</time>
      </trkpt>
      <trkpt lat="42.48553" lon="2.32313">
        <ele>1484</ele>
        <time>2020-08-05T17:27:16Z</time>
      </trkpt>
      <trkpt lat="42.48559" lon="2.32316">
        <ele>1482</ele>
        <time>2020-08-05T17:27:20Z</time>
      </trkpt>
      <trkpt lat="42.48584" lon="2.32307">
        <ele>1480</ele>
        <time>2020-08-05T17:27:33Z</time>
      </trkpt>
      <trkpt lat="42.48595" lon="2.32309">
        <ele>1480</ele>
        <time>2020-08-05T17:27:38Z</time>
      </trkpt>
      <trkpt lat="42.48622" lon="2.32328">
        <ele>1472</ele>
        <time>2020-08-05T17:27:53Z</time>
      </trkpt>
      <trkpt lat="42.48669" lon="2.32372">
        <ele>1463</ele>
        <time>2020-08-05T17:28:22Z</time>
      </trkpt>
      <trkpt lat="42.48675" lon="2.32372">
        <ele>1464</ele>
        <time>2020-08-05T17:28:25Z</time>
      </trkpt>
      <trkpt lat="42.48691" lon="2.32359">
        <ele>1469</ele>
        <time>2020-08-05T17:28:34Z</time>
      </trkpt>
      <trkpt lat="42.48703" lon="2.32362">
        <ele>1470</ele>
        <time>2020-08-05T17:28:40Z</time>
      </trkpt>
      <trkpt lat="42.48709" lon="2.32369">
        <ele>1469</ele>
        <time>2020-08-05T17:28:44Z</time>
      </trkpt>
      <trkpt lat="42.48708" lon="2.32438">
        <ele>1456</ele>
        <time>2020-08-05T17:29:10Z</time>
      </trkpt>
      <trkpt lat="42.48712" lon="2.32467">
        <ele>1452</ele>
        <time>2020-08-05T17:29:21Z</time>
      </trkpt>
      <trkpt lat="42.48721" lon="2.32493">
        <ele>1447</ele>
        <time>2020-08-05T17:29:31Z</time>
      </trkpt>
      <trkpt lat="42.4873" lon="2.32509">
        <ele>1444</ele>
        <time>2020-08-05T17:29:39Z</time>
      </trkpt>
      <trkpt lat="42.48735" lon="2.32511">
        <ele>1442</ele>
        <time>2020-08-05T17:29:41Z</time>
      </trkpt>
      <trkpt lat="42.48746" lon="2.32522">
        <ele>1438</ele>
        <time>2020-08-05T17:29:48Z</time>
      </trkpt>
      <trkpt lat="42.48759" lon="2.3252">
        <ele>1440</ele>
        <time>2020-08-05T17:29:55Z</time>
      </trkpt>
      <trkpt lat="42.48762" lon="2.32527">
        <ele>1440</ele>
        <time>2020-08-05T17:29:58Z</time>
      </trkpt>
      <trkpt lat="42.48783" lon="2.32543">
        <ele>1443</ele>
        <time>2020-08-05T17:30:10Z</time>
      </trkpt>
      <trkpt lat="42.48802" lon="2.32575">
        <ele>1438</ele>
        <time>2020-08-05T17:30:25Z</time>
      </trkpt>
      <trkpt lat="42.48812" lon="2.32604">
        <ele>1433</ele>
        <time>2020-08-05T17:30:37Z</time>
      </trkpt>
      <trkpt lat="42.48835" lon="2.3265">
        <ele>1423</ele>
        <time>2020-08-05T17:30:57Z</time>
      </trkpt>
      <trkpt lat="42.48851" lon="2.32693">
        <ele>1422</ele>
        <time>2020-08-05T17:31:15Z</time>
      </trkpt>
      <trkpt lat="42.48861" lon="2.32734">
        <ele>1420</ele>
        <time>2020-08-05T17:31:31Z</time>
      </trkpt>
      <trkpt lat="42.4887" lon="2.32753">
        <ele>1421</ele>
        <time>2020-08-05T17:31:39Z</time>
      </trkpt>
      <trkpt lat="42.48875" lon="2.32801">
        <ele>1420</ele>
        <time>2020-08-05T17:31:57Z</time>
      </trkpt>
      <trkpt lat="42.48867" lon="2.32846">
        <ele>1411</ele>
        <time>2020-08-05T17:32:14Z</time>
      </trkpt>
      <trkpt lat="42.4889" lon="2.32961">
        <ele>1405</ele>
        <time>2020-08-05T17:32:58Z</time>
      </trkpt>
      <trkpt lat="42.48892" lon="2.32988">
        <ele>1402</ele>
        <time>2020-08-05T17:33:08Z</time>
      </trkpt>
      <trkpt lat="42.48895" lon="2.32993">
        <ele>1403</ele>
        <time>2020-08-05T17:33:11Z</time>
      </trkpt>
      <trkpt lat="42.48894" lon="2.33018">
        <ele>1397</ele>
        <time>2020-08-05T17:33:20Z</time>
      </trkpt>
      <trkpt lat="42.48886" lon="2.33048">
        <ele>1388</ele>
        <time>2020-08-05T17:33:32Z</time>
      </trkpt>
      <trkpt lat="42.48886" lon="2.33069">
        <ele>1383</ele>
        <time>2020-08-05T17:33:39Z</time>
      </trkpt>
      <trkpt lat="42.48896" lon="2.33083">
        <ele>1385</ele>
        <time>2020-08-05T17:33:46Z</time>
      </trkpt>
      <trkpt lat="42.48907" lon="2.33087">
        <ele>1388</ele>
        <time>2020-08-05T17:33:52Z</time>
      </trkpt>
      <trkpt lat="42.48904" lon="2.33107">
        <ele>1379</ele>
        <time>2020-08-05T17:34:00Z</time>
      </trkpt>
      <trkpt lat="42.48923" lon="2.33126">
        <ele>1377</ele>
        <time>2020-08-05T17:34:12Z</time>
      </trkpt>
      <trkpt lat="42.48949" lon="2.33126">
        <ele>1386</ele>
        <time>2020-08-05T17:34:25Z</time>
      </trkpt>
      <trkpt lat="42.48955" lon="2.33131">
        <ele>1385</ele>
        <time>2020-08-05T17:34:28Z</time>
      </trkpt>
      <trkpt lat="42.4896" lon="2.33139">
        <ele>1383</ele>
        <time>2020-08-05T17:34:32Z</time>
      </trkpt>
      <trkpt lat="42.48968" lon="2.33168">
        <ele>1373</ele>
        <time>2020-08-05T17:34:43Z</time>
      </trkpt>
      <trkpt lat="42.49003" lon="2.33207">
        <ele>1368</ele>
        <time>2020-08-05T17:35:06Z</time>
      </trkpt>
      <trkpt lat="42.49051" lon="2.33281">
        <ele>1352</ele>
        <time>2020-08-05T17:35:42Z</time>
      </trkpt>
      <trkpt lat="42.49066" lon="2.33296">
        <ele>1349</ele>
        <time>2020-08-05T17:35:52Z</time>
      </trkpt>
      <trkpt lat="42.49078" lon="2.33304">
        <ele>1348</ele>
        <time>2020-08-05T17:35:58Z</time>
      </trkpt>
      <trkpt lat="42.49106" lon="2.33321">
        <ele>1349</ele>
        <time>2020-08-05T17:36:14Z</time>
      </trkpt>
      <trkpt lat="42.4913" lon="2.33329">
        <ele>1353</ele>
        <time>2020-08-05T17:36:26Z</time>
      </trkpt>
      <trkpt lat="42.49136" lon="2.33334">
        <ele>1354</ele>
        <time>2020-08-05T17:36:30Z</time>
      </trkpt>
      <trkpt lat="42.49127" lon="2.33363">
        <ele>1346</ele>
        <time>2020-08-05T17:36:41Z</time>
      </trkpt>
      <trkpt lat="42.49135" lon="2.33412">
        <ele>1342</ele>
        <time>2020-08-05T17:37:00Z</time>
      </trkpt>
      <trkpt lat="42.49133" lon="2.33489">
        <ele>1330</ele>
        <time>2020-08-05T17:37:28Z</time>
      </trkpt>
      <trkpt lat="42.49135" lon="2.33507">
        <ele>1329</ele>
        <time>2020-08-05T17:37:35Z</time>
      </trkpt>
      <trkpt lat="42.49146" lon="2.33532">
        <ele>1330</ele>
        <time>2020-08-05T17:37:46Z</time>
      </trkpt>
      <trkpt lat="42.49148" lon="2.33542">
        <ele>1330</ele>
        <time>2020-08-05T17:37:50Z</time>
      </trkpt>
      <trkpt lat="42.49145" lon="2.33584">
        <ele>1322</ele>
        <time>2020-08-05T17:38:05Z</time>
      </trkpt>
      <trkpt lat="42.49157" lon="2.33627">
        <ele>1321</ele>
        <time>2020-08-05T17:38:22Z</time>
      </trkpt>
      <trkpt lat="42.49159" lon="2.3372">
        <ele>1305</ele>
        <time>2020-08-05T17:38:56Z</time>
      </trkpt>
      <trkpt lat="42.49164" lon="2.33777">
        <ele>1298</ele>
        <time>2020-08-05T17:39:18Z</time>
      </trkpt>
      <trkpt lat="42.49168" lon="2.33797">
        <ele>1296</ele>
        <time>2020-08-05T17:39:25Z</time>
      </trkpt>
      <trkpt lat="42.49166" lon="2.33804">
        <ele>1294</ele>
        <time>2020-08-05T17:39:28Z</time>
      </trkpt>
      <trkpt lat="42.49165" lon="2.33925">
        <ele>1274</ele>
        <time>2020-08-05T17:40:13Z</time>
      </trkpt>
      <trkpt lat="42.49158" lon="2.33941">
        <ele>1268</ele>
        <time>2020-08-05T17:40:19Z</time>
      </trkpt>
      <trkpt lat="42.49143" lon="2.3396">
        <ele>1257</ele>
        <time>2020-08-05T17:40:30Z</time>
      </trkpt>
      <trkpt lat="42.49153" lon="2.34019">
        <ele>1252</ele>
        <time>2020-08-05T17:40:52Z</time>
      </trkpt>
      <trkpt lat="42.49167" lon="2.34063">
        <ele>1247</ele>
        <time>2020-08-05T17:41:10Z</time>
      </trkpt>
      <trkpt lat="42.49191" lon="2.34113">
        <ele>1231</ele>
        <time>2020-08-05T17:41:32Z</time>
      </trkpt>
      <trkpt lat="42.49198" lon="2.34149">
        <ele>1218</ele>
        <time>2020-08-05T17:41:46Z</time>
      </trkpt>
      <trkpt lat="42.49207" lon="2.34158">
        <ele>1214</ele>
        <time>2020-08-05T17:41:51Z</time>
      </trkpt>
      <trkpt lat="42.49219" lon="2.34158">
        <ele>1211</ele>
        <time>2020-08-05T17:41:57Z</time>
      </trkpt>
      <trkpt lat="42.49227" lon="2.34153">
        <ele>1211</ele>
        <time>2020-08-05T17:42:02Z</time>
      </trkpt>
      <trkpt lat="42.4924" lon="2.34134">
        <ele>1215</ele>
        <time>2020-08-05T17:42:11Z</time>
      </trkpt>
      <trkpt lat="42.49245" lon="2.34133">
        <ele>1215</ele>
        <time>2020-08-05T17:42:14Z</time>
      </trkpt>
      <trkpt lat="42.49244" lon="2.34141">
        <ele>1212</ele>
        <time>2020-08-05T17:42:17Z</time>
      </trkpt>
      <trkpt lat="42.49249" lon="2.34142">
        <ele>1211</ele>
        <time>2020-08-05T17:42:19Z</time>
      </trkpt>
      <trkpt lat="42.49243" lon="2.34151">
        <ele>1208</ele>
        <time>2020-08-05T17:42:24Z</time>
      </trkpt>
      <trkpt lat="42.49244" lon="2.34154">
        <ele>1207</ele>
        <time>2020-08-05T17:42:25Z</time>
      </trkpt>
      <trkpt lat="42.4925" lon="2.34151">
        <ele>1207</ele>
        <time>2020-08-05T17:42:28Z</time>
      </trkpt>
      <trkpt lat="42.49251" lon="2.34153">
        <ele>1206</ele>
        <time>2020-08-05T17:42:29Z</time>
      </trkpt>
      <trkpt lat="42.49248" lon="2.34158">
        <ele>1205</ele>
        <time>2020-08-05T17:42:31Z</time>
      </trkpt>
      <trkpt lat="42.4925" lon="2.34182">
        <ele>1198</ele>
        <time>2020-08-05T17:42:40Z</time>
      </trkpt>
      <trkpt lat="42.49252" lon="2.34183">
        <ele>1198</ele>
        <time>2020-08-05T17:42:41Z</time>
      </trkpt>
      <trkpt lat="42.49256" lon="2.34174">
        <ele>1199</ele>
        <time>2020-08-05T17:42:45Z</time>
      </trkpt>
      <trkpt lat="42.49261" lon="2.3418">
        <ele>1198</ele>
        <time>2020-08-05T17:42:49Z</time>
      </trkpt>
      <trkpt lat="42.4926" lon="2.34187">
        <ele>1197</ele>
        <time>2020-08-05T17:42:51Z</time>
      </trkpt>
      <trkpt lat="42.49264" lon="2.34205">
        <ele>1193</ele>
        <time>2020-08-05T17:42:58Z</time>
      </trkpt>
      <trkpt lat="42.49277" lon="2.34194">
        <ele>1194</ele>
        <time>2020-08-05T17:43:06Z</time>
      </trkpt>
      <trkpt lat="42.49286" lon="2.3419">
        <ele>1194</ele>
        <time>2020-08-05T17:43:10Z</time>
      </trkpt>
      <trkpt lat="42.49292" lon="2.34193">
        <ele>1193</ele>
        <time>2020-08-05T17:43:14Z</time>
      </trkpt>
      <trkpt lat="42.49305" lon="2.34193">
        <ele>1193</ele>
        <time>2020-08-05T17:43:20Z</time>
      </trkpt>
      <trkpt lat="42.49309" lon="2.34197">
        <ele>1192</ele>
        <time>2020-08-05T17:43:23Z</time>
      </trkpt>
      <trkpt lat="42.49307" lon="2.34233">
        <ele>1184</ele>
        <time>2020-08-05T17:43:36Z</time>
      </trkpt>
      <trkpt lat="42.49305" lon="2.34238">
        <ele>1183</ele>
        <time>2020-08-05T17:43:38Z</time>
      </trkpt>
      <trkpt lat="42.49311" lon="2.34285">
        <ele>1172</ele>
        <time>2020-08-05T17:43:56Z</time>
      </trkpt>
      <trkpt lat="42.49312" lon="2.34328">
        <ele>1162</ele>
        <time>2020-08-05T17:44:12Z</time>
      </trkpt>
      <trkpt lat="42.4931" lon="2.34332">
        <ele>1162</ele>
        <time>2020-08-05T17:44:13Z</time>
      </trkpt>
      <trkpt lat="42.49318" lon="2.34373">
        <ele>1152</ele>
        <time>2020-08-05T17:44:29Z</time>
      </trkpt>
      <trkpt lat="42.49333" lon="2.3441">
        <ele>1140</ele>
        <time>2020-08-05T17:44:45Z</time>
      </trkpt>
      <trkpt lat="42.49328" lon="2.34424">
        <ele>1139</ele>
        <time>2020-08-05T17:44:50Z</time>
      </trkpt>
      <trkpt lat="42.49335" lon="2.34423">
        <ele>1138</ele>
        <time>2020-08-05T17:44:54Z</time>
      </trkpt>
      <trkpt lat="42.49337" lon="2.34425">
        <ele>1139</ele>
        <time>2020-08-05T17:44:55Z</time>
      </trkpt>
      <trkpt lat="42.49342" lon="2.34447">
        <ele>1135</ele>
        <time>2020-08-05T17:45:04Z</time>
      </trkpt>
      <trkpt lat="42.49347" lon="2.34453">
        <ele>1136</ele>
        <time>2020-08-05T17:45:07Z</time>
      </trkpt>
      <trkpt lat="42.49359" lon="2.34489">
        <ele>1130</ele>
        <time>2020-08-05T17:45:22Z</time>
      </trkpt>
      <trkpt lat="42.49371" lon="2.34541">
        <ele>1120</ele>
        <time>2020-08-05T17:45:42Z</time>
      </trkpt>
      <trkpt lat="42.49401" lon="2.34644">
        <ele>1104</ele>
        <time>2020-08-05T17:46:22Z</time>
      </trkpt>
      <trkpt lat="42.49428" lon="2.347">
        <ele>1095</ele>
        <time>2020-08-05T17:46:47Z</time>
      </trkpt>
      <trkpt lat="42.49436" lon="2.34728">
        <ele>1088</ele>
        <time>2020-08-05T17:46:58Z</time>
      </trkpt>
      <trkpt lat="42.49449" lon="2.34755">
        <ele>1082</ele>
        <time>2020-08-05T17:47:10Z</time>
      </trkpt>
      <trkpt lat="42.49466" lon="2.34783">
        <ele>1076</ele>
        <time>2020-08-05T17:47:24Z</time>
      </trkpt>
      <trkpt lat="42.49473" lon="2.34788">
        <ele>1076</ele>
        <time>2020-08-05T17:47:27Z</time>
      </trkpt>
      <trkpt lat="42.49486" lon="2.34929">
        <ele>1050</ele>
        <time>2020-08-05T17:48:20Z</time>
      </trkpt>
      <trkpt lat="42.49498" lon="2.34982">
        <ele>1043</ele>
        <time>2020-08-05T17:48:40Z</time>
      </trkpt>
      <trkpt lat="42.49515" lon="2.3502">
        <ele>1039</ele>
        <time>2020-08-05T17:48:57Z</time>
      </trkpt>
      <trkpt lat="42.49524" lon="2.35061">
        <ele>1036</ele>
        <time>2020-08-05T17:49:13Z</time>
      </trkpt>
      <trkpt lat="42.49555" lon="2.35091">
        <ele>1034</ele>
        <time>2020-08-05T17:49:32Z</time>
      </trkpt>
      <trkpt lat="42.49561" lon="2.35101">
        <ele>1033</ele>
        <time>2020-08-05T17:49:36Z</time>
      </trkpt>
      <trkpt lat="42.49563" lon="2.35163">
        <ele>1024</ele>
        <time>2020-08-05T17:49:59Z</time>
      </trkpt>
      <trkpt lat="42.49574" lon="2.35245">
        <ele>1011</ele>
        <time>2020-08-05T17:50:30Z</time>
      </trkpt>
      <trkpt lat="42.4957" lon="2.3529">
        <ele>1005</ele>
        <time>2020-08-05T17:50:47Z</time>
      </trkpt>
      <trkpt lat="42.49572" lon="2.35312">
        <ele>1001</ele>
        <time>2020-08-05T17:50:55Z</time>
      </trkpt>
      <trkpt lat="42.49581" lon="2.35343">
        <ele>996</ele>
        <time>2020-08-05T17:51:07Z</time>
      </trkpt>
      <trkpt lat="42.49598" lon="2.35386">
        <ele>991</ele>
        <time>2020-08-05T17:51:25Z</time>
      </trkpt>
      <trkpt lat="42.4963" lon="2.35437">
        <ele>987</ele>
        <time>2020-08-05T17:51:50Z</time>
      </trkpt>
      <trkpt lat="42.49639" lon="2.35446">
        <ele>987</ele>
        <time>2020-08-05T17:51:56Z</time>
      </trkpt>
      <trkpt lat="42.49644" lon="2.35455">
        <ele>986</ele>
        <time>2020-08-05T17:52:00Z</time>
      </trkpt>
      <trkpt lat="42.49628" lon="2.35459">
        <ele>984</ele>
        <time>2020-08-05T17:52:08Z</time>
      </trkpt>
      <trkpt lat="42.49616" lon="2.35467">
        <ele>981</ele>
        <time>2020-08-05T17:52:15Z</time>
      </trkpt>
      <trkpt lat="42.49614" lon="2.35478">
        <ele>980</ele>
        <time>2020-08-05T17:52:19Z</time>
      </trkpt>
      <trkpt lat="42.49617" lon="2.35489">
        <ele>978</ele>
        <time>2020-08-05T17:52:23Z</time>
      </trkpt>
      <trkpt lat="42.49625" lon="2.35501">
        <ele>977</ele>
        <time>2020-08-05T17:52:29Z</time>
      </trkpt>
      <trkpt lat="42.49633" lon="2.35507">
        <ele>977</ele>
        <time>2020-08-05T17:52:34Z</time>
      </trkpt>
      <trkpt lat="42.49642" lon="2.35509">
        <ele>977</ele>
        <time>2020-08-05T17:52:38Z</time>
      </trkpt>
      <trkpt lat="42.49663" lon="2.35508">
        <ele>978</ele>
        <time>2020-08-05T17:52:49Z</time>
      </trkpt>
      <trkpt lat="42.49671" lon="2.35512">
        <ele>978</ele>
        <time>2020-08-05T17:52:53Z</time>
      </trkpt>
      <trkpt lat="42.49724" lon="2.35593">
        <ele>972</ele>
        <time>2020-08-05T17:53:33Z</time>
      </trkpt>
      <trkpt lat="42.49749" lon="2.35608">
        <ele>973</ele>
        <time>2020-08-05T17:53:47Z</time>
      </trkpt>
      <trkpt lat="42.49777" lon="2.35646">
        <ele>968</ele>
        <time>2020-08-05T17:54:06Z</time>
      </trkpt>
      <trkpt lat="42.49796" lon="2.35662">
        <ele>966</ele>
        <time>2020-08-05T17:54:18Z</time>
      </trkpt>
      <trkpt lat="42.49839" lon="2.35705">
        <ele>960</ele>
        <time>2020-08-05T17:54:44Z</time>
      </trkpt>
      <trkpt lat="42.49862" lon="2.35734">
        <ele>954</ele>
        <time>2020-08-05T17:55:00Z</time>
      </trkpt>
      <trkpt lat="42.49877" lon="2.35741">
        <ele>952</ele>
        <time>2020-08-05T17:55:08Z</time>
      </trkpt>
      <trkpt lat="42.4989" lon="2.35762">
        <ele>950</ele>
        <time>2020-08-05T17:55:18Z</time>
      </trkpt>
      <trkpt lat="42.49888" lon="2.35817">
        <ele>953</ele>
        <time>2020-08-05T17:55:38Z</time>
      </trkpt>
      <trkpt lat="42.49949" lon="2.359">
        <ele>954</ele>
        <time>2020-08-05T17:56:22Z</time>
      </trkpt>
      <trkpt lat="42.50013" lon="2.35998">
        <ele>967</ele>
        <time>2020-08-05T17:57:10Z</time>
      </trkpt>
      <trkpt lat="42.50097" lon="2.36026">
        <ele>951</ele>
        <time>2020-08-05T17:57:53Z</time>
      </trkpt>
      <trkpt lat="42.50225" lon="2.36049">
        <ele>947</ele>
        <time>2020-08-05T17:58:58Z</time>
      </trkpt>
      <trkpt lat="42.50227" lon="2.36052">
        <ele>947</ele>
        <time>2020-08-05T17:58:59Z</time>
      </trkpt>
      <trkpt lat="42.5026" lon="2.36049">
        <ele>943</ele>
        <time>2020-08-05T17:59:16Z</time>
      </trkpt>
      <trkpt lat="42.50275" lon="2.36044">
        <ele>940</ele>
        <time>2020-08-05T17:59:24Z</time>
      </trkpt>
      <trkpt lat="42.5029" lon="2.36046">
        <ele>939</ele>
        <time>2020-08-05T17:59:31Z</time>
      </trkpt>
      <trkpt lat="42.50307" lon="2.3606">
        <ele>941</ele>
        <time>2020-08-05T17:59:41Z</time>
      </trkpt>
      <trkpt lat="42.5032" lon="2.36086">
        <ele>946</ele>
        <time>2020-08-05T17:59:53Z</time>
      </trkpt>
      <trkpt lat="42.50329" lon="2.36116">
        <ele>949</ele>
        <time>2020-08-05T18:00:05Z</time>
      </trkpt>
      <trkpt lat="42.50339" lon="2.36173">
        <ele>959</ele>
        <time>2020-08-05T18:00:26Z</time>
      </trkpt>
      <trkpt lat="42.50349" lon="2.36184">
        <ele>963</ele>
        <time>2020-08-05T18:00:33Z</time>
      </trkpt>
      <trkpt lat="42.50371" lon="2.36182">
        <ele>967</ele>
        <time>2020-08-05T18:00:44Z</time>
      </trkpt>
      <trkpt lat="42.50381" lon="2.36178">
        <ele>969</ele>
        <time>2020-08-05T18:00:49Z</time>
      </trkpt>
      <trkpt lat="42.50391" lon="2.36166">
        <ele>969</ele>
        <time>2020-08-05T18:00:56Z</time>
      </trkpt>
      <trkpt lat="42.50396" lon="2.36153">
        <ele>968</ele>
        <time>2020-08-05T18:01:01Z</time>
      </trkpt>
      <trkpt lat="42.50401" lon="2.36124">
        <ele>965</ele>
        <time>2020-08-05T18:01:12Z</time>
      </trkpt>
      <trkpt lat="42.50401" lon="2.36111">
        <ele>963</ele>
        <time>2020-08-05T18:01:17Z</time>
      </trkpt>
      <trkpt lat="42.50397" lon="2.3609">
        <ele>959</ele>
        <time>2020-08-05T18:01:25Z</time>
      </trkpt>
      <trkpt lat="42.50406" lon="2.36073">
        <ele>957</ele>
        <time>2020-08-05T18:01:33Z</time>
      </trkpt>
      <trkpt lat="42.50423" lon="2.3606">
        <ele>955</ele>
        <time>2020-08-05T18:01:42Z</time>
      </trkpt>
      <trkpt lat="42.50473" lon="2.36068">
        <ele>963</ele>
        <time>2020-08-05T18:02:08Z</time>
      </trkpt>
      <trkpt lat="42.5056" lon="2.3607">
        <ele>975</ele>
        <time>2020-08-05T18:02:51Z</time>
      </trkpt>
      <trkpt lat="42.50619" lon="2.36064">
        <ele>982</ele>
        <time>2020-08-05T18:03:21Z</time>
      </trkpt>
      <trkpt lat="42.50628" lon="2.36059">
        <ele>981</ele>
        <time>2020-08-05T18:03:26Z</time>
      </trkpt>
      <trkpt lat="42.5064" lon="2.36041">
        <ele>976</ele>
        <time>2020-08-05T18:03:34Z</time>
      </trkpt>
      <trkpt lat="42.50663" lon="2.36034">
        <ele>979</ele>
        <time>2020-08-05T18:03:46Z</time>
      </trkpt>
      <trkpt lat="42.50671" lon="2.36035">
        <ele>978</ele>
        <time>2020-08-05T18:03:50Z</time>
      </trkpt>
      <trkpt lat="42.50684" lon="2.36044">
        <ele>977</ele>
        <time>2020-08-05T18:03:58Z</time>
      </trkpt>
      <trkpt lat="42.50704" lon="2.36128">
        <ele>1002</ele>
        <time>2020-08-05T18:04:30Z</time>
      </trkpt>
      <trkpt lat="42.5072" lon="2.36166">
        <ele>1011</ele>
        <time>2020-08-05T18:04:46Z</time>
      </trkpt>
      <trkpt lat="42.50761" lon="2.36214">
        <ele>1014</ele>
        <time>2020-08-05T18:05:13Z</time>
      </trkpt>
      <trkpt lat="42.50768" lon="2.36225">
        <ele>1016</ele>
        <time>2020-08-05T18:05:19Z</time>
      </trkpt>
      <trkpt lat="42.5077" lon="2.36245">
        <ele>1024</ele>
        <time>2020-08-05T18:05:26Z</time>
      </trkpt>
      <trkpt lat="42.50783" lon="2.36276">
        <ele>1031</ele>
        <time>2020-08-05T18:05:39Z</time>
      </trkpt>
      <trkpt lat="42.50818" lon="2.36316">
        <ele>1028</ele>
        <time>2020-08-05T18:06:02Z</time>
      </trkpt>
      <trkpt lat="42.50823" lon="2.36325">
        <ele>1028</ele>
        <time>2020-08-05T18:06:06Z</time>
      </trkpt>
      <trkpt lat="42.50844" lon="2.36412">
        <ele>1051</ele>
        <time>2020-08-05T18:06:40Z</time>
      </trkpt>
      <trkpt lat="42.50867" lon="2.36444">
        <ele>1054</ele>
        <time>2020-08-05T18:06:57Z</time>
      </trkpt>
      <trkpt lat="42.50893" lon="2.36458">
        <ele>1048</ele>
        <time>2020-08-05T18:07:11Z</time>
      </trkpt>
      <trkpt lat="42.50915" lon="2.36485">
        <ele>1053</ele>
        <time>2020-08-05T18:07:26Z</time>
      </trkpt>
      <trkpt lat="42.50926" lon="2.36491">
        <ele>1052</ele>
        <time>2020-08-05T18:07:31Z</time>
      </trkpt>
      <trkpt lat="42.50936" lon="2.365">
        <ele>1053</ele>
        <time>2020-08-05T18:07:37Z</time>
      </trkpt>
      <trkpt lat="42.50973" lon="2.36504">
        <ele>1041</ele>
        <time>2020-08-05T18:07:56Z</time>
      </trkpt>
      <trkpt lat="42.50991" lon="2.36521">
        <ele>1040</ele>
        <time>2020-08-05T18:08:07Z</time>
      </trkpt>
      <trkpt lat="42.51004" lon="2.36541">
        <ele>1041</ele>
        <time>2020-08-05T18:08:17Z</time>
      </trkpt>
      <trkpt lat="42.51014" lon="2.36563">
        <ele>1041</ele>
        <time>2020-08-05T18:08:26Z</time>
      </trkpt>
      <trkpt lat="42.51024" lon="2.36615">
        <ele>1047</ele>
        <time>2020-08-05T18:08:46Z</time>
      </trkpt>
      <trkpt lat="42.51026" lon="2.36645">
        <ele>1052</ele>
        <time>2020-08-05T18:08:57Z</time>
      </trkpt>
      <trkpt lat="42.51042" lon="2.36707">
        <ele>1058</ele>
        <time>2020-08-05T18:09:22Z</time>
      </trkpt>
      <trkpt lat="42.51049" lon="2.36721">
        <ele>1058</ele>
        <time>2020-08-05T18:09:28Z</time>
      </trkpt>
      <trkpt lat="42.51057" lon="2.36732">
        <ele>1057</ele>
        <time>2020-08-05T18:09:34Z</time>
      </trkpt>
      <trkpt lat="42.51069" lon="2.36742">
        <ele>1053</ele>
        <time>2020-08-05T18:09:41Z</time>
      </trkpt>
      <trkpt lat="42.51102" lon="2.3676">
        <ele>1043</ele>
        <time>2020-08-05T18:09:58Z</time>
      </trkpt>
      <trkpt lat="42.51123" lon="2.36767">
        <ele>1035</ele>
        <time>2020-08-05T18:10:09Z</time>
      </trkpt>
      <trkpt lat="42.51126" lon="2.36777">
        <ele>1037</ele>
        <time>2020-08-05T18:10:13Z</time>
      </trkpt>
      <trkpt lat="42.51122" lon="2.36859">
        <ele>1062</ele>
        <time>2020-08-05T18:10:43Z</time>
      </trkpt>
      <trkpt lat="42.51126" lon="2.36902">
        <ele>1070</ele>
        <time>2020-08-05T18:10:59Z</time>
      </trkpt>
      <trkpt lat="42.51137" lon="2.36919">
        <ele>1068</ele>
        <time>2020-08-05T18:11:08Z</time>
      </trkpt>
      <trkpt lat="42.5114" lon="2.36934">
        <ele>1072</ele>
        <time>2020-08-05T18:11:14Z</time>
      </trkpt>
      <trkpt lat="42.51187" lon="2.3695">
        <ele>1055</ele>
        <time>2020-08-05T18:11:38Z</time>
      </trkpt>
      <trkpt lat="42.51231" lon="2.36974">
        <ele>1051</ele>
        <time>2020-08-05T18:12:02Z</time>
      </trkpt>
      <trkpt lat="42.51241" lon="2.36985">
        <ele>1053</ele>
        <time>2020-08-05T18:12:08Z</time>
      </trkpt>
      <trkpt lat="42.51259" lon="2.37025">
        <ele>1068</ele>
        <time>2020-08-05T18:12:25Z</time>
      </trkpt>
      <trkpt lat="42.51266" lon="2.37033">
        <ele>1070</ele>
        <time>2020-08-05T18:12:30Z</time>
      </trkpt>
      <trkpt lat="42.51296" lon="2.37035">
        <ele>1064</ele>
        <time>2020-08-05T18:12:45Z</time>
      </trkpt>
      <trkpt lat="42.51327" lon="2.37032">
        <ele>1054</ele>
        <time>2020-08-05T18:13:00Z</time>
      </trkpt>
      <trkpt lat="42.5134" lon="2.37033">
        <ele>1050</ele>
        <time>2020-08-05T18:13:07Z</time>
      </trkpt>
      <trkpt lat="42.51352" lon="2.37038">
        <ele>1048</ele>
        <time>2020-08-05T18:13:13Z</time>
      </trkpt>
      <trkpt lat="42.51374" lon="2.37065">
        <ele>1054</ele>
        <time>2020-08-05T18:13:28Z</time>
      </trkpt>
      <trkpt lat="42.51395" lon="2.37099">
        <ele>1058</ele>
        <time>2020-08-05T18:13:44Z</time>
      </trkpt>
      <trkpt lat="42.51414" lon="2.37116">
        <ele>1054</ele>
        <time>2020-08-05T18:13:56Z</time>
      </trkpt>
      <trkpt lat="42.51432" lon="2.37128">
        <ele>1051</ele>
        <time>2020-08-05T18:14:06Z</time>
      </trkpt>
      <trkpt lat="42.51444" lon="2.37132">
        <ele>1048</ele>
        <time>2020-08-05T18:14:12Z</time>
      </trkpt>
      <trkpt lat="42.51463" lon="2.37144">
        <ele>1043</ele>
        <time>2020-08-05T18:14:23Z</time>
      </trkpt>
      <trkpt lat="42.514" lon="2.37252">
        <ele>1054</ele>
        <time>2020-08-05T18:15:13Z</time>
      </trkpt>
      <trkpt lat="42.51376" lon="2.37275">
        <ele>1058</ele>
        <time>2020-08-05T18:15:28Z</time>
      </trkpt>
      <trkpt lat="42.51368" lon="2.37288">
        <ele>1059</ele>
        <time>2020-08-05T18:15:34Z</time>
      </trkpt>
      <trkpt lat="42.51359" lon="2.37318">
        <ele>1055</ele>
        <time>2020-08-05T18:15:46Z</time>
      </trkpt>
      <trkpt lat="42.51345" lon="2.37386">
        <ele>1043</ele>
        <time>2020-08-05T18:16:12Z</time>
      </trkpt>
      <trkpt lat="42.51336" lon="2.37399">
        <ele>1044</ele>
        <time>2020-08-05T18:16:19Z</time>
      </trkpt>
      <trkpt lat="42.51277" lon="2.37452">
        <ele>1044</ele>
        <time>2020-08-05T18:16:54Z</time>
      </trkpt>
      <trkpt lat="42.51248" lon="2.37465">
        <ele>1048</ele>
        <time>2020-08-05T18:17:10Z</time>
      </trkpt>
      <trkpt lat="42.51237" lon="2.37466">
        <ele>1050</ele>
        <time>2020-08-05T18:17:15Z</time>
      </trkpt>
      <trkpt lat="42.51219" lon="2.37479">
        <ele>1049</ele>
        <time>2020-08-05T18:17:25Z</time>
      </trkpt>
      <trkpt lat="42.51189" lon="2.37485">
        <ele>1054</ele>
        <time>2020-08-05T18:17:40Z</time>
      </trkpt>
      <trkpt lat="42.51167" lon="2.37494">
        <ele>1056</ele>
        <time>2020-08-05T18:17:52Z</time>
      </trkpt>
      <trkpt lat="42.51161" lon="2.37506">
        <ele>1056</ele>
        <time>2020-08-05T18:17:57Z</time>
      </trkpt>
      <trkpt lat="42.51161" lon="2.37514">
        <ele>1055</ele>
        <time>2020-08-05T18:18:00Z</time>
      </trkpt>
      <trkpt lat="42.51173" lon="2.37576">
        <ele>1040</ele>
        <time>2020-08-05T18:18:24Z</time>
      </trkpt>
      <trkpt lat="42.51167" lon="2.37622">
        <ele>1036</ele>
        <time>2020-08-05T18:18:41Z</time>
      </trkpt>
      <trkpt lat="42.51146" lon="2.37668">
        <ele>1042</ele>
        <time>2020-08-05T18:19:01Z</time>
      </trkpt>
      <trkpt lat="42.5115" lon="2.37674">
        <ele>1040</ele>
        <time>2020-08-05T18:19:04Z</time>
      </trkpt>
      <trkpt lat="42.51168" lon="2.37671">
        <ele>1031</ele>
        <time>2020-08-05T18:19:13Z</time>
      </trkpt>
      <trkpt lat="42.5117" lon="2.37676">
        <ele>1031</ele>
        <time>2020-08-05T18:19:15Z</time>
      </trkpt>
      <trkpt lat="42.51154" lon="2.37701">
        <ele>1040</ele>
        <time>2020-08-05T18:19:27Z</time>
      </trkpt>
      <trkpt lat="42.51155" lon="2.37713">
        <ele>1041</ele>
        <time>2020-08-05T18:19:32Z</time>
      </trkpt>
      <trkpt lat="42.51161" lon="2.37714">
        <ele>1039</ele>
        <time>2020-08-05T18:19:35Z</time>
      </trkpt>
      <trkpt lat="42.51204" lon="2.377">
        <ele>1029</ele>
        <time>2020-08-05T18:19:57Z</time>
      </trkpt>
      <trkpt lat="42.51237" lon="2.37705">
        <ele>1026</ele>
        <time>2020-08-05T18:20:14Z</time>
      </trkpt>
      <trkpt lat="42.51272" lon="2.37715">
        <ele>1026</ele>
        <time>2020-08-05T18:20:32Z</time>
      </trkpt>
      <trkpt lat="42.51307" lon="2.37727">
        <ele>1027</ele>
        <time>2020-08-05T18:20:50Z</time>
      </trkpt>
      <trkpt lat="42.51325" lon="2.37738">
        <ele>1030</ele>
        <time>2020-08-05T18:21:00Z</time>
      </trkpt>
      <trkpt lat="42.51356" lon="2.37774">
        <ele>1039</ele>
        <time>2020-08-05T18:21:20Z</time>
      </trkpt>
      <trkpt lat="42.51355" lon="2.37781">
        <ele>1042</ele>
        <time>2020-08-05T18:21:23Z</time>
      </trkpt>
      <trkpt lat="42.51339" lon="2.37788">
        <ele>1049</ele>
        <time>2020-08-05T18:21:31Z</time>
      </trkpt>
      <trkpt lat="42.51338" lon="2.37791">
        <ele>1050</ele>
        <time>2020-08-05T18:21:32Z</time>
      </trkpt>
      <trkpt lat="42.5134" lon="2.37796">
        <ele>1052</ele>
        <time>2020-08-05T18:21:34Z</time>
      </trkpt>
      <trkpt lat="42.51349" lon="2.37804">
        <ele>1053</ele>
        <time>2020-08-05T18:21:40Z</time>
      </trkpt>
      <trkpt lat="42.51351" lon="2.37812">
        <ele>1055</ele>
        <time>2020-08-05T18:21:43Z</time>
      </trkpt>
      <trkpt lat="42.5136" lon="2.3791">
        <ele>1092</ele>
        <time>2020-08-05T18:22:19Z</time>
      </trkpt>
      <trkpt lat="42.51377" lon="2.37949">
        <ele>1101</ele>
        <time>2020-08-05T18:22:36Z</time>
      </trkpt>
      <trkpt lat="42.5143" lon="2.38028">
        <ele>1116</ele>
        <time>2020-08-05T18:23:15Z</time>
      </trkpt>
      <trkpt lat="42.51441" lon="2.38034">
        <ele>1117</ele>
        <time>2020-08-05T18:23:21Z</time>
      </trkpt>
      <trkpt lat="42.5146" lon="2.38038">
        <ele>1117</ele>
        <time>2020-08-05T18:23:31Z</time>
      </trkpt>
      <trkpt lat="42.51486" lon="2.38027">
        <ele>1113</ele>
        <time>2020-08-05T18:23:45Z</time>
      </trkpt>
      <trkpt lat="42.51498" lon="2.38015">
        <ele>1111</ele>
        <time>2020-08-05T18:23:52Z</time>
      </trkpt>
      <trkpt lat="42.51502" lon="2.38016">
        <ele>1111</ele>
        <time>2020-08-05T18:23:54Z</time>
      </trkpt>
      <trkpt lat="42.51503" lon="2.38022">
        <ele>1112</ele>
        <time>2020-08-05T18:23:56Z</time>
      </trkpt>
      <trkpt lat="42.51496" lon="2.38069">
        <ele>1120</ele>
        <time>2020-08-05T18:24:14Z</time>
      </trkpt>
      <trkpt lat="42.51497" lon="2.38095">
        <ele>1124</ele>
        <time>2020-08-05T18:24:24Z</time>
      </trkpt>
      <trkpt lat="42.51494" lon="2.38095">
        <ele>1124</ele>
        <time>2020-08-05T18:24:25Z</time>
      </trkpt>
      <trkpt lat="42.5157" lon="2.38117">
        <ele>1114</ele>
        <time>2020-08-05T18:25:04Z</time>
      </trkpt>
      <trkpt lat="42.51578" lon="2.38113">
        <ele>1113</ele>
        <time>2020-08-05T18:25:08Z</time>
      </trkpt>
      <trkpt lat="42.51602" lon="2.38091">
        <ele>1111</ele>
        <time>2020-08-05T18:25:23Z</time>
      </trkpt>
      <trkpt lat="42.51612" lon="2.38084">
        <ele>1110</ele>
        <time>2020-08-05T18:25:28Z</time>
      </trkpt>
      <trkpt lat="42.51614" lon="2.38085">
        <ele>1109</ele>
        <time>2020-08-05T18:25:29Z</time>
      </trkpt>
      <trkpt lat="42.51603" lon="2.38136">
        <ele>1101</ele>
        <time>2020-08-05T18:25:49Z</time>
      </trkpt>
      <trkpt lat="42.51589" lon="2.38158">
        <ele>1102</ele>
        <time>2020-08-05T18:26:00Z</time>
      </trkpt>
      <trkpt lat="42.51588" lon="2.38166">
        <ele>1100</ele>
        <time>2020-08-05T18:26:03Z</time>
      </trkpt>
      <trkpt lat="42.51592" lon="2.38171">
        <ele>1099</ele>
        <time>2020-08-05T18:26:05Z</time>
      </trkpt>
      <trkpt lat="42.51598" lon="2.38167">
        <ele>1096</ele>
        <time>2020-08-05T18:26:09Z</time>
      </trkpt>
      <trkpt lat="42.51601" lon="2.38161">
        <ele>1096</ele>
        <time>2020-08-05T18:26:11Z</time>
      </trkpt>
      <trkpt lat="42.5162" lon="2.38157">
        <ele>1090</ele>
        <time>2020-08-05T18:26:21Z</time>
      </trkpt>
      <trkpt lat="42.51633" lon="2.3814">
        <ele>1090</ele>
        <time>2020-08-05T18:26:30Z</time>
      </trkpt>
      <trkpt lat="42.51635" lon="2.3813">
        <ele>1092</ele>
        <time>2020-08-05T18:26:34Z</time>
      </trkpt>
      <trkpt lat="42.51633" lon="2.38116">
        <ele>1096</ele>
        <time>2020-08-05T18:26:39Z</time>
      </trkpt>
      <trkpt lat="42.51649" lon="2.38105">
        <ele>1094</ele>
        <time>2020-08-05T18:26:48Z</time>
      </trkpt>
      <trkpt lat="42.51655" lon="2.38119">
        <ele>1088</ele>
        <time>2020-08-05T18:26:54Z</time>
      </trkpt>
      <trkpt lat="42.51675" lon="2.38124">
        <ele>1081</ele>
        <time>2020-08-05T18:27:04Z</time>
      </trkpt>
      <trkpt lat="42.517" lon="2.38119">
        <ele>1078</ele>
        <time>2020-08-05T18:27:17Z</time>
      </trkpt>
      <trkpt lat="42.51705" lon="2.38123">
        <ele>1076</ele>
        <time>2020-08-05T18:27:20Z</time>
      </trkpt>
      <trkpt lat="42.51706" lon="2.38126">
        <ele>1075</ele>
        <time>2020-08-05T18:27:21Z</time>
      </trkpt>
      <trkpt lat="42.51701" lon="2.38133">
        <ele>1074</ele>
        <time>2020-08-05T18:27:25Z</time>
      </trkpt>
      <trkpt lat="42.51687" lon="2.38143">
        <ele>1073</ele>
        <time>2020-08-05T18:27:33Z</time>
      </trkpt>
      <trkpt lat="42.51679" lon="2.38152">
        <ele>1072</ele>
        <time>2020-08-05T18:27:38Z</time>
      </trkpt>
      <trkpt lat="42.51679" lon="2.38166">
        <ele>1068</ele>
        <time>2020-08-05T18:27:43Z</time>
      </trkpt>
      <trkpt lat="42.51685" lon="2.38177">
        <ele>1067</ele>
        <time>2020-08-05T18:27:48Z</time>
      </trkpt>
      <trkpt lat="42.51711" lon="2.38196">
        <ele>1061</ele>
        <time>2020-08-05T18:28:03Z</time>
      </trkpt>
      <trkpt lat="42.51733" lon="2.38207">
        <ele>1055</ele>
        <time>2020-08-05T18:28:15Z</time>
      </trkpt>
      <trkpt lat="42.51747" lon="2.38211">
        <ele>1051</ele>
        <time>2020-08-05T18:28:22Z</time>
      </trkpt>
      <trkpt lat="42.51819" lon="2.38294">
        <ele>1030</ele>
        <time>2020-08-05T18:29:09Z</time>
      </trkpt>
      <trkpt lat="42.51834" lon="2.38305">
        <ele>1025</ele>
        <time>2020-08-05T18:29:18Z</time>
      </trkpt>
      <trkpt lat="42.51867" lon="2.38305">
        <ele>1020</ele>
        <time>2020-08-05T18:29:34Z</time>
      </trkpt>
      <trkpt lat="42.51882" lon="2.38315">
        <ele>1015</ele>
        <time>2020-08-05T18:29:42Z</time>
      </trkpt>
      <trkpt lat="42.51944" lon="2.38387">
        <ele>997</ele>
        <time>2020-08-05T18:30:23Z</time>
      </trkpt>
      <trkpt lat="42.51952" lon="2.38394">
        <ele>995</ele>
        <time>2020-08-05T18:30:28Z</time>
      </trkpt>
      <trkpt lat="42.51977" lon="2.38407">
        <ele>987</ele>
        <time>2020-08-05T18:30:41Z</time>
      </trkpt>
      <trkpt lat="42.52014" lon="2.38464">
        <ele>977</ele>
        <time>2020-08-05T18:31:09Z</time>
      </trkpt>
      <trkpt lat="42.52035" lon="2.38468">
        <ele>975</ele>
        <time>2020-08-05T18:31:20Z</time>
      </trkpt>
      <trkpt lat="42.52038" lon="2.38481">
        <ele>973</ele>
        <time>2020-08-05T18:31:25Z</time>
      </trkpt>
      <trkpt lat="42.52052" lon="2.38496">
        <ele>968</ele>
        <time>2020-08-05T18:31:34Z</time>
      </trkpt>
      <trkpt lat="42.52064" lon="2.38514">
        <ele>965</ele>
        <time>2020-08-05T18:31:43Z</time>
      </trkpt>
      <trkpt lat="42.5207" lon="2.38532">
        <ele>964</ele>
        <time>2020-08-05T18:31:50Z</time>
      </trkpt>
      <trkpt lat="42.52101" lon="2.38565">
        <ele>954</ele>
        <time>2020-08-05T18:32:10Z</time>
      </trkpt>
      <trkpt lat="42.52209" lon="2.3862">
        <ele>931</ele>
        <time>2020-08-05T18:33:08Z</time>
      </trkpt>
      <trkpt lat="42.52247" lon="2.38686">
        <ele>923</ele>
        <time>2020-08-05T18:33:39Z</time>
      </trkpt>
      <trkpt lat="42.52249" lon="2.38693">
        <ele>923</ele>
        <time>2020-08-05T18:33:41Z</time>
      </trkpt>
      <trkpt lat="42.52292" lon="2.38665">
        <ele>916</ele>
        <time>2020-08-05T18:34:05Z</time>
      </trkpt>
      <trkpt lat="42.52305" lon="2.38663">
        <ele>914</ele>
        <time>2020-08-05T18:34:12Z</time>
      </trkpt>
      <trkpt lat="42.52317" lon="2.38667">
        <ele>912</ele>
        <time>2020-08-05T18:34:18Z</time>
      </trkpt>
      <trkpt lat="42.52383" lon="2.38706">
        <ele>902</ele>
        <time>2020-08-05T18:34:54Z</time>
      </trkpt>
      <trkpt lat="42.52392" lon="2.38714">
        <ele>900</ele>
        <time>2020-08-05T18:34:59Z</time>
      </trkpt>
      <trkpt lat="42.52449" lon="2.38771">
        <ele>894</ele>
        <time>2020-08-05T18:35:35Z</time>
      </trkpt>
      <trkpt lat="42.52476" lon="2.38839">
        <ele>885</ele>
        <time>2020-08-05T18:36:03Z</time>
      </trkpt>
      <trkpt lat="42.52502" lon="2.38889">
        <ele>876</ele>
        <time>2020-08-05T18:36:26Z</time>
      </trkpt>
      <trkpt lat="42.52524" lon="2.38923">
        <ele>870</ele>
        <time>2020-08-05T18:36:43Z</time>
      </trkpt>
      <trkpt lat="42.52549" lon="2.38951">
        <ele>865</ele>
        <time>2020-08-05T18:36:59Z</time>
      </trkpt>
      <trkpt lat="42.52563" lon="2.38962">
        <ele>861</ele>
        <time>2020-08-05T18:37:07Z</time>
      </trkpt>
      <trkpt lat="42.52617" lon="2.38995">
        <ele>847</ele>
        <time>2020-08-05T18:37:36Z</time>
      </trkpt>
      <trkpt lat="42.52646" lon="2.39039">
        <ele>841</ele>
        <time>2020-08-05T18:37:58Z</time>
      </trkpt>
      <trkpt lat="42.52656" lon="2.39048">
        <ele>840</ele>
        <time>2020-08-05T18:38:04Z</time>
      </trkpt>
      <trkpt lat="42.52703" lon="2.39063">
        <ele>830</ele>
        <time>2020-08-05T18:38:28Z</time>
      </trkpt>
      <trkpt lat="42.52719" lon="2.39057">
        <ele>827</ele>
        <time>2020-08-05T18:38:37Z</time>
      </trkpt>
      <trkpt lat="42.52742" lon="2.3903">
        <ele>826</ele>
        <time>2020-08-05T18:38:52Z</time>
      </trkpt>
      <trkpt lat="42.52762" lon="2.39024">
        <ele>824</ele>
        <time>2020-08-05T18:39:02Z</time>
      </trkpt>
      <trkpt lat="42.52783" lon="2.39026">
        <ele>820</ele>
        <time>2020-08-05T18:39:13Z</time>
      </trkpt>
      <trkpt lat="42.52803" lon="2.39037">
        <ele>814</ele>
        <time>2020-08-05T18:39:24Z</time>
      </trkpt>
      <trkpt lat="42.52807" lon="2.39042">
        <ele>812</ele>
        <time>2020-08-05T18:39:26Z</time>
      </trkpt>
      <trkpt lat="42.52809" lon="2.3905">
        <ele>809</ele>
        <time>2020-08-05T18:39:29Z</time>
      </trkpt>
      <trkpt lat="42.52804" lon="2.3907">
        <ele>805</ele>
        <time>2020-08-05T18:39:37Z</time>
      </trkpt>
      <trkpt lat="42.52793" lon="2.39075">
        <ele>807</ele>
        <time>2020-08-05T18:39:43Z</time>
      </trkpt>
      <trkpt lat="42.52795" lon="2.39124">
        <ele>804</ele>
        <time>2020-08-05T18:40:01Z</time>
      </trkpt>
      <trkpt lat="42.52852" lon="2.39168">
        <ele>791</ele>
        <time>2020-08-05T18:40:34Z</time>
      </trkpt>
      <trkpt lat="42.52861" lon="2.3917">
        <ele>791</ele>
        <time>2020-08-05T18:40:38Z</time>
      </trkpt>
      <trkpt lat="42.52888" lon="2.39169">
        <ele>790</ele>
        <time>2020-08-05T18:40:52Z</time>
      </trkpt>
      <trkpt lat="42.52904" lon="2.39172">
        <ele>790</ele>
        <time>2020-08-05T18:41:00Z</time>
      </trkpt>
      <trkpt lat="42.52924" lon="2.3918">
        <ele>791</ele>
        <time>2020-08-05T18:41:10Z</time>
      </trkpt>
      <trkpt lat="42.52955" lon="2.39186">
        <ele>793</ele>
        <time>2020-08-05T18:41:26Z</time>
      </trkpt>
      <trkpt lat="42.52968" lon="2.39186">
        <ele>793</ele>
        <time>2020-08-05T18:41:33Z</time>
      </trkpt>
      <trkpt lat="42.52987" lon="2.39176">
        <ele>792</ele>
        <time>2020-08-05T18:41:43Z</time>
      </trkpt>
      <trkpt lat="42.52997" lon="2.39174">
        <ele>792</ele>
        <time>2020-08-05T18:41:48Z</time>
      </trkpt>
      <trkpt lat="42.53061" lon="2.39227">
        <ele>792</ele>
        <time>2020-08-05T18:42:25Z</time>
      </trkpt>
      <trkpt lat="42.53069" lon="2.3924">
        <ele>793</ele>
        <time>2020-08-05T18:42:32Z</time>
      </trkpt>
      <trkpt lat="42.53088" lon="2.39255">
        <ele>792</ele>
        <time>2020-08-05T18:42:43Z</time>
      </trkpt>
      <trkpt lat="42.53119" lon="2.39286">
        <ele>788</ele>
        <time>2020-08-05T18:43:02Z</time>
      </trkpt>
      <trkpt lat="42.53196" lon="2.39333">
        <ele>781</ele>
        <time>2020-08-05T18:43:44Z</time>
      </trkpt>
      <trkpt lat="42.53235" lon="2.39352">
        <ele>780</ele>
        <time>2020-08-05T18:44:05Z</time>
      </trkpt>
      <trkpt lat="42.53254" lon="2.39354">
        <ele>780</ele>
        <time>2020-08-05T18:44:14Z</time>
      </trkpt>
      <trkpt lat="42.53272" lon="2.39352">
        <ele>780</ele>
        <time>2020-08-05T18:44:23Z</time>
      </trkpt>
      <trkpt lat="42.53279" lon="2.39349">
        <ele>780</ele>
        <time>2020-08-05T18:44:27Z</time>
      </trkpt>
      <trkpt lat="42.53287" lon="2.39333">
        <ele>778</ele>
        <time>2020-08-05T18:44:34Z</time>
      </trkpt>
      <trkpt lat="42.53277" lon="2.3923">
        <ele>769</ele>
        <time>2020-08-05T18:45:13Z</time>
      </trkpt>
      <trkpt lat="42.53286" lon="2.39225">
        <ele>769</ele>
        <time>2020-08-05T18:45:17Z</time>
      </trkpt>
      <trkpt lat="42.53299" lon="2.39207">
        <ele>767</ele>
        <time>2020-08-05T18:45:27Z</time>
      </trkpt>
      <trkpt lat="42.53314" lon="2.39204">
        <ele>767</ele>
        <time>2020-08-05T18:45:34Z</time>
      </trkpt>
      <trkpt lat="42.53327" lon="2.39209">
        <ele>768</ele>
        <time>2020-08-05T18:45:41Z</time>
      </trkpt>
      <trkpt lat="42.53373" lon="2.39233">
        <ele>765</ele>
        <time>2020-08-05T18:46:06Z</time>
      </trkpt>
      <trkpt lat="42.53402" lon="2.39253">
        <ele>764</ele>
        <time>2020-08-05T18:46:22Z</time>
      </trkpt>
      <trkpt lat="42.53417" lon="2.39274">
        <ele>764</ele>
        <time>2020-08-05T18:46:33Z</time>
      </trkpt>
      <trkpt lat="42.53434" lon="2.39312">
        <ele>765</ele>
        <time>2020-08-05T18:46:49Z</time>
      </trkpt>
      <trkpt lat="42.53457" lon="2.39348">
        <ele>766</ele>
        <time>2020-08-05T18:47:07Z</time>
      </trkpt>
      <trkpt lat="42.5353" lon="2.3941">
        <ele>761</ele>
        <time>2020-08-05T18:47:50Z</time>
      </trkpt>
      <trkpt lat="42.53566" lon="2.39444">
        <ele>761</ele>
        <time>2020-08-05T18:48:12Z</time>
      </trkpt>
      <trkpt lat="42.53568" lon="2.39439">
        <ele>759</ele>
        <time>2020-08-05T18:48:14Z</time>
      </trkpt>
      <trkpt lat="42.53581" lon="2.39446">
        <ele>757</ele>
        <time>2020-08-05T18:48:21Z</time>
      </trkpt>
      <trkpt lat="42.53591" lon="2.39444">
        <ele>755</ele>
        <time>2020-08-05T18:48:26Z</time>
      </trkpt>
      <trkpt lat="42.53599" lon="2.39437">
        <ele>752</ele>
        <time>2020-08-05T18:48:31Z</time>
      </trkpt>
      <trkpt lat="42.53608" lon="2.39417">
        <ele>744</ele>
        <time>2020-08-05T18:48:39Z</time>
      </trkpt>
      <trkpt lat="42.53608" lon="2.394">
        <ele>742</ele>
        <time>2020-08-05T18:48:46Z</time>
      </trkpt>
      <trkpt lat="42.53589" lon="2.39325">
        <ele>737</ele>
        <time>2020-08-05T18:49:15Z</time>
      </trkpt>
      <trkpt lat="42.53589" lon="2.39315">
        <ele>736</ele>
        <time>2020-08-05T18:49:19Z</time>
      </trkpt>
      <trkpt lat="42.53592" lon="2.393">
        <ele>734</ele>
        <time>2020-08-05T18:49:24Z</time>
      </trkpt>
      <trkpt lat="42.53596" lon="2.39293">
        <ele>733</ele>
        <time>2020-08-05T18:49:28Z</time>
      </trkpt>
      <trkpt lat="42.53601" lon="2.39287">
        <ele>732</ele>
        <time>2020-08-05T18:49:31Z</time>
      </trkpt>
      <trkpt lat="42.53611" lon="2.39282">
        <ele>731</ele>
        <time>2020-08-05T18:49:36Z</time>
      </trkpt>
      <trkpt lat="42.53621" lon="2.39283">
        <ele>729</ele>
        <time>2020-08-05T18:49:41Z</time>
      </trkpt>
      <trkpt lat="42.53633" lon="2.39291">
        <ele>728</ele>
        <time>2020-08-05T18:49:48Z</time>
      </trkpt>
      <trkpt lat="42.53644" lon="2.39313">
        <ele>728</ele>
        <time>2020-08-05T18:49:58Z</time>
      </trkpt>
      <trkpt lat="42.53699" lon="2.39368">
        <ele>728</ele>
        <time>2020-08-05T18:50:32Z</time>
      </trkpt>
      <trkpt lat="42.53715" lon="2.39377">
        <ele>728</ele>
        <time>2020-08-05T18:50:41Z</time>
      </trkpt>
      <trkpt lat="42.53757" lon="2.3939">
        <ele>726</ele>
        <time>2020-08-05T18:51:02Z</time>
      </trkpt>
      <trkpt lat="42.53791" lon="2.3941">
        <ele>728</ele>
        <time>2020-08-05T18:51:21Z</time>
      </trkpt>
      <trkpt lat="42.53807" lon="2.39414">
        <ele>728</ele>
        <time>2020-08-05T18:51:29Z</time>
      </trkpt>
      <trkpt lat="42.53819" lon="2.39412">
        <ele>727</ele>
        <time>2020-08-05T18:51:35Z</time>
      </trkpt>
      <trkpt lat="42.53832" lon="2.39402">
        <ele>725</ele>
        <time>2020-08-05T18:51:42Z</time>
      </trkpt>
      <trkpt lat="42.53889" lon="2.39326">
        <ele>716</ele>
        <time>2020-08-05T18:52:22Z</time>
      </trkpt>
      <trkpt lat="42.53895" lon="2.39322">
        <ele>716</ele>
        <time>2020-08-05T18:52:26Z</time>
      </trkpt>
      <trkpt lat="42.53902" lon="2.3932">
        <ele>716</ele>
        <time>2020-08-05T18:52:29Z</time>
      </trkpt>
      <trkpt lat="42.53967" lon="2.39333">
        <ele>709</ele>
        <time>2020-08-05T18:53:02Z</time>
      </trkpt>
      <trkpt lat="42.54041" lon="2.3936">
        <ele>709</ele>
        <time>2020-08-05T18:53:41Z</time>
      </trkpt>
      <trkpt lat="42.54068" lon="2.39359">
        <ele>706</ele>
        <time>2020-08-05T18:53:54Z</time>
      </trkpt>
      <trkpt lat="42.54089" lon="2.39348">
        <ele>703</ele>
        <time>2020-08-05T18:54:05Z</time>
      </trkpt>
      <trkpt lat="42.54097" lon="2.39341">
        <ele>703</ele>
        <time>2020-08-05T18:54:10Z</time>
      </trkpt>
      <trkpt lat="42.54115" lon="2.39317">
        <ele>701</ele>
        <time>2020-08-05T18:54:23Z</time>
      </trkpt>
      <trkpt lat="42.54128" lon="2.39293">
        <ele>698</ele>
        <time>2020-08-05T18:54:34Z</time>
      </trkpt>
      <trkpt lat="42.54141" lon="2.39279">
        <ele>696</ele>
        <time>2020-08-05T18:54:42Z</time>
      </trkpt>
      <trkpt lat="42.5416" lon="2.3927">
        <ele>695</ele>
        <time>2020-08-05T18:54:52Z</time>
      </trkpt>
      <trkpt lat="42.54206" lon="2.39256">
        <ele>691</ele>
        <time>2020-08-05T18:55:16Z</time>
      </trkpt>
      <trkpt lat="42.54273" lon="2.39225">
        <ele>687</ele>
        <time>2020-08-05T18:55:51Z</time>
      </trkpt>
      <trkpt lat="42.54369" lon="2.39188">
        <ele>691</ele>
        <time>2020-08-05T18:56:41Z</time>
      </trkpt>
      <trkpt lat="42.5438" lon="2.39181">
        <ele>691</ele>
        <time>2020-08-05T18:56:47Z</time>
      </trkpt>
      <trkpt lat="42.54389" lon="2.39173">
        <ele>689</ele>
        <time>2020-08-05T18:56:52Z</time>
      </trkpt>
      <trkpt lat="42.54403" lon="2.39153">
        <ele>686</ele>
        <time>2020-08-05T18:57:03Z</time>
      </trkpt>
      <trkpt lat="42.5442" lon="2.3912">
        <ele>679</ele>
        <time>2020-08-05T18:57:18Z</time>
      </trkpt>
      <trkpt lat="42.54449" lon="2.39078">
        <ele>671</ele>
        <time>2020-08-05T18:57:39Z</time>
      </trkpt>
      <trkpt lat="42.5445" lon="2.39081">
        <ele>671</ele>
        <time>2020-08-05T18:57:40Z</time>
      </trkpt>
      <trkpt lat="42.54467" lon="2.39072">
        <ele>671</ele>
        <time>2020-08-05T18:57:49Z</time>
      </trkpt>
      <trkpt lat="42.54484" lon="2.39058">
        <ele>670</ele>
        <time>2020-08-05T18:57:59Z</time>
      </trkpt>
      <trkpt lat="42.54648" lon="2.38844">
        <ele>651</ele>
        <time>2020-08-05T18:59:53Z</time>
      </trkpt>
      <trkpt lat="42.54739" lon="2.38738">
        <ele>647</ele>
        <time>2020-08-05T19:00:53Z</time>
      </trkpt>
      <trkpt lat="42.54696" lon="2.38616">
        <ele>646</ele>
        <time>2020-08-05T19:01:43Z</time>
      </trkpt>
      <trkpt lat="42.54706" lon="2.38576">
        <ele>644</ele>
        <time>2020-08-05T19:01:58Z</time>
      </trkpt>
      <trkpt lat="42.54724" lon="2.38528">
        <ele>641</ele>
        <time>2020-08-05T19:02:18Z</time>
      </trkpt>
      <trkpt lat="42.54757" lon="2.38463">
        <ele>636</ele>
        <time>2020-08-05T19:02:47Z</time>
      </trkpt>
      <trkpt lat="42.54787" lon="2.38415">
        <ele>634</ele>
        <time>2020-08-05T19:03:10Z</time>
      </trkpt>
      <trkpt lat="42.54818" lon="2.38374">
        <ele>632</ele>
        <time>2020-08-05T19:03:32Z</time>
      </trkpt>
      <trkpt lat="42.54851" lon="2.38414">
        <ele>630</ele>
        <time>2020-08-05T19:03:54Z</time>
      </trkpt>
      <trkpt lat="42.54813" lon="2.38477">
        <ele>632</ele>
        <time>2020-08-05T19:04:24Z</time>
      </trkpt>
      <trkpt lat="42.54834" lon="2.38535">
        <ele>632</ele>
        <time>2020-08-05T19:04:48Z</time>
      </trkpt>
      <trkpt lat="42.54831" lon="2.38529">
        <ele>632</ele>
        <time>2020-08-05T19:04:51Z</time>
      </trkpt>
      <trkpt lat="42.54802" lon="2.38555">
        <ele>635</ele>
        <time>2020-08-05T19:05:08Z</time>
      </trkpt>
      <trkpt lat="42.54771" lon="2.38569">
        <ele>638</ele>
        <time>2020-08-05T19:05:25Z</time>
      </trkpt>
      <trkpt lat="42.54765" lon="2.38576">
        <ele>638</ele>
        <time>2020-08-05T19:05:28Z</time>
      </trkpt>
      <trkpt lat="42.54762" lon="2.38586">
        <ele>639</ele>
        <time>2020-08-05T19:05:32Z</time>
      </trkpt>
      <trkpt lat="42.54758" lon="2.38614">
        <ele>639</ele>
        <time>2020-08-05T19:05:43Z</time>
      </trkpt>
      <trkpt lat="42.54725" lon="2.38659">
        <ele>643</ele>
        <time>2020-08-05T19:06:06Z</time>
      </trkpt>
      <trkpt lat="42.54729" lon="2.38672">
        <ele>643</ele>
        <time>2020-08-05T19:06:12Z</time>
      </trkpt>
      <trkpt lat="42.54755" lon="2.3871">
        <ele>645</ele>
        <time>2020-08-05T19:06:31Z</time>
      </trkpt>
      <trkpt lat="42.54771" lon="2.38692">
        <ele>644</ele>
        <time>2020-08-05T19:06:41Z</time>
      </trkpt>
      <trkpt lat="42.54779" lon="2.38702">
        <ele>645</ele>
        <time>2020-08-05T19:06:47Z</time>
      </trkpt>
      <trkpt lat="42.54758" lon="2.38738">
        <ele>648</ele>
        <time>2020-08-05T19:07:03Z</time>
      </trkpt>
      <trkpt lat="42.54778" lon="2.38773">
        <ele>654</ele>
        <time>2020-08-05T19:07:20Z</time>
      </trkpt>
      <trkpt lat="42.54789" lon="2.38771">
        <ele>655</ele>
        <time>2020-08-05T19:07:25Z</time>
      </trkpt>
      <trkpt lat="42.54794" lon="2.38789">
        <ele>657</ele>
        <time>2020-08-05T19:07:32Z</time>
      </trkpt>
      <trkpt lat="42.54768" lon="2.38808">
        <ele>656</ele>
        <time>2020-08-05T19:07:47Z</time>
      </trkpt>
      <trkpt lat="42.54756" lon="2.38826">
        <ele>656</ele>
        <time>2020-08-05T19:07:56Z</time>
      </trkpt>
      <trkpt lat="42.54771" lon="2.38867">
        <ele>661</ele>
        <time>2020-08-05T19:08:13Z</time>
      </trkpt>
      <trkpt lat="42.54773" lon="2.38883">
        <ele>663</ele>
        <time>2020-08-05T19:08:19Z</time>
      </trkpt>
      <trkpt lat="42.54771" lon="2.38908">
        <ele>664</ele>
        <time>2020-08-05T19:08:28Z</time>
      </trkpt>
      <trkpt lat="42.54765" lon="2.38927">
        <ele>665</ele>
        <time>2020-08-05T19:08:36Z</time>
      </trkpt>
      <trkpt lat="42.54785" lon="2.38926">
        <ele>667</ele>
        <time>2020-08-05T19:08:46Z</time>
      </trkpt>
      <trkpt lat="42.54787" lon="2.38927">
        <ele>668</ele>
        <time>2020-08-05T19:08:47Z</time>
      </trkpt>
      <trkpt lat="42.54786" lon="2.38929">
        <ele>667</ele>
        <time>2020-08-05T19:08:48Z</time>
      </trkpt>
      <trkpt lat="42.54875" lon="2.38901">
        <ele>680</ele>
        <time>2020-08-05T19:09:34Z</time>
      </trkpt>
      <trkpt lat="42.54902" lon="2.38935">
        <ele>686</ele>
        <time>2020-08-05T19:09:52Z</time>
      </trkpt>
      <trkpt lat="42.54911" lon="2.38976">
        <ele>687</ele>
        <time>2020-08-05T19:10:08Z</time>
      </trkpt>
      <trkpt lat="42.54916" lon="2.3902">
        <ele>689</ele>
        <time>2020-08-05T19:10:24Z</time>
      </trkpt>
      <trkpt lat="42.54913" lon="2.39048">
        <ele>689</ele>
        <time>2020-08-05T19:10:35Z</time>
      </trkpt>
      <trkpt lat="42.5492" lon="2.39059">
        <ele>690</ele>
        <time>2020-08-05T19:10:40Z</time>
      </trkpt>
      <trkpt lat="42.54929" lon="2.39131">
        <ele>693</ele>
        <time>2020-08-05T19:11:07Z</time>
      </trkpt>
      <trkpt lat="42.54938" lon="2.39138">
        <ele>692</ele>
        <time>2020-08-05T19:11:12Z</time>
      </trkpt>
      <trkpt lat="42.54983" lon="2.39194">
        <ele>691</ele>
        <time>2020-08-05T19:11:43Z</time>
      </trkpt>
      <trkpt lat="42.55012" lon="2.39204">
        <ele>689</ele>
        <time>2020-08-05T19:11:58Z</time>
      </trkpt>
      <trkpt lat="42.55047" lon="2.39251">
        <ele>688</ele>
        <time>2020-08-05T19:12:22Z</time>
      </trkpt>
      <trkpt lat="42.55054" lon="2.39257">
        <ele>688</ele>
        <time>2020-08-05T19:12:26Z</time>
      </trkpt>
      <trkpt lat="42.55054" lon="2.39296">
        <ele>690</ele>
        <time>2020-08-05T19:12:41Z</time>
      </trkpt>
      <trkpt lat="42.55061" lon="2.39337">
        <ele>691</ele>
        <time>2020-08-05T19:12:56Z</time>
      </trkpt>
      <trkpt lat="42.55083" lon="2.39389">
        <ele>692</ele>
        <time>2020-08-05T19:13:18Z</time>
      </trkpt>
      <trkpt lat="42.55081" lon="2.39383">
        <ele>692</ele>
        <time>2020-08-05T19:13:21Z</time>
      </trkpt>
      <trkpt lat="42.55072" lon="2.39388">
        <ele>693</ele>
        <time>2020-08-05T19:13:26Z</time>
      </trkpt>
      <trkpt lat="42.55044" lon="2.39421">
        <ele>697</ele>
        <time>2020-08-05T19:13:44Z</time>
      </trkpt>
      <trkpt lat="42.55054" lon="2.39434">
        <ele>697</ele>
        <time>2020-08-05T19:13:51Z</time>
      </trkpt>
      <trkpt lat="42.55071" lon="2.39445">
        <ele>697</ele>
        <time>2020-08-05T19:14:01Z</time>
      </trkpt>
      <trkpt lat="42.55079" lon="2.39457">
        <ele>697</ele>
        <time>2020-08-05T19:14:07Z</time>
      </trkpt>
      <trkpt lat="42.5509" lon="2.39522">
        <ele>701</ele>
        <time>2020-08-05T19:14:31Z</time>
      </trkpt>
      <trkpt lat="42.55103" lon="2.3955">
        <ele>701</ele>
        <time>2020-08-05T19:14:43Z</time>
      </trkpt>
      <trkpt lat="42.55089" lon="2.39607">
        <ele>705</ele>
        <time>2020-08-05T19:15:06Z</time>
      </trkpt>
      <trkpt lat="42.55084" lon="2.3962">
        <ele>705</ele>
        <time>2020-08-05T19:15:11Z</time>
      </trkpt>
      <trkpt lat="42.55072" lon="2.39637">
        <ele>707</ele>
        <time>2020-08-05T19:15:20Z</time>
      </trkpt>
      <trkpt lat="42.55065" lon="2.39665">
        <ele>709</ele>
        <time>2020-08-05T19:15:31Z</time>
      </trkpt>
      <trkpt lat="42.55064" lon="2.3971">
        <ele>713</ele>
        <time>2020-08-05T19:15:47Z</time>
      </trkpt>
      <trkpt lat="42.55057" lon="2.39747">
        <ele>717</ele>
        <time>2020-08-05T19:16:01Z</time>
      </trkpt>
      <trkpt lat="42.55053" lon="2.39797">
        <ele>721</ele>
        <time>2020-08-05T19:16:20Z</time>
      </trkpt>
      <trkpt lat="42.5506" lon="2.39842">
        <ele>725</ele>
        <time>2020-08-05T19:16:37Z</time>
      </trkpt>
      <trkpt lat="42.55058" lon="2.39857">
        <ele>726</ele>
        <time>2020-08-05T19:16:42Z</time>
      </trkpt>
      <trkpt lat="42.55062" lon="2.39903">
        <ele>730</ele>
        <time>2020-08-05T19:16:59Z</time>
      </trkpt>
      <trkpt lat="42.55052" lon="2.39994">
        <ele>741</ele>
        <time>2020-08-05T19:17:33Z</time>
      </trkpt>
      <trkpt lat="42.55052" lon="2.40061">
        <ele>749</ele>
        <time>2020-08-05T19:17:58Z</time>
      </trkpt>
      <trkpt lat="42.55049" lon="2.40084">
        <ele>752</ele>
        <time>2020-08-05T19:18:07Z</time>
      </trkpt>
      <trkpt lat="42.55042" lon="2.40103">
        <ele>756</ele>
        <time>2020-08-05T19:18:14Z</time>
      </trkpt>
      <trkpt lat="42.55035" lon="2.40111">
        <ele>758</ele>
        <time>2020-08-05T19:18:19Z</time>
      </trkpt>
      <trkpt lat="42.55026" lon="2.40128">
        <ele>762</ele>
        <time>2020-08-05T19:18:27Z</time>
      </trkpt>
      <trkpt lat="42.55029" lon="2.40138">
        <ele>762</ele>
        <time>2020-08-05T19:18:31Z</time>
      </trkpt>
      <trkpt lat="42.5504" lon="2.40152">
        <ele>761</ele>
        <time>2020-08-05T19:18:38Z</time>
      </trkpt>
      <trkpt lat="42.55048" lon="2.4017">
        <ele>761</ele>
        <time>2020-08-05T19:18:46Z</time>
      </trkpt>
      <trkpt lat="42.55054" lon="2.4021">
        <ele>764</ele>
        <time>2020-08-05T19:19:01Z</time>
      </trkpt>
      <trkpt lat="42.55051" lon="2.40254">
        <ele>769</ele>
        <time>2020-08-05T19:19:17Z</time>
      </trkpt>
      <trkpt lat="42.5504" lon="2.40277">
        <ele>773</ele>
        <time>2020-08-05T19:19:27Z</time>
      </trkpt>
      <trkpt lat="42.55023" lon="2.40326">
        <ele>781</ele>
        <time>2020-08-05T19:19:47Z</time>
      </trkpt>
      <trkpt lat="42.55017" lon="2.40332">
        <ele>782</ele>
        <time>2020-08-05T19:19:51Z</time>
      </trkpt>
      <trkpt lat="42.55001" lon="2.40339">
        <ele>785</ele>
        <time>2020-08-05T19:20:00Z</time>
      </trkpt>
      <trkpt lat="42.54966" lon="2.40396">
        <ele>801</ele>
        <time>2020-08-05T19:20:27Z</time>
      </trkpt>
      <trkpt lat="42.5496" lon="2.40411">
        <ele>804</ele>
        <time>2020-08-05T19:20:33Z</time>
      </trkpt>
      <trkpt lat="42.5495" lon="2.40474">
        <ele>807</ele>
        <time>2020-08-05T19:20:57Z</time>
      </trkpt>
      <trkpt lat="42.54954" lon="2.40489">
        <ele>806</ele>
        <time>2020-08-05T19:21:03Z</time>
      </trkpt>
      <trkpt lat="42.54969" lon="2.4051">
        <ele>804</ele>
        <time>2020-08-05T19:21:14Z</time>
      </trkpt>
      <trkpt lat="42.5502" lon="2.40541">
        <ele>801</ele>
        <time>2020-08-05T19:21:42Z</time>
      </trkpt>
      <trkpt lat="42.55055" lon="2.40559">
        <ele>802</ele>
        <time>2020-08-05T19:22:00Z</time>
      </trkpt>
      <trkpt lat="42.55094" lon="2.40594">
        <ele>809</ele>
        <time>2020-08-05T19:22:24Z</time>
      </trkpt>
      <trkpt lat="42.55122" lon="2.40635">
        <ele>819</ele>
        <time>2020-08-05T19:22:44Z</time>
      </trkpt>
      <trkpt lat="42.55128" lon="2.4066">
        <ele>822</ele>
        <time>2020-08-05T19:22:54Z</time>
      </trkpt>
      <trkpt lat="42.55129" lon="2.40676">
        <ele>823</ele>
        <time>2020-08-05T19:23:00Z</time>
      </trkpt>
      <trkpt lat="42.55135" lon="2.40685">
        <ele>824</ele>
        <time>2020-08-05T19:23:04Z</time>
      </trkpt>
      <trkpt lat="42.55138" lon="2.40699">
        <ele>824</ele>
        <time>2020-08-05T19:23:10Z</time>
      </trkpt>
      <trkpt lat="42.55144" lon="2.40708">
        <ele>825</ele>
        <time>2020-08-05T19:23:14Z</time>
      </trkpt>
      <trkpt lat="42.5515" lon="2.40725">
        <ele>825</ele>
        <time>2020-08-05T19:23:21Z</time>
      </trkpt>
      <trkpt lat="42.55152" lon="2.40745">
        <ele>825</ele>
        <time>2020-08-05T19:23:29Z</time>
      </trkpt>
      <trkpt lat="42.55172" lon="2.40787">
        <ele>828</ele>
        <time>2020-08-05T19:23:47Z</time>
      </trkpt>
      <trkpt lat="42.55177" lon="2.40827">
        <ele>830</ele>
        <time>2020-08-05T19:24:02Z</time>
      </trkpt>
      <trkpt lat="42.552" lon="2.40879">
        <ele>843</ele>
        <time>2020-08-05T19:24:24Z</time>
      </trkpt>
      <trkpt lat="42.55202" lon="2.40891">
        <ele>845</ele>
        <time>2020-08-05T19:24:29Z</time>
      </trkpt>
      <trkpt lat="42.55198" lon="2.40916">
        <ele>846</ele>
        <time>2020-08-05T19:24:38Z</time>
      </trkpt>
      <trkpt lat="42.552" lon="2.4093">
        <ele>848</ele>
        <time>2020-08-05T19:24:44Z</time>
      </trkpt>
      <trkpt lat="42.55205" lon="2.40945">
        <ele>851</ele>
        <time>2020-08-05T19:24:50Z</time>
      </trkpt>
      <trkpt lat="42.55224" lon="2.40983">
        <ele>858</ele>
        <time>2020-08-05T19:25:07Z</time>
      </trkpt>
      <trkpt lat="42.55233" lon="2.41018">
        <ele>863</ele>
        <time>2020-08-05T19:25:20Z</time>
      </trkpt>
      <trkpt lat="42.55238" lon="2.41023">
        <ele>864</ele>
        <time>2020-08-05T19:25:23Z</time>
      </trkpt>
      <trkpt lat="42.55257" lon="2.41029">
        <ele>868</ele>
        <time>2020-08-05T19:25:33Z</time>
      </trkpt>
      <trkpt lat="42.55268" lon="2.41042">
        <ele>873</ele>
        <time>2020-08-05T19:25:41Z</time>
      </trkpt>
      <trkpt lat="42.55275" lon="2.41056">
        <ele>877</ele>
        <time>2020-08-05T19:25:47Z</time>
      </trkpt>
      <trkpt lat="42.55278" lon="2.41072">
        <ele>879</ele>
        <time>2020-08-05T19:25:53Z</time>
      </trkpt>
      <trkpt lat="42.55283" lon="2.41084">
        <ele>881</ele>
        <time>2020-08-05T19:25:58Z</time>
      </trkpt>
      <trkpt lat="42.55303" lon="2.41105">
        <ele>888</ele>
        <time>2020-08-05T19:26:11Z</time>
      </trkpt>
      <trkpt lat="42.55316" lon="2.41129">
        <ele>893</ele>
        <time>2020-08-05T19:26:22Z</time>
      </trkpt>
      <trkpt lat="42.55323" lon="2.41149">
        <ele>895</ele>
        <time>2020-08-05T19:26:30Z</time>
      </trkpt>
      <trkpt lat="42.55327" lon="2.41194">
        <ele>899</ele>
        <time>2020-08-05T19:26:46Z</time>
      </trkpt>
      <trkpt lat="42.55331" lon="2.41212">
        <ele>901</ele>
        <time>2020-08-05T19:26:53Z</time>
      </trkpt>
      <trkpt lat="42.55351" lon="2.4123">
        <ele>902</ele>
        <time>2020-08-05T19:27:05Z</time>
      </trkpt>
      <trkpt lat="42.55354" lon="2.41273">
        <ele>906</ele>
        <time>2020-08-05T19:27:21Z</time>
      </trkpt>
      <trkpt lat="42.55366" lon="2.41316">
        <ele>909</ele>
        <time>2020-08-05T19:27:38Z</time>
      </trkpt>
      <trkpt lat="42.55365" lon="2.41363">
        <ele>915</ele>
        <time>2020-08-05T19:27:56Z</time>
      </trkpt>
      <trkpt lat="42.5539" lon="2.41421">
        <ele>912</ele>
        <time>2020-08-05T19:28:20Z</time>
      </trkpt>
      <trkpt lat="42.55404" lon="2.41469">
        <ele>913</ele>
        <time>2020-08-05T19:28:39Z</time>
      </trkpt>
      <trkpt lat="42.55412" lon="2.41523">
        <ele>917</ele>
        <time>2020-08-05T19:29:00Z</time>
      </trkpt>
      <trkpt lat="42.55418" lon="2.41539">
        <ele>917</ele>
        <time>2020-08-05T19:29:06Z</time>
      </trkpt>
      <trkpt lat="42.55449" lon="2.41549">
        <ele>910</ele>
        <time>2020-08-05T19:29:22Z</time>
      </trkpt>
      <trkpt lat="42.55497" lon="2.416">
        <ele>905</ele>
        <time>2020-08-05T19:29:53Z</time>
      </trkpt>
      <trkpt lat="42.55517" lon="2.41617">
        <ele>900</ele>
        <time>2020-08-05T19:30:05Z</time>
      </trkpt>
      <trkpt lat="42.55513" lon="2.41654">
        <ele>905</ele>
        <time>2020-08-05T19:30:18Z</time>
      </trkpt>
      <trkpt lat="42.55514" lon="2.41675">
        <ele>908</ele>
        <time>2020-08-05T19:30:26Z</time>
      </trkpt>
      <trkpt lat="42.55534" lon="2.41698">
        <ele>906</ele>
        <time>2020-08-05T19:30:39Z</time>
      </trkpt>
      <trkpt lat="42.55552" lon="2.41751">
        <ele>912</ele>
        <time>2020-08-05T19:31:01Z</time>
      </trkpt>
      <trkpt lat="42.55559" lon="2.41814">
        <ele>927</ele>
        <time>2020-08-05T19:31:24Z</time>
      </trkpt>
      <trkpt lat="42.55568" lon="2.41868">
        <ele>940</ele>
        <time>2020-08-05T19:31:45Z</time>
      </trkpt>
      <trkpt lat="42.5558" lon="2.41881">
        <ele>940</ele>
        <time>2020-08-05T19:31:52Z</time>
      </trkpt>
      <trkpt lat="42.55597" lon="2.41886">
        <ele>938</ele>
        <time>2020-08-05T19:32:01Z</time>
      </trkpt>
      <trkpt lat="42.55614" lon="2.41902">
        <ele>939</ele>
        <time>2020-08-05T19:32:11Z</time>
      </trkpt>
      <trkpt lat="42.55623" lon="2.4192">
        <ele>942</ele>
        <time>2020-08-05T19:32:19Z</time>
      </trkpt>
      <trkpt lat="42.55629" lon="2.4197">
        <ele>951</ele>
        <time>2020-08-05T19:32:38Z</time>
      </trkpt>
      <trkpt lat="42.55619" lon="2.41996">
        <ele>960</ele>
        <time>2020-08-05T19:32:49Z</time>
      </trkpt>
      <trkpt lat="42.55639" lon="2.4204">
        <ele>960</ele>
        <time>2020-08-05T19:33:08Z</time>
      </trkpt>
      <trkpt lat="42.55637" lon="2.42091">
        <ele>970</ele>
        <time>2020-08-05T19:33:27Z</time>
      </trkpt>
      <trkpt lat="42.55643" lon="2.42111">
        <ele>972</ele>
        <time>2020-08-05T19:33:35Z</time>
      </trkpt>
      <trkpt lat="42.55665" lon="2.42122">
        <ele>965</ele>
        <time>2020-08-05T19:33:46Z</time>
      </trkpt>
      <trkpt lat="42.55709" lon="2.4215">
        <ele>967</ele>
        <time>2020-08-05T19:34:11Z</time>
      </trkpt>
      <trkpt lat="42.55726" lon="2.42179">
        <ele>972</ele>
        <time>2020-08-05T19:34:24Z</time>
      </trkpt>
      <trkpt lat="42.55733" lon="2.42203">
        <ele>976</ele>
        <time>2020-08-05T19:34:34Z</time>
      </trkpt>
      <trkpt lat="42.55732" lon="2.42236">
        <ele>983</ele>
        <time>2020-08-05T19:34:46Z</time>
      </trkpt>
      <trkpt lat="42.55724" lon="2.42274">
        <ele>992</ele>
        <time>2020-08-05T19:35:01Z</time>
      </trkpt>
      <trkpt lat="42.55726" lon="2.42281">
        <ele>992</ele>
        <time>2020-08-05T19:35:03Z</time>
      </trkpt>
      <trkpt lat="42.55725" lon="2.42294">
        <ele>994</ele>
        <time>2020-08-05T19:35:08Z</time>
      </trkpt>
      <trkpt lat="42.5574" lon="2.42301">
        <ele>989</ele>
        <time>2020-08-05T19:35:16Z</time>
      </trkpt>
      <trkpt lat="42.55746" lon="2.42308">
        <ele>988</ele>
        <time>2020-08-05T19:35:20Z</time>
      </trkpt>
      <trkpt lat="42.55771" lon="2.42318">
        <ele>980</ele>
        <time>2020-08-05T19:35:33Z</time>
      </trkpt>
      <trkpt lat="42.55772" lon="2.42322">
        <ele>980</ele>
        <time>2020-08-05T19:35:35Z</time>
      </trkpt>
      <trkpt lat="42.55781" lon="2.42325">
        <ele>977</ele>
        <time>2020-08-05T19:35:39Z</time>
      </trkpt>
      <trkpt lat="42.55764" lon="2.4235">
        <ele>987</ele>
        <time>2020-08-05T19:35:52Z</time>
      </trkpt>
      <trkpt lat="42.55764" lon="2.4237">
        <ele>990</ele>
        <time>2020-08-05T19:35:59Z</time>
      </trkpt>
      <trkpt lat="42.55772" lon="2.42417">
        <ele>994</ele>
        <time>2020-08-05T19:36:17Z</time>
      </trkpt>
      <trkpt lat="42.5577" lon="2.42442">
        <ele>995</ele>
        <time>2020-08-05T19:36:26Z</time>
      </trkpt>
      <trkpt lat="42.55756" lon="2.42477">
        <ele>1003</ele>
        <time>2020-08-05T19:36:41Z</time>
      </trkpt>
      <trkpt lat="42.55755" lon="2.4249">
        <ele>1003</ele>
        <time>2020-08-05T19:36:46Z</time>
      </trkpt>
      <trkpt lat="42.55735" lon="2.42559">
        <ele>1010</ele>
        <time>2020-08-05T19:37:13Z</time>
      </trkpt>
      <trkpt lat="42.55733" lon="2.42583">
        <ele>1010</ele>
        <time>2020-08-05T19:37:22Z</time>
      </trkpt>
      <trkpt lat="42.55724" lon="2.42603">
        <ele>1015</ele>
        <time>2020-08-05T19:37:31Z</time>
      </trkpt>
      <trkpt lat="42.55727" lon="2.42628">
        <ele>1016</ele>
        <time>2020-08-05T19:37:40Z</time>
      </trkpt>
      <trkpt lat="42.55737" lon="2.42645">
        <ele>1014</ele>
        <time>2020-08-05T19:37:48Z</time>
      </trkpt>
      <trkpt lat="42.55756" lon="2.42664">
        <ele>1010</ele>
        <time>2020-08-05T19:38:00Z</time>
      </trkpt>
      <trkpt lat="42.55755" lon="2.42732">
        <ele>1009</ele>
        <time>2020-08-05T19:38:25Z</time>
      </trkpt>
      <trkpt lat="42.55751" lon="2.42744">
        <ele>1009</ele>
        <time>2020-08-05T19:38:30Z</time>
      </trkpt>
      <trkpt lat="42.55746" lon="2.42751">
        <ele>1010</ele>
        <time>2020-08-05T19:38:33Z</time>
      </trkpt>
      <trkpt lat="42.5574" lon="2.42755">
        <ele>1012</ele>
        <time>2020-08-05T19:38:37Z</time>
      </trkpt>
      <trkpt lat="42.55725" lon="2.42773">
        <ele>1017</ele>
        <time>2020-08-05T19:38:47Z</time>
      </trkpt>
      <trkpt lat="42.55719" lon="2.42796">
        <ele>1020</ele>
        <time>2020-08-05T19:38:56Z</time>
      </trkpt>
      <trkpt lat="42.55714" lon="2.42802">
        <ele>1021</ele>
        <time>2020-08-05T19:38:59Z</time>
      </trkpt>
      <trkpt lat="42.557" lon="2.42811">
        <ele>1024</ele>
        <time>2020-08-05T19:39:07Z</time>
      </trkpt>
      <trkpt lat="42.55678" lon="2.42817">
        <ele>1028</ele>
        <time>2020-08-05T19:39:18Z</time>
      </trkpt>
      <trkpt lat="42.55663" lon="2.42825">
        <ele>1031</ele>
        <time>2020-08-05T19:39:26Z</time>
      </trkpt>
      <trkpt lat="42.55646" lon="2.42846">
        <ele>1040</ele>
        <time>2020-08-05T19:39:38Z</time>
      </trkpt>
      <trkpt lat="42.55634" lon="2.42866">
        <ele>1047</ele>
        <time>2020-08-05T19:39:47Z</time>
      </trkpt>
      <trkpt lat="42.55637" lon="2.42872">
        <ele>1047</ele>
        <time>2020-08-05T19:39:50Z</time>
      </trkpt>
      <trkpt lat="42.55645" lon="2.42869">
        <ele>1045</ele>
        <time>2020-08-05T19:39:54Z</time>
      </trkpt>
      <trkpt lat="42.55649" lon="2.4287">
        <ele>1044</ele>
        <time>2020-08-05T19:39:56Z</time>
      </trkpt>
      <trkpt lat="42.55651" lon="2.42874">
        <ele>1045</ele>
        <time>2020-08-05T19:39:58Z</time>
      </trkpt>
      <trkpt lat="42.55649" lon="2.42887">
        <ele>1048</ele>
        <time>2020-08-05T19:40:03Z</time>
      </trkpt>
      <trkpt lat="42.55655" lon="2.42902">
        <ele>1051</ele>
        <time>2020-08-05T19:40:09Z</time>
      </trkpt>
      <trkpt lat="42.55663" lon="2.42935">
        <ele>1060</ele>
        <time>2020-08-05T19:40:22Z</time>
      </trkpt>
      <trkpt lat="42.55688" lon="2.42973">
        <ele>1072</ele>
        <time>2020-08-05T19:40:41Z</time>
      </trkpt>
      <trkpt lat="42.55693" lon="2.42973">
        <ele>1072</ele>
        <time>2020-08-05T19:40:43Z</time>
      </trkpt>
      <trkpt lat="42.55694" lon="2.42976">
        <ele>1073</ele>
        <time>2020-08-05T19:40:44Z</time>
      </trkpt>
      <trkpt lat="42.55694" lon="2.42973">
        <ele>1072</ele>
        <time>2020-08-05T19:40:45Z</time>
      </trkpt>
      <trkpt lat="42.55699" lon="2.42973">
        <ele>1072</ele>
        <time>2020-08-05T19:40:48Z</time>
      </trkpt>
      <trkpt lat="42.557" lon="2.42976">
        <ele>1073</ele>
        <time>2020-08-05T19:40:49Z</time>
      </trkpt>
      <trkpt lat="42.55714" lon="2.42978">
        <ele>1074</ele>
        <time>2020-08-05T19:40:56Z</time>
      </trkpt>
      <trkpt lat="42.55725" lon="2.42974">
        <ele>1073</ele>
        <time>2020-08-05T19:41:02Z</time>
      </trkpt>
      <trkpt lat="42.55751" lon="2.42956">
        <ele>1066</ele>
        <time>2020-08-05T19:41:16Z</time>
      </trkpt>
      <trkpt lat="42.5579" lon="2.42958">
        <ele>1074</ele>
        <time>2020-08-05T19:41:36Z</time>
      </trkpt>
      <trkpt lat="42.5577" lon="2.42968">
        <ele>1075</ele>
        <time>2020-08-05T19:41:47Z</time>
      </trkpt>
      <trkpt lat="42.55758" lon="2.42977">
        <ele>1076</ele>
        <time>2020-08-05T19:41:54Z</time>
      </trkpt>
      <trkpt lat="42.55734" lon="2.43024">
        <ele>1091</ele>
        <time>2020-08-05T19:42:15Z</time>
      </trkpt>
      <trkpt lat="42.55715" lon="2.43042">
        <ele>1096</ele>
        <time>2020-08-05T19:42:26Z</time>
      </trkpt>
      <trkpt lat="42.55696" lon="2.43049">
        <ele>1096</ele>
        <time>2020-08-05T19:42:36Z</time>
      </trkpt>
      <trkpt lat="42.55676" lon="2.43048">
        <ele>1093</ele>
        <time>2020-08-05T19:42:46Z</time>
      </trkpt>
      <trkpt lat="42.55664" lon="2.43041">
        <ele>1089</ele>
        <time>2020-08-05T19:42:53Z</time>
      </trkpt>
      <trkpt lat="42.55658" lon="2.43042">
        <ele>1089</ele>
        <time>2020-08-05T19:42:56Z</time>
      </trkpt>
      <trkpt lat="42.55673" lon="2.43068">
        <ele>1097</ele>
        <time>2020-08-05T19:43:08Z</time>
      </trkpt>
      <trkpt lat="42.55685" lon="2.43079">
        <ele>1103</ele>
        <time>2020-08-05T19:43:15Z</time>
      </trkpt>
      <trkpt lat="42.55704" lon="2.43091">
        <ele>1110</ele>
        <time>2020-08-05T19:43:26Z</time>
      </trkpt>
      <trkpt lat="42.55667" lon="2.43105">
        <ele>1105</ele>
        <time>2020-08-05T19:43:45Z</time>
      </trkpt>
      <trkpt lat="42.55661" lon="2.43113">
        <ele>1104</ele>
        <time>2020-08-05T19:43:49Z</time>
      </trkpt>
      <trkpt lat="42.55665" lon="2.43134">
        <ele>1110</ele>
        <time>2020-08-05T19:43:57Z</time>
      </trkpt>
      <trkpt lat="42.55664" lon="2.43141">
        <ele>1111</ele>
        <time>2020-08-05T19:44:00Z</time>
      </trkpt>
      <trkpt lat="42.55668" lon="2.43175">
        <ele>1120</ele>
        <time>2020-08-05T19:44:12Z</time>
      </trkpt>
      <trkpt lat="42.55671" lon="2.43185">
        <ele>1124</ele>
        <time>2020-08-05T19:44:16Z</time>
      </trkpt>
      <trkpt lat="42.55671" lon="2.43217">
        <ele>1132</ele>
        <time>2020-08-05T19:44:28Z</time>
      </trkpt>
      <trkpt lat="42.55624" lon="2.433">
        <ele>1137</ele>
        <time>2020-08-05T19:45:07Z</time>
      </trkpt>
      <trkpt lat="42.55591" lon="2.43367">
        <ele>1147</ele>
        <time>2020-08-05T19:45:36Z</time>
      </trkpt>
      <trkpt lat="42.55533" lon="2.43448">
        <ele>1152</ele>
        <time>2020-08-05T19:46:18Z</time>
      </trkpt>
      <trkpt lat="42.55516" lon="2.43487">
        <ele>1158</ele>
        <time>2020-08-05T19:46:35Z</time>
      </trkpt>
      <trkpt lat="42.5549" lon="2.4356">
        <ele>1172</ele>
        <time>2020-08-05T19:47:05Z</time>
      </trkpt>
      <trkpt lat="42.55487" lon="2.43585">
        <ele>1179</ele>
        <time>2020-08-05T19:47:14Z</time>
      </trkpt>
      <trkpt lat="42.5548" lon="2.43605">
        <ele>1188</ele>
        <time>2020-08-05T19:47:22Z</time>
      </trkpt>
      <trkpt lat="42.55469" lon="2.43614">
        <ele>1189</ele>
        <time>2020-08-05T19:47:29Z</time>
      </trkpt>
      <trkpt lat="42.55425" lon="2.43631">
        <ele>1182</ele>
        <time>2020-08-05T19:47:51Z</time>
      </trkpt>
      <trkpt lat="42.55416" lon="2.43638">
        <ele>1181</ele>
        <time>2020-08-05T19:47:57Z</time>
      </trkpt>
      <trkpt lat="42.55399" lon="2.43677">
        <ele>1194</ele>
        <time>2020-08-05T19:48:13Z</time>
      </trkpt>
      <trkpt lat="42.5534" lon="2.43742">
        <ele>1205</ele>
        <time>2020-08-05T19:48:51Z</time>
      </trkpt>
      <trkpt lat="42.55334" lon="2.43751">
        <ele>1205</ele>
        <time>2020-08-05T19:48:56Z</time>
      </trkpt>
      <trkpt lat="42.55328" lon="2.43772">
        <ele>1217</ele>
        <time>2020-08-05T19:49:04Z</time>
      </trkpt>
      <trkpt lat="42.55304" lon="2.43786">
        <ele>1223</ele>
        <time>2020-08-05T19:49:17Z</time>
      </trkpt>
      <trkpt lat="42.55296" lon="2.43802">
        <ele>1228</ele>
        <time>2020-08-05T19:49:24Z</time>
      </trkpt>
      <trkpt lat="42.55294" lon="2.43819">
        <ele>1233</ele>
        <time>2020-08-05T19:49:31Z</time>
      </trkpt>
      <trkpt lat="42.55274" lon="2.43866">
        <ele>1247</ele>
        <time>2020-08-05T19:49:51Z</time>
      </trkpt>
      <trkpt lat="42.55269" lon="2.43899">
        <ele>1262</ele>
        <time>2020-08-05T19:50:03Z</time>
      </trkpt>
      <trkpt lat="42.55263" lon="2.43911">
        <ele>1266</ele>
        <time>2020-08-05T19:50:08Z</time>
      </trkpt>
      <trkpt lat="42.55252" lon="2.43921">
        <ele>1267</ele>
        <time>2020-08-05T19:50:15Z</time>
      </trkpt>
      <trkpt lat="42.55212" lon="2.43946">
        <ele>1286</ele>
        <time>2020-08-05T19:50:37Z</time>
      </trkpt>
      <trkpt lat="42.55177" lon="2.43955">
        <ele>1296</ele>
        <time>2020-08-05T19:50:55Z</time>
      </trkpt>
      <trkpt lat="42.55173" lon="2.43959">
        <ele>1298</ele>
        <time>2020-08-05T19:50:57Z</time>
      </trkpt>
      <trkpt lat="42.55178" lon="2.43967">
        <ele>1301</ele>
        <time>2020-08-05T19:51:01Z</time>
      </trkpt>
      <trkpt lat="42.55175" lon="2.43972">
        <ele>1304</ele>
        <time>2020-08-05T19:51:04Z</time>
      </trkpt>
      <trkpt lat="42.55169" lon="2.43975">
        <ele>1306</ele>
        <time>2020-08-05T19:51:07Z</time>
      </trkpt>
      <trkpt lat="42.55169" lon="2.43979">
        <ele>1308</ele>
        <time>2020-08-05T19:51:08Z</time>
      </trkpt>
      <trkpt lat="42.55175" lon="2.43989">
        <ele>1311</ele>
        <time>2020-08-05T19:51:13Z</time>
      </trkpt>
      <trkpt lat="42.55176" lon="2.43996">
        <ele>1314</ele>
        <time>2020-08-05T19:51:16Z</time>
      </trkpt>
      <trkpt lat="42.55155" lon="2.44001">
        <ele>1319</ele>
        <time>2020-08-05T19:51:26Z</time>
      </trkpt>
      <trkpt lat="42.55145" lon="2.44009">
        <ele>1325</ele>
        <time>2020-08-05T19:51:32Z</time>
      </trkpt>
      <trkpt lat="42.55138" lon="2.4402">
        <ele>1331</ele>
        <time>2020-08-05T19:51:38Z</time>
      </trkpt>
      <trkpt lat="42.55139" lon="2.44026">
        <ele>1333</ele>
        <time>2020-08-05T19:51:40Z</time>
      </trkpt>
      <trkpt lat="42.55149" lon="2.44037">
        <ele>1336</ele>
        <time>2020-08-05T19:51:46Z</time>
      </trkpt>
      <trkpt lat="42.55149" lon="2.44042">
        <ele>1339</ele>
        <time>2020-08-05T19:51:48Z</time>
      </trkpt>
      <trkpt lat="42.55142" lon="2.44047">
        <ele>1342</ele>
        <time>2020-08-05T19:51:52Z</time>
      </trkpt>
      <trkpt lat="42.55136" lon="2.44046">
        <ele>1343</ele>
        <time>2020-08-05T19:51:55Z</time>
      </trkpt>
      <trkpt lat="42.55125" lon="2.44058">
        <ele>1351</ele>
        <time>2020-08-05T19:52:02Z</time>
      </trkpt>
      <trkpt lat="42.55118" lon="2.44059">
        <ele>1353</ele>
        <time>2020-08-05T19:52:06Z</time>
      </trkpt>
      <trkpt lat="42.55111" lon="2.44056">
        <ele>1353</ele>
        <time>2020-08-05T19:52:09Z</time>
      </trkpt>
      <trkpt lat="42.55098" lon="2.4404">
        <ele>1348</ele>
        <time>2020-08-05T19:52:18Z</time>
      </trkpt>
      <trkpt lat="42.55093" lon="2.44038">
        <ele>1348</ele>
        <time>2020-08-05T19:52:21Z</time>
      </trkpt>
      <trkpt lat="42.55091" lon="2.44041">
        <ele>1350</ele>
        <time>2020-08-05T19:52:22Z</time>
      </trkpt>
      <trkpt lat="42.55102" lon="2.44065">
        <ele>1359</ele>
        <time>2020-08-05T19:52:33Z</time>
      </trkpt>
      <trkpt lat="42.55107" lon="2.44084">
        <ele>1367</ele>
        <time>2020-08-05T19:52:40Z</time>
      </trkpt>
      <trkpt lat="42.55106" lon="2.44089">
        <ele>1370</ele>
        <time>2020-08-05T19:52:42Z</time>
      </trkpt>
      <trkpt lat="42.55102" lon="2.44089">
        <ele>1371</ele>
        <time>2020-08-05T19:52:44Z</time>
      </trkpt>
      <trkpt lat="42.55097" lon="2.44083">
        <ele>1369</ele>
        <time>2020-08-05T19:52:47Z</time>
      </trkpt>
      <trkpt lat="42.5509" lon="2.44068">
        <ele>1363</ele>
        <time>2020-08-05T19:52:54Z</time>
      </trkpt>
      <trkpt lat="42.55082" lon="2.4406">
        <ele>1360</ele>
        <time>2020-08-05T19:52:59Z</time>
      </trkpt>
      <trkpt lat="42.55069" lon="2.44055">
        <ele>1357</ele>
        <time>2020-08-05T19:53:06Z</time>
      </trkpt>
      <trkpt lat="42.55045" lon="2.44051">
        <ele>1353</ele>
        <time>2020-08-05T19:53:18Z</time>
      </trkpt>
      <trkpt lat="42.55039" lon="2.44052">
        <ele>1353</ele>
        <time>2020-08-05T19:53:21Z</time>
      </trkpt>
      <trkpt lat="42.55035" lon="2.44062">
        <ele>1359</ele>
        <time>2020-08-05T19:53:25Z</time>
      </trkpt>
      <trkpt lat="42.55031" lon="2.44063">
        <ele>1359</ele>
        <time>2020-08-05T19:53:27Z</time>
      </trkpt>
      <trkpt lat="42.55028" lon="2.44068">
        <ele>1362</ele>
        <time>2020-08-05T19:53:29Z</time>
      </trkpt>
      <trkpt lat="42.5503" lon="2.44074">
        <ele>1366</ele>
        <time>2020-08-05T19:53:32Z</time>
      </trkpt>
      <trkpt lat="42.55035" lon="2.44079">
        <ele>1369</ele>
        <time>2020-08-05T19:53:35Z</time>
      </trkpt>
      <trkpt lat="42.55035" lon="2.44084">
        <ele>1372</ele>
        <time>2020-08-05T19:53:37Z</time>
      </trkpt>
      <trkpt lat="42.55012" lon="2.4408">
        <ele>1370</ele>
        <time>2020-08-05T19:53:48Z</time>
      </trkpt>
      <trkpt lat="42.55003" lon="2.44082">
        <ele>1371</ele>
        <time>2020-08-05T19:53:53Z</time>
      </trkpt>
      <trkpt lat="42.54997" lon="2.44087">
        <ele>1374</ele>
        <time>2020-08-05T19:53:56Z</time>
      </trkpt>
      <trkpt lat="42.54998" lon="2.44093">
        <ele>1378</ele>
        <time>2020-08-05T19:53:59Z</time>
      </trkpt>
      <trkpt lat="42.55004" lon="2.44098">
        <ele>1382</ele>
        <time>2020-08-05T19:54:02Z</time>
      </trkpt>
      <trkpt lat="42.55029" lon="2.44105">
        <ele>1385</ele>
        <time>2020-08-05T19:54:15Z</time>
      </trkpt>
      <trkpt lat="42.55052" lon="2.44134">
        <ele>1400</ele>
        <time>2020-08-05T19:54:31Z</time>
      </trkpt>
      <trkpt lat="42.55057" lon="2.44148">
        <ele>1407</ele>
        <time>2020-08-05T19:54:36Z</time>
      </trkpt>
      <trkpt lat="42.55063" lon="2.44157">
        <ele>1411</ele>
        <time>2020-08-05T19:54:41Z</time>
      </trkpt>
      <trkpt lat="42.55061" lon="2.44161">
        <ele>1413</ele>
        <time>2020-08-05T19:54:43Z</time>
      </trkpt>
      <trkpt lat="42.55046" lon="2.44152">
        <ele>1410</ele>
        <time>2020-08-05T19:54:51Z</time>
      </trkpt>
      <trkpt lat="42.55029" lon="2.44152">
        <ele>1413</ele>
        <time>2020-08-05T19:54:59Z</time>
      </trkpt>
      <trkpt lat="42.55012" lon="2.44157">
        <ele>1419</ele>
        <time>2020-08-05T19:55:08Z</time>
      </trkpt>
      <trkpt lat="42.55011" lon="2.44167">
        <ele>1425</ele>
        <time>2020-08-05T19:55:12Z</time>
      </trkpt>
      <trkpt lat="42.55025" lon="2.44174">
        <ele>1426</ele>
        <time>2020-08-05T19:55:19Z</time>
      </trkpt>
      <trkpt lat="42.55026" lon="2.44181">
        <ele>1430</ele>
        <time>2020-08-05T19:55:22Z</time>
      </trkpt>
      <trkpt lat="42.55022" lon="2.44186">
        <ele>1433</ele>
        <time>2020-08-05T19:55:25Z</time>
      </trkpt>
      <trkpt lat="42.55016" lon="2.44188">
        <ele>1436</ele>
        <time>2020-08-05T19:55:28Z</time>
      </trkpt>
      <trkpt lat="42.55001" lon="2.44185">
        <ele>1437</ele>
        <time>2020-08-05T19:55:35Z</time>
      </trkpt>
      <trkpt lat="42.55001" lon="2.4419">
        <ele>1440</ele>
        <time>2020-08-05T19:55:37Z</time>
      </trkpt>
      <trkpt lat="42.55017" lon="2.4421">
        <ele>1447</ele>
        <time>2020-08-05T19:55:48Z</time>
      </trkpt>
      <trkpt lat="42.55035" lon="2.44216">
        <ele>1445</ele>
        <time>2020-08-05T19:55:57Z</time>
      </trkpt>
      <trkpt lat="42.55039" lon="2.44221">
        <ele>1447</ele>
        <time>2020-08-05T19:56:00Z</time>
      </trkpt>
      <trkpt lat="42.55036" lon="2.44227">
        <ele>1450</ele>
        <time>2020-08-05T19:56:03Z</time>
      </trkpt>
      <trkpt lat="42.55029" lon="2.44231">
        <ele>1455</ele>
        <time>2020-08-05T19:56:07Z</time>
      </trkpt>
      <trkpt lat="42.55004" lon="2.4422">
        <ele>1456</ele>
        <time>2020-08-05T19:56:20Z</time>
      </trkpt>
      <trkpt lat="42.54983" lon="2.44224">
        <ele>1456</ele>
        <time>2020-08-05T19:56:30Z</time>
      </trkpt>
      <trkpt lat="42.54982" lon="2.44227">
        <ele>1458</ele>
        <time>2020-08-05T19:56:31Z</time>
      </trkpt>
      <trkpt lat="42.54988" lon="2.44234">
        <ele>1463</ele>
        <time>2020-08-05T19:56:35Z</time>
      </trkpt>
      <trkpt lat="42.55008" lon="2.44255">
        <ele>1474</ele>
        <time>2020-08-05T19:56:48Z</time>
      </trkpt>
      <trkpt lat="42.55016" lon="2.44259">
        <ele>1473</ele>
        <time>2020-08-05T19:56:52Z</time>
      </trkpt>
      <trkpt lat="42.55018" lon="2.44265">
        <ele>1475</ele>
        <time>2020-08-05T19:56:55Z</time>
      </trkpt>
      <trkpt lat="42.55016" lon="2.4427">
        <ele>1478</ele>
        <time>2020-08-05T19:56:57Z</time>
      </trkpt>
      <trkpt lat="42.55006" lon="2.44271">
        <ele>1481</ele>
        <time>2020-08-05T19:57:02Z</time>
      </trkpt>
      <trkpt lat="42.54996" lon="2.44266">
        <ele>1481</ele>
        <time>2020-08-05T19:57:07Z</time>
      </trkpt>
      <trkpt lat="42.54984" lon="2.44264">
        <ele>1479</ele>
        <time>2020-08-05T19:57:13Z</time>
      </trkpt>
      <trkpt lat="42.54959" lon="2.44272">
        <ele>1480</ele>
        <time>2020-08-05T19:57:26Z</time>
      </trkpt>
      <trkpt lat="42.54955" lon="2.44276">
        <ele>1482</ele>
        <time>2020-08-05T19:57:29Z</time>
      </trkpt>
      <trkpt lat="42.54955" lon="2.44283">
        <ele>1486</ele>
        <time>2020-08-05T19:57:31Z</time>
      </trkpt>
      <trkpt lat="42.54958" lon="2.44288">
        <ele>1489</ele>
        <time>2020-08-05T19:57:34Z</time>
      </trkpt>
      <trkpt lat="42.54955" lon="2.44292">
        <ele>1491</ele>
        <time>2020-08-05T19:57:36Z</time>
      </trkpt>
      <trkpt lat="42.54948" lon="2.44295">
        <ele>1493</ele>
        <time>2020-08-05T19:57:39Z</time>
      </trkpt>
      <trkpt lat="42.54945" lon="2.443">
        <ele>1495</ele>
        <time>2020-08-05T19:57:42Z</time>
      </trkpt>
      <trkpt lat="42.54949" lon="2.44308">
        <ele>1500</ele>
        <time>2020-08-05T19:57:45Z</time>
      </trkpt>
      <trkpt lat="42.54984" lon="2.44336">
        <ele>1513</ele>
        <time>2020-08-05T19:58:06Z</time>
      </trkpt>
      <trkpt lat="42.54988" lon="2.44346">
        <ele>1517</ele>
        <time>2020-08-05T19:58:10Z</time>
      </trkpt>
      <trkpt lat="42.54984" lon="2.4435">
        <ele>1520</ele>
        <time>2020-08-05T19:58:12Z</time>
      </trkpt>
      <trkpt lat="42.54974" lon="2.44343">
        <ele>1517</ele>
        <time>2020-08-05T19:58:18Z</time>
      </trkpt>
      <trkpt lat="42.54962" lon="2.44342">
        <ele>1517</ele>
        <time>2020-08-05T19:58:24Z</time>
      </trkpt>
      <trkpt lat="42.54956" lon="2.44344">
        <ele>1519</ele>
        <time>2020-08-05T19:58:27Z</time>
      </trkpt>
      <trkpt lat="42.54955" lon="2.44349">
        <ele>1521</ele>
        <time>2020-08-05T19:58:29Z</time>
      </trkpt>
      <trkpt lat="42.54962" lon="2.44363">
        <ele>1527</ele>
        <time>2020-08-05T19:58:35Z</time>
      </trkpt>
      <trkpt lat="42.54953" lon="2.44371">
        <ele>1531</ele>
        <time>2020-08-05T19:58:41Z</time>
      </trkpt>
      <trkpt lat="42.54954" lon="2.44376">
        <ele>1533</ele>
        <time>2020-08-05T19:58:43Z</time>
      </trkpt>
      <trkpt lat="42.5496" lon="2.44379">
        <ele>1535</ele>
        <time>2020-08-05T19:58:46Z</time>
      </trkpt>
      <trkpt lat="42.54965" lon="2.44386">
        <ele>1538</ele>
        <time>2020-08-05T19:58:49Z</time>
      </trkpt>
      <trkpt lat="42.54964" lon="2.44392">
        <ele>1541</ele>
        <time>2020-08-05T19:58:52Z</time>
      </trkpt>
      <trkpt lat="42.54951" lon="2.44398">
        <ele>1543</ele>
        <time>2020-08-05T19:58:58Z</time>
      </trkpt>
      <trkpt lat="42.54944" lon="2.44396">
        <ele>1542</ele>
        <time>2020-08-05T19:59:02Z</time>
      </trkpt>
      <trkpt lat="42.54937" lon="2.44406">
        <ele>1546</ele>
        <time>2020-08-05T19:59:07Z</time>
      </trkpt>
      <trkpt lat="42.54931" lon="2.44406">
        <ele>1546</ele>
        <time>2020-08-05T19:59:10Z</time>
      </trkpt>
      <trkpt lat="42.54926" lon="2.44412">
        <ele>1549</ele>
        <time>2020-08-05T19:59:13Z</time>
      </trkpt>
      <trkpt lat="42.54925" lon="2.44418">
        <ele>1551</ele>
        <time>2020-08-05T19:59:16Z</time>
      </trkpt>
      <trkpt lat="42.54929" lon="2.44423">
        <ele>1553</ele>
        <time>2020-08-05T19:59:18Z</time>
      </trkpt>
      <trkpt lat="42.54936" lon="2.44426">
        <ele>1555</ele>
        <time>2020-08-05T19:59:22Z</time>
      </trkpt>
      <trkpt lat="42.54945" lon="2.44426">
        <ele>1556</ele>
        <time>2020-08-05T19:59:27Z</time>
      </trkpt>
      <trkpt lat="42.54948" lon="2.44431">
        <ele>1558</ele>
        <time>2020-08-05T19:59:29Z</time>
      </trkpt>
      <trkpt lat="42.54946" lon="2.44437">
        <ele>1561</ele>
        <time>2020-08-05T19:59:31Z</time>
      </trkpt>
      <trkpt lat="42.54941" lon="2.44442">
        <ele>1563</ele>
        <time>2020-08-05T19:59:35Z</time>
      </trkpt>
      <trkpt lat="42.54943" lon="2.44447">
        <ele>1565</ele>
        <time>2020-08-05T19:59:37Z</time>
      </trkpt>
      <trkpt lat="42.5495" lon="2.44449">
        <ele>1566</ele>
        <time>2020-08-05T19:59:40Z</time>
      </trkpt>
      <trkpt lat="42.54957" lon="2.44447">
        <ele>1566</ele>
        <time>2020-08-05T19:59:44Z</time>
      </trkpt>
      <trkpt lat="42.5496" lon="2.44453">
        <ele>1569</ele>
        <time>2020-08-05T19:59:46Z</time>
      </trkpt>
      <trkpt lat="42.54957" lon="2.44458">
        <ele>1571</ele>
        <time>2020-08-05T19:59:49Z</time>
      </trkpt>
      <trkpt lat="42.54939" lon="2.44469">
        <ele>1575</ele>
        <time>2020-08-05T19:59:59Z</time>
      </trkpt>
      <trkpt lat="42.54938" lon="2.44473">
        <ele>1577</ele>
        <time>2020-08-05T20:00:00Z</time>
      </trkpt>
      <trkpt lat="42.54967" lon="2.44499">
        <ele>1591</ele>
        <time>2020-08-05T20:00:18Z</time>
      </trkpt>
      <trkpt lat="42.54967" lon="2.44504">
        <ele>1593</ele>
        <time>2020-08-05T20:00:19Z</time>
      </trkpt>
      <trkpt lat="42.54964" lon="2.44507">
        <ele>1595</ele>
        <time>2020-08-05T20:00:21Z</time>
      </trkpt>
      <trkpt lat="42.54945" lon="2.44499">
        <ele>1589</ele>
        <time>2020-08-05T20:00:31Z</time>
      </trkpt>
      <trkpt lat="42.54937" lon="2.44501">
        <ele>1589</ele>
        <time>2020-08-05T20:00:35Z</time>
      </trkpt>
      <trkpt lat="42.54928" lon="2.44507">
        <ele>1592</ele>
        <time>2020-08-05T20:00:40Z</time>
      </trkpt>
      <trkpt lat="42.54925" lon="2.44515">
        <ele>1596</ele>
        <time>2020-08-05T20:00:44Z</time>
      </trkpt>
      <trkpt lat="42.54927" lon="2.44521">
        <ele>1599</ele>
        <time>2020-08-05T20:00:46Z</time>
      </trkpt>
      <trkpt lat="42.54939" lon="2.44526">
        <ele>1603</ele>
        <time>2020-08-05T20:00:52Z</time>
      </trkpt>
      <trkpt lat="42.54937" lon="2.4454">
        <ele>1610</ele>
        <time>2020-08-05T20:00:58Z</time>
      </trkpt>
      <trkpt lat="42.54928" lon="2.44561">
        <ele>1620</ele>
        <time>2020-08-05T20:01:07Z</time>
      </trkpt>
      <trkpt lat="42.54929" lon="2.44567">
        <ele>1624</ele>
        <time>2020-08-05T20:01:09Z</time>
      </trkpt>
      <trkpt lat="42.54939" lon="2.44572">
        <ele>1627</ele>
        <time>2020-08-05T20:01:14Z</time>
      </trkpt>
      <trkpt lat="42.54942" lon="2.44576">
        <ele>1629</ele>
        <time>2020-08-05T20:01:16Z</time>
      </trkpt>
      <trkpt lat="42.54942" lon="2.44583">
        <ele>1633</ele>
        <time>2020-08-05T20:01:19Z</time>
      </trkpt>
      <trkpt lat="42.54938" lon="2.44589">
        <ele>1636</ele>
        <time>2020-08-05T20:01:22Z</time>
      </trkpt>
      <trkpt lat="42.54939" lon="2.44596">
        <ele>1639</ele>
        <time>2020-08-05T20:01:25Z</time>
      </trkpt>
      <trkpt lat="42.54947" lon="2.44599">
        <ele>1641</ele>
        <time>2020-08-05T20:01:29Z</time>
      </trkpt>
      <trkpt lat="42.54928" lon="2.44635">
        <ele>1657</ele>
        <time>2020-08-05T20:01:45Z</time>
      </trkpt>
      <trkpt lat="42.54923" lon="2.44635">
        <ele>1656</ele>
        <time>2020-08-05T20:01:48Z</time>
      </trkpt>
      <trkpt lat="42.54917" lon="2.4463">
        <ele>1652</ele>
        <time>2020-08-05T20:01:51Z</time>
      </trkpt>
      <trkpt lat="42.54909" lon="2.44628">
        <ele>1650</ele>
        <time>2020-08-05T20:01:55Z</time>
      </trkpt>
      <trkpt lat="42.5489" lon="2.44633">
        <ele>1649</ele>
        <time>2020-08-05T20:02:05Z</time>
      </trkpt>
      <trkpt lat="42.54874" lon="2.44632">
        <ele>1646</ele>
        <time>2020-08-05T20:02:13Z</time>
      </trkpt>
      <trkpt lat="42.54862" lon="2.44635">
        <ele>1645</ele>
        <time>2020-08-05T20:02:19Z</time>
      </trkpt>
      <trkpt lat="42.54854" lon="2.4464">
        <ele>1646</ele>
        <time>2020-08-05T20:02:23Z</time>
      </trkpt>
      <trkpt lat="42.54854" lon="2.44645">
        <ele>1648</ele>
        <time>2020-08-05T20:02:25Z</time>
      </trkpt>
      <trkpt lat="42.54881" lon="2.44656">
        <ele>1658</ele>
        <time>2020-08-05T20:02:39Z</time>
      </trkpt>
      <trkpt lat="42.54886" lon="2.44661">
        <ele>1661</ele>
        <time>2020-08-05T20:02:42Z</time>
      </trkpt>
      <trkpt lat="42.54886" lon="2.44666">
        <ele>1663</ele>
        <time>2020-08-05T20:02:44Z</time>
      </trkpt>
      <trkpt lat="42.54862" lon="2.4469">
        <ele>1675</ele>
        <time>2020-08-05T20:02:59Z</time>
      </trkpt>
      <trkpt lat="42.54856" lon="2.447">
        <ele>1680</ele>
        <time>2020-08-05T20:03:04Z</time>
      </trkpt>
      <trkpt lat="42.54846" lon="2.4477">
        <ele>1722</ele>
        <time>2020-08-05T20:03:30Z</time>
      </trkpt>
      <trkpt lat="42.54847" lon="2.44777">
        <ele>1727</ele>
        <time>2020-08-05T20:03:33Z</time>
      </trkpt>
      <trkpt lat="42.54852" lon="2.44777">
        <ele>1729</ele>
        <time>2020-08-05T20:03:35Z</time>
      </trkpt>
      <trkpt lat="42.54854" lon="2.44781">
        <ele>1732</ele>
        <time>2020-08-05T20:03:37Z</time>
      </trkpt>
      <trkpt lat="42.54852" lon="2.44791">
        <ele>1738</ele>
        <time>2020-08-05T20:03:41Z</time>
      </trkpt>
      <trkpt lat="42.54834" lon="2.44825">
        <ele>1754</ele>
        <time>2020-08-05T20:03:56Z</time>
      </trkpt>
      <trkpt lat="42.54802" lon="2.44846">
        <ele>1765</ele>
        <time>2020-08-05T20:04:14Z</time>
      </trkpt>
      <trkpt lat="42.54803" lon="2.44854">
        <ele>1768</ele>
        <time>2020-08-05T20:04:17Z</time>
      </trkpt>
      <trkpt lat="42.54798" lon="2.44858">
        <ele>1770</ele>
        <time>2020-08-05T20:04:20Z</time>
      </trkpt>
      <trkpt lat="42.54781" lon="2.44853">
        <ele>1768</ele>
        <time>2020-08-05T20:04:29Z</time>
      </trkpt>
      <trkpt lat="42.54771" lon="2.44853">
        <ele>1768</ele>
        <time>2020-08-05T20:04:34Z</time>
      </trkpt>
      <trkpt lat="42.54769" lon="2.44859">
        <ele>1771</ele>
        <time>2020-08-05T20:04:36Z</time>
      </trkpt>
      <trkpt lat="42.54773" lon="2.44875">
        <ele>1778</ele>
        <time>2020-08-05T20:04:42Z</time>
      </trkpt>
      <trkpt lat="42.54769" lon="2.44882">
        <ele>1781</ele>
        <time>2020-08-05T20:04:46Z</time>
      </trkpt>
      <trkpt lat="42.54761" lon="2.44886">
        <ele>1784</ele>
        <time>2020-08-05T20:04:50Z</time>
      </trkpt>
      <trkpt lat="42.54727" lon="2.4488">
        <ele>1780</ele>
        <time>2020-08-05T20:05:07Z</time>
      </trkpt>
      <trkpt lat="42.5472" lon="2.44875">
        <ele>1777</ele>
        <time>2020-08-05T20:05:11Z</time>
      </trkpt>
      <trkpt lat="42.54716" lon="2.44878">
        <ele>1778</ele>
        <time>2020-08-05T20:05:13Z</time>
      </trkpt>
      <trkpt lat="42.54717" lon="2.44885">
        <ele>1782</ele>
        <time>2020-08-05T20:05:16Z</time>
      </trkpt>
      <trkpt lat="42.54731" lon="2.44903">
        <ele>1791</ele>
        <time>2020-08-05T20:05:26Z</time>
      </trkpt>
      <trkpt lat="42.54729" lon="2.4491">
        <ele>1795</ele>
        <time>2020-08-05T20:05:28Z</time>
      </trkpt>
      <trkpt lat="42.54684" lon="2.44917">
        <ele>1798</ele>
        <time>2020-08-05T20:05:51Z</time>
      </trkpt>
      <trkpt lat="42.54686" lon="2.44947">
        <ele>1808</ele>
        <time>2020-08-05T20:06:02Z</time>
      </trkpt>
      <trkpt lat="42.54683" lon="2.44962">
        <ele>1814</ele>
        <time>2020-08-05T20:06:08Z</time>
      </trkpt>
      <trkpt lat="42.54673" lon="2.44979">
        <ele>1821</ele>
        <time>2020-08-05T20:06:16Z</time>
      </trkpt>
      <trkpt lat="42.54666" lon="2.45003">
        <ele>1829</ele>
        <time>2020-08-05T20:06:25Z</time>
      </trkpt>
      <trkpt lat="42.54647" lon="2.45033">
        <ele>1828</ele>
        <time>2020-08-05T20:06:40Z</time>
      </trkpt>
      <trkpt lat="42.54608" lon="2.45085">
        <ele>1843</ele>
        <time>2020-08-05T20:07:07Z</time>
      </trkpt>
      <trkpt lat="42.54582" lon="2.45129">
        <ele>1848</ele>
        <time>2020-08-05T20:07:28Z</time>
      </trkpt>
      <trkpt lat="42.54548" lon="2.45203">
        <ele>1856</ele>
        <time>2020-08-05T20:08:00Z</time>
      </trkpt>
      <trkpt lat="42.54513" lon="2.45236">
        <ele>1874</ele>
        <time>2020-08-05T20:08:22Z</time>
      </trkpt>
      <trkpt lat="42.54493" lon="2.45286">
        <ele>1879</ele>
        <time>2020-08-05T20:08:43Z</time>
      </trkpt>
      <trkpt lat="42.54481" lon="2.45327">
        <ele>1882</ele>
        <time>2020-08-05T20:08:59Z</time>
      </trkpt>
      <trkpt lat="42.54459" lon="2.45406">
        <ele>1889</ele>
        <time>2020-08-05T20:09:30Z</time>
      </trkpt>
      <trkpt lat="42.54414" lon="2.45599">
        <ele>1896</ele>
        <time>2020-08-05T20:10:45Z</time>
      </trkpt>
      <trkpt lat="42.54406" lon="2.45621">
        <ele>1896</ele>
        <time>2020-08-05T20:10:54Z</time>
      </trkpt>
      <trkpt lat="42.54399" lon="2.45633">
        <ele>1897</ele>
        <time>2020-08-05T20:10:59Z</time>
      </trkpt>
      <trkpt lat="42.54391" lon="2.45639">
        <ele>1899</ele>
        <time>2020-08-05T20:11:04Z</time>
      </trkpt>
      <trkpt lat="42.54363" lon="2.45644">
        <ele>1911</ele>
        <time>2020-08-05T20:11:18Z</time>
      </trkpt>
      <trkpt lat="42.54352" lon="2.4565">
        <ele>1914</ele>
        <time>2020-08-05T20:11:24Z</time>
      </trkpt>
      <trkpt lat="42.54284" lon="2.45737">
        <ele>1910</ele>
        <time>2020-08-05T20:12:11Z</time>
      </trkpt>
      <trkpt lat="42.54275" lon="2.45738">
        <ele>1913</ele>
        <time>2020-08-05T20:12:15Z</time>
      </trkpt>
      <trkpt lat="42.54246" lon="2.45726">
        <ele>1927</ele>
        <time>2020-08-05T20:12:30Z</time>
      </trkpt>
      <trkpt lat="42.54214" lon="2.4572">
        <ele>1936</ele>
        <time>2020-08-05T20:12:47Z</time>
      </trkpt>
      <trkpt lat="42.54182" lon="2.45727">
        <ele>1940</ele>
        <time>2020-08-05T20:13:03Z</time>
      </trkpt>
      <trkpt lat="42.5416" lon="2.45738">
        <ele>1942</ele>
        <time>2020-08-05T20:13:15Z</time>
      </trkpt>
      <trkpt lat="42.5412" lon="2.45763">
        <ele>1946</ele>
        <time>2020-08-05T20:13:37Z</time>
      </trkpt>
      <trkpt lat="42.54111" lon="2.45771">
        <ele>1947</ele>
        <time>2020-08-05T20:13:42Z</time>
      </trkpt>
      <trkpt lat="42.54095" lon="2.45791">
        <ele>1947</ele>
        <time>2020-08-05T20:13:53Z</time>
      </trkpt>
      <trkpt lat="42.54086" lon="2.45813">
        <ele>1945</ele>
        <time>2020-08-05T20:14:02Z</time>
      </trkpt>
      <trkpt lat="42.5406" lon="2.45849">
        <ele>1947</ele>
        <time>2020-08-05T20:14:21Z</time>
      </trkpt>
      <trkpt lat="42.54045" lon="2.45864">
        <ele>1950</ele>
        <time>2020-08-05T20:14:30Z</time>
      </trkpt>
      <trkpt lat="42.54028" lon="2.45876">
        <ele>1953</ele>
        <time>2020-08-05T20:14:40Z</time>
      </trkpt>
      <trkpt lat="42.53979" lon="2.45903">
        <ele>1959</ele>
        <time>2020-08-05T20:15:06Z</time>
      </trkpt>
      <trkpt lat="42.53943" lon="2.45916">
        <ele>1964</ele>
        <time>2020-08-05T20:15:25Z</time>
      </trkpt>
      <trkpt lat="42.53906" lon="2.45921">
        <ele>1970</ele>
        <time>2020-08-05T20:15:43Z</time>
      </trkpt>
      <trkpt lat="42.5389" lon="2.45927">
        <ele>1972</ele>
        <time>2020-08-05T20:15:52Z</time>
      </trkpt>
      <trkpt lat="42.53869" lon="2.46058">
        <ele>1965</ele>
        <time>2020-08-05T20:16:41Z</time>
      </trkpt>
      <trkpt lat="42.53811" lon="2.46184">
        <ele>1996</ele>
        <time>2020-08-05T20:17:36Z</time>
      </trkpt>
      <trkpt lat="42.53742" lon="2.46257">
        <ele>2022</ele>
        <time>2020-08-05T20:18:20Z</time>
      </trkpt>
      <trkpt lat="42.53629" lon="2.46296">
        <ele>2073</ele>
        <time>2020-08-05T20:19:18Z</time>
      </trkpt>
      <trkpt lat="42.53558" lon="2.46371">
        <ele>2120</ele>
        <time>2020-08-05T20:20:03Z</time>
      </trkpt>
      <trkpt lat="42.5352" lon="2.46338">
        <ele>2123</ele>
        <time>2020-08-05T20:20:26Z</time>
      </trkpt>
      <trkpt lat="42.53433" lon="2.46328">
        <ele>2139</ele>
        <time>2020-08-05T20:21:09Z</time>
      </trkpt>
      <trkpt lat="42.53366" lon="2.46379">
        <ele>2153</ele>
        <time>2020-08-05T20:21:48Z</time>
      </trkpt>
      <trkpt lat="42.53346" lon="2.46387">
        <ele>2154</ele>
        <time>2020-08-05T20:21:58Z</time>
      </trkpt>
      <trkpt lat="42.53342" lon="2.4642">
        <ele>2155</ele>
        <time>2020-08-05T20:22:11Z</time>
      </trkpt>
      <trkpt lat="42.53345" lon="2.46426">
        <ele>2155</ele>
        <time>2020-08-05T20:22:13Z</time>
      </trkpt>
      <trkpt lat="42.53354" lon="2.46438">
        <ele>2156</ele>
        <time>2020-08-05T20:22:19Z</time>
      </trkpt>
      <trkpt lat="42.53372" lon="2.46449">
        <ele>2157</ele>
        <time>2020-08-05T20:22:29Z</time>
      </trkpt>
      <trkpt lat="42.53393" lon="2.46458">
        <ele>2158</ele>
        <time>2020-08-05T20:22:40Z</time>
      </trkpt>
      <trkpt lat="42.53406" lon="2.4647">
        <ele>2158</ele>
        <time>2020-08-05T20:22:48Z</time>
      </trkpt>
      <trkpt lat="42.53415" lon="2.46489">
        <ele>2158</ele>
        <time>2020-08-05T20:22:57Z</time>
      </trkpt>
      <trkpt lat="42.53423" lon="2.46533">
        <ele>2153</ele>
        <time>2020-08-05T20:23:13Z</time>
      </trkpt>
      <trkpt lat="42.534" lon="2.46549">
        <ele>2153</ele>
        <time>2020-08-05T20:23:26Z</time>
      </trkpt>
      <trkpt lat="42.53386" lon="2.46568">
        <ele>2154</ele>
        <time>2020-08-05T20:23:36Z</time>
      </trkpt>
      <trkpt lat="42.53367" lon="2.46584">
        <ele>2156</ele>
        <time>2020-08-05T20:23:47Z</time>
      </trkpt>
      <trkpt lat="42.53343" lon="2.4661">
        <ele>2155</ele>
        <time>2020-08-05T20:24:03Z</time>
      </trkpt>
      <trkpt lat="42.53324" lon="2.46624">
        <ele>2158</ele>
        <time>2020-08-05T20:24:14Z</time>
      </trkpt>
      <trkpt lat="42.53288" lon="2.46678">
        <ele>2162</ele>
        <time>2020-08-05T20:24:40Z</time>
      </trkpt>
      <trkpt lat="42.53265" lon="2.46699">
        <ele>2169</ele>
        <time>2020-08-05T20:24:54Z</time>
      </trkpt>
      <trkpt lat="42.53248" lon="2.46719">
        <ele>2175</ele>
        <time>2020-08-05T20:25:06Z</time>
      </trkpt>
      <trkpt lat="42.53242" lon="2.46728">
        <ele>2175</ele>
        <time>2020-08-05T20:25:10Z</time>
      </trkpt>
      <trkpt lat="42.53238" lon="2.46751">
        <ele>2175</ele>
        <time>2020-08-05T20:25:19Z</time>
      </trkpt>
      <trkpt lat="42.53219" lon="2.46792">
        <ele>2177</ele>
        <time>2020-08-05T20:25:37Z</time>
      </trkpt>
      <trkpt lat="42.53203" lon="2.46851">
        <ele>2179</ele>
        <time>2020-08-05T20:26:00Z</time>
      </trkpt>
      <trkpt lat="42.53199" lon="2.46883">
        <ele>2176</ele>
        <time>2020-08-05T20:26:12Z</time>
      </trkpt>
      <trkpt lat="42.53192" lon="2.46898">
        <ele>2177</ele>
        <time>2020-08-05T20:26:18Z</time>
      </trkpt>
      <trkpt lat="42.53162" lon="2.46943">
        <ele>2180</ele>
        <time>2020-08-05T20:26:41Z</time>
      </trkpt>
      <trkpt lat="42.53127" lon="2.46966">
        <ele>2185</ele>
        <time>2020-08-05T20:27:00Z</time>
      </trkpt>
      <trkpt lat="42.53119" lon="2.46969">
        <ele>2187</ele>
        <time>2020-08-05T20:27:04Z</time>
      </trkpt>
      <trkpt lat="42.53101" lon="2.46985">
        <ele>2188</ele>
        <time>2020-08-05T20:27:15Z</time>
      </trkpt>
      <trkpt lat="42.53092" lon="2.46999">
        <ele>2187</ele>
        <time>2020-08-05T20:27:22Z</time>
      </trkpt>
      <trkpt lat="42.5308" lon="2.47027">
        <ele>2180</ele>
        <time>2020-08-05T20:27:34Z</time>
      </trkpt>
      <trkpt lat="42.53044" lon="2.47049">
        <ele>2188</ele>
        <time>2020-08-05T20:27:54Z</time>
      </trkpt>
      <trkpt lat="42.53024" lon="2.47069">
        <ele>2189</ele>
        <time>2020-08-05T20:28:06Z</time>
      </trkpt>
      <trkpt lat="42.53005" lon="2.47108">
        <ele>2185</ele>
        <time>2020-08-05T20:28:23Z</time>
      </trkpt>
      <trkpt lat="42.53001" lon="2.47121">
        <ele>2184</ele>
        <time>2020-08-05T20:28:28Z</time>
      </trkpt>
      <trkpt lat="42.52978" lon="2.47164">
        <ele>2186</ele>
        <time>2020-08-05T20:28:48Z</time>
      </trkpt>
      <trkpt lat="42.52962" lon="2.47211">
        <ele>2181</ele>
        <time>2020-08-05T20:29:07Z</time>
      </trkpt>
      <trkpt lat="42.52955" lon="2.47247">
        <ele>2174</ele>
        <time>2020-08-05T20:29:21Z</time>
      </trkpt>
      <trkpt lat="42.52923" lon="2.47333">
        <ele>2174</ele>
        <time>2020-08-05T20:29:56Z</time>
      </trkpt>
      <trkpt lat="42.52912" lon="2.47351">
        <ele>2181</ele>
        <time>2020-08-05T20:30:05Z</time>
      </trkpt>
      <trkpt lat="42.52917" lon="2.47364">
        <ele>2177</ele>
        <time>2020-08-05T20:30:10Z</time>
      </trkpt>
      <trkpt lat="42.52917" lon="2.47377">
        <ele>2176</ele>
        <time>2020-08-05T20:30:15Z</time>
      </trkpt>
      <trkpt lat="42.52913" lon="2.47385">
        <ele>2179</ele>
        <time>2020-08-05T20:30:19Z</time>
      </trkpt>
      <trkpt lat="42.52918" lon="2.47407">
        <ele>2174</ele>
        <time>2020-08-05T20:30:27Z</time>
      </trkpt>
      <trkpt lat="42.52918" lon="2.47426">
        <ele>2174</ele>
        <time>2020-08-05T20:30:34Z</time>
      </trkpt>
      <trkpt lat="42.52921" lon="2.47443">
        <ele>2174</ele>
        <time>2020-08-05T20:30:41Z</time>
      </trkpt>
      <trkpt lat="42.52927" lon="2.47458">
        <ele>2172</ele>
        <time>2020-08-05T20:30:47Z</time>
      </trkpt>
      <trkpt lat="42.52936" lon="2.47468">
        <ele>2168</ele>
        <time>2020-08-05T20:30:53Z</time>
      </trkpt>
      <trkpt lat="42.52945" lon="2.47495">
        <ele>2167</ele>
        <time>2020-08-05T20:31:04Z</time>
      </trkpt>
      <trkpt lat="42.52957" lon="2.47511">
        <ele>2166</ele>
        <time>2020-08-05T20:31:12Z</time>
      </trkpt>
      <trkpt lat="42.52966" lon="2.47519">
        <ele>2164</ele>
        <time>2020-08-05T20:31:18Z</time>
      </trkpt>
      <trkpt lat="42.52983" lon="2.47528">
        <ele>2160</ele>
        <time>2020-08-05T20:31:27Z</time>
      </trkpt>
      <trkpt lat="42.53004" lon="2.47548">
        <ele>2158</ele>
        <time>2020-08-05T20:31:40Z</time>
      </trkpt>
      <trkpt lat="42.53033" lon="2.4757">
        <ele>2151</ele>
        <time>2020-08-05T20:31:56Z</time>
      </trkpt>
      <trkpt lat="42.53046" lon="2.47577">
        <ele>2147</ele>
        <time>2020-08-05T20:32:03Z</time>
      </trkpt>
      <trkpt lat="42.53055" lon="2.47586">
        <ele>2145</ele>
        <time>2020-08-05T20:32:09Z</time>
      </trkpt>
      <trkpt lat="42.53068" lon="2.47605">
        <ele>2144</ele>
        <time>2020-08-05T20:32:18Z</time>
      </trkpt>
      <trkpt lat="42.53072" lon="2.47615">
        <ele>2146</ele>
        <time>2020-08-05T20:32:23Z</time>
      </trkpt>
      <trkpt lat="42.53076" lon="2.47642">
        <ele>2153</ele>
        <time>2020-08-05T20:32:33Z</time>
      </trkpt>
      <trkpt lat="42.53076" lon="2.47648">
        <ele>2156</ele>
        <time>2020-08-05T20:32:35Z</time>
      </trkpt>
      <trkpt lat="42.53071" lon="2.4766">
        <ele>2163</ele>
        <time>2020-08-05T20:32:40Z</time>
      </trkpt>
      <trkpt lat="42.53071" lon="2.4767">
        <ele>2166</ele>
        <time>2020-08-05T20:32:44Z</time>
      </trkpt>
      <trkpt lat="42.53074" lon="2.477">
        <ele>2166</ele>
        <time>2020-08-05T20:32:55Z</time>
      </trkpt>
      <trkpt lat="42.53072" lon="2.47727">
        <ele>2169</ele>
        <time>2020-08-05T20:33:05Z</time>
      </trkpt>
      <trkpt lat="42.53076" lon="2.4774">
        <ele>2168</ele>
        <time>2020-08-05T20:33:10Z</time>
      </trkpt>
      <trkpt lat="42.53078" lon="2.47767">
        <ele>2167</ele>
        <time>2020-08-05T20:33:20Z</time>
      </trkpt>
      <trkpt lat="42.53067" lon="2.47838">
        <ele>2165</ele>
        <time>2020-08-05T20:33:47Z</time>
      </trkpt>
      <trkpt lat="42.53057" lon="2.47874">
        <ele>2161</ele>
        <time>2020-08-05T20:34:01Z</time>
      </trkpt>
      <trkpt lat="42.53043" lon="2.47891">
        <ele>2163</ele>
        <time>2020-08-05T20:34:10Z</time>
      </trkpt>
      <trkpt lat="42.53033" lon="2.47897">
        <ele>2165</ele>
        <time>2020-08-05T20:34:16Z</time>
      </trkpt>
      <trkpt lat="42.53026" lon="2.47908">
        <ele>2165</ele>
        <time>2020-08-05T20:34:21Z</time>
      </trkpt>
      <trkpt lat="42.53021" lon="2.47925">
        <ele>2162</ele>
        <time>2020-08-05T20:34:28Z</time>
      </trkpt>
      <trkpt lat="42.53011" lon="2.47939">
        <ele>2161</ele>
        <time>2020-08-05T20:34:35Z</time>
      </trkpt>
      <trkpt lat="42.52997" lon="2.47974">
        <ele>2156</ele>
        <time>2020-08-05T20:34:50Z</time>
      </trkpt>
      <trkpt lat="42.52993" lon="2.47991">
        <ele>2154</ele>
        <time>2020-08-05T20:34:56Z</time>
      </trkpt>
      <trkpt lat="42.52965" lon="2.48051">
        <ele>2149</ele>
        <time>2020-08-05T20:35:23Z</time>
      </trkpt>
      <trkpt lat="42.52959" lon="2.48093">
        <ele>2139</ele>
        <time>2020-08-05T20:35:38Z</time>
      </trkpt>
      <trkpt lat="42.5296" lon="2.48142">
        <ele>2126</ele>
        <time>2020-08-05T20:35:56Z</time>
      </trkpt>
      <trkpt lat="42.52958" lon="2.48158">
        <ele>2122</ele>
        <time>2020-08-05T20:36:02Z</time>
      </trkpt>
      <trkpt lat="42.52961" lon="2.48207">
        <ele>2109</ele>
        <time>2020-08-05T20:36:21Z</time>
      </trkpt>
      <trkpt lat="42.52957" lon="2.48211">
        <ele>2110</ele>
        <time>2020-08-05T20:36:23Z</time>
      </trkpt>
      <trkpt lat="42.52957" lon="2.48217">
        <ele>2108</ele>
        <time>2020-08-05T20:36:25Z</time>
      </trkpt>
      <trkpt lat="42.5295" lon="2.48238">
        <ele>2105</ele>
        <time>2020-08-05T20:36:34Z</time>
      </trkpt>
      <trkpt lat="42.52945" lon="2.48244">
        <ele>2106</ele>
        <time>2020-08-05T20:36:37Z</time>
      </trkpt>
      <trkpt lat="42.52944" lon="2.48249">
        <ele>2104</ele>
        <time>2020-08-05T20:36:39Z</time>
      </trkpt>
      <trkpt lat="42.52948" lon="2.48257">
        <ele>2101</ele>
        <time>2020-08-05T20:36:43Z</time>
      </trkpt>
      <trkpt lat="42.52958" lon="2.48268">
        <ele>2096</ele>
        <time>2020-08-05T20:36:49Z</time>
      </trkpt>
      <trkpt lat="42.52961" lon="2.48276">
        <ele>2094</ele>
        <time>2020-08-05T20:36:52Z</time>
      </trkpt>
      <trkpt lat="42.52963" lon="2.48307">
        <ele>2088</ele>
        <time>2020-08-05T20:37:04Z</time>
      </trkpt>
      <trkpt lat="42.52949" lon="2.48326">
        <ele>2086</ele>
        <time>2020-08-05T20:37:14Z</time>
      </trkpt>
      <trkpt lat="42.52866" lon="2.48352">
        <ele>2081</ele>
        <time>2020-08-05T20:37:56Z</time>
      </trkpt>
      <trkpt lat="42.52853" lon="2.48352">
        <ele>2080</ele>
        <time>2020-08-05T20:38:03Z</time>
      </trkpt>
      <trkpt lat="42.52832" lon="2.48347">
        <ele>2081</ele>
        <time>2020-08-05T20:38:14Z</time>
      </trkpt>
      <trkpt lat="42.52809" lon="2.48336">
        <ele>2083</ele>
        <time>2020-08-05T20:38:26Z</time>
      </trkpt>
      <trkpt lat="42.52797" lon="2.48338">
        <ele>2081</ele>
        <time>2020-08-05T20:38:32Z</time>
      </trkpt>
      <trkpt lat="42.52766" lon="2.48331">
        <ele>2080</ele>
        <time>2020-08-05T20:38:48Z</time>
      </trkpt>
      <trkpt lat="42.52735" lon="2.48335">
        <ele>2078</ele>
        <time>2020-08-05T20:39:03Z</time>
      </trkpt>
      <trkpt lat="42.52717" lon="2.48343">
        <ele>2078</ele>
        <time>2020-08-05T20:39:13Z</time>
      </trkpt>
      <trkpt lat="42.52681" lon="2.48375">
        <ele>2073</ele>
        <time>2020-08-05T20:39:34Z</time>
      </trkpt>
      <trkpt lat="42.52645" lon="2.48399">
        <ele>2070</ele>
        <time>2020-08-05T20:39:54Z</time>
      </trkpt>
      <trkpt lat="42.52619" lon="2.48429">
        <ele>2063</ele>
        <time>2020-08-05T20:40:11Z</time>
      </trkpt>
      <trkpt lat="42.52616" lon="2.48437">
        <ele>2061</ele>
        <time>2020-08-05T20:40:15Z</time>
      </trkpt>
      <trkpt lat="42.5259" lon="2.48445">
        <ele>2060</ele>
        <time>2020-08-05T20:40:28Z</time>
      </trkpt>
      <trkpt lat="42.5256" lon="2.48439">
        <ele>2057</ele>
        <time>2020-08-05T20:40:43Z</time>
      </trkpt>
      <trkpt lat="42.52545" lon="2.48441">
        <ele>2053</ele>
        <time>2020-08-05T20:40:51Z</time>
      </trkpt>
      <trkpt lat="42.52537" lon="2.48438">
        <ele>2052</ele>
        <time>2020-08-05T20:40:55Z</time>
      </trkpt>
      <trkpt lat="42.52532" lon="2.48438">
        <ele>2051</ele>
        <time>2020-08-05T20:40:57Z</time>
      </trkpt>
      <trkpt lat="42.5253" lon="2.48444">
        <ele>2049</ele>
        <time>2020-08-05T20:41:00Z</time>
      </trkpt>
      <trkpt lat="42.5253" lon="2.48449">
        <ele>2047</ele>
        <time>2020-08-05T20:41:02Z</time>
      </trkpt>
      <trkpt lat="42.52538" lon="2.48457">
        <ele>2047</ele>
        <time>2020-08-05T20:41:07Z</time>
      </trkpt>
      <trkpt lat="42.52551" lon="2.48462">
        <ele>2048</ele>
        <time>2020-08-05T20:41:13Z</time>
      </trkpt>
      <trkpt lat="42.52564" lon="2.48472">
        <ele>2049</ele>
        <time>2020-08-05T20:41:21Z</time>
      </trkpt>
      <trkpt lat="42.52591" lon="2.48484">
        <ele>2051</ele>
        <time>2020-08-05T20:41:35Z</time>
      </trkpt>
      <trkpt lat="42.52601" lon="2.48495">
        <ele>2047</ele>
        <time>2020-08-05T20:41:41Z</time>
      </trkpt>
      <trkpt lat="42.52648" lon="2.48499">
        <ele>2044</ele>
        <time>2020-08-05T20:42:05Z</time>
      </trkpt>
      <trkpt lat="42.52652" lon="2.48501">
        <ele>2043</ele>
        <time>2020-08-05T20:42:07Z</time>
      </trkpt>
      <trkpt lat="42.52651" lon="2.48514">
        <ele>2040</ele>
        <time>2020-08-05T20:42:12Z</time>
      </trkpt>
      <trkpt lat="42.52643" lon="2.48522">
        <ele>2038</ele>
        <time>2020-08-05T20:42:17Z</time>
      </trkpt>
      <trkpt lat="42.52643" lon="2.48529">
        <ele>2036</ele>
        <time>2020-08-05T20:42:19Z</time>
      </trkpt>
      <trkpt lat="42.52657" lon="2.48544">
        <ele>2033</ele>
        <time>2020-08-05T20:42:28Z</time>
      </trkpt>
      <trkpt lat="42.52671" lon="2.48547">
        <ele>2032</ele>
        <time>2020-08-05T20:42:36Z</time>
      </trkpt>
      <trkpt lat="42.52674" lon="2.48532">
        <ele>2035</ele>
        <time>2020-08-05T20:42:41Z</time>
      </trkpt>
      <trkpt lat="42.52678" lon="2.48529">
        <ele>2034</ele>
        <time>2020-08-05T20:42:44Z</time>
      </trkpt>
      <trkpt lat="42.52686" lon="2.48525">
        <ele>2033</ele>
        <time>2020-08-05T20:42:48Z</time>
      </trkpt>
      <trkpt lat="42.52696" lon="2.48529">
        <ele>2030</ele>
        <time>2020-08-05T20:42:53Z</time>
      </trkpt>
      <trkpt lat="42.52694" lon="2.48569">
        <ele>2021</ele>
        <time>2020-08-05T20:43:08Z</time>
      </trkpt>
      <trkpt lat="42.52681" lon="2.48612">
        <ele>2008</ele>
        <time>2020-08-05T20:43:25Z</time>
      </trkpt>
      <trkpt lat="42.52695" lon="2.48631">
        <ele>1997</ele>
        <time>2020-08-05T20:43:35Z</time>
      </trkpt>
      <trkpt lat="42.52709" lon="2.48639">
        <ele>1992</ele>
        <time>2020-08-05T20:43:42Z</time>
      </trkpt>
      <trkpt lat="42.52709" lon="2.48649">
        <ele>1988</ele>
        <time>2020-08-05T20:43:46Z</time>
      </trkpt>
      <trkpt lat="42.52721" lon="2.48652">
        <ele>1986</ele>
        <time>2020-08-05T20:43:52Z</time>
      </trkpt>
      <trkpt lat="42.52722" lon="2.48654">
        <ele>1986</ele>
        <time>2020-08-05T20:43:53Z</time>
      </trkpt>
      <trkpt lat="42.52714" lon="2.48668">
        <ele>1981</ele>
        <time>2020-08-05T20:44:00Z</time>
      </trkpt>
      <trkpt lat="42.52713" lon="2.48679">
        <ele>1977</ele>
        <time>2020-08-05T20:44:04Z</time>
      </trkpt>
      <trkpt lat="42.52724" lon="2.48688">
        <ele>1975</ele>
        <time>2020-08-05T20:44:10Z</time>
      </trkpt>
      <trkpt lat="42.52723" lon="2.48694">
        <ele>1973</ele>
        <time>2020-08-05T20:44:12Z</time>
      </trkpt>
      <trkpt lat="42.52728" lon="2.48699">
        <ele>1971</ele>
        <time>2020-08-05T20:44:16Z</time>
      </trkpt>
      <trkpt lat="42.52728" lon="2.48702">
        <ele>1970</ele>
        <time>2020-08-05T20:44:17Z</time>
      </trkpt>
      <trkpt lat="42.52721" lon="2.48705">
        <ele>1969</ele>
        <time>2020-08-05T20:44:20Z</time>
      </trkpt>
      <trkpt lat="42.52708" lon="2.48718">
        <ele>1965</ele>
        <time>2020-08-05T20:44:28Z</time>
      </trkpt>
      <trkpt lat="42.52731" lon="2.48738">
        <ele>1958</ele>
        <time>2020-08-05T20:44:42Z</time>
      </trkpt>
      <trkpt lat="42.52732" lon="2.48744">
        <ele>1956</ele>
        <time>2020-08-05T20:44:44Z</time>
      </trkpt>
      <trkpt lat="42.5272" lon="2.48777">
        <ele>1945</ele>
        <time>2020-08-05T20:44:58Z</time>
      </trkpt>
      <trkpt lat="42.52717" lon="2.48778">
        <ele>1944</ele>
        <time>2020-08-05T20:44:59Z</time>
      </trkpt>
      <trkpt lat="42.52715" lon="2.48784">
        <ele>1942</ele>
        <time>2020-08-05T20:45:02Z</time>
      </trkpt>
      <trkpt lat="42.52717" lon="2.48789">
        <ele>1940</ele>
        <time>2020-08-05T20:45:04Z</time>
      </trkpt>
      <trkpt lat="42.52722" lon="2.48791">
        <ele>1940</ele>
        <time>2020-08-05T20:45:07Z</time>
      </trkpt>
      <trkpt lat="42.52732" lon="2.48789">
        <ele>1941</ele>
        <time>2020-08-05T20:45:12Z</time>
      </trkpt>
      <trkpt lat="42.52733" lon="2.48795">
        <ele>1940</ele>
        <time>2020-08-05T20:45:14Z</time>
      </trkpt>
      <trkpt lat="42.52728" lon="2.48813">
        <ele>1933</ele>
        <time>2020-08-05T20:45:21Z</time>
      </trkpt>
      <trkpt lat="42.5273" lon="2.48817">
        <ele>1932</ele>
        <time>2020-08-05T20:45:23Z</time>
      </trkpt>
      <trkpt lat="42.52738" lon="2.48822">
        <ele>1931</ele>
        <time>2020-08-05T20:45:27Z</time>
      </trkpt>
      <trkpt lat="42.52743" lon="2.4883">
        <ele>1930</ele>
        <time>2020-08-05T20:45:31Z</time>
      </trkpt>
      <trkpt lat="42.52745" lon="2.4884">
        <ele>1927</ele>
        <time>2020-08-05T20:45:35Z</time>
      </trkpt>
      <trkpt lat="42.5274" lon="2.48853">
        <ele>1921</ele>
        <time>2020-08-05T20:45:40Z</time>
      </trkpt>
      <trkpt lat="42.52734" lon="2.4885">
        <ele>1921</ele>
        <time>2020-08-05T20:45:44Z</time>
      </trkpt>
      <trkpt lat="42.52712" lon="2.48847">
        <ele>1918</ele>
        <time>2020-08-05T20:45:55Z</time>
      </trkpt>
      <trkpt lat="42.52714" lon="2.48853">
        <ele>1916</ele>
        <time>2020-08-05T20:45:57Z</time>
      </trkpt>
      <trkpt lat="42.52731" lon="2.48864">
        <ele>1915</ele>
        <time>2020-08-05T20:46:06Z</time>
      </trkpt>
      <trkpt lat="42.52747" lon="2.48887">
        <ele>1909</ele>
        <time>2020-08-05T20:46:18Z</time>
      </trkpt>
      <trkpt lat="42.52756" lon="2.48896">
        <ele>1906</ele>
        <time>2020-08-05T20:46:24Z</time>
      </trkpt>
      <trkpt lat="42.52778" lon="2.48954">
        <ele>1881</ele>
        <time>2020-08-05T20:46:48Z</time>
      </trkpt>
      <trkpt lat="42.52793" lon="2.48983">
        <ele>1870</ele>
        <time>2020-08-05T20:47:01Z</time>
      </trkpt>
      <trkpt lat="42.52803" lon="2.49017">
        <ele>1862</ele>
        <time>2020-08-05T20:47:14Z</time>
      </trkpt>
      <trkpt lat="42.52812" lon="2.4906">
        <ele>1856</ele>
        <time>2020-08-05T20:47:31Z</time>
      </trkpt>
      <trkpt lat="42.52819" lon="2.49062">
        <ele>1857</ele>
        <time>2020-08-05T20:47:34Z</time>
      </trkpt>
      <trkpt lat="42.52847" lon="2.49122">
        <ele>1848</ele>
        <time>2020-08-05T20:48:01Z</time>
      </trkpt>
      <trkpt lat="42.52852" lon="2.49165">
        <ele>1842</ele>
        <time>2020-08-05T20:48:17Z</time>
      </trkpt>
      <trkpt lat="42.52856" lon="2.4918">
        <ele>1838</ele>
        <time>2020-08-05T20:48:23Z</time>
      </trkpt>
      <trkpt lat="42.52871" lon="2.49209">
        <ele>1832</ele>
        <time>2020-08-05T20:48:36Z</time>
      </trkpt>
      <trkpt lat="42.52876" lon="2.49224">
        <ele>1830</ele>
        <time>2020-08-05T20:48:42Z</time>
      </trkpt>
      <trkpt lat="42.5288" lon="2.49268">
        <ele>1822</ele>
        <time>2020-08-05T20:48:58Z</time>
      </trkpt>
      <trkpt lat="42.52886" lon="2.49296">
        <ele>1818</ele>
        <time>2020-08-05T20:49:09Z</time>
      </trkpt>
      <trkpt lat="42.52892" lon="2.49308">
        <ele>1817</ele>
        <time>2020-08-05T20:49:14Z</time>
      </trkpt>
      <trkpt lat="42.5289" lon="2.49312">
        <ele>1816</ele>
        <time>2020-08-05T20:49:16Z</time>
      </trkpt>
      <trkpt lat="42.52891" lon="2.49334">
        <ele>1811</ele>
        <time>2020-08-05T20:49:24Z</time>
      </trkpt>
      <trkpt lat="42.52885" lon="2.49363">
        <ele>1801</ele>
        <time>2020-08-05T20:49:35Z</time>
      </trkpt>
      <trkpt lat="42.52888" lon="2.49388">
        <ele>1794</ele>
        <time>2020-08-05T20:49:44Z</time>
      </trkpt>
      <trkpt lat="42.52886" lon="2.4941">
        <ele>1787</ele>
        <time>2020-08-05T20:49:53Z</time>
      </trkpt>
      <trkpt lat="42.52896" lon="2.49422">
        <ele>1786</ele>
        <time>2020-08-05T20:49:59Z</time>
      </trkpt>
      <trkpt lat="42.52901" lon="2.49458">
        <ele>1776</ele>
        <time>2020-08-05T20:50:13Z</time>
      </trkpt>
      <trkpt lat="42.52907" lon="2.4947">
        <ele>1775</ele>
        <time>2020-08-05T20:50:18Z</time>
      </trkpt>
      <trkpt lat="42.52907" lon="2.49477">
        <ele>1773</ele>
        <time>2020-08-05T20:50:21Z</time>
      </trkpt>
      <trkpt lat="42.52917" lon="2.49482">
        <ele>1774</ele>
        <time>2020-08-05T20:50:26Z</time>
      </trkpt>
      <trkpt lat="42.52928" lon="2.49483">
        <ele>1773</ele>
        <time>2020-08-05T20:50:32Z</time>
      </trkpt>
      <trkpt lat="42.5293" lon="2.49489">
        <ele>1771</ele>
        <time>2020-08-05T20:50:34Z</time>
      </trkpt>
      <trkpt lat="42.52926" lon="2.49498">
        <ele>1769</ele>
        <time>2020-08-05T20:50:38Z</time>
      </trkpt>
      <trkpt lat="42.52927" lon="2.4951">
        <ele>1764</ele>
        <time>2020-08-05T20:50:42Z</time>
      </trkpt>
      <trkpt lat="42.52933" lon="2.49518">
        <ele>1761</ele>
        <time>2020-08-05T20:50:47Z</time>
      </trkpt>
      <trkpt lat="42.52936" lon="2.49527">
        <ele>1758</ele>
        <time>2020-08-05T20:50:50Z</time>
      </trkpt>
      <trkpt lat="42.5295" lon="2.49526">
        <ele>1757</ele>
        <time>2020-08-05T20:50:57Z</time>
      </trkpt>
      <trkpt lat="42.52939" lon="2.49564">
        <ele>1744</ele>
        <time>2020-08-05T20:51:12Z</time>
      </trkpt>
      <trkpt lat="42.52938" lon="2.49575">
        <ele>1741</ele>
        <time>2020-08-05T20:51:16Z</time>
      </trkpt>
      <trkpt lat="42.52951" lon="2.49597">
        <ele>1733</ele>
        <time>2020-08-05T20:51:27Z</time>
      </trkpt>
      <trkpt lat="42.52947" lon="2.496">
        <ele>1732</ele>
        <time>2020-08-05T20:51:29Z</time>
      </trkpt>
      <trkpt lat="42.52939" lon="2.49601">
        <ele>1732</ele>
        <time>2020-08-05T20:51:33Z</time>
      </trkpt>
      <trkpt lat="42.52928" lon="2.49584">
        <ele>1738</ele>
        <time>2020-08-05T20:51:41Z</time>
      </trkpt>
      <trkpt lat="42.52918" lon="2.49578">
        <ele>1740</ele>
        <time>2020-08-05T20:51:47Z</time>
      </trkpt>
      <trkpt lat="42.52898" lon="2.49555">
        <ele>1741</ele>
        <time>2020-08-05T20:52:00Z</time>
      </trkpt>
      <trkpt lat="42.52879" lon="2.49549">
        <ele>1737</ele>
        <time>2020-08-05T20:52:10Z</time>
      </trkpt>
      <trkpt lat="42.5286" lon="2.4955">
        <ele>1729</ele>
        <time>2020-08-05T20:52:19Z</time>
      </trkpt>
      <trkpt lat="42.52836" lon="2.49538">
        <ele>1725</ele>
        <time>2020-08-05T20:52:32Z</time>
      </trkpt>
      <trkpt lat="42.52829" lon="2.49527">
        <ele>1726</ele>
        <time>2020-08-05T20:52:37Z</time>
      </trkpt>
      <trkpt lat="42.52824" lon="2.49507">
        <ele>1731</ele>
        <time>2020-08-05T20:52:45Z</time>
      </trkpt>
      <trkpt lat="42.52811" lon="2.49492">
        <ele>1726</ele>
        <time>2020-08-05T20:52:54Z</time>
      </trkpt>
      <trkpt lat="42.52802" lon="2.49474">
        <ele>1726</ele>
        <time>2020-08-05T20:53:02Z</time>
      </trkpt>
      <trkpt lat="42.52802" lon="2.49443">
        <ele>1738</ele>
        <time>2020-08-05T20:53:13Z</time>
      </trkpt>
      <trkpt lat="42.52783" lon="2.49424">
        <ele>1731</ele>
        <time>2020-08-05T20:53:25Z</time>
      </trkpt>
      <trkpt lat="42.52776" lon="2.49412">
        <ele>1730</ele>
        <time>2020-08-05T20:53:31Z</time>
      </trkpt>
      <trkpt lat="42.52773" lon="2.49397">
        <ele>1733</ele>
        <time>2020-08-05T20:53:36Z</time>
      </trkpt>
      <trkpt lat="42.52766" lon="2.49387">
        <ele>1731</ele>
        <time>2020-08-05T20:53:42Z</time>
      </trkpt>
      <trkpt lat="42.52763" lon="2.49374">
        <ele>1733</ele>
        <time>2020-08-05T20:53:47Z</time>
      </trkpt>
      <trkpt lat="42.52758" lon="2.49365">
        <ele>1732</ele>
        <time>2020-08-05T20:53:51Z</time>
      </trkpt>
      <trkpt lat="42.52737" lon="2.49346">
        <ele>1725</ele>
        <time>2020-08-05T20:54:03Z</time>
      </trkpt>
      <trkpt lat="42.5272" lon="2.49336">
        <ele>1718</ele>
        <time>2020-08-05T20:54:13Z</time>
      </trkpt>
      <trkpt lat="42.52717" lon="2.49331">
        <ele>1718</ele>
        <time>2020-08-05T20:54:15Z</time>
      </trkpt>
      <trkpt lat="42.52714" lon="2.49325">
        <ele>1719</ele>
        <time>2020-08-05T20:54:18Z</time>
      </trkpt>
      <trkpt lat="42.52713" lon="2.49312">
        <ele>1723</ele>
        <time>2020-08-05T20:54:22Z</time>
      </trkpt>
      <trkpt lat="42.52705" lon="2.49295">
        <ele>1725</ele>
        <time>2020-08-05T20:54:30Z</time>
      </trkpt>
      <trkpt lat="42.52691" lon="2.4925">
        <ele>1735</ele>
        <time>2020-08-05T20:54:48Z</time>
      </trkpt>
      <trkpt lat="42.52687" lon="2.49242">
        <ele>1736</ele>
        <time>2020-08-05T20:54:51Z</time>
      </trkpt>
      <trkpt lat="42.52672" lon="2.49225">
        <ele>1736</ele>
        <time>2020-08-05T20:55:01Z</time>
      </trkpt>
      <trkpt lat="42.52661" lon="2.49223">
        <ele>1732</ele>
        <time>2020-08-05T20:55:07Z</time>
      </trkpt>
      <trkpt lat="42.52631" lon="2.49229">
        <ele>1718</ele>
        <time>2020-08-05T20:55:22Z</time>
      </trkpt>
      <trkpt lat="42.526" lon="2.49223">
        <ele>1709</ele>
        <time>2020-08-05T20:55:38Z</time>
      </trkpt>
      <trkpt lat="42.52585" lon="2.49223">
        <ele>1704</ele>
        <time>2020-08-05T20:55:45Z</time>
      </trkpt>
      <trkpt lat="42.52521" lon="2.49202">
        <ele>1708</ele>
        <time>2020-08-05T20:56:18Z</time>
      </trkpt>
      <trkpt lat="42.52509" lon="2.49207">
        <ele>1705</ele>
        <time>2020-08-05T20:56:24Z</time>
      </trkpt>
      <trkpt lat="42.5248" lon="2.4923">
        <ele>1693</ele>
        <time>2020-08-05T20:56:41Z</time>
      </trkpt>
      <trkpt lat="42.52468" lon="2.49233">
        <ele>1690</ele>
        <time>2020-08-05T20:56:47Z</time>
      </trkpt>
      <trkpt lat="42.52454" lon="2.49231">
        <ele>1690</ele>
        <time>2020-08-05T20:56:54Z</time>
      </trkpt>
      <trkpt lat="42.52446" lon="2.49229">
        <ele>1690</ele>
        <time>2020-08-05T20:56:58Z</time>
      </trkpt>
      <trkpt lat="42.52419" lon="2.49214">
        <ele>1693</ele>
        <time>2020-08-05T20:57:13Z</time>
      </trkpt>
      <trkpt lat="42.52378" lon="2.49172">
        <ele>1699</ele>
        <time>2020-08-05T20:57:39Z</time>
      </trkpt>
      <trkpt lat="42.52368" lon="2.49167">
        <ele>1699</ele>
        <time>2020-08-05T20:57:44Z</time>
      </trkpt>
      <trkpt lat="42.52339" lon="2.49164">
        <ele>1694</ele>
        <time>2020-08-05T20:57:59Z</time>
      </trkpt>
      <trkpt lat="42.5233" lon="2.49157">
        <ele>1694</ele>
        <time>2020-08-05T20:58:04Z</time>
      </trkpt>
      <trkpt lat="42.52275" lon="2.49153">
        <ele>1671</ele>
        <time>2020-08-05T20:58:31Z</time>
      </trkpt>
      <trkpt lat="42.52259" lon="2.49148">
        <ele>1666</ele>
        <time>2020-08-05T20:58:40Z</time>
      </trkpt>
      <trkpt lat="42.52259" lon="2.4912">
        <ele>1674</ele>
        <time>2020-08-05T20:58:50Z</time>
      </trkpt>
      <trkpt lat="42.52251" lon="2.49073">
        <ele>1685</ele>
        <time>2020-08-05T20:59:08Z</time>
      </trkpt>
      <trkpt lat="42.52236" lon="2.4905">
        <ele>1683</ele>
        <time>2020-08-05T20:59:19Z</time>
      </trkpt>
      <trkpt lat="42.52216" lon="2.4903">
        <ele>1676</ele>
        <time>2020-08-05T20:59:31Z</time>
      </trkpt>
      <trkpt lat="42.52209" lon="2.49005">
        <ele>1679</ele>
        <time>2020-08-05T20:59:41Z</time>
      </trkpt>
      <trkpt lat="42.52203" lon="2.48959">
        <ele>1692</ele>
        <time>2020-08-05T20:59:59Z</time>
      </trkpt>
      <trkpt lat="42.52197" lon="2.48948">
        <ele>1691</ele>
        <time>2020-08-05T21:00:04Z</time>
      </trkpt>
      <trkpt lat="42.5218" lon="2.48935">
        <ele>1685</ele>
        <time>2020-08-05T21:00:13Z</time>
      </trkpt>
      <trkpt lat="42.5217" lon="2.48907">
        <ele>1688</ele>
        <time>2020-08-05T21:00:25Z</time>
      </trkpt>
      <trkpt lat="42.52149" lon="2.48892">
        <ele>1682</ele>
        <time>2020-08-05T21:00:37Z</time>
      </trkpt>
      <trkpt lat="42.52139" lon="2.48871">
        <ele>1685</ele>
        <time>2020-08-05T21:00:46Z</time>
      </trkpt>
      <trkpt lat="42.52119" lon="2.48863">
        <ele>1679</ele>
        <time>2020-08-05T21:00:56Z</time>
      </trkpt>
      <trkpt lat="42.52111" lon="2.48857">
        <ele>1678</ele>
        <time>2020-08-05T21:01:01Z</time>
      </trkpt>
      <trkpt lat="42.52109" lon="2.48852">
        <ele>1679</ele>
        <time>2020-08-05T21:01:03Z</time>
      </trkpt>
      <trkpt lat="42.52105" lon="2.48794">
        <ele>1703</ele>
        <time>2020-08-05T21:01:25Z</time>
      </trkpt>
      <trkpt lat="42.52072" lon="2.48795">
        <ele>1690</ele>
        <time>2020-08-05T21:01:41Z</time>
      </trkpt>
      <trkpt lat="42.52066" lon="2.48798">
        <ele>1687</ele>
        <time>2020-08-05T21:01:44Z</time>
      </trkpt>
      <trkpt lat="42.52059" lon="2.48808">
        <ele>1679</ele>
        <time>2020-08-05T21:01:49Z</time>
      </trkpt>
      <trkpt lat="42.52053" lon="2.48811">
        <ele>1675</ele>
        <time>2020-08-05T21:01:53Z</time>
      </trkpt>
      <trkpt lat="42.52043" lon="2.48811">
        <ele>1672</ele>
        <time>2020-08-05T21:01:58Z</time>
      </trkpt>
      <trkpt lat="42.52029" lon="2.48806">
        <ele>1669</ele>
        <time>2020-08-05T21:02:05Z</time>
      </trkpt>
      <trkpt lat="42.5201" lon="2.48792">
        <ele>1668</ele>
        <time>2020-08-05T21:02:16Z</time>
      </trkpt>
      <trkpt lat="42.52002" lon="2.48782">
        <ele>1670</ele>
        <time>2020-08-05T21:02:21Z</time>
      </trkpt>
      <trkpt lat="42.51982" lon="2.48739">
        <ele>1682</ele>
        <time>2020-08-05T21:02:40Z</time>
      </trkpt>
      <trkpt lat="42.51967" lon="2.48721">
        <ele>1686</ele>
        <time>2020-08-05T21:02:50Z</time>
      </trkpt>
      <trkpt lat="42.51961" lon="2.4871">
        <ele>1689</ele>
        <time>2020-08-05T21:02:55Z</time>
      </trkpt>
      <trkpt lat="42.51943" lon="2.4869">
        <ele>1692</ele>
        <time>2020-08-05T21:03:07Z</time>
      </trkpt>
      <trkpt lat="42.51939" lon="2.48668">
        <ele>1702</ele>
        <time>2020-08-05T21:03:15Z</time>
      </trkpt>
      <trkpt lat="42.51933" lon="2.48661">
        <ele>1702</ele>
        <time>2020-08-05T21:03:19Z</time>
      </trkpt>
      <trkpt lat="42.51929" lon="2.48659">
        <ele>1702</ele>
        <time>2020-08-05T21:03:21Z</time>
      </trkpt>
      <trkpt lat="42.51925" lon="2.48664">
        <ele>1699</ele>
        <time>2020-08-05T21:03:24Z</time>
      </trkpt>
      <trkpt lat="42.5192" lon="2.48699">
        <ele>1681</ele>
        <time>2020-08-05T21:03:37Z</time>
      </trkpt>
      <trkpt lat="42.51917" lon="2.487">
        <ele>1679</ele>
        <time>2020-08-05T21:03:38Z</time>
      </trkpt>
      <trkpt lat="42.519" lon="2.48687">
        <ele>1687</ele>
        <time>2020-08-05T21:03:48Z</time>
      </trkpt>
      <trkpt lat="42.51889" lon="2.48686">
        <ele>1689</ele>
        <time>2020-08-05T21:03:54Z</time>
      </trkpt>
      <trkpt lat="42.51877" lon="2.48677">
        <ele>1693</ele>
        <time>2020-08-05T21:04:01Z</time>
      </trkpt>
      <trkpt lat="42.51874" lon="2.48676">
        <ele>1693</ele>
        <time>2020-08-05T21:04:02Z</time>
      </trkpt>
      <trkpt lat="42.51868" lon="2.4868">
        <ele>1693</ele>
        <time>2020-08-05T21:04:05Z</time>
      </trkpt>
      <trkpt lat="42.51865" lon="2.48685">
        <ele>1691</ele>
        <time>2020-08-05T21:04:08Z</time>
      </trkpt>
      <trkpt lat="42.51869" lon="2.48705">
        <ele>1685</ele>
        <time>2020-08-05T21:04:15Z</time>
      </trkpt>
      <trkpt lat="42.51858" lon="2.48726">
        <ele>1681</ele>
        <time>2020-08-05T21:04:25Z</time>
      </trkpt>
      <trkpt lat="42.51858" lon="2.48729">
        <ele>1680</ele>
        <time>2020-08-05T21:04:26Z</time>
      </trkpt>
      <trkpt lat="42.51863" lon="2.48731">
        <ele>1678</ele>
        <time>2020-08-05T21:04:29Z</time>
      </trkpt>
      <trkpt lat="42.51864" lon="2.48735">
        <ele>1677</ele>
        <time>2020-08-05T21:04:30Z</time>
      </trkpt>
      <trkpt lat="42.51864" lon="2.48755">
        <ele>1671</ele>
        <time>2020-08-05T21:04:38Z</time>
      </trkpt>
      <trkpt lat="42.51825" lon="2.48772">
        <ele>1681</ele>
        <time>2020-08-05T21:04:58Z</time>
      </trkpt>
      <trkpt lat="42.51806" lon="2.488">
        <ele>1685</ele>
        <time>2020-08-05T21:05:12Z</time>
      </trkpt>
      <trkpt lat="42.51808" lon="2.48829">
        <ele>1681</ele>
        <time>2020-08-05T21:05:23Z</time>
      </trkpt>
      <trkpt lat="42.51826" lon="2.4885">
        <ele>1671</ele>
        <time>2020-08-05T21:05:35Z</time>
      </trkpt>
      <trkpt lat="42.51831" lon="2.48865">
        <ele>1669</ele>
        <time>2020-08-05T21:05:41Z</time>
      </trkpt>
      <trkpt lat="42.51841" lon="2.48875">
        <ele>1664</ele>
        <time>2020-08-05T21:05:47Z</time>
      </trkpt>
      <trkpt lat="42.51844" lon="2.48893">
        <ele>1663</ele>
        <time>2020-08-05T21:05:54Z</time>
      </trkpt>
      <trkpt lat="42.51844" lon="2.489">
        <ele>1664</ele>
        <time>2020-08-05T21:05:56Z</time>
      </trkpt>
      <trkpt lat="42.51837" lon="2.48916">
        <ele>1669</ele>
        <time>2020-08-05T21:06:03Z</time>
      </trkpt>
      <trkpt lat="42.51834" lon="2.48933">
        <ele>1670</ele>
        <time>2020-08-05T21:06:10Z</time>
      </trkpt>
      <trkpt lat="42.51836" lon="2.48963">
        <ele>1668</ele>
        <time>2020-08-05T21:06:21Z</time>
      </trkpt>
      <trkpt lat="42.51834" lon="2.48972">
        <ele>1669</ele>
        <time>2020-08-05T21:06:24Z</time>
      </trkpt>
      <trkpt lat="42.51819" lon="2.48988">
        <ele>1677</ele>
        <time>2020-08-05T21:06:34Z</time>
      </trkpt>
      <trkpt lat="42.51816" lon="2.48999">
        <ele>1678</ele>
        <time>2020-08-05T21:06:38Z</time>
      </trkpt>
      <trkpt lat="42.51819" lon="2.49083">
        <ele>1671</ele>
        <time>2020-08-05T21:07:09Z</time>
      </trkpt>
      <trkpt lat="42.51816" lon="2.49122">
        <ele>1671</ele>
        <time>2020-08-05T21:07:24Z</time>
      </trkpt>
      <trkpt lat="42.51823" lon="2.4915">
        <ele>1668</ele>
        <time>2020-08-05T21:07:35Z</time>
      </trkpt>
      <trkpt lat="42.51824" lon="2.49163">
        <ele>1667</ele>
        <time>2020-08-05T21:07:39Z</time>
      </trkpt>
      <trkpt lat="42.51822" lon="2.49249">
        <ele>1664</ele>
        <time>2020-08-05T21:08:11Z</time>
      </trkpt>
      <trkpt lat="42.51819" lon="2.49254">
        <ele>1663</ele>
        <time>2020-08-05T21:08:14Z</time>
      </trkpt>
      <trkpt lat="42.51813" lon="2.49255">
        <ele>1663</ele>
        <time>2020-08-05T21:08:17Z</time>
      </trkpt>
      <trkpt lat="42.51709" lon="2.49215">
        <ele>1679</ele>
        <time>2020-08-05T21:09:11Z</time>
      </trkpt>
      <trkpt lat="42.51693" lon="2.49234">
        <ele>1675</ele>
        <time>2020-08-05T21:09:21Z</time>
      </trkpt>
      <trkpt lat="42.51686" lon="2.49244">
        <ele>1673</ele>
        <time>2020-08-05T21:09:26Z</time>
      </trkpt>
      <trkpt lat="42.51685" lon="2.4925">
        <ele>1671</ele>
        <time>2020-08-05T21:09:29Z</time>
      </trkpt>
      <trkpt lat="42.51678" lon="2.49257">
        <ele>1671</ele>
        <time>2020-08-05T21:09:33Z</time>
      </trkpt>
      <trkpt lat="42.51671" lon="2.4929">
        <ele>1667</ele>
        <time>2020-08-05T21:09:46Z</time>
      </trkpt>
      <trkpt lat="42.51671" lon="2.49329">
        <ele>1662</ele>
        <time>2020-08-05T21:10:00Z</time>
      </trkpt>
      <trkpt lat="42.51665" lon="2.49341">
        <ele>1661</ele>
        <time>2020-08-05T21:10:05Z</time>
      </trkpt>
      <trkpt lat="42.51659" lon="2.49347">
        <ele>1661</ele>
        <time>2020-08-05T21:10:09Z</time>
      </trkpt>
      <trkpt lat="42.51636" lon="2.49339">
        <ele>1668</ele>
        <time>2020-08-05T21:10:21Z</time>
      </trkpt>
      <trkpt lat="42.51636" lon="2.49351">
        <ele>1666</ele>
        <time>2020-08-05T21:10:25Z</time>
      </trkpt>
      <trkpt lat="42.5162" lon="2.49356">
        <ele>1669</ele>
        <time>2020-08-05T21:10:34Z</time>
      </trkpt>
      <trkpt lat="42.51617" lon="2.4936">
        <ele>1669</ele>
        <time>2020-08-05T21:10:36Z</time>
      </trkpt>
      <trkpt lat="42.51615" lon="2.49371">
        <ele>1668</ele>
        <time>2020-08-05T21:10:40Z</time>
      </trkpt>
      <trkpt lat="42.51618" lon="2.49376">
        <ele>1666</ele>
        <time>2020-08-05T21:10:42Z</time>
      </trkpt>
      <trkpt lat="42.51628" lon="2.4938">
        <ele>1663</ele>
        <time>2020-08-05T21:10:48Z</time>
      </trkpt>
      <trkpt lat="42.5163" lon="2.49391">
        <ele>1661</ele>
        <time>2020-08-05T21:10:52Z</time>
      </trkpt>
      <trkpt lat="42.51625" lon="2.49405">
        <ele>1660</ele>
        <time>2020-08-05T21:10:57Z</time>
      </trkpt>
      <trkpt lat="42.51614" lon="2.49418">
        <ele>1661</ele>
        <time>2020-08-05T21:11:05Z</time>
      </trkpt>
      <trkpt lat="42.51611" lon="2.49433">
        <ele>1661</ele>
        <time>2020-08-05T21:11:10Z</time>
      </trkpt>
      <trkpt lat="42.51598" lon="2.49463">
        <ele>1663</ele>
        <time>2020-08-05T21:11:23Z</time>
      </trkpt>
      <trkpt lat="42.51595" lon="2.49489">
        <ele>1662</ele>
        <time>2020-08-05T21:11:33Z</time>
      </trkpt>
      <trkpt lat="42.51597" lon="2.49515">
        <ele>1664</ele>
        <time>2020-08-05T21:11:43Z</time>
      </trkpt>
      <trkpt lat="42.51593" lon="2.49539">
        <ele>1670</ele>
        <time>2020-08-05T21:11:52Z</time>
      </trkpt>
      <trkpt lat="42.516" lon="2.49555">
        <ele>1670</ele>
        <time>2020-08-05T21:11:59Z</time>
      </trkpt>
      <trkpt lat="42.51613" lon="2.49571">
        <ele>1668</ele>
        <time>2020-08-05T21:12:07Z</time>
      </trkpt>
      <trkpt lat="42.51617" lon="2.49584">
        <ele>1669</ele>
        <time>2020-08-05T21:12:13Z</time>
      </trkpt>
      <trkpt lat="42.51627" lon="2.49593">
        <ele>1667</ele>
        <time>2020-08-05T21:12:19Z</time>
      </trkpt>
      <trkpt lat="42.51638" lon="2.49623">
        <ele>1669</ele>
        <time>2020-08-05T21:12:31Z</time>
      </trkpt>
      <trkpt lat="42.51646" lon="2.49631">
        <ele>1667</ele>
        <time>2020-08-05T21:12:36Z</time>
      </trkpt>
      <trkpt lat="42.51653" lon="2.49643">
        <ele>1666</ele>
        <time>2020-08-05T21:12:42Z</time>
      </trkpt>
      <trkpt lat="42.51668" lon="2.49687">
        <ele>1665</ele>
        <time>2020-08-05T21:12:59Z</time>
      </trkpt>
      <trkpt lat="42.51668" lon="2.497">
        <ele>1667</ele>
        <time>2020-08-05T21:13:04Z</time>
      </trkpt>
      <trkpt lat="42.51662" lon="2.49726">
        <ele>1675</ele>
        <time>2020-08-05T21:13:14Z</time>
      </trkpt>
      <trkpt lat="42.51664" lon="2.49736">
        <ele>1676</ele>
        <time>2020-08-05T21:13:18Z</time>
      </trkpt>
      <trkpt lat="42.51668" lon="2.49741">
        <ele>1674</ele>
        <time>2020-08-05T21:13:21Z</time>
      </trkpt>
      <trkpt lat="42.51687" lon="2.49752">
        <ele>1665</ele>
        <time>2020-08-05T21:13:31Z</time>
      </trkpt>
      <trkpt lat="42.51693" lon="2.4976">
        <ele>1663</ele>
        <time>2020-08-05T21:13:35Z</time>
      </trkpt>
      <trkpt lat="42.51695" lon="2.49802">
        <ele>1668</ele>
        <time>2020-08-05T21:13:51Z</time>
      </trkpt>
      <trkpt lat="42.51704" lon="2.49825">
        <ele>1666</ele>
        <time>2020-08-05T21:14:01Z</time>
      </trkpt>
      <trkpt lat="42.51714" lon="2.49839">
        <ele>1662</ele>
        <time>2020-08-05T21:14:08Z</time>
      </trkpt>
      <trkpt lat="42.51725" lon="2.49878">
        <ele>1663</ele>
        <time>2020-08-05T21:14:23Z</time>
      </trkpt>
      <trkpt lat="42.51742" lon="2.4991">
        <ele>1658</ele>
        <time>2020-08-05T21:14:38Z</time>
      </trkpt>
      <trkpt lat="42.51745" lon="2.49937">
        <ele>1661</ele>
        <time>2020-08-05T21:14:48Z</time>
      </trkpt>
      <trkpt lat="42.51751" lon="2.49959">
        <ele>1662</ele>
        <time>2020-08-05T21:14:56Z</time>
      </trkpt>
      <trkpt lat="42.51764" lon="2.49995">
        <ele>1660</ele>
        <time>2020-08-05T21:15:11Z</time>
      </trkpt>
      <trkpt lat="42.5177" lon="2.50001">
        <ele>1657</ele>
        <time>2020-08-05T21:15:15Z</time>
      </trkpt>
      <trkpt lat="42.51774" lon="2.50016">
        <ele>1655</ele>
        <time>2020-08-05T21:15:21Z</time>
      </trkpt>
      <trkpt lat="42.51771" lon="2.50033">
        <ele>1657</ele>
        <time>2020-08-05T21:15:27Z</time>
      </trkpt>
      <trkpt lat="42.51765" lon="2.50046">
        <ele>1661</ele>
        <time>2020-08-05T21:15:33Z</time>
      </trkpt>
      <trkpt lat="42.51744" lon="2.50063">
        <ele>1672</ele>
        <time>2020-08-05T21:15:45Z</time>
      </trkpt>
      <trkpt lat="42.51742" lon="2.50067">
        <ele>1673</ele>
        <time>2020-08-05T21:15:47Z</time>
      </trkpt>
      <trkpt lat="42.51743" lon="2.50082">
        <ele>1672</ele>
        <time>2020-08-05T21:15:52Z</time>
      </trkpt>
      <trkpt lat="42.51725" lon="2.50103">
        <ele>1683</ele>
        <time>2020-08-05T21:16:04Z</time>
      </trkpt>
      <trkpt lat="42.5177" lon="2.50146">
        <ele>1667</ele>
        <time>2020-08-05T21:16:32Z</time>
      </trkpt>
      <trkpt lat="42.51776" lon="2.50148">
        <ele>1665</ele>
        <time>2020-08-05T21:16:35Z</time>
      </trkpt>
      <trkpt lat="42.51793" lon="2.50169">
        <ele>1660</ele>
        <time>2020-08-05T21:16:46Z</time>
      </trkpt>
      <trkpt lat="42.5181" lon="2.50201">
        <ele>1660</ele>
        <time>2020-08-05T21:17:01Z</time>
      </trkpt>
      <trkpt lat="42.51814" lon="2.5022">
        <ele>1663</ele>
        <time>2020-08-05T21:17:08Z</time>
      </trkpt>
      <trkpt lat="42.51824" lon="2.50238">
        <ele>1661</ele>
        <time>2020-08-05T21:17:17Z</time>
      </trkpt>
      <trkpt lat="42.51834" lon="2.50303">
        <ele>1663</ele>
        <time>2020-08-05T21:17:41Z</time>
      </trkpt>
      <trkpt lat="42.51845" lon="2.50319">
        <ele>1658</ele>
        <time>2020-08-05T21:17:49Z</time>
      </trkpt>
      <trkpt lat="42.51848" lon="2.50342">
        <ele>1659</ele>
        <time>2020-08-05T21:17:58Z</time>
      </trkpt>
      <trkpt lat="42.51847" lon="2.50361">
        <ele>1663</ele>
        <time>2020-08-05T21:18:05Z</time>
      </trkpt>
      <trkpt lat="42.51863" lon="2.50427">
        <ele>1665</ele>
        <time>2020-08-05T21:18:30Z</time>
      </trkpt>
      <trkpt lat="42.519" lon="2.50532">
        <ele>1662</ele>
        <time>2020-08-05T21:19:13Z</time>
      </trkpt>
      <trkpt lat="42.51932" lon="2.50594">
        <ele>1655</ele>
        <time>2020-08-05T21:19:41Z</time>
      </trkpt>
      <trkpt lat="42.5194" lon="2.50615">
        <ele>1653</ele>
        <time>2020-08-05T21:19:50Z</time>
      </trkpt>
      <trkpt lat="42.51944" lon="2.50636">
        <ele>1653</ele>
        <time>2020-08-05T21:19:58Z</time>
      </trkpt>
      <trkpt lat="42.51944" lon="2.50664">
        <ele>1658</ele>
        <time>2020-08-05T21:20:08Z</time>
      </trkpt>
      <trkpt lat="42.5194" lon="2.50708">
        <ele>1658</ele>
        <time>2020-08-05T21:20:25Z</time>
      </trkpt>
      <trkpt lat="42.51924" lon="2.50795">
        <ele>1661</ele>
        <time>2020-08-05T21:20:58Z</time>
      </trkpt>
      <trkpt lat="42.51913" lon="2.50835">
        <ele>1662</ele>
        <time>2020-08-05T21:21:14Z</time>
      </trkpt>
      <trkpt lat="42.51909" lon="2.50877">
        <ele>1656</ele>
        <time>2020-08-05T21:21:29Z</time>
      </trkpt>
      <trkpt lat="42.51889" lon="2.50905">
        <ele>1654</ele>
        <time>2020-08-05T21:21:44Z</time>
      </trkpt>
      <trkpt lat="42.51881" lon="2.50911">
        <ele>1654</ele>
        <time>2020-08-05T21:21:48Z</time>
      </trkpt>
      <trkpt lat="42.51866" lon="2.50911">
        <ele>1657</ele>
        <time>2020-08-05T21:21:56Z</time>
      </trkpt>
      <trkpt lat="42.51839" lon="2.50906">
        <ele>1665</ele>
        <time>2020-08-05T21:22:09Z</time>
      </trkpt>
      <trkpt lat="42.51832" lon="2.50907">
        <ele>1666</ele>
        <time>2020-08-05T21:22:13Z</time>
      </trkpt>
      <trkpt lat="42.5182" lon="2.50911">
        <ele>1667</ele>
        <time>2020-08-05T21:22:19Z</time>
      </trkpt>
      <trkpt lat="42.5179" lon="2.50927">
        <ele>1668</ele>
        <time>2020-08-05T21:22:35Z</time>
      </trkpt>
      <trkpt lat="42.51747" lon="2.50938">
        <ele>1676</ele>
        <time>2020-08-05T21:22:57Z</time>
      </trkpt>
      <trkpt lat="42.51721" lon="2.5095">
        <ele>1684</ele>
        <time>2020-08-05T21:23:11Z</time>
      </trkpt>
      <trkpt lat="42.51722" lon="2.5096">
        <ele>1681</ele>
        <time>2020-08-05T21:23:14Z</time>
      </trkpt>
      <trkpt lat="42.51738" lon="2.50998">
        <ele>1662</ele>
        <time>2020-08-05T21:23:31Z</time>
      </trkpt>
      <trkpt lat="42.51743" lon="2.51019">
        <ele>1658</ele>
        <time>2020-08-05T21:23:39Z</time>
      </trkpt>
      <trkpt lat="42.5174" lon="2.51047">
        <ele>1661</ele>
        <time>2020-08-05T21:23:49Z</time>
      </trkpt>
      <trkpt lat="42.5174" lon="2.51158">
        <ele>1658</ele>
        <time>2020-08-05T21:24:30Z</time>
      </trkpt>
      <trkpt lat="42.51736" lon="2.51172">
        <ele>1658</ele>
        <time>2020-08-05T21:24:36Z</time>
      </trkpt>
      <trkpt lat="42.51707" lon="2.51202">
        <ele>1668</ele>
        <time>2020-08-05T21:24:54Z</time>
      </trkpt>
      <trkpt lat="42.517" lon="2.51224">
        <ele>1667</ele>
        <time>2020-08-05T21:25:03Z</time>
      </trkpt>
      <trkpt lat="42.51694" lon="2.51256">
        <ele>1663</ele>
        <time>2020-08-05T21:25:15Z</time>
      </trkpt>
      <trkpt lat="42.51683" lon="2.51283">
        <ele>1661</ele>
        <time>2020-08-05T21:25:26Z</time>
      </trkpt>
      <trkpt lat="42.51671" lon="2.513">
        <ele>1662</ele>
        <time>2020-08-05T21:25:35Z</time>
      </trkpt>
      <trkpt lat="42.51655" lon="2.5131">
        <ele>1662</ele>
        <time>2020-08-05T21:25:44Z</time>
      </trkpt>
      <trkpt lat="42.51621" lon="2.51313">
        <ele>1665</ele>
        <time>2020-08-05T21:26:01Z</time>
      </trkpt>
      <trkpt lat="42.51575" lon="2.51306">
        <ele>1675</ele>
        <time>2020-08-05T21:26:24Z</time>
      </trkpt>
      <trkpt lat="42.51563" lon="2.5131">
        <ele>1676</ele>
        <time>2020-08-05T21:26:30Z</time>
      </trkpt>
      <trkpt lat="42.51541" lon="2.51337">
        <ele>1669</ele>
        <time>2020-08-05T21:26:45Z</time>
      </trkpt>
      <trkpt lat="42.51518" lon="2.51357">
        <ele>1666</ele>
        <time>2020-08-05T21:26:59Z</time>
      </trkpt>
      <trkpt lat="42.51484" lon="2.51365">
        <ele>1672</ele>
        <time>2020-08-05T21:27:16Z</time>
      </trkpt>
      <trkpt lat="42.51474" lon="2.51372">
        <ele>1671</ele>
        <time>2020-08-05T21:27:22Z</time>
      </trkpt>
      <trkpt lat="42.51446" lon="2.51409">
        <ele>1664</ele>
        <time>2020-08-05T21:27:41Z</time>
      </trkpt>
      <trkpt lat="42.51417" lon="2.51433">
        <ele>1670</ele>
        <time>2020-08-05T21:27:58Z</time>
      </trkpt>
      <trkpt lat="42.51397" lon="2.51445">
        <ele>1680</ele>
        <time>2020-08-05T21:28:09Z</time>
      </trkpt>
      <trkpt lat="42.51382" lon="2.51461">
        <ele>1688</ele>
        <time>2020-08-05T21:28:19Z</time>
      </trkpt>
      <trkpt lat="42.5138" lon="2.51478">
        <ele>1690</ele>
        <time>2020-08-05T21:28:25Z</time>
      </trkpt>
      <trkpt lat="42.51387" lon="2.51495">
        <ele>1686</ele>
        <time>2020-08-05T21:28:32Z</time>
      </trkpt>
      <trkpt lat="42.51412" lon="2.51521">
        <ele>1673</ele>
        <time>2020-08-05T21:28:48Z</time>
      </trkpt>
      <trkpt lat="42.51441" lon="2.51523">
        <ele>1659</ele>
        <time>2020-08-05T21:29:02Z</time>
      </trkpt>
      <trkpt lat="42.5145" lon="2.51529">
        <ele>1655</ele>
        <time>2020-08-05T21:29:08Z</time>
      </trkpt>
      <trkpt lat="42.51458" lon="2.51543">
        <ele>1653</ele>
        <time>2020-08-05T21:29:14Z</time>
      </trkpt>
      <trkpt lat="42.51453" lon="2.51585">
        <ele>1662</ele>
        <time>2020-08-05T21:29:30Z</time>
      </trkpt>
      <trkpt lat="42.51456" lon="2.51591">
        <ele>1662</ele>
        <time>2020-08-05T21:29:32Z</time>
      </trkpt>
      <trkpt lat="42.51472" lon="2.51603">
        <ele>1656</ele>
        <time>2020-08-05T21:29:42Z</time>
      </trkpt>
      <trkpt lat="42.51476" lon="2.51616">
        <ele>1656</ele>
        <time>2020-08-05T21:29:47Z</time>
      </trkpt>
      <trkpt lat="42.51479" lon="2.51643">
        <ele>1661</ele>
        <time>2020-08-05T21:29:57Z</time>
      </trkpt>
      <trkpt lat="42.51486" lon="2.51653">
        <ele>1659</ele>
        <time>2020-08-05T21:30:02Z</time>
      </trkpt>
      <trkpt lat="42.51503" lon="2.5166">
        <ele>1650</ele>
        <time>2020-08-05T21:30:11Z</time>
      </trkpt>
      <trkpt lat="42.51536" lon="2.51703">
        <ele>1644</ele>
        <time>2020-08-05T21:30:34Z</time>
      </trkpt>
      <trkpt lat="42.51555" lon="2.51734">
        <ele>1639</ele>
        <time>2020-08-05T21:30:49Z</time>
      </trkpt>
      <trkpt lat="42.51563" lon="2.51774">
        <ele>1637</ele>
        <time>2020-08-05T21:31:04Z</time>
      </trkpt>
      <trkpt lat="42.51559" lon="2.51881">
        <ele>1641</ele>
        <time>2020-08-05T21:31:43Z</time>
      </trkpt>
      <trkpt lat="42.51561" lon="2.51902">
        <ele>1640</ele>
        <time>2020-08-05T21:31:51Z</time>
      </trkpt>
      <trkpt lat="42.51566" lon="2.51912">
        <ele>1637</ele>
        <time>2020-08-05T21:31:56Z</time>
      </trkpt>
      <trkpt lat="42.516" lon="2.51952">
        <ele>1622</ele>
        <time>2020-08-05T21:32:18Z</time>
      </trkpt>
      <trkpt lat="42.51623" lon="2.51968">
        <ele>1613</ele>
        <time>2020-08-05T21:32:31Z</time>
      </trkpt>
      <trkpt lat="42.51653" lon="2.51996">
        <ele>1604</ele>
        <time>2020-08-05T21:32:49Z</time>
      </trkpt>
      <trkpt lat="42.51669" lon="2.52021">
        <ele>1601</ele>
        <time>2020-08-05T21:33:02Z</time>
      </trkpt>
      <trkpt lat="42.51684" lon="2.52055">
        <ele>1599</ele>
        <time>2020-08-05T21:33:16Z</time>
      </trkpt>
      <trkpt lat="42.51694" lon="2.52097">
        <ele>1598</ele>
        <time>2020-08-05T21:33:32Z</time>
      </trkpt>
      <trkpt lat="42.51701" lon="2.52141">
        <ele>1590</ele>
        <time>2020-08-05T21:33:49Z</time>
      </trkpt>
      <trkpt lat="42.51705" lon="2.52187">
        <ele>1584</ele>
        <time>2020-08-05T21:34:06Z</time>
      </trkpt>
      <trkpt lat="42.51705" lon="2.52293">
        <ele>1573</ele>
        <time>2020-08-05T21:34:45Z</time>
      </trkpt>
      <trkpt lat="42.51691" lon="2.52491">
        <ele>1543</ele>
        <time>2020-08-05T21:35:59Z</time>
      </trkpt>
      <trkpt lat="42.51693" lon="2.52503">
        <ele>1539</ele>
        <time>2020-08-05T21:36:03Z</time>
      </trkpt>
      <trkpt lat="42.51696" lon="2.52502">
        <ele>1537</ele>
        <time>2020-08-05T21:36:05Z</time>
      </trkpt>
      <trkpt lat="42.51706" lon="2.52488">
        <ele>1536</ele>
        <time>2020-08-05T21:36:12Z</time>
      </trkpt>
      <trkpt lat="42.51718" lon="2.52464">
        <ele>1535</ele>
        <time>2020-08-05T21:36:23Z</time>
      </trkpt>
      <trkpt lat="42.51762" lon="2.52314">
        <ele>1533</ele>
        <time>2020-08-05T21:37:22Z</time>
      </trkpt>
      <trkpt lat="42.5178" lon="2.52267">
        <ele>1528</ele>
        <time>2020-08-05T21:37:42Z</time>
      </trkpt>
      <trkpt lat="42.51787" lon="2.52257">
        <ele>1525</ele>
        <time>2020-08-05T21:37:47Z</time>
      </trkpt>
      <trkpt lat="42.5179" lon="2.52257">
        <ele>1524</ele>
        <time>2020-08-05T21:37:48Z</time>
      </trkpt>
      <trkpt lat="42.51797" lon="2.52306">
        <ele>1513</ele>
        <time>2020-08-05T21:38:07Z</time>
      </trkpt>
      <trkpt lat="42.51797" lon="2.52384">
        <ele>1501</ele>
        <time>2020-08-05T21:38:35Z</time>
      </trkpt>
      <trkpt lat="42.51803" lon="2.5246">
        <ele>1488</ele>
        <time>2020-08-05T21:39:04Z</time>
      </trkpt>
      <trkpt lat="42.51802" lon="2.52526">
        <ele>1482</ele>
        <time>2020-08-05T21:39:28Z</time>
      </trkpt>
      <trkpt lat="42.51793" lon="2.52574">
        <ele>1482</ele>
        <time>2020-08-05T21:39:46Z</time>
      </trkpt>
      <trkpt lat="42.51784" lon="2.52594">
        <ele>1482</ele>
        <time>2020-08-05T21:39:55Z</time>
      </trkpt>
      <trkpt lat="42.51776" lon="2.52594">
        <ele>1484</ele>
        <time>2020-08-05T21:39:59Z</time>
      </trkpt>
      <trkpt lat="42.51754" lon="2.5261">
        <ele>1484</ele>
        <time>2020-08-05T21:40:11Z</time>
      </trkpt>
      <trkpt lat="42.51719" lon="2.52618">
        <ele>1490</ele>
        <time>2020-08-05T21:40:29Z</time>
      </trkpt>
      <trkpt lat="42.51685" lon="2.52634">
        <ele>1492</ele>
        <time>2020-08-05T21:40:47Z</time>
      </trkpt>
      <trkpt lat="42.51669" lon="2.52631">
        <ele>1496</ele>
        <time>2020-08-05T21:40:55Z</time>
      </trkpt>
      <trkpt lat="42.51649" lon="2.52635">
        <ele>1500</ele>
        <time>2020-08-05T21:41:05Z</time>
      </trkpt>
      <trkpt lat="42.51632" lon="2.52642">
        <ele>1502</ele>
        <time>2020-08-05T21:41:14Z</time>
      </trkpt>
      <trkpt lat="42.51613" lon="2.52659">
        <ele>1499</ele>
        <time>2020-08-05T21:41:26Z</time>
      </trkpt>
      <trkpt lat="42.51584" lon="2.52671">
        <ele>1501</ele>
        <time>2020-08-05T21:41:41Z</time>
      </trkpt>
      <trkpt lat="42.51566" lon="2.52684">
        <ele>1499</ele>
        <time>2020-08-05T21:41:51Z</time>
      </trkpt>
      <trkpt lat="42.51554" lon="2.52685">
        <ele>1502</ele>
        <time>2020-08-05T21:41:57Z</time>
      </trkpt>
      <trkpt lat="42.51489" lon="2.52724">
        <ele>1504</ele>
        <time>2020-08-05T21:42:33Z</time>
      </trkpt>
      <trkpt lat="42.51471" lon="2.5273">
        <ele>1501</ele>
        <time>2020-08-05T21:42:42Z</time>
      </trkpt>
      <trkpt lat="42.51459" lon="2.52737">
        <ele>1498</ele>
        <time>2020-08-05T21:42:48Z</time>
      </trkpt>
      <trkpt lat="42.51451" lon="2.52734">
        <ele>1499</ele>
        <time>2020-08-05T21:42:53Z</time>
      </trkpt>
      <trkpt lat="42.51392" lon="2.52617">
        <ele>1539</ele>
        <time>2020-08-05T21:43:45Z</time>
      </trkpt>
      <trkpt lat="42.51382" lon="2.52612">
        <ele>1539</ele>
        <time>2020-08-05T21:43:50Z</time>
      </trkpt>
      <trkpt lat="42.51351" lon="2.52608">
        <ele>1533</ele>
        <time>2020-08-05T21:44:06Z</time>
      </trkpt>
      <trkpt lat="42.51344" lon="2.526">
        <ele>1535</ele>
        <time>2020-08-05T21:44:10Z</time>
      </trkpt>
      <trkpt lat="42.51341" lon="2.5259">
        <ele>1538</ele>
        <time>2020-08-05T21:44:14Z</time>
      </trkpt>
      <trkpt lat="42.51333" lon="2.52577">
        <ele>1542</ele>
        <time>2020-08-05T21:44:21Z</time>
      </trkpt>
      <trkpt lat="42.51321" lon="2.52568">
        <ele>1546</ele>
        <time>2020-08-05T21:44:27Z</time>
      </trkpt>
      <trkpt lat="42.51312" lon="2.52556">
        <ele>1551</ele>
        <time>2020-08-05T21:44:34Z</time>
      </trkpt>
      <trkpt lat="42.51303" lon="2.5255">
        <ele>1554</ele>
        <time>2020-08-05T21:44:39Z</time>
      </trkpt>
      <trkpt lat="42.51273" lon="2.52548">
        <ele>1554</ele>
        <time>2020-08-05T21:44:54Z</time>
      </trkpt>
      <trkpt lat="42.51269" lon="2.52544">
        <ele>1556</ele>
        <time>2020-08-05T21:44:56Z</time>
      </trkpt>
      <trkpt lat="42.51267" lon="2.52529">
        <ele>1564</ele>
        <time>2020-08-05T21:45:02Z</time>
      </trkpt>
      <trkpt lat="42.51263" lon="2.52523">
        <ele>1567</ele>
        <time>2020-08-05T21:45:05Z</time>
      </trkpt>
      <trkpt lat="42.51243" lon="2.52523">
        <ele>1567</ele>
        <time>2020-08-05T21:45:15Z</time>
      </trkpt>
      <trkpt lat="42.51238" lon="2.52515">
        <ele>1571</ele>
        <time>2020-08-05T21:45:19Z</time>
      </trkpt>
      <trkpt lat="42.51238" lon="2.525">
        <ele>1578</ele>
        <time>2020-08-05T21:45:24Z</time>
      </trkpt>
      <trkpt lat="42.51221" lon="2.52493">
        <ele>1582</ele>
        <time>2020-08-05T21:45:33Z</time>
      </trkpt>
      <trkpt lat="42.51222" lon="2.5248">
        <ele>1588</ele>
        <time>2020-08-05T21:45:38Z</time>
      </trkpt>
      <trkpt lat="42.5121" lon="2.52479">
        <ele>1589</ele>
        <time>2020-08-05T21:45:44Z</time>
      </trkpt>
      <trkpt lat="42.512" lon="2.52481">
        <ele>1588</ele>
        <time>2020-08-05T21:45:49Z</time>
      </trkpt>
      <trkpt lat="42.51206" lon="2.52462">
        <ele>1597</ele>
        <time>2020-08-05T21:45:57Z</time>
      </trkpt>
      <trkpt lat="42.51193" lon="2.52466">
        <ele>1595</ele>
        <time>2020-08-05T21:46:03Z</time>
      </trkpt>
      <trkpt lat="42.51184" lon="2.52463">
        <ele>1597</ele>
        <time>2020-08-05T21:46:08Z</time>
      </trkpt>
      <trkpt lat="42.51173" lon="2.52455">
        <ele>1601</ele>
        <time>2020-08-05T21:46:14Z</time>
      </trkpt>
      <trkpt lat="42.51163" lon="2.52441">
        <ele>1608</ele>
        <time>2020-08-05T21:46:21Z</time>
      </trkpt>
      <trkpt lat="42.51154" lon="2.52422">
        <ele>1616</ele>
        <time>2020-08-05T21:46:30Z</time>
      </trkpt>
      <trkpt lat="42.51143" lon="2.52416">
        <ele>1617</ele>
        <time>2020-08-05T21:46:36Z</time>
      </trkpt>
      <trkpt lat="42.51132" lon="2.52405">
        <ele>1621</ele>
        <time>2020-08-05T21:46:43Z</time>
      </trkpt>
      <trkpt lat="42.51121" lon="2.524">
        <ele>1623</ele>
        <time>2020-08-05T21:46:48Z</time>
      </trkpt>
      <trkpt lat="42.51107" lon="2.52401">
        <ele>1620</ele>
        <time>2020-08-05T21:46:55Z</time>
      </trkpt>
      <trkpt lat="42.51095" lon="2.52398">
        <ele>1620</ele>
        <time>2020-08-05T21:47:01Z</time>
      </trkpt>
      <trkpt lat="42.5109" lon="2.52394">
        <ele>1621</ele>
        <time>2020-08-05T21:47:04Z</time>
      </trkpt>
      <trkpt lat="42.51082" lon="2.52392">
        <ele>1622</ele>
        <time>2020-08-05T21:47:08Z</time>
      </trkpt>
      <trkpt lat="42.51071" lon="2.52382">
        <ele>1631</ele>
        <time>2020-08-05T21:47:15Z</time>
      </trkpt>
      <trkpt lat="42.51065" lon="2.52383">
        <ele>1632</ele>
        <time>2020-08-05T21:47:18Z</time>
      </trkpt>
      <trkpt lat="42.51054" lon="2.52396">
        <ele>1630</ele>
        <time>2020-08-05T21:47:25Z</time>
      </trkpt>
      <trkpt lat="42.51053" lon="2.52405">
        <ele>1626</ele>
        <time>2020-08-05T21:47:29Z</time>
      </trkpt>
      <trkpt lat="42.51054" lon="2.52409">
        <ele>1624</ele>
        <time>2020-08-05T21:47:30Z</time>
      </trkpt>
      <trkpt lat="42.5107" lon="2.52419">
        <ele>1614</ele>
        <time>2020-08-05T21:47:39Z</time>
      </trkpt>
      <trkpt lat="42.51076" lon="2.52428">
        <ele>1611</ele>
        <time>2020-08-05T21:47:44Z</time>
      </trkpt>
      <trkpt lat="42.5108" lon="2.52441">
        <ele>1607</ele>
        <time>2020-08-05T21:47:49Z</time>
      </trkpt>
      <trkpt lat="42.5108" lon="2.52459">
        <ele>1606</ele>
        <time>2020-08-05T21:47:55Z</time>
      </trkpt>
      <trkpt lat="42.51077" lon="2.52459">
        <ele>1608</ele>
        <time>2020-08-05T21:47:57Z</time>
      </trkpt>
      <trkpt lat="42.51058" lon="2.5244">
        <ele>1619</ele>
        <time>2020-08-05T21:48:09Z</time>
      </trkpt>
      <trkpt lat="42.51056" lon="2.52442">
        <ele>1621</ele>
        <time>2020-08-05T21:48:10Z</time>
      </trkpt>
      <trkpt lat="42.51055" lon="2.52472">
        <ele>1622</ele>
        <time>2020-08-05T21:48:21Z</time>
      </trkpt>
      <trkpt lat="42.51051" lon="2.52475">
        <ele>1625</ele>
        <time>2020-08-05T21:48:23Z</time>
      </trkpt>
      <trkpt lat="42.51049" lon="2.52473">
        <ele>1626</ele>
        <time>2020-08-05T21:48:25Z</time>
      </trkpt>
      <trkpt lat="42.51044" lon="2.52444">
        <ele>1627</ele>
        <time>2020-08-05T21:48:36Z</time>
      </trkpt>
      <trkpt lat="42.5104" lon="2.52443">
        <ele>1629</ele>
        <time>2020-08-05T21:48:38Z</time>
      </trkpt>
      <trkpt lat="42.5104" lon="2.52475">
        <ele>1632</ele>
        <time>2020-08-05T21:48:49Z</time>
      </trkpt>
      <trkpt lat="42.51025" lon="2.52507">
        <ele>1646</ele>
        <time>2020-08-05T21:49:03Z</time>
      </trkpt>
      <trkpt lat="42.51024" lon="2.5253">
        <ele>1647</ele>
        <time>2020-08-05T21:49:12Z</time>
      </trkpt>
      <trkpt lat="42.51019" lon="2.52537">
        <ele>1652</ele>
        <time>2020-08-05T21:49:16Z</time>
      </trkpt>
      <trkpt lat="42.51009" lon="2.52563">
        <ele>1661</ele>
        <time>2020-08-05T21:49:26Z</time>
      </trkpt>
      <trkpt lat="42.51007" lon="2.52605">
        <ele>1664</ele>
        <time>2020-08-05T21:49:42Z</time>
      </trkpt>
      <trkpt lat="42.51003" lon="2.52632">
        <ele>1667</ele>
        <time>2020-08-05T21:49:52Z</time>
      </trkpt>
      <trkpt lat="42.50993" lon="2.52675">
        <ele>1675</ele>
        <time>2020-08-05T21:50:09Z</time>
      </trkpt>
      <trkpt lat="42.50988" lon="2.52678">
        <ele>1678</ele>
        <time>2020-08-05T21:50:11Z</time>
      </trkpt>
      <trkpt lat="42.50984" lon="2.52702">
        <ele>1681</ele>
        <time>2020-08-05T21:50:20Z</time>
      </trkpt>
      <trkpt lat="42.50992" lon="2.52722">
        <ele>1674</ele>
        <time>2020-08-05T21:50:29Z</time>
      </trkpt>
      <trkpt lat="42.50992" lon="2.52748">
        <ele>1673</ele>
        <time>2020-08-05T21:50:38Z</time>
      </trkpt>
      <trkpt lat="42.50987" lon="2.52771">
        <ele>1672</ele>
        <time>2020-08-05T21:50:47Z</time>
      </trkpt>
      <trkpt lat="42.50981" lon="2.52784">
        <ele>1673</ele>
        <time>2020-08-05T21:50:53Z</time>
      </trkpt>
      <trkpt lat="42.50959" lon="2.52802">
        <ele>1680</ele>
        <time>2020-08-05T21:51:06Z</time>
      </trkpt>
      <trkpt lat="42.50896" lon="2.52821">
        <ele>1703</ele>
        <time>2020-08-05T21:51:38Z</time>
      </trkpt>
      <trkpt lat="42.50877" lon="2.52831">
        <ele>1706</ele>
        <time>2020-08-05T21:51:48Z</time>
      </trkpt>
      <trkpt lat="42.50845" lon="2.52843">
        <ele>1714</ele>
        <time>2020-08-05T21:52:05Z</time>
      </trkpt>
      <trkpt lat="42.50826" lon="2.52866">
        <ele>1711</ele>
        <time>2020-08-05T21:52:18Z</time>
      </trkpt>
      <trkpt lat="42.50791" lon="2.52897">
        <ele>1714</ele>
        <time>2020-08-05T21:52:39Z</time>
      </trkpt>
      <trkpt lat="42.50773" lon="2.52908">
        <ele>1719</ele>
        <time>2020-08-05T21:52:48Z</time>
      </trkpt>
      <trkpt lat="42.50765" lon="2.52923">
        <ele>1717</ele>
        <time>2020-08-05T21:52:55Z</time>
      </trkpt>
      <trkpt lat="42.50751" lon="2.52932">
        <ele>1720</ele>
        <time>2020-08-05T21:53:03Z</time>
      </trkpt>
      <trkpt lat="42.50723" lon="2.52944">
        <ele>1728</ele>
        <time>2020-08-05T21:53:18Z</time>
      </trkpt>
      <trkpt lat="42.507" lon="2.52961">
        <ele>1732</ele>
        <time>2020-08-05T21:53:31Z</time>
      </trkpt>
      <trkpt lat="42.50699" lon="2.52966">
        <ele>1730</ele>
        <time>2020-08-05T21:53:33Z</time>
      </trkpt>
      <trkpt lat="42.50689" lon="2.52974">
        <ele>1732</ele>
        <time>2020-08-05T21:53:39Z</time>
      </trkpt>
      <trkpt lat="42.50667" lon="2.53008">
        <ele>1731</ele>
        <time>2020-08-05T21:53:55Z</time>
      </trkpt>
      <trkpt lat="42.50661" lon="2.53045">
        <ele>1723</ele>
        <time>2020-08-05T21:54:09Z</time>
      </trkpt>
      <trkpt lat="42.5064" lon="2.53058">
        <ele>1730</ele>
        <time>2020-08-05T21:54:21Z</time>
      </trkpt>
      <trkpt lat="42.50634" lon="2.53075">
        <ele>1727</ele>
        <time>2020-08-05T21:54:28Z</time>
      </trkpt>
      <trkpt lat="42.50625" lon="2.53089">
        <ele>1729</ele>
        <time>2020-08-05T21:54:35Z</time>
      </trkpt>
      <trkpt lat="42.50624" lon="2.53104">
        <ele>1728</ele>
        <time>2020-08-05T21:54:40Z</time>
      </trkpt>
      <trkpt lat="42.50611" lon="2.53112">
        <ele>1735</ele>
        <time>2020-08-05T21:54:47Z</time>
      </trkpt>
      <trkpt lat="42.50615" lon="2.53172">
        <ele>1730</ele>
        <time>2020-08-05T21:55:10Z</time>
      </trkpt>
      <trkpt lat="42.50621" lon="2.53198">
        <ele>1732</ele>
        <time>2020-08-05T21:55:20Z</time>
      </trkpt>
      <trkpt lat="42.50636" lon="2.53236">
        <ele>1732</ele>
        <time>2020-08-05T21:55:35Z</time>
      </trkpt>
      <trkpt lat="42.50706" lon="2.53311">
        <ele>1715</ele>
        <time>2020-08-05T21:56:20Z</time>
      </trkpt>
      <trkpt lat="42.50714" lon="2.53332">
        <ele>1717</ele>
        <time>2020-08-05T21:56:29Z</time>
      </trkpt>
      <trkpt lat="42.50715" lon="2.53345">
        <ele>1719</ele>
        <time>2020-08-05T21:56:34Z</time>
      </trkpt>
      <trkpt lat="42.50713" lon="2.53355">
        <ele>1722</ele>
        <time>2020-08-05T21:56:37Z</time>
      </trkpt>
      <trkpt lat="42.50736" lon="2.53433">
        <ele>1725</ele>
        <time>2020-08-05T21:57:08Z</time>
      </trkpt>
      <trkpt lat="42.50761" lon="2.53498">
        <ele>1726</ele>
        <time>2020-08-05T21:57:36Z</time>
      </trkpt>
      <trkpt lat="42.50779" lon="2.53571">
        <ele>1724</ele>
        <time>2020-08-05T21:58:04Z</time>
      </trkpt>
      <trkpt lat="42.50779" lon="2.53581">
        <ele>1725</ele>
        <time>2020-08-05T21:58:08Z</time>
      </trkpt>
      <trkpt lat="42.5077" lon="2.53633">
        <ele>1726</ele>
        <time>2020-08-05T21:58:27Z</time>
      </trkpt>
      <trkpt lat="42.50764" lon="2.53645">
        <ele>1728</ele>
        <time>2020-08-05T21:58:33Z</time>
      </trkpt>
      <trkpt lat="42.50753" lon="2.53689">
        <ele>1728</ele>
        <time>2020-08-05T21:58:50Z</time>
      </trkpt>
      <trkpt lat="42.50726" lon="2.53757">
        <ele>1728</ele>
        <time>2020-08-05T21:59:18Z</time>
      </trkpt>
      <trkpt lat="42.50717" lon="2.53806">
        <ele>1725</ele>
        <time>2020-08-05T21:59:37Z</time>
      </trkpt>
      <trkpt lat="42.50693" lon="2.53868">
        <ele>1727</ele>
        <time>2020-08-05T22:00:03Z</time>
      </trkpt>
      <trkpt lat="42.50674" lon="2.53902">
        <ele>1727</ele>
        <time>2020-08-05T22:00:18Z</time>
      </trkpt>
      <trkpt lat="42.50656" lon="2.53957">
        <ele>1724</ele>
        <time>2020-08-05T22:00:41Z</time>
      </trkpt>
      <trkpt lat="42.50646" lon="2.53976">
        <ele>1721</ele>
        <time>2020-08-05T22:00:49Z</time>
      </trkpt>
      <trkpt lat="42.5064" lon="2.53997">
        <ele>1719</ele>
        <time>2020-08-05T22:00:58Z</time>
      </trkpt>
      <trkpt lat="42.50622" lon="2.54019">
        <ele>1715</ele>
        <time>2020-08-05T22:01:10Z</time>
      </trkpt>
      <trkpt lat="42.50574" lon="2.54057">
        <ele>1699</ele>
        <time>2020-08-05T22:01:38Z</time>
      </trkpt>
      <trkpt lat="42.50564" lon="2.54069">
        <ele>1694</ele>
        <time>2020-08-05T22:01:44Z</time>
      </trkpt>
      <trkpt lat="42.50557" lon="2.54084">
        <ele>1691</ele>
        <time>2020-08-05T22:01:51Z</time>
      </trkpt>
      <trkpt lat="42.50556" lon="2.54097">
        <ele>1691</ele>
        <time>2020-08-05T22:01:56Z</time>
      </trkpt>
      <trkpt lat="42.50549" lon="2.54115">
        <ele>1688</ele>
        <time>2020-08-05T22:02:03Z</time>
      </trkpt>
      <trkpt lat="42.50541" lon="2.54127">
        <ele>1685</ele>
        <time>2020-08-05T22:02:09Z</time>
      </trkpt>
      <trkpt lat="42.50525" lon="2.54141">
        <ele>1677</ele>
        <time>2020-08-05T22:02:19Z</time>
      </trkpt>
      <trkpt lat="42.50508" lon="2.54189">
        <ele>1674</ele>
        <time>2020-08-05T22:02:38Z</time>
      </trkpt>
      <trkpt lat="42.50479" lon="2.54211">
        <ele>1662</ele>
        <time>2020-08-05T22:02:55Z</time>
      </trkpt>
      <trkpt lat="42.50464" lon="2.54233">
        <ele>1659</ele>
        <time>2020-08-05T22:03:06Z</time>
      </trkpt>
      <trkpt lat="42.50449" lon="2.54271">
        <ele>1657</ele>
        <time>2020-08-05T22:03:22Z</time>
      </trkpt>
      <trkpt lat="42.50422" lon="2.54324">
        <ele>1652</ele>
        <time>2020-08-05T22:03:46Z</time>
      </trkpt>
      <trkpt lat="42.5042" lon="2.54373">
        <ele>1652</ele>
        <time>2020-08-05T22:04:04Z</time>
      </trkpt>
      <trkpt lat="42.50427" lon="2.54439">
        <ele>1650</ele>
        <time>2020-08-05T22:04:28Z</time>
      </trkpt>
      <trkpt lat="42.50439" lon="2.54507">
        <ele>1645</ele>
        <time>2020-08-05T22:04:54Z</time>
      </trkpt>
      <trkpt lat="42.50439" lon="2.5467">
        <ele>1612</ele>
        <time>2020-08-05T22:05:54Z</time>
      </trkpt>
      <trkpt lat="42.5045" lon="2.54738">
        <ele>1608</ele>
        <time>2020-08-05T22:06:20Z</time>
      </trkpt>
      <trkpt lat="42.50447" lon="2.548">
        <ele>1598</ele>
        <time>2020-08-05T22:06:43Z</time>
      </trkpt>
      <trkpt lat="42.50481" lon="2.54886">
        <ele>1585</ele>
        <time>2020-08-05T22:07:19Z</time>
      </trkpt>
      <trkpt lat="42.50501" lon="2.54906">
        <ele>1582</ele>
        <time>2020-08-05T22:07:31Z</time>
      </trkpt>
      <trkpt lat="42.50503" lon="2.54916">
        <ele>1579</ele>
        <time>2020-08-05T22:07:35Z</time>
      </trkpt>
      <trkpt lat="42.50495" lon="2.54933">
        <ele>1573</ele>
        <time>2020-08-05T22:07:43Z</time>
      </trkpt>
      <trkpt lat="42.50479" lon="2.54953">
        <ele>1565</ele>
        <time>2020-08-05T22:07:53Z</time>
      </trkpt>
      <trkpt lat="42.50468" lon="2.54972">
        <ele>1559</ele>
        <time>2020-08-05T22:08:02Z</time>
      </trkpt>
      <trkpt lat="42.50468" lon="2.5497">
        <ele>1559</ele>
        <time>2020-08-05T22:08:03Z</time>
      </trkpt>
      <trkpt lat="42.50421" lon="2.54997">
        <ele>1551</ele>
        <time>2020-08-05T22:08:29Z</time>
      </trkpt>
      <trkpt lat="42.50405" lon="2.55004">
        <ele>1548</ele>
        <time>2020-08-05T22:08:37Z</time>
      </trkpt>
      <trkpt lat="42.50379" lon="2.5501">
        <ele>1543</ele>
        <time>2020-08-05T22:08:50Z</time>
      </trkpt>
      <trkpt lat="42.50369" lon="2.55016">
        <ele>1541</ele>
        <time>2020-08-05T22:08:56Z</time>
      </trkpt>
      <trkpt lat="42.50364" lon="2.55021">
        <ele>1539</ele>
        <time>2020-08-05T22:08:59Z</time>
      </trkpt>
      <trkpt lat="42.50348" lon="2.55053">
        <ele>1534</ele>
        <time>2020-08-05T22:09:13Z</time>
      </trkpt>
      <trkpt lat="42.5032" lon="2.55092">
        <ele>1525</ele>
        <time>2020-08-05T22:09:33Z</time>
      </trkpt>
      <trkpt lat="42.50292" lon="2.55119">
        <ele>1515</ele>
        <time>2020-08-05T22:09:50Z</time>
      </trkpt>
      <trkpt lat="42.50281" lon="2.55123">
        <ele>1513</ele>
        <time>2020-08-05T22:09:56Z</time>
      </trkpt>
      <trkpt lat="42.50277" lon="2.55122">
        <ele>1512</ele>
        <time>2020-08-05T22:09:58Z</time>
      </trkpt>
      <trkpt lat="42.50269" lon="2.55111">
        <ele>1512</ele>
        <time>2020-08-05T22:10:04Z</time>
      </trkpt>
      <trkpt lat="42.50256" lon="2.55016">
        <ele>1512</ele>
        <time>2020-08-05T22:10:39Z</time>
      </trkpt>
      <trkpt lat="42.50255" lon="2.55005">
        <ele>1512</ele>
        <time>2020-08-05T22:10:44Z</time>
      </trkpt>
      <trkpt lat="42.5026" lon="2.54955">
        <ele>1512</ele>
        <time>2020-08-05T22:11:02Z</time>
      </trkpt>
      <trkpt lat="42.50259" lon="2.5494">
        <ele>1511</ele>
        <time>2020-08-05T22:11:08Z</time>
      </trkpt>
      <trkpt lat="42.50247" lon="2.54867">
        <ele>1508</ele>
        <time>2020-08-05T22:11:35Z</time>
      </trkpt>
      <trkpt lat="42.50246" lon="2.54834">
        <ele>1510</ele>
        <time>2020-08-05T22:11:47Z</time>
      </trkpt>
      <trkpt lat="42.50244" lon="2.5483">
        <ele>1509</ele>
        <time>2020-08-05T22:11:49Z</time>
      </trkpt>
      <trkpt lat="42.5024" lon="2.54829">
        <ele>1507</ele>
        <time>2020-08-05T22:11:51Z</time>
      </trkpt>
      <trkpt lat="42.50238" lon="2.54833">
        <ele>1505</ele>
        <time>2020-08-05T22:11:53Z</time>
      </trkpt>
      <trkpt lat="42.50236" lon="2.54928">
        <ele>1500</ele>
        <time>2020-08-05T22:12:28Z</time>
      </trkpt>
      <trkpt lat="42.50231" lon="2.54953">
        <ele>1498</ele>
        <time>2020-08-05T22:12:38Z</time>
      </trkpt>
      <trkpt lat="42.50223" lon="2.5497">
        <ele>1495</ele>
        <time>2020-08-05T22:12:45Z</time>
      </trkpt>
      <trkpt lat="42.50209" lon="2.55014">
        <ele>1489</ele>
        <time>2020-08-05T22:13:03Z</time>
      </trkpt>
      <trkpt lat="42.5021" lon="2.55075">
        <ele>1490</ele>
        <time>2020-08-05T22:13:25Z</time>
      </trkpt>
      <trkpt lat="42.50196" lon="2.55083">
        <ele>1483</ele>
        <time>2020-08-05T22:13:33Z</time>
      </trkpt>
      <trkpt lat="42.50196" lon="2.55002">
        <ele>1482</ele>
        <time>2020-08-05T22:14:03Z</time>
      </trkpt>
      <trkpt lat="42.50207" lon="2.54915">
        <ele>1484</ele>
        <time>2020-08-05T22:14:35Z</time>
      </trkpt>
      <trkpt lat="42.50196" lon="2.54865">
        <ele>1481</ele>
        <time>2020-08-05T22:14:55Z</time>
      </trkpt>
      <trkpt lat="42.50189" lon="2.54813">
        <ele>1479</ele>
        <time>2020-08-05T22:15:14Z</time>
      </trkpt>
      <trkpt lat="42.50185" lon="2.54745">
        <ele>1481</ele>
        <time>2020-08-05T22:15:39Z</time>
      </trkpt>
      <trkpt lat="42.50183" lon="2.54739">
        <ele>1481</ele>
        <time>2020-08-05T22:15:42Z</time>
      </trkpt>
      <trkpt lat="42.50176" lon="2.54736">
        <ele>1478</ele>
        <time>2020-08-05T22:15:45Z</time>
      </trkpt>
      <trkpt lat="42.50174" lon="2.54738">
        <ele>1477</ele>
        <time>2020-08-05T22:15:47Z</time>
      </trkpt>
      <trkpt lat="42.50172" lon="2.54789">
        <ele>1472</ele>
        <time>2020-08-05T22:16:05Z</time>
      </trkpt>
      <trkpt lat="42.50164" lon="2.54838">
        <ele>1464</ele>
        <time>2020-08-05T22:16:24Z</time>
      </trkpt>
      <trkpt lat="42.50161" lon="2.54928">
        <ele>1460</ele>
        <time>2020-08-05T22:16:57Z</time>
      </trkpt>
      <trkpt lat="42.50136" lon="2.55054">
        <ele>1451</ele>
        <time>2020-08-05T22:17:45Z</time>
      </trkpt>
      <trkpt lat="42.50116" lon="2.55133">
        <ele>1444</ele>
        <time>2020-08-05T22:18:16Z</time>
      </trkpt>
      <trkpt lat="42.50105" lon="2.55196">
        <ele>1439</ele>
        <time>2020-08-05T22:18:40Z</time>
      </trkpt>
      <trkpt lat="42.50098" lon="2.55263">
        <ele>1432</ele>
        <time>2020-08-05T22:19:05Z</time>
      </trkpt>
      <trkpt lat="42.50106" lon="2.55296">
        <ele>1428</ele>
        <time>2020-08-05T22:19:18Z</time>
      </trkpt>
      <trkpt lat="42.50129" lon="2.55353">
        <ele>1425</ele>
        <time>2020-08-05T22:19:42Z</time>
      </trkpt>
      <trkpt lat="42.50139" lon="2.55387">
        <ele>1421</ele>
        <time>2020-08-05T22:19:55Z</time>
      </trkpt>
      <trkpt lat="42.50129" lon="2.55479">
        <ele>1399</ele>
        <time>2020-08-05T22:20:30Z</time>
      </trkpt>
      <trkpt lat="42.50132" lon="2.55572">
        <ele>1391</ele>
        <time>2020-08-05T22:21:04Z</time>
      </trkpt>
      <trkpt lat="42.5014" lon="2.55588">
        <ele>1393</ele>
        <time>2020-08-05T22:21:11Z</time>
      </trkpt>
      <trkpt lat="42.50163" lon="2.556">
        <ele>1399</ele>
        <time>2020-08-05T22:21:23Z</time>
      </trkpt>
      <trkpt lat="42.50172" lon="2.55608">
        <ele>1399</ele>
        <time>2020-08-05T22:21:29Z</time>
      </trkpt>
      <trkpt lat="42.50172" lon="2.55621">
        <ele>1398</ele>
        <time>2020-08-05T22:21:34Z</time>
      </trkpt>
      <trkpt lat="42.50164" lon="2.5563">
        <ele>1397</ele>
        <time>2020-08-05T22:21:39Z</time>
      </trkpt>
      <trkpt lat="42.50167" lon="2.55635">
        <ele>1397</ele>
        <time>2020-08-05T22:21:41Z</time>
      </trkpt>
      <trkpt lat="42.50165" lon="2.55642">
        <ele>1396</ele>
        <time>2020-08-05T22:21:44Z</time>
      </trkpt>
      <trkpt lat="42.5017" lon="2.55647">
        <ele>1395</ele>
        <time>2020-08-05T22:21:47Z</time>
      </trkpt>
      <trkpt lat="42.50214" lon="2.55669">
        <ele>1387</ele>
        <time>2020-08-05T22:22:11Z</time>
      </trkpt>
      <trkpt lat="42.50218" lon="2.55677">
        <ele>1386</ele>
        <time>2020-08-05T22:22:14Z</time>
      </trkpt>
      <trkpt lat="42.50217" lon="2.55686">
        <ele>1384</ele>
        <time>2020-08-05T22:22:17Z</time>
      </trkpt>
      <trkpt lat="42.5022" lon="2.55692">
        <ele>1383</ele>
        <time>2020-08-05T22:22:20Z</time>
      </trkpt>
      <trkpt lat="42.50225" lon="2.55698">
        <ele>1381</ele>
        <time>2020-08-05T22:22:24Z</time>
      </trkpt>
      <trkpt lat="42.50236" lon="2.55704">
        <ele>1378</ele>
        <time>2020-08-05T22:22:29Z</time>
      </trkpt>
      <trkpt lat="42.50248" lon="2.55718">
        <ele>1373</ele>
        <time>2020-08-05T22:22:37Z</time>
      </trkpt>
      <trkpt lat="42.50254" lon="2.5576">
        <ele>1366</ele>
        <time>2020-08-05T22:22:53Z</time>
      </trkpt>
      <trkpt lat="42.50264" lon="2.55783">
        <ele>1365</ele>
        <time>2020-08-05T22:23:03Z</time>
      </trkpt>
      <trkpt lat="42.50258" lon="2.55811">
        <ele>1360</ele>
        <time>2020-08-05T22:23:14Z</time>
      </trkpt>
      <trkpt lat="42.50258" lon="2.55832">
        <ele>1358</ele>
        <time>2020-08-05T22:23:22Z</time>
      </trkpt>
      <trkpt lat="42.50262" lon="2.55844">
        <ele>1358</ele>
        <time>2020-08-05T22:23:26Z</time>
      </trkpt>
      <trkpt lat="42.50255" lon="2.55887">
        <ele>1355</ele>
        <time>2020-08-05T22:23:43Z</time>
      </trkpt>
      <trkpt lat="42.5028" lon="2.55934">
        <ele>1354</ele>
        <time>2020-08-05T22:24:04Z</time>
      </trkpt>
      <trkpt lat="42.50281" lon="2.55945">
        <ele>1353</ele>
        <time>2020-08-05T22:24:08Z</time>
      </trkpt>
      <trkpt lat="42.5027" lon="2.55969">
        <ele>1350</ele>
        <time>2020-08-05T22:24:19Z</time>
      </trkpt>
      <trkpt lat="42.5027" lon="2.56037">
        <ele>1340</ele>
        <time>2020-08-05T22:24:44Z</time>
      </trkpt>
      <trkpt lat="42.50261" lon="2.56067">
        <ele>1335</ele>
        <time>2020-08-05T22:24:56Z</time>
      </trkpt>
      <trkpt lat="42.50257" lon="2.56117">
        <ele>1326</ele>
        <time>2020-08-05T22:25:14Z</time>
      </trkpt>
      <trkpt lat="42.50242" lon="2.56177">
        <ele>1314</ele>
        <time>2020-08-05T22:25:37Z</time>
      </trkpt>
      <trkpt lat="42.50236" lon="2.56184">
        <ele>1312</ele>
        <time>2020-08-05T22:25:41Z</time>
      </trkpt>
      <trkpt lat="42.50222" lon="2.56187">
        <ele>1310</ele>
        <time>2020-08-05T22:25:49Z</time>
      </trkpt>
      <trkpt lat="42.50207" lon="2.56183">
        <ele>1309</ele>
        <time>2020-08-05T22:25:56Z</time>
      </trkpt>
      <trkpt lat="42.50196" lon="2.56174">
        <ele>1311</ele>
        <time>2020-08-05T22:26:03Z</time>
      </trkpt>
      <trkpt lat="42.50169" lon="2.56165">
        <ele>1313</ele>
        <time>2020-08-05T22:26:17Z</time>
      </trkpt>
      <trkpt lat="42.50125" lon="2.56145">
        <ele>1315</ele>
        <time>2020-08-05T22:26:40Z</time>
      </trkpt>
      <trkpt lat="42.50106" lon="2.56141">
        <ele>1314</ele>
        <time>2020-08-05T22:26:49Z</time>
      </trkpt>
      <trkpt lat="42.50079" lon="2.56143">
        <ele>1309</ele>
        <time>2020-08-05T22:27:03Z</time>
      </trkpt>
      <trkpt lat="42.50059" lon="2.56148">
        <ele>1303</ele>
        <time>2020-08-05T22:27:13Z</time>
      </trkpt>
      <trkpt lat="42.50037" lon="2.5616">
        <ele>1294</ele>
        <time>2020-08-05T22:27:25Z</time>
      </trkpt>
      <trkpt lat="42.50033" lon="2.56167">
        <ele>1291</ele>
        <time>2020-08-05T22:27:28Z</time>
      </trkpt>
      <trkpt lat="42.50013" lon="2.56165">
        <ele>1287</ele>
        <time>2020-08-05T22:27:38Z</time>
      </trkpt>
      <trkpt lat="42.50008" lon="2.56167">
        <ele>1285</ele>
        <time>2020-08-05T22:27:41Z</time>
      </trkpt>
      <trkpt lat="42.50002" lon="2.56163">
        <ele>1286</ele>
        <time>2020-08-05T22:27:44Z</time>
      </trkpt>
      <trkpt lat="42.49988" lon="2.56163">
        <ele>1282</ele>
        <time>2020-08-05T22:27:51Z</time>
      </trkpt>
      <trkpt lat="42.49975" lon="2.56159">
        <ele>1280</ele>
        <time>2020-08-05T22:27:58Z</time>
      </trkpt>
      <trkpt lat="42.49947" lon="2.56156">
        <ele>1272</ele>
        <time>2020-08-05T22:28:12Z</time>
      </trkpt>
      <trkpt lat="42.4994" lon="2.5616">
        <ele>1270</ele>
        <time>2020-08-05T22:28:16Z</time>
      </trkpt>
      <trkpt lat="42.49921" lon="2.56164">
        <ele>1264</ele>
        <time>2020-08-05T22:28:25Z</time>
      </trkpt>
      <trkpt lat="42.49911" lon="2.5617">
        <ele>1259</ele>
        <time>2020-08-05T22:28:31Z</time>
      </trkpt>
      <trkpt lat="42.49891" lon="2.56173">
        <ele>1251</ele>
        <time>2020-08-05T22:28:41Z</time>
      </trkpt>
      <trkpt lat="42.49889" lon="2.56171">
        <ele>1251</ele>
        <time>2020-08-05T22:28:42Z</time>
      </trkpt>
      <trkpt lat="42.49869" lon="2.56175">
        <ele>1243</ele>
        <time>2020-08-05T22:28:52Z</time>
      </trkpt>
      <trkpt lat="42.49858" lon="2.56172">
        <ele>1241</ele>
        <time>2020-08-05T22:28:58Z</time>
      </trkpt>
      <trkpt lat="42.49847" lon="2.56164">
        <ele>1239</ele>
        <time>2020-08-05T22:29:04Z</time>
      </trkpt>
      <trkpt lat="42.49843" lon="2.56158">
        <ele>1238</ele>
        <time>2020-08-05T22:29:07Z</time>
      </trkpt>
      <trkpt lat="42.49838" lon="2.56158">
        <ele>1237</ele>
        <time>2020-08-05T22:29:10Z</time>
      </trkpt>
      <trkpt lat="42.49832" lon="2.56162">
        <ele>1234</ele>
        <time>2020-08-05T22:29:13Z</time>
      </trkpt>
      <trkpt lat="42.49828" lon="2.56176">
        <ele>1229</ele>
        <time>2020-08-05T22:29:18Z</time>
      </trkpt>
      <trkpt lat="42.49826" lon="2.562">
        <ele>1222</ele>
        <time>2020-08-05T22:29:27Z</time>
      </trkpt>
      <trkpt lat="42.49828" lon="2.56212">
        <ele>1219</ele>
        <time>2020-08-05T22:29:32Z</time>
      </trkpt>
      <trkpt lat="42.49815" lon="2.56211">
        <ele>1215</ele>
        <time>2020-08-05T22:29:38Z</time>
      </trkpt>
      <trkpt lat="42.49809" lon="2.56222">
        <ele>1210</ele>
        <time>2020-08-05T22:29:44Z</time>
      </trkpt>
      <trkpt lat="42.498" lon="2.56228">
        <ele>1206</ele>
        <time>2020-08-05T22:29:49Z</time>
      </trkpt>
      <trkpt lat="42.4978" lon="2.56219">
        <ele>1201</ele>
        <time>2020-08-05T22:29:59Z</time>
      </trkpt>
      <trkpt lat="42.4977" lon="2.56227">
        <ele>1197</ele>
        <time>2020-08-05T22:30:05Z</time>
      </trkpt>
      <trkpt lat="42.49763" lon="2.56225">
        <ele>1195</ele>
        <time>2020-08-05T22:30:08Z</time>
      </trkpt>
      <trkpt lat="42.49752" lon="2.56229">
        <ele>1191</ele>
        <time>2020-08-05T22:30:14Z</time>
      </trkpt>
      <trkpt lat="42.49742" lon="2.56225">
        <ele>1187</ele>
        <time>2020-08-05T22:30:19Z</time>
      </trkpt>
      <trkpt lat="42.49737" lon="2.56231">
        <ele>1185</ele>
        <time>2020-08-05T22:30:23Z</time>
      </trkpt>
      <trkpt lat="42.49721" lon="2.56234">
        <ele>1177</ele>
        <time>2020-08-05T22:30:31Z</time>
      </trkpt>
      <trkpt lat="42.49701" lon="2.56251">
        <ele>1168</ele>
        <time>2020-08-05T22:30:43Z</time>
      </trkpt>
      <trkpt lat="42.49691" lon="2.56252">
        <ele>1164</ele>
        <time>2020-08-05T22:30:48Z</time>
      </trkpt>
      <trkpt lat="42.49684" lon="2.56249">
        <ele>1161</ele>
        <time>2020-08-05T22:30:51Z</time>
      </trkpt>
      <trkpt lat="42.49655" lon="2.56276">
        <ele>1147</ele>
        <time>2020-08-05T22:31:09Z</time>
      </trkpt>
      <trkpt lat="42.49651" lon="2.56283">
        <ele>1145</ele>
        <time>2020-08-05T22:31:12Z</time>
      </trkpt>
      <trkpt lat="42.49634" lon="2.56289">
        <ele>1140</ele>
        <time>2020-08-05T22:31:21Z</time>
      </trkpt>
      <trkpt lat="42.4963" lon="2.56301">
        <ele>1139</ele>
        <time>2020-08-05T22:31:26Z</time>
      </trkpt>
      <trkpt lat="42.49625" lon="2.56304">
        <ele>1138</ele>
        <time>2020-08-05T22:31:29Z</time>
      </trkpt>
      <trkpt lat="42.49623" lon="2.56311">
        <ele>1137</ele>
        <time>2020-08-05T22:31:31Z</time>
      </trkpt>
      <trkpt lat="42.49611" lon="2.56329">
        <ele>1136</ele>
        <time>2020-08-05T22:31:40Z</time>
      </trkpt>
      <trkpt lat="42.49602" lon="2.56333">
        <ele>1135</ele>
        <time>2020-08-05T22:31:45Z</time>
      </trkpt>
      <trkpt lat="42.49591" lon="2.56329">
        <ele>1133</ele>
        <time>2020-08-05T22:31:51Z</time>
      </trkpt>
      <trkpt lat="42.49566" lon="2.56339">
        <ele>1125</ele>
        <time>2020-08-05T22:32:04Z</time>
      </trkpt>
      <trkpt lat="42.49547" lon="2.5635">
        <ele>1117</ele>
        <time>2020-08-05T22:32:14Z</time>
      </trkpt>
      <trkpt lat="42.49536" lon="2.56364">
        <ele>1112</ele>
        <time>2020-08-05T22:32:22Z</time>
      </trkpt>
      <trkpt lat="42.49528" lon="2.56384">
        <ele>1108</ele>
        <time>2020-08-05T22:32:30Z</time>
      </trkpt>
      <trkpt lat="42.49529" lon="2.56389">
        <ele>1108</ele>
        <time>2020-08-05T22:32:32Z</time>
      </trkpt>
      <trkpt lat="42.49527" lon="2.56393">
        <ele>1107</ele>
        <time>2020-08-05T22:32:34Z</time>
      </trkpt>
      <trkpt lat="42.49519" lon="2.56393">
        <ele>1104</ele>
        <time>2020-08-05T22:32:38Z</time>
      </trkpt>
      <trkpt lat="42.49518" lon="2.564">
        <ele>1104</ele>
        <time>2020-08-05T22:32:40Z</time>
      </trkpt>
      <trkpt lat="42.49511" lon="2.56391">
        <ele>1102</ele>
        <time>2020-08-05T22:32:45Z</time>
      </trkpt>
      <trkpt lat="42.49508" lon="2.56392">
        <ele>1101</ele>
        <time>2020-08-05T22:32:47Z</time>
      </trkpt>
      <trkpt lat="42.49507" lon="2.56389">
        <ele>1100</ele>
        <time>2020-08-05T22:32:48Z</time>
      </trkpt>
      <trkpt lat="42.49497" lon="2.56384">
        <ele>1097</ele>
        <time>2020-08-05T22:32:53Z</time>
      </trkpt>
      <trkpt lat="42.49496" lon="2.56388">
        <ele>1096</ele>
        <time>2020-08-05T22:32:55Z</time>
      </trkpt>
      <trkpt lat="42.49491" lon="2.56391">
        <ele>1094</ele>
        <time>2020-08-05T22:32:58Z</time>
      </trkpt>
      <trkpt lat="42.49486" lon="2.56403">
        <ele>1091</ele>
        <time>2020-08-05T22:33:03Z</time>
      </trkpt>
      <trkpt lat="42.49481" lon="2.56405">
        <ele>1089</ele>
        <time>2020-08-05T22:33:05Z</time>
      </trkpt>
      <trkpt lat="42.49477" lon="2.56414">
        <ele>1087</ele>
        <time>2020-08-05T22:33:09Z</time>
      </trkpt>
      <trkpt lat="42.49476" lon="2.56425">
        <ele>1085</ele>
        <time>2020-08-05T22:33:13Z</time>
      </trkpt>
      <trkpt lat="42.49463" lon="2.56448">
        <ele>1076</ele>
        <time>2020-08-05T22:33:24Z</time>
      </trkpt>
      <trkpt lat="42.49459" lon="2.56467">
        <ele>1073</ele>
        <time>2020-08-05T22:33:31Z</time>
      </trkpt>
      <trkpt lat="42.49452" lon="2.56482">
        <ele>1070</ele>
        <time>2020-08-05T22:33:38Z</time>
      </trkpt>
      <trkpt lat="42.49424" lon="2.56508">
        <ele>1065</ele>
        <time>2020-08-05T22:33:55Z</time>
      </trkpt>
      <trkpt lat="42.49411" lon="2.56517">
        <ele>1063</ele>
        <time>2020-08-05T22:34:02Z</time>
      </trkpt>
      <trkpt lat="42.49396" lon="2.5652">
        <ele>1059</ele>
        <time>2020-08-05T22:34:10Z</time>
      </trkpt>
      <trkpt lat="42.49387" lon="2.56531">
        <ele>1058</ele>
        <time>2020-08-05T22:34:16Z</time>
      </trkpt>
      <trkpt lat="42.49356" lon="2.56555">
        <ele>1054</ele>
        <time>2020-08-05T22:34:34Z</time>
      </trkpt>
      <trkpt lat="42.4934" lon="2.56576">
        <ele>1054</ele>
        <time>2020-08-05T22:34:45Z</time>
      </trkpt>
      <trkpt lat="42.49333" lon="2.56593">
        <ele>1054</ele>
        <time>2020-08-05T22:34:52Z</time>
      </trkpt>
      <trkpt lat="42.49331" lon="2.56661">
        <ele>1051</ele>
        <time>2020-08-05T22:35:17Z</time>
      </trkpt>
      <trkpt lat="42.49328" lon="2.56668">
        <ele>1050</ele>
        <time>2020-08-05T22:35:20Z</time>
      </trkpt>
      <trkpt lat="42.4931" lon="2.56673">
        <ele>1046</ele>
        <time>2020-08-05T22:35:29Z</time>
      </trkpt>
      <trkpt lat="42.493" lon="2.56668">
        <ele>1046</ele>
        <time>2020-08-05T22:35:35Z</time>
      </trkpt>
      <trkpt lat="42.49259" lon="2.56668">
        <ele>1039</ele>
        <time>2020-08-05T22:35:55Z</time>
      </trkpt>
      <trkpt lat="42.4923" lon="2.56687">
        <ele>1034</ele>
        <time>2020-08-05T22:36:11Z</time>
      </trkpt>
      <trkpt lat="42.49224" lon="2.56687">
        <ele>1033</ele>
        <time>2020-08-05T22:36:14Z</time>
      </trkpt>
      <trkpt lat="42.4922" lon="2.5669">
        <ele>1033</ele>
        <time>2020-08-05T22:36:16Z</time>
      </trkpt>
      <trkpt lat="42.49213" lon="2.5669">
        <ele>1032</ele>
        <time>2020-08-05T22:36:20Z</time>
      </trkpt>
      <trkpt lat="42.49193" lon="2.56681">
        <ele>1031</ele>
        <time>2020-08-05T22:36:31Z</time>
      </trkpt>
      <trkpt lat="42.49177" lon="2.56682">
        <ele>1030</ele>
        <time>2020-08-05T22:36:39Z</time>
      </trkpt>
      <trkpt lat="42.49163" lon="2.56689">
        <ele>1028</ele>
        <time>2020-08-05T22:36:46Z</time>
      </trkpt>
      <trkpt lat="42.49138" lon="2.56717">
        <ele>1025</ele>
        <time>2020-08-05T22:37:02Z</time>
      </trkpt>
      <trkpt lat="42.49114" lon="2.56725">
        <ele>1025</ele>
        <time>2020-08-05T22:37:15Z</time>
      </trkpt>
      <trkpt lat="42.49096" lon="2.56723">
        <ele>1025</ele>
        <time>2020-08-05T22:37:24Z</time>
      </trkpt>
      <trkpt lat="42.49079" lon="2.56713">
        <ele>1026</ele>
        <time>2020-08-05T22:37:33Z</time>
      </trkpt>
      <trkpt lat="42.49067" lon="2.56713">
        <ele>1025</ele>
        <time>2020-08-05T22:37:39Z</time>
      </trkpt>
      <trkpt lat="42.49041" lon="2.56744">
        <ele>1023</ele>
        <time>2020-08-05T22:37:56Z</time>
      </trkpt>
      <trkpt lat="42.49017" lon="2.56799">
        <ele>1017</ele>
        <time>2020-08-05T22:38:20Z</time>
      </trkpt>
      <trkpt lat="42.4901" lon="2.56832">
        <ele>1014</ele>
        <time>2020-08-05T22:38:32Z</time>
      </trkpt>
      <trkpt lat="42.48997" lon="2.56874">
        <ele>1009</ele>
        <time>2020-08-05T22:38:49Z</time>
      </trkpt>
      <trkpt lat="42.48958" lon="2.56951">
        <ele>996</ele>
        <time>2020-08-05T22:39:24Z</time>
      </trkpt>
      <trkpt lat="42.48944" lon="2.56971">
        <ele>993</ele>
        <time>2020-08-05T22:39:34Z</time>
      </trkpt>
      <trkpt lat="42.48926" lon="2.56987">
        <ele>992</ele>
        <time>2020-08-05T22:39:45Z</time>
      </trkpt>
      <trkpt lat="42.48899" lon="2.57">
        <ele>990</ele>
        <time>2020-08-05T22:39:59Z</time>
      </trkpt>
      <trkpt lat="42.48873" lon="2.57019">
        <ele>990</ele>
        <time>2020-08-05T22:40:14Z</time>
      </trkpt>
      <trkpt lat="42.48862" lon="2.57032">
        <ele>990</ele>
        <time>2020-08-05T22:40:21Z</time>
      </trkpt>
      <trkpt lat="42.4886" lon="2.57041">
        <ele>991</ele>
        <time>2020-08-05T22:40:25Z</time>
      </trkpt>
      <trkpt lat="42.48862" lon="2.57056">
        <ele>991</ele>
        <time>2020-08-05T22:40:30Z</time>
      </trkpt>
      <trkpt lat="42.48868" lon="2.57061">
        <ele>992</ele>
        <time>2020-08-05T22:40:34Z</time>
      </trkpt>
      <trkpt lat="42.48877" lon="2.57061">
        <ele>992</ele>
        <time>2020-08-05T22:40:38Z</time>
      </trkpt>
      <trkpt lat="42.48962" lon="2.57023">
        <ele>986</ele>
        <time>2020-08-05T22:41:23Z</time>
      </trkpt>
      <trkpt lat="42.48999" lon="2.57011">
        <ele>982</ele>
        <time>2020-08-05T22:41:42Z</time>
      </trkpt>
      <trkpt lat="42.49021" lon="2.56985">
        <ele>982</ele>
        <time>2020-08-05T22:41:57Z</time>
      </trkpt>
      <trkpt lat="42.49046" lon="2.56971">
        <ele>981</ele>
        <time>2020-08-05T22:42:10Z</time>
      </trkpt>
      <trkpt lat="42.49085" lon="2.56932">
        <ele>984</ele>
        <time>2020-08-05T22:42:34Z</time>
      </trkpt>
      <trkpt lat="42.49092" lon="2.56927">
        <ele>985</ele>
        <time>2020-08-05T22:42:38Z</time>
      </trkpt>
      <trkpt lat="42.4911" lon="2.56924">
        <ele>982</ele>
        <time>2020-08-05T22:42:47Z</time>
      </trkpt>
      <trkpt lat="42.49132" lon="2.56928">
        <ele>977</ele>
        <time>2020-08-05T22:42:59Z</time>
      </trkpt>
      <trkpt lat="42.49168" lon="2.5695">
        <ele>965</ele>
        <time>2020-08-05T22:43:18Z</time>
      </trkpt>
      <trkpt lat="42.49203" lon="2.56964">
        <ele>961</ele>
        <time>2020-08-05T22:43:37Z</time>
      </trkpt>
      <trkpt lat="42.49232" lon="2.56951">
        <ele>964</ele>
        <time>2020-08-05T22:43:52Z</time>
      </trkpt>
      <trkpt lat="42.49246" lon="2.5695">
        <ele>965</ele>
        <time>2020-08-05T22:43:59Z</time>
      </trkpt>
      <trkpt lat="42.49259" lon="2.56959">
        <ele>962</ele>
        <time>2020-08-05T22:44:06Z</time>
      </trkpt>
      <trkpt lat="42.49297" lon="2.56997">
        <ele>948</ele>
        <time>2020-08-05T22:44:30Z</time>
      </trkpt>
      <trkpt lat="42.49302" lon="2.57006">
        <ele>945</ele>
        <time>2020-08-05T22:44:34Z</time>
      </trkpt>
      <trkpt lat="42.493" lon="2.57016">
        <ele>941</ele>
        <time>2020-08-05T22:44:38Z</time>
      </trkpt>
      <trkpt lat="42.49285" lon="2.57023">
        <ele>939</ele>
        <time>2020-08-05T22:44:46Z</time>
      </trkpt>
      <trkpt lat="42.49277" lon="2.57017">
        <ele>941</ele>
        <time>2020-08-05T22:44:50Z</time>
      </trkpt>
      <trkpt lat="42.49263" lon="2.57">
        <ele>946</ele>
        <time>2020-08-05T22:45:00Z</time>
      </trkpt>
      <trkpt lat="42.4925" lon="2.56994">
        <ele>948</ele>
        <time>2020-08-05T22:45:07Z</time>
      </trkpt>
      <trkpt lat="42.49244" lon="2.56997">
        <ele>948</ele>
        <time>2020-08-05T22:45:10Z</time>
      </trkpt>
      <trkpt lat="42.49237" lon="2.57017">
        <ele>942</ele>
        <time>2020-08-05T22:45:18Z</time>
      </trkpt>
      <trkpt lat="42.49213" lon="2.57055">
        <ele>932</ele>
        <time>2020-08-05T22:45:36Z</time>
      </trkpt>
      <trkpt lat="42.49205" lon="2.57059">
        <ele>931</ele>
        <time>2020-08-05T22:45:41Z</time>
      </trkpt>
      <trkpt lat="42.49191" lon="2.57061">
        <ele>931</ele>
        <time>2020-08-05T22:45:48Z</time>
      </trkpt>
      <trkpt lat="42.49163" lon="2.5706">
        <ele>934</ele>
        <time>2020-08-05T22:46:02Z</time>
      </trkpt>
      <trkpt lat="42.49156" lon="2.57062">
        <ele>936</ele>
        <time>2020-08-05T22:46:05Z</time>
      </trkpt>
      <trkpt lat="42.49152" lon="2.57075">
        <ele>933</ele>
        <time>2020-08-05T22:46:11Z</time>
      </trkpt>
      <trkpt lat="42.4915" lon="2.57101">
        <ele>926</ele>
        <time>2020-08-05T22:46:20Z</time>
      </trkpt>
      <trkpt lat="42.4914" lon="2.57122">
        <ele>923</ele>
        <time>2020-08-05T22:46:29Z</time>
      </trkpt>
      <trkpt lat="42.49128" lon="2.57138">
        <ele>923</ele>
        <time>2020-08-05T22:46:38Z</time>
      </trkpt>
      <trkpt lat="42.49105" lon="2.57151">
        <ele>927</ele>
        <time>2020-08-05T22:46:50Z</time>
      </trkpt>
      <trkpt lat="42.49099" lon="2.57159">
        <ele>927</ele>
        <time>2020-08-05T22:46:55Z</time>
      </trkpt>
      <trkpt lat="42.491" lon="2.57193">
        <ele>919</ele>
        <time>2020-08-05T22:47:07Z</time>
      </trkpt>
      <trkpt lat="42.49089" lon="2.57226">
        <ele>917</ele>
        <time>2020-08-05T22:47:20Z</time>
      </trkpt>
      <trkpt lat="42.49088" lon="2.57254">
        <ele>913</ele>
        <time>2020-08-05T22:47:31Z</time>
      </trkpt>
      <trkpt lat="42.49079" lon="2.57304">
        <ele>907</ele>
        <time>2020-08-05T22:47:50Z</time>
      </trkpt>
      <trkpt lat="42.49074" lon="2.57316">
        <ele>907</ele>
        <time>2020-08-05T22:47:55Z</time>
      </trkpt>
      <trkpt lat="42.49064" lon="2.5733">
        <ele>909</ele>
        <time>2020-08-05T22:48:02Z</time>
      </trkpt>
      <trkpt lat="42.49062" lon="2.57339">
        <ele>909</ele>
        <time>2020-08-05T22:48:06Z</time>
      </trkpt>
      <trkpt lat="42.49062" lon="2.5737">
        <ele>902</ele>
        <time>2020-08-05T22:48:17Z</time>
      </trkpt>
      <trkpt lat="42.49054" lon="2.57404">
        <ele>900</ele>
        <time>2020-08-05T22:48:30Z</time>
      </trkpt>
      <trkpt lat="42.49042" lon="2.5749">
        <ele>893</ele>
        <time>2020-08-05T22:49:02Z</time>
      </trkpt>
      <trkpt lat="42.49029" lon="2.57506">
        <ele>897</ele>
        <time>2020-08-05T22:49:11Z</time>
      </trkpt>
      <trkpt lat="42.49029" lon="2.57512">
        <ele>896</ele>
        <time>2020-08-05T22:49:13Z</time>
      </trkpt>
      <trkpt lat="42.48981" lon="2.57612">
        <ele>899</ele>
        <time>2020-08-05T22:49:57Z</time>
      </trkpt>
      <trkpt lat="42.48948" lon="2.57707">
        <ele>887</ele>
        <time>2020-08-05T22:50:36Z</time>
      </trkpt>
      <trkpt lat="42.48927" lon="2.57734">
        <ele>885</ele>
        <time>2020-08-05T22:50:51Z</time>
      </trkpt>
      <trkpt lat="42.48926" lon="2.57739">
        <ele>884</ele>
        <time>2020-08-05T22:50:53Z</time>
      </trkpt>
      <trkpt lat="42.48951" lon="2.57746">
        <ele>874</ele>
        <time>2020-08-05T22:51:05Z</time>
      </trkpt>
      <trkpt lat="42.48969" lon="2.57761">
        <ele>864</ele>
        <time>2020-08-05T22:51:16Z</time>
      </trkpt>
      <trkpt lat="42.48969" lon="2.57765">
        <ele>863</ele>
        <time>2020-08-05T22:51:17Z</time>
      </trkpt>
      <trkpt lat="42.48946" lon="2.57795">
        <ele>857</ele>
        <time>2020-08-05T22:51:33Z</time>
      </trkpt>
      <trkpt lat="42.4892" lon="2.5782">
        <ele>853</ele>
        <time>2020-08-05T22:51:49Z</time>
      </trkpt>
      <trkpt lat="42.48872" lon="2.57898">
        <ele>821</ele>
        <time>2020-08-05T22:52:27Z</time>
      </trkpt>
      <trkpt lat="42.48835" lon="2.57937">
        <ele>807</ele>
        <time>2020-08-05T22:52:50Z</time>
      </trkpt>
      <trkpt lat="42.48836" lon="2.5798">
        <ele>791</ele>
        <time>2020-08-05T22:53:06Z</time>
      </trkpt>
      <trkpt lat="42.48851" lon="2.58003">
        <ele>782</ele>
        <time>2020-08-05T22:53:18Z</time>
      </trkpt>
      <trkpt lat="42.4885" lon="2.58017">
        <ele>778</ele>
        <time>2020-08-05T22:53:23Z</time>
      </trkpt>
      <trkpt lat="42.48844" lon="2.58034">
        <ele>772</ele>
        <time>2020-08-05T22:53:30Z</time>
      </trkpt>
      <trkpt lat="42.48823" lon="2.58067">
        <ele>761</ele>
        <time>2020-08-05T22:53:46Z</time>
      </trkpt>
      <trkpt lat="42.48811" lon="2.58079">
        <ele>756</ele>
        <time>2020-08-05T22:53:53Z</time>
      </trkpt>
      <trkpt lat="42.48811" lon="2.58088">
        <ele>755</ele>
        <time>2020-08-05T22:53:57Z</time>
      </trkpt>
      <trkpt lat="42.48819" lon="2.58099">
        <ele>756</ele>
        <time>2020-08-05T22:54:02Z</time>
      </trkpt>
      <trkpt lat="42.48828" lon="2.58136">
        <ele>758</ele>
        <time>2020-08-05T22:54:17Z</time>
      </trkpt>
      <trkpt lat="42.48808" lon="2.5815">
        <ele>758</ele>
        <time>2020-08-05T22:54:28Z</time>
      </trkpt>
      <trkpt lat="42.48779" lon="2.58158">
        <ele>758</ele>
        <time>2020-08-05T22:54:43Z</time>
      </trkpt>
      <trkpt lat="42.48747" lon="2.58157">
        <ele>756</ele>
        <time>2020-08-05T22:54:59Z</time>
      </trkpt>
      <trkpt lat="42.48701" lon="2.58161">
        <ele>756</ele>
        <time>2020-08-05T22:55:22Z</time>
      </trkpt>
      <trkpt lat="42.4868" lon="2.58188">
        <ele>760</ele>
        <time>2020-08-05T22:55:36Z</time>
      </trkpt>
      <trkpt lat="42.48668" lon="2.58246">
        <ele>768</ele>
        <time>2020-08-05T22:55:58Z</time>
      </trkpt>
      <trkpt lat="42.48662" lon="2.58257">
        <ele>768</ele>
        <time>2020-08-05T22:56:04Z</time>
      </trkpt>
      <trkpt lat="42.48643" lon="2.58277">
        <ele>767</ele>
        <time>2020-08-05T22:56:16Z</time>
      </trkpt>
      <trkpt lat="42.48647" lon="2.58293">
        <ele>771</ele>
        <time>2020-08-05T22:56:22Z</time>
      </trkpt>
      <trkpt lat="42.48643" lon="2.58305">
        <ele>773</ele>
        <time>2020-08-05T22:56:27Z</time>
      </trkpt>
      <trkpt lat="42.48614" lon="2.58331">
        <ele>771</ele>
        <time>2020-08-05T22:56:44Z</time>
      </trkpt>
      <trkpt lat="42.48608" lon="2.58342">
        <ele>772</ele>
        <time>2020-08-05T22:56:49Z</time>
      </trkpt>
      <trkpt lat="42.48585" lon="2.58414">
        <ele>780</ele>
        <time>2020-08-05T22:57:18Z</time>
      </trkpt>
      <trkpt lat="42.48574" lon="2.5846">
        <ele>785</ele>
        <time>2020-08-05T22:57:36Z</time>
      </trkpt>
      <trkpt lat="42.48565" lon="2.58521">
        <ele>793</ele>
        <time>2020-08-05T22:57:59Z</time>
      </trkpt>
      <trkpt lat="42.48554" lon="2.58565">
        <ele>796</ele>
        <time>2020-08-05T22:58:16Z</time>
      </trkpt>
      <trkpt lat="42.48545" lon="2.5859">
        <ele>795</ele>
        <time>2020-08-05T22:58:26Z</time>
      </trkpt>
      <trkpt lat="42.48543" lon="2.58608">
        <ele>796</ele>
        <time>2020-08-05T22:58:33Z</time>
      </trkpt>
      <trkpt lat="42.48544" lon="2.58646">
        <ele>800</ele>
        <time>2020-08-05T22:58:47Z</time>
      </trkpt>
      <trkpt lat="42.48535" lon="2.58691">
        <ele>801</ele>
        <time>2020-08-05T22:59:04Z</time>
      </trkpt>
      <trkpt lat="42.4852" lon="2.58721">
        <ele>799</ele>
        <time>2020-08-05T22:59:18Z</time>
      </trkpt>
      <trkpt lat="42.48508" lon="2.58752">
        <ele>801</ele>
        <time>2020-08-05T22:59:31Z</time>
      </trkpt>
      <trkpt lat="42.48489" lon="2.58781">
        <ele>797</ele>
        <time>2020-08-05T22:59:45Z</time>
      </trkpt>
      <trkpt lat="42.48474" lon="2.58833">
        <ele>797</ele>
        <time>2020-08-05T23:00:05Z</time>
      </trkpt>
      <trkpt lat="42.48471" lon="2.58856">
        <ele>796</ele>
        <time>2020-08-05T23:00:14Z</time>
      </trkpt>
      <trkpt lat="42.48462" lon="2.58883">
        <ele>794</ele>
        <time>2020-08-05T23:00:25Z</time>
      </trkpt>
      <trkpt lat="42.4846" lon="2.58906">
        <ele>794</ele>
        <time>2020-08-05T23:00:34Z</time>
      </trkpt>
      <trkpt lat="42.48469" lon="2.58976">
        <ele>803</ele>
        <time>2020-08-05T23:01:00Z</time>
      </trkpt>
      <trkpt lat="42.48446" lon="2.59001">
        <ele>799</ele>
        <time>2020-08-05T23:01:15Z</time>
      </trkpt>
      <trkpt lat="42.48392" lon="2.59077">
        <ele>793</ele>
        <time>2020-08-05T23:01:53Z</time>
      </trkpt>
      <trkpt lat="42.48375" lon="2.5911">
        <ele>792</ele>
        <time>2020-08-05T23:02:08Z</time>
      </trkpt>
      <trkpt lat="42.48358" lon="2.59151">
        <ele>792</ele>
        <time>2020-08-05T23:02:26Z</time>
      </trkpt>
      <trkpt lat="42.4834" lon="2.5918">
        <ele>790</ele>
        <time>2020-08-05T23:02:40Z</time>
      </trkpt>
      <trkpt lat="42.4832" lon="2.59201">
        <ele>787</ele>
        <time>2020-08-05T23:02:52Z</time>
      </trkpt>
      <trkpt lat="42.4828" lon="2.59232">
        <ele>781</ele>
        <time>2020-08-05T23:03:15Z</time>
      </trkpt>
      <trkpt lat="42.48272" lon="2.59241">
        <ele>780</ele>
        <time>2020-08-05T23:03:21Z</time>
      </trkpt>
      <trkpt lat="42.48273" lon="2.59243">
        <ele>781</ele>
        <time>2020-08-05T23:03:21Z</time>
      </trkpt>
      <trkpt lat="42.48266" lon="2.59259">
        <ele>781</ele>
        <time>2020-08-05T23:03:28Z</time>
      </trkpt>
      <trkpt lat="42.48254" lon="2.59302">
        <ele>780</ele>
        <time>2020-08-05T23:03:45Z</time>
      </trkpt>
      <trkpt lat="42.48248" lon="2.59332">
        <ele>779</ele>
        <time>2020-08-05T23:03:57Z</time>
      </trkpt>
      <trkpt lat="42.48236" lon="2.59363">
        <ele>780</ele>
        <time>2020-08-05T23:04:10Z</time>
      </trkpt>
      <trkpt lat="42.48219" lon="2.5938">
        <ele>777</ele>
        <time>2020-08-05T23:04:20Z</time>
      </trkpt>
      <trkpt lat="42.48206" lon="2.59388">
        <ele>774</ele>
        <time>2020-08-05T23:04:27Z</time>
      </trkpt>
      <trkpt lat="42.48178" lon="2.59399">
        <ele>766</ele>
        <time>2020-08-05T23:04:42Z</time>
      </trkpt>
      <trkpt lat="42.48147" lon="2.59415">
        <ele>754</ele>
        <time>2020-08-05T23:04:59Z</time>
      </trkpt>
      <trkpt lat="42.48144" lon="2.59419">
        <ele>753</ele>
        <time>2020-08-05T23:05:01Z</time>
      </trkpt>
      <trkpt lat="42.4814" lon="2.5945">
        <ele>758</ele>
        <time>2020-08-05T23:05:12Z</time>
      </trkpt>
      <trkpt lat="42.4813" lon="2.59476">
        <ele>757</ele>
        <time>2020-08-05T23:05:23Z</time>
      </trkpt>
      <trkpt lat="42.48105" lon="2.59592">
        <ele>759</ele>
        <time>2020-08-05T23:06:08Z</time>
      </trkpt>
      <trkpt lat="42.48094" lon="2.59598">
        <ele>752</ele>
        <time>2020-08-05T23:06:14Z</time>
      </trkpt>
      <trkpt lat="42.48091" lon="2.59607">
        <ele>751</ele>
        <time>2020-08-05T23:06:17Z</time>
      </trkpt>
      <trkpt lat="42.48085" lon="2.59652">
        <ele>749</ele>
        <time>2020-08-05T23:06:34Z</time>
      </trkpt>
      <trkpt lat="42.48085" lon="2.59696">
        <ele>751</ele>
        <time>2020-08-05T23:06:50Z</time>
      </trkpt>
      <trkpt lat="42.48068" lon="2.59762">
        <ele>747</ele>
        <time>2020-08-05T23:07:16Z</time>
      </trkpt>
      <trkpt lat="42.48069" lon="2.59825">
        <ele>752</ele>
        <time>2020-08-05T23:07:39Z</time>
      </trkpt>
      <trkpt lat="42.48067" lon="2.59838">
        <ele>752</ele>
        <time>2020-08-05T23:07:44Z</time>
      </trkpt>
      <trkpt lat="42.4806" lon="2.59849">
        <ele>752</ele>
        <time>2020-08-05T23:07:50Z</time>
      </trkpt>
      <trkpt lat="42.48032" lon="2.59866">
        <ele>747</ele>
        <time>2020-08-05T23:08:05Z</time>
      </trkpt>
      <trkpt lat="42.48012" lon="2.59883">
        <ele>746</ele>
        <time>2020-08-05T23:08:17Z</time>
      </trkpt>
      <trkpt lat="42.47993" lon="2.5989">
        <ele>742</ele>
        <time>2020-08-05T23:08:27Z</time>
      </trkpt>
      <trkpt lat="42.47966" lon="2.59922">
        <ele>741</ele>
        <time>2020-08-05T23:08:45Z</time>
      </trkpt>
      <trkpt lat="42.47952" lon="2.59944">
        <ele>743</ele>
        <time>2020-08-05T23:08:55Z</time>
      </trkpt>
      <trkpt lat="42.47886" lon="2.59994">
        <ele>742</ele>
        <time>2020-08-05T23:09:33Z</time>
      </trkpt>
      <trkpt lat="42.47864" lon="2.60026">
        <ele>743</ele>
        <time>2020-08-05T23:09:49Z</time>
      </trkpt>
      <trkpt lat="42.47848" lon="2.60059">
        <ele>744</ele>
        <time>2020-08-05T23:10:04Z</time>
      </trkpt>
      <trkpt lat="42.47843" lon="2.60079">
        <ele>745</ele>
        <time>2020-08-05T23:10:12Z</time>
      </trkpt>
      <trkpt lat="42.47832" lon="2.60085">
        <ele>742</ele>
        <time>2020-08-05T23:10:18Z</time>
      </trkpt>
      <trkpt lat="42.47828" lon="2.60092">
        <ele>740</ele>
        <time>2020-08-05T23:10:21Z</time>
      </trkpt>
      <trkpt lat="42.47809" lon="2.60133">
        <ele>728</ele>
        <time>2020-08-05T23:10:39Z</time>
      </trkpt>
      <trkpt lat="42.47806" lon="2.60154">
        <ele>726</ele>
        <time>2020-08-05T23:10:47Z</time>
      </trkpt>
      <trkpt lat="42.47807" lon="2.60173">
        <ele>727</ele>
        <time>2020-08-05T23:10:54Z</time>
      </trkpt>
      <trkpt lat="42.47799" lon="2.60227">
        <ele>725</ele>
        <time>2020-08-05T23:11:14Z</time>
      </trkpt>
      <trkpt lat="42.47794" lon="2.60232">
        <ele>722</ele>
        <time>2020-08-05T23:11:17Z</time>
      </trkpt>
      <trkpt lat="42.47791" lon="2.60248">
        <ele>721</ele>
        <time>2020-08-05T23:11:23Z</time>
      </trkpt>
      <trkpt lat="42.47787" lon="2.60244">
        <ele>719</ele>
        <time>2020-08-05T23:11:26Z</time>
      </trkpt>
      <trkpt lat="42.47779" lon="2.60255">
        <ele>715</ele>
        <time>2020-08-05T23:11:32Z</time>
      </trkpt>
      <trkpt lat="42.47772" lon="2.60272">
        <ele>711</ele>
        <time>2020-08-05T23:11:39Z</time>
      </trkpt>
      <trkpt lat="42.47764" lon="2.60319">
        <ele>709</ele>
        <time>2020-08-05T23:11:57Z</time>
      </trkpt>
      <trkpt lat="42.47758" lon="2.60329">
        <ele>707</ele>
        <time>2020-08-05T23:12:01Z</time>
      </trkpt>
      <trkpt lat="42.47754" lon="2.60344">
        <ele>706</ele>
        <time>2020-08-05T23:12:07Z</time>
      </trkpt>
      <trkpt lat="42.47742" lon="2.60429">
        <ele>707</ele>
        <time>2020-08-05T23:12:39Z</time>
      </trkpt>
      <trkpt lat="42.4774" lon="2.60434">
        <ele>706</ele>
        <time>2020-08-05T23:12:41Z</time>
      </trkpt>
      <trkpt lat="42.47726" lon="2.60449">
        <ele>700</ele>
        <time>2020-08-05T23:12:50Z</time>
      </trkpt>
      <trkpt lat="42.47717" lon="2.60467">
        <ele>697</ele>
        <time>2020-08-05T23:12:58Z</time>
      </trkpt>
      <trkpt lat="42.47701" lon="2.60486">
        <ele>692</ele>
        <time>2020-08-05T23:13:09Z</time>
      </trkpt>
      <trkpt lat="42.47696" lon="2.60484">
        <ele>691</ele>
        <time>2020-08-05T23:13:11Z</time>
      </trkpt>
      <trkpt lat="42.47692" lon="2.6049">
        <ele>690</ele>
        <time>2020-08-05T23:13:14Z</time>
      </trkpt>
      <trkpt lat="42.47691" lon="2.60503">
        <ele>689</ele>
        <time>2020-08-05T23:13:19Z</time>
      </trkpt>
      <trkpt lat="42.47682" lon="2.60523">
        <ele>684</ele>
        <time>2020-08-05T23:13:28Z</time>
      </trkpt>
      <trkpt lat="42.47684" lon="2.60534">
        <ele>683</ele>
        <time>2020-08-05T23:13:32Z</time>
      </trkpt>
      <trkpt lat="42.4768" lon="2.60536">
        <ele>682</ele>
        <time>2020-08-05T23:13:34Z</time>
      </trkpt>
      <trkpt lat="42.47687" lon="2.6055">
        <ele>682</ele>
        <time>2020-08-05T23:13:40Z</time>
      </trkpt>
      <trkpt lat="42.47682" lon="2.60562">
        <ele>679</ele>
        <time>2020-08-05T23:13:45Z</time>
      </trkpt>
      <trkpt lat="42.47684" lon="2.60568">
        <ele>679</ele>
        <time>2020-08-05T23:13:48Z</time>
      </trkpt>
      <trkpt lat="42.47679" lon="2.6058">
        <ele>676</ele>
        <time>2020-08-05T23:13:53Z</time>
      </trkpt>
      <trkpt lat="42.47672" lon="2.60584">
        <ele>674</ele>
        <time>2020-08-05T23:13:57Z</time>
      </trkpt>
      <trkpt lat="42.47661" lon="2.60596">
        <ele>670</ele>
        <time>2020-08-05T23:14:04Z</time>
      </trkpt>
      <trkpt lat="42.47651" lon="2.60616">
        <ele>665</ele>
        <time>2020-08-05T23:14:13Z</time>
      </trkpt>
      <trkpt lat="42.47637" lon="2.60616">
        <ele>660</ele>
        <time>2020-08-05T23:14:20Z</time>
      </trkpt>
      <trkpt lat="42.47627" lon="2.60637">
        <ele>656</ele>
        <time>2020-08-05T23:14:29Z</time>
      </trkpt>
      <trkpt lat="42.4762" lon="2.60643">
        <ele>654</ele>
        <time>2020-08-05T23:14:33Z</time>
      </trkpt>
      <trkpt lat="42.47608" lon="2.60648">
        <ele>650</ele>
        <time>2020-08-05T23:14:39Z</time>
      </trkpt>
      <trkpt lat="42.4759" lon="2.60673">
        <ele>646</ele>
        <time>2020-08-05T23:14:52Z</time>
      </trkpt>
      <trkpt lat="42.47583" lon="2.60678">
        <ele>645</ele>
        <time>2020-08-05T23:14:56Z</time>
      </trkpt>
      <trkpt lat="42.47574" lon="2.60677">
        <ele>640</ele>
        <time>2020-08-05T23:15:01Z</time>
      </trkpt>
      <trkpt lat="42.47571" lon="2.6068">
        <ele>639</ele>
        <time>2020-08-05T23:15:03Z</time>
      </trkpt>
      <trkpt lat="42.47559" lon="2.6071">
        <ele>636</ele>
        <time>2020-08-05T23:15:15Z</time>
      </trkpt>
      <trkpt lat="42.47551" lon="2.6072">
        <ele>634</ele>
        <time>2020-08-05T23:15:21Z</time>
      </trkpt>
      <trkpt lat="42.47545" lon="2.60757">
        <ele>636</ele>
        <time>2020-08-05T23:15:35Z</time>
      </trkpt>
      <trkpt lat="42.47542" lon="2.60802">
        <ele>639</ele>
        <time>2020-08-05T23:15:51Z</time>
      </trkpt>
      <trkpt lat="42.47537" lon="2.60814">
        <ele>638</ele>
        <time>2020-08-05T23:15:56Z</time>
      </trkpt>
      <trkpt lat="42.47524" lon="2.60827">
        <ele>635</ele>
        <time>2020-08-05T23:16:05Z</time>
      </trkpt>
      <trkpt lat="42.47506" lon="2.6084">
        <ele>629</ele>
        <time>2020-08-05T23:16:15Z</time>
      </trkpt>
      <trkpt lat="42.47468" lon="2.6086">
        <ele>618</ele>
        <time>2020-08-05T23:16:35Z</time>
      </trkpt>
      <trkpt lat="42.47439" lon="2.60894">
        <ele>614</ele>
        <time>2020-08-05T23:16:54Z</time>
      </trkpt>
      <trkpt lat="42.47417" lon="2.60949">
        <ele>611</ele>
        <time>2020-08-05T23:17:17Z</time>
      </trkpt>
      <trkpt lat="42.47401" lon="2.60972">
        <ele>604</ele>
        <time>2020-08-05T23:17:29Z</time>
      </trkpt>
      <trkpt lat="42.47395" lon="2.6099">
        <ele>602</ele>
        <time>2020-08-05T23:17:36Z</time>
      </trkpt>
      <trkpt lat="42.4738" lon="2.61009">
        <ele>596</ele>
        <time>2020-08-05T23:17:47Z</time>
      </trkpt>
      <trkpt lat="42.47373" lon="2.61032">
        <ele>593</ele>
        <time>2020-08-05T23:17:56Z</time>
      </trkpt>
      <trkpt lat="42.47363" lon="2.6104">
        <ele>592</ele>
        <time>2020-08-05T23:18:02Z</time>
      </trkpt>
      <trkpt lat="42.47357" lon="2.61049">
        <ele>591</ele>
        <time>2020-08-05T23:18:06Z</time>
      </trkpt>
      <trkpt lat="42.47352" lon="2.61081">
        <ele>591</ele>
        <time>2020-08-05T23:18:18Z</time>
      </trkpt>
      <trkpt lat="42.47333" lon="2.6112">
        <ele>588</ele>
        <time>2020-08-05T23:18:35Z</time>
      </trkpt>
      <trkpt lat="42.47321" lon="2.61135">
        <ele>583</ele>
        <time>2020-08-05T23:18:44Z</time>
      </trkpt>
      <trkpt lat="42.47317" lon="2.61148">
        <ele>582</ele>
        <time>2020-08-05T23:18:49Z</time>
      </trkpt>
      <trkpt lat="42.47302" lon="2.6117">
        <ele>578</ele>
        <time>2020-08-05T23:19:00Z</time>
      </trkpt>
      <trkpt lat="42.4729" lon="2.61179">
        <ele>575</ele>
        <time>2020-08-05T23:19:07Z</time>
      </trkpt>
      <trkpt lat="42.47277" lon="2.61194">
        <ele>572</ele>
        <time>2020-08-05T23:19:15Z</time>
      </trkpt>
      <trkpt lat="42.4725" lon="2.61239">
        <ele>573</ele>
        <time>2020-08-05T23:19:37Z</time>
      </trkpt>
      <trkpt lat="42.47228" lon="2.61258">
        <ele>569</ele>
        <time>2020-08-05T23:19:50Z</time>
      </trkpt>
      <trkpt lat="42.4722" lon="2.61261">
        <ele>567</ele>
        <time>2020-08-05T23:19:54Z</time>
      </trkpt>
      <trkpt lat="42.4721" lon="2.61257">
        <ele>566</ele>
        <time>2020-08-05T23:19:59Z</time>
      </trkpt>
      <trkpt lat="42.47203" lon="2.61259">
        <ele>565</ele>
        <time>2020-08-05T23:20:03Z</time>
      </trkpt>
      <trkpt lat="42.47178" lon="2.61271">
        <ele>561</ele>
        <time>2020-08-05T23:20:16Z</time>
      </trkpt>
      <trkpt lat="42.47166" lon="2.61281">
        <ele>559</ele>
        <time>2020-08-05T23:20:23Z</time>
      </trkpt>
      <trkpt lat="42.47157" lon="2.61299">
        <ele>556</ele>
        <time>2020-08-05T23:20:31Z</time>
      </trkpt>
      <trkpt lat="42.4715" lon="2.61333">
        <ele>555</ele>
        <time>2020-08-05T23:20:44Z</time>
      </trkpt>
      <trkpt lat="42.47143" lon="2.61348">
        <ele>549</ele>
        <time>2020-08-05T23:20:51Z</time>
      </trkpt>
      <trkpt lat="42.47134" lon="2.61358">
        <ele>544</ele>
        <time>2020-08-05T23:20:56Z</time>
      </trkpt>
      <trkpt lat="42.47127" lon="2.6136">
        <ele>542</ele>
        <time>2020-08-05T23:21:00Z</time>
      </trkpt>
      <trkpt lat="42.4711" lon="2.61381">
        <ele>534</ele>
        <time>2020-08-05T23:21:12Z</time>
      </trkpt>
      <trkpt lat="42.47108" lon="2.6139">
        <ele>533</ele>
        <time>2020-08-05T23:21:15Z</time>
      </trkpt>
      <trkpt lat="42.47114" lon="2.61399">
        <ele>533</ele>
        <time>2020-08-05T23:21:20Z</time>
      </trkpt>
      <trkpt lat="42.47113" lon="2.61411">
        <ele>531</ele>
        <time>2020-08-05T23:21:24Z</time>
      </trkpt>
      <trkpt lat="42.47101" lon="2.61416">
        <ele>529</ele>
        <time>2020-08-05T23:21:30Z</time>
      </trkpt>
      <trkpt lat="42.471" lon="2.61425">
        <ele>527</ele>
        <time>2020-08-05T23:21:34Z</time>
      </trkpt>
      <trkpt lat="42.47092" lon="2.61425">
        <ele>527</ele>
        <time>2020-08-05T23:21:38Z</time>
      </trkpt>
      <trkpt lat="42.47089" lon="2.61429">
        <ele>526</ele>
        <time>2020-08-05T23:21:40Z</time>
      </trkpt>
      <trkpt lat="42.4708" lon="2.61465">
        <ele>519</ele>
        <time>2020-08-05T23:21:54Z</time>
      </trkpt>
      <trkpt lat="42.4708" lon="2.6148">
        <ele>517</ele>
        <time>2020-08-05T23:21:59Z</time>
      </trkpt>
      <trkpt lat="42.47085" lon="2.61485">
        <ele>517</ele>
        <time>2020-08-05T23:22:02Z</time>
      </trkpt>
      <trkpt lat="42.47072" lon="2.61494">
        <ele>512</ele>
        <time>2020-08-05T23:22:10Z</time>
      </trkpt>
      <trkpt lat="42.4707" lon="2.61505">
        <ele>510</ele>
        <time>2020-08-05T23:22:14Z</time>
      </trkpt>
      <trkpt lat="42.47045" lon="2.61538">
        <ele>499</ele>
        <time>2020-08-05T23:22:31Z</time>
      </trkpt>
      <trkpt lat="42.47036" lon="2.61578">
        <ele>494</ele>
        <time>2020-08-05T23:22:47Z</time>
      </trkpt>
      <trkpt lat="42.4702" lon="2.61587">
        <ele>492</ele>
        <time>2020-08-05T23:22:55Z</time>
      </trkpt>
      <trkpt lat="42.47017" lon="2.61596">
        <ele>491</ele>
        <time>2020-08-05T23:22:59Z</time>
      </trkpt>
      <trkpt lat="42.47005" lon="2.61604">
        <ele>490</ele>
        <time>2020-08-05T23:23:06Z</time>
      </trkpt>
      <trkpt lat="42.46976" lon="2.61649">
        <ele>486</ele>
        <time>2020-08-05T23:23:28Z</time>
      </trkpt>
      <trkpt lat="42.46958" lon="2.61666">
        <ele>486</ele>
        <time>2020-08-05T23:23:39Z</time>
      </trkpt>
      <trkpt lat="42.4695" lon="2.61678">
        <ele>485</ele>
        <time>2020-08-05T23:23:45Z</time>
      </trkpt>
      <trkpt lat="42.46922" lon="2.61707">
        <ele>483</ele>
        <time>2020-08-05T23:24:02Z</time>
      </trkpt>
      <trkpt lat="42.46896" lon="2.61747">
        <ele>480</ele>
        <time>2020-08-05T23:24:22Z</time>
      </trkpt>
      <trkpt lat="42.46866" lon="2.61806">
        <ele>477</ele>
        <time>2020-08-05T23:24:49Z</time>
      </trkpt>
      <trkpt lat="42.46851" lon="2.61827">
        <ele>479</ele>
        <time>2020-08-05T23:24:59Z</time>
      </trkpt>
      <trkpt lat="42.46764" lon="2.61923">
        <ele>475</ele>
        <time>2020-08-05T23:25:55Z</time>
      </trkpt>
      <trkpt lat="42.46743" lon="2.61955">
        <ele>474</ele>
        <time>2020-08-05T23:26:11Z</time>
      </trkpt>
      <trkpt lat="42.46695" lon="2.62056">
        <ele>475</ele>
        <time>2020-08-05T23:26:56Z</time>
      </trkpt>
      <trkpt lat="42.46673" lon="2.6212">
        <ele>476</ele>
        <time>2020-08-05T23:27:22Z</time>
      </trkpt>
      <trkpt lat="42.46669" lon="2.62141">
        <ele>474</ele>
        <time>2020-08-05T23:27:30Z</time>
      </trkpt>
      <trkpt lat="42.46652" lon="2.62199">
        <ele>466</ele>
        <time>2020-08-05T23:27:53Z</time>
      </trkpt>
      <trkpt lat="42.46645" lon="2.62271">
        <ele>459</ele>
        <time>2020-08-05T23:28:20Z</time>
      </trkpt>
      <trkpt lat="42.46645" lon="2.62297">
        <ele>459</ele>
        <time>2020-08-05T23:28:29Z</time>
      </trkpt>
      <trkpt lat="42.46637" lon="2.62336">
        <ele>456</ele>
        <time>2020-08-05T23:28:44Z</time>
      </trkpt>
      <trkpt lat="42.46638" lon="2.6235">
        <ele>456</ele>
        <time>2020-08-05T23:28:49Z</time>
      </trkpt>
      <trkpt lat="42.4663" lon="2.62373">
        <ele>456</ele>
        <time>2020-08-05T23:28:59Z</time>
      </trkpt>
      <trkpt lat="42.46624" lon="2.62408">
        <ele>457</ele>
        <time>2020-08-05T23:29:12Z</time>
      </trkpt>
      <trkpt lat="42.4661" lon="2.62426">
        <ele>457</ele>
        <time>2020-08-05T23:29:22Z</time>
      </trkpt>
      <trkpt lat="42.46602" lon="2.6245">
        <ele>458</ele>
        <time>2020-08-05T23:29:31Z</time>
      </trkpt>
      <trkpt lat="42.46599" lon="2.62452">
        <ele>458</ele>
        <time>2020-08-05T23:29:33Z</time>
      </trkpt>
      <trkpt lat="42.46589" lon="2.62443">
        <ele>459</ele>
        <time>2020-08-05T23:29:39Z</time>
      </trkpt>
      <trkpt lat="42.46581" lon="2.6244">
        <ele>458</ele>
        <time>2020-08-05T23:29:43Z</time>
      </trkpt>
      <trkpt lat="42.46576" lon="2.62442">
        <ele>456</ele>
        <time>2020-08-05T23:29:46Z</time>
      </trkpt>
      <trkpt lat="42.46555" lon="2.62468">
        <ele>449</ele>
        <time>2020-08-05T23:30:00Z</time>
      </trkpt>
      <trkpt lat="42.46545" lon="2.62475">
        <ele>447</ele>
        <time>2020-08-05T23:30:06Z</time>
      </trkpt>
      <trkpt lat="42.46527" lon="2.62496">
        <ele>444</ele>
        <time>2020-08-05T23:30:18Z</time>
      </trkpt>
      <trkpt lat="42.46513" lon="2.62501">
        <ele>441</ele>
        <time>2020-08-05T23:30:25Z</time>
      </trkpt>
      <trkpt lat="42.46507" lon="2.62509">
        <ele>441</ele>
        <time>2020-08-05T23:30:29Z</time>
      </trkpt>
      <trkpt lat="42.46492" lon="2.62542">
        <ele>442</ele>
        <time>2020-08-05T23:30:43Z</time>
      </trkpt>
      <trkpt lat="42.46477" lon="2.62546">
        <ele>438</ele>
        <time>2020-08-05T23:30:51Z</time>
      </trkpt>
      <trkpt lat="42.46463" lon="2.62554">
        <ele>435</ele>
        <time>2020-08-05T23:30:59Z</time>
      </trkpt>
      <trkpt lat="42.46442" lon="2.62573">
        <ele>435</ele>
        <time>2020-08-05T23:31:11Z</time>
      </trkpt>
      <trkpt lat="42.46433" lon="2.62586">
        <ele>437</ele>
        <time>2020-08-05T23:31:18Z</time>
      </trkpt>
      <trkpt lat="42.46402" lon="2.62601">
        <ele>436</ele>
        <time>2020-08-05T23:31:34Z</time>
      </trkpt>
      <trkpt lat="42.46372" lon="2.62602">
        <ele>434</ele>
        <time>2020-08-05T23:31:49Z</time>
      </trkpt>
      <trkpt lat="42.46338" lon="2.62611">
        <ele>436</ele>
        <time>2020-08-05T23:32:07Z</time>
      </trkpt>
      <trkpt lat="42.46334" lon="2.62608">
        <ele>435</ele>
        <time>2020-08-05T23:32:09Z</time>
      </trkpt>
      <trkpt lat="42.46303" lon="2.62599">
        <ele>430</ele>
        <time>2020-08-05T23:32:25Z</time>
      </trkpt>
      <trkpt lat="42.46296" lon="2.62591">
        <ele>427</ele>
        <time>2020-08-05T23:32:29Z</time>
      </trkpt>
      <trkpt lat="42.46265" lon="2.62567">
        <ele>417</ele>
        <time>2020-08-05T23:32:47Z</time>
      </trkpt>
      <trkpt lat="42.46238" lon="2.62555">
        <ele>408</ele>
        <time>2020-08-05T23:33:01Z</time>
      </trkpt>
      <trkpt lat="42.46233" lon="2.62555">
        <ele>406</ele>
        <time>2020-08-05T23:33:04Z</time>
      </trkpt>
      <trkpt lat="42.46223" lon="2.62559">
        <ele>404</ele>
        <time>2020-08-05T23:33:09Z</time>
      </trkpt>
      <trkpt lat="42.46214" lon="2.62567">
        <ele>405</ele>
        <time>2020-08-05T23:33:15Z</time>
      </trkpt>
      <trkpt lat="42.46206" lon="2.62581">
        <ele>407</ele>
        <time>2020-08-05T23:33:21Z</time>
      </trkpt>
      <trkpt lat="42.46197" lon="2.62591">
        <ele>407</ele>
        <time>2020-08-05T23:33:27Z</time>
      </trkpt>
      <trkpt lat="42.46182" lon="2.6262">
        <ele>411</ele>
        <time>2020-08-05T23:33:40Z</time>
      </trkpt>
      <trkpt lat="42.4617" lon="2.62637">
        <ele>412</ele>
        <time>2020-08-05T23:33:49Z</time>
      </trkpt>
      <trkpt lat="42.46153" lon="2.62639">
        <ele>407</ele>
        <time>2020-08-05T23:33:57Z</time>
      </trkpt>
      <trkpt lat="42.46122" lon="2.62634">
        <ele>393</ele>
        <time>2020-08-05T23:34:13Z</time>
      </trkpt>
      <trkpt lat="42.46116" lon="2.62635">
        <ele>391</ele>
        <time>2020-08-05T23:34:16Z</time>
      </trkpt>
      <trkpt lat="42.46108" lon="2.62639">
        <ele>389</ele>
        <time>2020-08-05T23:34:20Z</time>
      </trkpt>
      <trkpt lat="42.46094" lon="2.62655">
        <ele>392</ele>
        <time>2020-08-05T23:34:29Z</time>
      </trkpt>
      <trkpt lat="42.46086" lon="2.62656">
        <ele>390</ele>
        <time>2020-08-05T23:34:33Z</time>
      </trkpt>
      <trkpt lat="42.46074" lon="2.62662">
        <ele>389</ele>
        <time>2020-08-05T23:34:40Z</time>
      </trkpt>
      <trkpt lat="42.46064" lon="2.62672">
        <ele>389</ele>
        <time>2020-08-05T23:34:46Z</time>
      </trkpt>
      <trkpt lat="42.46051" lon="2.62678">
        <ele>386</ele>
        <time>2020-08-05T23:34:53Z</time>
      </trkpt>
      <trkpt lat="42.46045" lon="2.62677">
        <ele>383</ele>
        <time>2020-08-05T23:34:56Z</time>
      </trkpt>
      <trkpt lat="42.46035" lon="2.62683">
        <ele>381</ele>
        <time>2020-08-05T23:35:01Z</time>
      </trkpt>
      <trkpt lat="42.46024" lon="2.62681">
        <ele>376</ele>
        <time>2020-08-05T23:35:07Z</time>
      </trkpt>
      <trkpt lat="42.45995" lon="2.62701">
        <ele>369</ele>
        <time>2020-08-05T23:35:23Z</time>
      </trkpt>
      <trkpt lat="42.45988" lon="2.6269">
        <ele>363</ele>
        <time>2020-08-05T23:35:28Z</time>
      </trkpt>
      <trkpt lat="42.45979" lon="2.62692">
        <ele>360</ele>
        <time>2020-08-05T23:35:33Z</time>
      </trkpt>
      <trkpt lat="42.45974" lon="2.62704">
        <ele>361</ele>
        <time>2020-08-05T23:35:38Z</time>
      </trkpt>
      <trkpt lat="42.45972" lon="2.62737">
        <ele>368</ele>
        <time>2020-08-05T23:35:50Z</time>
      </trkpt>
      <trkpt lat="42.45969" lon="2.62746">
        <ele>369</ele>
        <time>2020-08-05T23:35:54Z</time>
      </trkpt>
      <trkpt lat="42.45973" lon="2.62765">
        <ele>375</ele>
        <time>2020-08-05T23:36:01Z</time>
      </trkpt>
      <trkpt lat="42.45972" lon="2.62774">
        <ele>377</ele>
        <time>2020-08-05T23:36:05Z</time>
      </trkpt>
      <trkpt lat="42.45966" lon="2.62775">
        <ele>375</ele>
        <time>2020-08-05T23:36:08Z</time>
      </trkpt>
      <trkpt lat="42.45947" lon="2.62767">
        <ele>364</ele>
        <time>2020-08-05T23:36:18Z</time>
      </trkpt>
      <trkpt lat="42.45936" lon="2.62767">
        <ele>359</ele>
        <time>2020-08-05T23:36:23Z</time>
      </trkpt>
      <trkpt lat="42.45922" lon="2.62762">
        <ele>351</ele>
        <time>2020-08-05T23:36:30Z</time>
      </trkpt>
      <trkpt lat="42.45908" lon="2.62762">
        <ele>346</ele>
        <time>2020-08-05T23:36:37Z</time>
      </trkpt>
      <trkpt lat="42.45892" lon="2.62769">
        <ele>342</ele>
        <time>2020-08-05T23:36:46Z</time>
      </trkpt>
      <trkpt lat="42.45887" lon="2.62774">
        <ele>342</ele>
        <time>2020-08-05T23:36:49Z</time>
      </trkpt>
      <trkpt lat="42.45872" lon="2.62777">
        <ele>337</ele>
        <time>2020-08-05T23:36:56Z</time>
      </trkpt>
      <trkpt lat="42.45861" lon="2.62789">
        <ele>335</ele>
        <time>2020-08-05T23:37:04Z</time>
      </trkpt>
      <trkpt lat="42.45847" lon="2.6279">
        <ele>330</ele>
        <time>2020-08-05T23:37:11Z</time>
      </trkpt>
      <trkpt lat="42.45837" lon="2.62794">
        <ele>327</ele>
        <time>2020-08-05T23:37:16Z</time>
      </trkpt>
      <trkpt lat="42.45834" lon="2.62791">
        <ele>325</ele>
        <time>2020-08-05T23:37:18Z</time>
      </trkpt>
      <trkpt lat="42.45833" lon="2.62782">
        <ele>323</ele>
        <time>2020-08-05T23:37:21Z</time>
      </trkpt>
      <trkpt lat="42.4583" lon="2.62781">
        <ele>322</ele>
        <time>2020-08-05T23:37:23Z</time>
      </trkpt>
      <trkpt lat="42.45824" lon="2.62786">
        <ele>322</ele>
        <time>2020-08-05T23:37:26Z</time>
      </trkpt>
      <trkpt lat="42.45819" lon="2.62782">
        <ele>320</ele>
        <time>2020-08-05T23:37:29Z</time>
      </trkpt>
      <trkpt lat="42.45825" lon="2.62775">
        <ele>320</ele>
        <time>2020-08-05T23:37:33Z</time>
      </trkpt>
      <trkpt lat="42.45841" lon="2.6277">
        <ele>323</ele>
        <time>2020-08-05T23:37:41Z</time>
      </trkpt>
      <trkpt lat="42.45853" lon="2.62756">
        <ele>324</ele>
        <time>2020-08-05T23:37:49Z</time>
      </trkpt>
      <trkpt lat="42.45834" lon="2.62746">
        <ele>316</ele>
        <time>2020-08-05T23:37:59Z</time>
      </trkpt>
      <trkpt lat="42.45823" lon="2.62743">
        <ele>314</ele>
        <time>2020-08-05T23:38:05Z</time>
      </trkpt>
      <trkpt lat="42.4579" lon="2.62773">
        <ele>313</ele>
        <time>2020-08-05T23:38:25Z</time>
      </trkpt>
      <trkpt lat="42.45779" lon="2.62791">
        <ele>313</ele>
        <time>2020-08-05T23:38:33Z</time>
      </trkpt>
      <trkpt lat="42.45763" lon="2.62848">
        <ele>312</ele>
        <time>2020-08-05T23:38:56Z</time>
      </trkpt>
      <trkpt lat="42.45757" lon="2.62861">
        <ele>310</ele>
        <time>2020-08-05T23:39:02Z</time>
      </trkpt>
      <trkpt lat="42.45704" lon="2.62951">
        <ele>305</ele>
        <time>2020-08-05T23:39:44Z</time>
      </trkpt>
      <trkpt lat="42.45698" lon="2.62965">
        <ele>305</ele>
        <time>2020-08-05T23:39:50Z</time>
      </trkpt>
      <trkpt lat="42.45709" lon="2.62999">
        <ele>308</ele>
        <time>2020-08-05T23:40:04Z</time>
      </trkpt>
      <trkpt lat="42.45716" lon="2.63068">
        <ele>308</ele>
        <time>2020-08-05T23:40:30Z</time>
      </trkpt>
      <trkpt lat="42.45709" lon="2.63093">
        <ele>306</ele>
        <time>2020-08-05T23:40:39Z</time>
      </trkpt>
      <trkpt lat="42.45694" lon="2.63098">
        <ele>303</ele>
        <time>2020-08-05T23:40:47Z</time>
      </trkpt>
      <trkpt lat="42.45684" lon="2.6315">
        <ele>299</ele>
        <time>2020-08-05T23:41:07Z</time>
      </trkpt>
      <trkpt lat="42.45673" lon="2.63188">
        <ele>297</ele>
        <time>2020-08-05T23:41:22Z</time>
      </trkpt>
      <trkpt lat="42.45671" lon="2.63217">
        <ele>296</ele>
        <time>2020-08-05T23:41:33Z</time>
      </trkpt>
      <trkpt lat="42.45676" lon="2.63243">
        <ele>296</ele>
        <time>2020-08-05T23:41:43Z</time>
      </trkpt>
      <trkpt lat="42.45675" lon="2.6328">
        <ele>295</ele>
        <time>2020-08-05T23:41:56Z</time>
      </trkpt>
      <trkpt lat="42.45671" lon="2.63302">
        <ele>295</ele>
        <time>2020-08-05T23:42:05Z</time>
      </trkpt>
      <trkpt lat="42.45646" lon="2.63337">
        <ele>294</ele>
        <time>2020-08-05T23:42:23Z</time>
      </trkpt>
      <trkpt lat="42.45655" lon="2.63337">
        <ele>294</ele>
        <time>2020-08-05T23:42:27Z</time>
      </trkpt>
      <trkpt lat="42.45648" lon="2.63363">
        <ele>293</ele>
        <time>2020-08-05T23:42:37Z</time>
      </trkpt>
      <trkpt lat="42.45666" lon="2.63471">
        <ele>287</ele>
        <time>2020-08-05T23:43:18Z</time>
      </trkpt>
      <trkpt lat="42.45661" lon="2.63504">
        <ele>285</ele>
        <time>2020-08-05T23:43:31Z</time>
      </trkpt>
      <trkpt lat="42.4565" lon="2.63525">
        <ele>283</ele>
        <time>2020-08-05T23:43:40Z</time>
      </trkpt>
      <trkpt lat="42.45635" lon="2.63537">
        <ele>282</ele>
        <time>2020-08-05T23:43:49Z</time>
      </trkpt>
      <trkpt lat="42.45623" lon="2.63658">
        <ele>274</ele>
        <time>2020-08-05T23:44:34Z</time>
      </trkpt>
      <trkpt lat="42.45614" lon="2.63711">
        <ele>273</ele>
        <time>2020-08-05T23:44:54Z</time>
      </trkpt>
      <trkpt lat="42.45745" lon="2.63702">
        <ele>271</ele>
        <time>2020-08-05T23:46:00Z</time>
      </trkpt>
      <trkpt lat="42.45783" lon="2.63709">
        <ele>271</ele>
        <time>2020-08-05T23:46:19Z</time>
      </trkpt>
      <trkpt lat="42.45782" lon="2.63716">
        <ele>271</ele>
        <time>2020-08-05T23:46:22Z</time>
      </trkpt>
      <trkpt lat="42.45803" lon="2.63719">
        <ele>271</ele>
        <time>2020-08-05T23:46:32Z</time>
      </trkpt>
      <trkpt lat="42.45823" lon="2.63754">
        <ele>269</ele>
        <time>2020-08-05T23:46:49Z</time>
      </trkpt>
      <trkpt lat="42.45828" lon="2.63774">
        <ele>268</ele>
        <time>2020-08-05T23:46:56Z</time>
      </trkpt>
      <trkpt lat="42.45832" lon="2.63775">
        <ele>268</ele>
        <time>2020-08-05T23:46:58Z</time>
      </trkpt>
      <trkpt lat="42.45856" lon="2.6377">
        <ele>269</ele>
        <time>2020-08-05T23:47:10Z</time>
      </trkpt>
      <trkpt lat="42.45861" lon="2.63773">
        <ele>269</ele>
        <time>2020-08-05T23:47:13Z</time>
      </trkpt>
      <trkpt lat="42.45868" lon="2.63852">
        <ele>267</ele>
        <time>2020-08-05T23:47:43Z</time>
      </trkpt>
      <trkpt lat="42.45879" lon="2.63929">
        <ele>270</ele>
        <time>2020-08-05T23:48:12Z</time>
      </trkpt>
      <trkpt lat="42.45895" lon="2.63927">
        <ele>270</ele>
        <time>2020-08-05T23:48:20Z</time>
      </trkpt>
      <trkpt lat="42.45922" lon="2.63916">
        <ele>268</ele>
        <time>2020-08-05T23:48:34Z</time>
      </trkpt>
      <trkpt lat="42.45942" lon="2.63913">
        <ele>267</ele>
        <time>2020-08-05T23:48:44Z</time>
      </trkpt>
      <trkpt lat="42.45958" lon="2.63915">
        <ele>266</ele>
        <time>2020-08-05T23:48:52Z</time>
      </trkpt>
      <trkpt lat="42.45989" lon="2.63914">
        <ele>265</ele>
        <time>2020-08-05T23:49:07Z</time>
      </trkpt>
      <trkpt lat="42.46011" lon="2.6392">
        <ele>264</ele>
        <time>2020-08-05T23:49:19Z</time>
      </trkpt>
      <trkpt lat="42.46045" lon="2.63947">
        <ele>265</ele>
        <time>2020-08-05T23:49:38Z</time>
      </trkpt>
      <trkpt lat="42.46065" lon="2.63971">
        <ele>265</ele>
        <time>2020-08-05T23:49:52Z</time>
      </trkpt>
      <trkpt lat="42.46072" lon="2.63974">
        <ele>265</ele>
        <time>2020-08-05T23:49:55Z</time>
      </trkpt>
      <trkpt lat="42.46079" lon="2.63983">
        <ele>265</ele>
        <time>2020-08-05T23:50:00Z</time>
      </trkpt>
      <trkpt lat="42.46132" lon="2.64019">
        <ele>264</ele>
        <time>2020-08-05T23:50:30Z</time>
      </trkpt>
      <trkpt lat="42.46137" lon="2.64025">
        <ele>264</ele>
        <time>2020-08-05T23:50:33Z</time>
      </trkpt>
      <trkpt lat="42.4615" lon="2.64054">
        <ele>264</ele>
        <time>2020-08-05T23:50:46Z</time>
      </trkpt>
      <trkpt lat="42.46164" lon="2.64075">
        <ele>263</ele>
        <time>2020-08-05T23:50:56Z</time>
      </trkpt>
      <trkpt lat="42.46184" lon="2.64096">
        <ele>263</ele>
        <time>2020-08-05T23:51:09Z</time>
      </trkpt>
      <trkpt lat="42.46167" lon="2.6412">
        <ele>264</ele>
        <time>2020-08-05T23:51:21Z</time>
      </trkpt>
      <trkpt lat="42.46149" lon="2.64126">
        <ele>265</ele>
        <time>2020-08-05T23:51:30Z</time>
      </trkpt>
      <trkpt lat="42.4613" lon="2.64141">
        <ele>266</ele>
        <time>2020-08-05T23:51:41Z</time>
      </trkpt>
      <trkpt lat="42.46102" lon="2.64147">
        <ele>268</ele>
        <time>2020-08-05T23:51:56Z</time>
      </trkpt>
      <trkpt lat="42.46088" lon="2.64146">
        <ele>269</ele>
        <time>2020-08-05T23:52:03Z</time>
      </trkpt>
      <trkpt lat="42.46067" lon="2.64156">
        <ele>271</ele>
        <time>2020-08-05T23:52:14Z</time>
      </trkpt>
      <trkpt lat="42.46068" lon="2.6418">
        <ele>271</ele>
        <time>2020-08-05T23:52:23Z</time>
      </trkpt>
      <trkpt lat="42.46062" lon="2.64268">
        <ele>274</ele>
        <time>2020-08-05T23:52:55Z</time>
      </trkpt>
      <trkpt lat="42.46051" lon="2.64266">
        <ele>274</ele>
        <time>2020-08-05T23:53:01Z</time>
      </trkpt>
      <trkpt lat="42.46026" lon="2.6425">
        <ele>275</ele>
        <time>2020-08-05T23:53:15Z</time>
      </trkpt>
      <trkpt lat="42.45983" lon="2.64244">
        <ele>280</ele>
        <time>2020-08-05T23:53:36Z</time>
      </trkpt>
      <trkpt lat="42.4596" lon="2.64237">
        <ele>284</ele>
        <time>2020-08-05T23:53:48Z</time>
      </trkpt>
      <trkpt lat="42.45945" lon="2.64226">
        <ele>286</ele>
        <time>2020-08-05T23:53:57Z</time>
      </trkpt>
      <trkpt lat="42.45942" lon="2.64223">
        <ele>287</ele>
        <time>2020-08-05T23:53:58Z</time>
      </trkpt>
      <trkpt lat="42.45939" lon="2.64212">
        <ele>287</ele>
        <time>2020-08-05T23:54:03Z</time>
      </trkpt>
      <trkpt lat="42.45945" lon="2.64168">
        <ele>286</ele>
        <time>2020-08-05T23:54:19Z</time>
      </trkpt>
      <trkpt lat="42.4594" lon="2.64146">
        <ele>285</ele>
        <time>2020-08-05T23:54:28Z</time>
      </trkpt>
      <trkpt lat="42.45936" lon="2.64141">
        <ele>285</ele>
        <time>2020-08-05T23:54:30Z</time>
      </trkpt>
      <trkpt lat="42.45931" lon="2.6414">
        <ele>286</ele>
        <time>2020-08-05T23:54:33Z</time>
      </trkpt>
      <trkpt lat="42.45925" lon="2.64178">
        <ele>289</ele>
        <time>2020-08-05T23:54:47Z</time>
      </trkpt>
      <trkpt lat="42.4592" lon="2.64192">
        <ele>290</ele>
        <time>2020-08-05T23:54:53Z</time>
      </trkpt>
      <trkpt lat="42.45912" lon="2.64206">
        <ele>291</ele>
        <time>2020-08-05T23:55:00Z</time>
      </trkpt>
      <trkpt lat="42.45889" lon="2.64235">
        <ele>295</ele>
        <time>2020-08-05T23:55:15Z</time>
      </trkpt>
      <trkpt lat="42.45871" lon="2.64254">
        <ele>298</ele>
        <time>2020-08-05T23:55:27Z</time>
      </trkpt>
      <trkpt lat="42.45859" lon="2.64262">
        <ele>300</ele>
        <time>2020-08-05T23:55:33Z</time>
      </trkpt>
      <trkpt lat="42.45803" lon="2.64281">
        <ele>308</ele>
        <time>2020-08-05T23:56:02Z</time>
      </trkpt>
      <trkpt lat="42.45799" lon="2.64285">
        <ele>308</ele>
        <time>2020-08-05T23:56:05Z</time>
      </trkpt>
      <trkpt lat="42.45787" lon="2.64311">
        <ele>311</ele>
        <time>2020-08-05T23:56:16Z</time>
      </trkpt>
      <trkpt lat="42.45781" lon="2.64317">
        <ele>312</ele>
        <time>2020-08-05T23:56:20Z</time>
      </trkpt>
      <trkpt lat="42.45777" lon="2.64315">
        <ele>312</ele>
        <time>2020-08-05T23:56:22Z</time>
      </trkpt>
      <trkpt lat="42.45774" lon="2.64308">
        <ele>312</ele>
        <time>2020-08-05T23:56:25Z</time>
      </trkpt>
      <trkpt lat="42.45775" lon="2.64297">
        <ele>311</ele>
        <time>2020-08-05T23:56:29Z</time>
      </trkpt>
      <trkpt lat="42.45782" lon="2.64276">
        <ele>310</ele>
        <time>2020-08-05T23:56:38Z</time>
      </trkpt>
      <trkpt lat="42.45781" lon="2.64269">
        <ele>309</ele>
        <time>2020-08-05T23:56:40Z</time>
      </trkpt>
      <trkpt lat="42.45765" lon="2.64231">
        <ele>309</ele>
        <time>2020-08-05T23:56:56Z</time>
      </trkpt>
      <trkpt lat="42.45757" lon="2.64221">
        <ele>309</ele>
        <time>2020-08-05T23:57:02Z</time>
      </trkpt>
      <trkpt lat="42.45746" lon="2.64217">
        <ele>309</ele>
        <time>2020-08-05T23:57:08Z</time>
      </trkpt>
      <trkpt lat="42.45738" lon="2.6422">
        <ele>310</ele>
        <time>2020-08-05T23:57:12Z</time>
      </trkpt>
      <trkpt lat="42.45728" lon="2.64229">
        <ele>312</ele>
        <time>2020-08-05T23:57:18Z</time>
      </trkpt>
      <trkpt lat="42.4572" lon="2.64241">
        <ele>314</ele>
        <time>2020-08-05T23:57:24Z</time>
      </trkpt>
      <trkpt lat="42.4571" lon="2.64294">
        <ele>319</ele>
        <time>2020-08-05T23:57:44Z</time>
      </trkpt>
      <trkpt lat="42.45709" lon="2.64336">
        <ele>323</ele>
        <time>2020-08-05T23:57:59Z</time>
      </trkpt>
      <trkpt lat="42.45706" lon="2.64346">
        <ele>324</ele>
        <time>2020-08-05T23:58:03Z</time>
      </trkpt>
      <trkpt lat="42.45699" lon="2.64347">
        <ele>325</ele>
        <time>2020-08-05T23:58:07Z</time>
      </trkpt>
      <trkpt lat="42.45686" lon="2.64342">
        <ele>327</ele>
        <time>2020-08-05T23:58:14Z</time>
      </trkpt>
      <trkpt lat="42.45676" lon="2.64325">
        <ele>327</ele>
        <time>2020-08-05T23:58:22Z</time>
      </trkpt>
      <trkpt lat="42.45663" lon="2.64314">
        <ele>328</ele>
        <time>2020-08-05T23:58:29Z</time>
      </trkpt>
      <trkpt lat="42.45633" lon="2.64306">
        <ele>330</ele>
        <time>2020-08-05T23:58:45Z</time>
      </trkpt>
      <trkpt lat="42.4562" lon="2.64293">
        <ele>330</ele>
        <time>2020-08-05T23:58:53Z</time>
      </trkpt>
      <trkpt lat="42.45605" lon="2.64285">
        <ele>331</ele>
        <time>2020-08-05T23:59:01Z</time>
      </trkpt>
      <trkpt lat="42.45569" lon="2.64274">
        <ele>333</ele>
        <time>2020-08-05T23:59:19Z</time>
      </trkpt>
      <trkpt lat="42.45557" lon="2.64275">
        <ele>334</ele>
        <time>2020-08-05T23:59:25Z</time>
      </trkpt>
      <trkpt lat="42.45541" lon="2.6427">
        <ele>334</ele>
        <time>2020-08-05T23:59:34Z</time>
      </trkpt>
      <trkpt lat="42.45532" lon="2.64286">
        <ele>337</ele>
        <time>2020-08-05T23:59:41Z</time>
      </trkpt>
      <trkpt lat="42.45529" lon="2.64286">
        <ele>337</ele>
        <time>2020-08-05T23:59:42Z</time>
      </trkpt>
      <trkpt lat="42.45524" lon="2.64295">
        <ele>338</ele>
        <time>2020-08-05T23:59:47Z</time>
      </trkpt>
      <trkpt lat="42.45518" lon="2.64297">
        <ele>339</ele>
        <time>2020-08-05T23:59:50Z</time>
      </trkpt>
      <trkpt lat="42.45518" lon="2.64312">
        <ele>340</ele>
        <time>2020-08-05T23:59:55Z</time>
      </trkpt>
      <trkpt lat="42.45514" lon="2.64319">
        <ele>341</ele>
        <time>2020-08-05T23:59:59Z</time>
      </trkpt>
      <trkpt lat="42.45509" lon="2.64318">
        <ele>342</ele>
        <time>2020-08-06T00:00:01Z</time>
      </trkpt>
      <trkpt lat="42.45488" lon="2.64303">
        <ele>344</ele>
        <time>2020-08-06T00:00:13Z</time>
      </trkpt>
      <trkpt lat="42.45487" lon="2.64312">
        <ele>345</ele>
        <time>2020-08-06T00:00:16Z</time>
      </trkpt>
      <trkpt lat="42.45485" lon="2.64311">
        <ele>346</ele>
        <time>2020-08-06T00:00:17Z</time>
      </trkpt>
      <trkpt lat="42.45491" lon="2.64324">
        <ele>345</ele>
        <time>2020-08-06T00:00:23Z</time>
      </trkpt>
      <trkpt lat="42.45483" lon="2.64328">
        <ele>348</ele>
        <time>2020-08-06T00:00:27Z</time>
      </trkpt>
      <trkpt lat="42.45478" lon="2.64343">
        <ele>351</ele>
        <time>2020-08-06T00:00:33Z</time>
      </trkpt>
      <trkpt lat="42.45479" lon="2.64388">
        <ele>355</ele>
        <time>2020-08-06T00:00:50Z</time>
      </trkpt>
      <trkpt lat="42.45467" lon="2.6446">
        <ele>364</ele>
        <time>2020-08-06T00:01:17Z</time>
      </trkpt>
      <trkpt lat="42.45464" lon="2.64462">
        <ele>364</ele>
        <time>2020-08-06T00:01:19Z</time>
      </trkpt>
      <trkpt lat="42.45459" lon="2.64441">
        <ele>365</ele>
        <time>2020-08-06T00:01:27Z</time>
      </trkpt>
      <trkpt lat="42.45457" lon="2.6444">
        <ele>365</ele>
        <time>2020-08-06T00:01:28Z</time>
      </trkpt>
      <trkpt lat="42.45445" lon="2.64457">
        <ele>369</ele>
        <time>2020-08-06T00:01:37Z</time>
      </trkpt>
      <trkpt lat="42.45434" lon="2.64462">
        <ele>371</ele>
        <time>2020-08-06T00:01:43Z</time>
      </trkpt>
      <trkpt lat="42.45391" lon="2.64503">
        <ele>386</ele>
        <time>2020-08-06T00:02:09Z</time>
      </trkpt>
      <trkpt lat="42.45376" lon="2.64513">
        <ele>392</ele>
        <time>2020-08-06T00:02:17Z</time>
      </trkpt>
      <trkpt lat="42.45372" lon="2.64512">
        <ele>393</ele>
        <time>2020-08-06T00:02:19Z</time>
      </trkpt>
      <trkpt lat="42.45369" lon="2.64503">
        <ele>394</ele>
        <time>2020-08-06T00:02:23Z</time>
      </trkpt>
      <trkpt lat="42.45364" lon="2.64502">
        <ele>396</ele>
        <time>2020-08-06T00:02:26Z</time>
      </trkpt>
      <trkpt lat="42.45351" lon="2.64511">
        <ele>401</ele>
        <time>2020-08-06T00:02:33Z</time>
      </trkpt>
      <trkpt lat="42.45332" lon="2.64532">
        <ele>408</ele>
        <time>2020-08-06T00:02:45Z</time>
      </trkpt>
      <trkpt lat="42.45328" lon="2.64525">
        <ele>409</ele>
        <time>2020-08-06T00:02:48Z</time>
      </trkpt>
      <trkpt lat="42.45317" lon="2.64536">
        <ele>412</ele>
        <time>2020-08-06T00:02:55Z</time>
      </trkpt>
      <trkpt lat="42.45313" lon="2.64534">
        <ele>413</ele>
        <time>2020-08-06T00:02:57Z</time>
      </trkpt>
      <trkpt lat="42.45307" lon="2.64535">
        <ele>415</ele>
        <time>2020-08-06T00:03:00Z</time>
      </trkpt>
      <trkpt lat="42.45299" lon="2.64542">
        <ele>418</ele>
        <time>2020-08-06T00:03:05Z</time>
      </trkpt>
      <trkpt lat="42.45295" lon="2.64535">
        <ele>418</ele>
        <time>2020-08-06T00:03:08Z</time>
      </trkpt>
      <trkpt lat="42.45288" lon="2.64535">
        <ele>420</ele>
        <time>2020-08-06T00:03:12Z</time>
      </trkpt>
      <trkpt lat="42.45269" lon="2.64561">
        <ele>430</ele>
        <time>2020-08-06T00:03:25Z</time>
      </trkpt>
      <trkpt lat="42.45265" lon="2.64581">
        <ele>436</ele>
        <time>2020-08-06T00:03:33Z</time>
      </trkpt>
      <trkpt lat="42.4526" lon="2.64589">
        <ele>439</ele>
        <time>2020-08-06T00:03:37Z</time>
      </trkpt>
      <trkpt lat="42.45256" lon="2.64614">
        <ele>446</ele>
        <time>2020-08-06T00:03:46Z</time>
      </trkpt>
      <trkpt lat="42.45251" lon="2.64622">
        <ele>450</ele>
        <time>2020-08-06T00:03:50Z</time>
      </trkpt>
      <trkpt lat="42.4525" lon="2.64632">
        <ele>453</ele>
        <time>2020-08-06T00:03:54Z</time>
      </trkpt>
      <trkpt lat="42.45241" lon="2.64636">
        <ele>457</ele>
        <time>2020-08-06T00:03:59Z</time>
      </trkpt>
      <trkpt lat="42.45233" lon="2.64632">
        <ele>459</ele>
        <time>2020-08-06T00:04:03Z</time>
      </trkpt>
      <trkpt lat="42.45227" lon="2.64638">
        <ele>463</ele>
        <time>2020-08-06T00:04:07Z</time>
      </trkpt>
      <trkpt lat="42.45221" lon="2.64635">
        <ele>464</ele>
        <time>2020-08-06T00:04:10Z</time>
      </trkpt>
      <trkpt lat="42.45215" lon="2.64645">
        <ele>469</ele>
        <time>2020-08-06T00:04:15Z</time>
      </trkpt>
      <trkpt lat="42.45208" lon="2.6465">
        <ele>472</ele>
        <time>2020-08-06T00:04:19Z</time>
      </trkpt>
      <trkpt lat="42.45204" lon="2.64656">
        <ele>475</ele>
        <time>2020-08-06T00:04:22Z</time>
      </trkpt>
      <trkpt lat="42.45206" lon="2.64665">
        <ele>477</ele>
        <time>2020-08-06T00:04:25Z</time>
      </trkpt>
      <trkpt lat="42.45221" lon="2.6468">
        <ele>474</ele>
        <time>2020-08-06T00:04:34Z</time>
      </trkpt>
      <trkpt lat="42.45196" lon="2.64692">
        <ele>486</ele>
        <time>2020-08-06T00:04:48Z</time>
      </trkpt>
      <trkpt lat="42.45189" lon="2.64691">
        <ele>488</ele>
        <time>2020-08-06T00:04:51Z</time>
      </trkpt>
      <trkpt lat="42.45185" lon="2.64695">
        <ele>490</ele>
        <time>2020-08-06T00:04:54Z</time>
      </trkpt>
      <trkpt lat="42.45199" lon="2.6471">
        <ele>488</ele>
        <time>2020-08-06T00:05:03Z</time>
      </trkpt>
      <trkpt lat="42.45197" lon="2.64714">
        <ele>489</ele>
        <time>2020-08-06T00:05:04Z</time>
      </trkpt>
      <trkpt lat="42.45189" lon="2.64718">
        <ele>493</ele>
        <time>2020-08-06T00:05:09Z</time>
      </trkpt>
      <trkpt lat="42.45181" lon="2.64717">
        <ele>496</ele>
        <time>2020-08-06T00:05:13Z</time>
      </trkpt>
      <trkpt lat="42.45181" lon="2.64725">
        <ele>497</ele>
        <time>2020-08-06T00:05:16Z</time>
      </trkpt>
      <trkpt lat="42.45178" lon="2.64729">
        <ele>499</ele>
        <time>2020-08-06T00:05:18Z</time>
      </trkpt>
      <trkpt lat="42.45173" lon="2.64727">
        <ele>500</ele>
        <time>2020-08-06T00:05:20Z</time>
      </trkpt>
      <trkpt lat="42.45173" lon="2.6474">
        <ele>503</ele>
        <time>2020-08-06T00:05:25Z</time>
      </trkpt>
      <trkpt lat="42.45168" lon="2.64736">
        <ele>504</ele>
        <time>2020-08-06T00:05:28Z</time>
      </trkpt>
      <trkpt lat="42.45146" lon="2.64728">
        <ele>513</ele>
        <time>2020-08-06T00:05:39Z</time>
      </trkpt>
      <trkpt lat="42.4513" lon="2.6473">
        <ele>520</ele>
        <time>2020-08-06T00:05:48Z</time>
      </trkpt>
      <trkpt lat="42.45134" lon="2.64739">
        <ele>521</ele>
        <time>2020-08-06T00:05:51Z</time>
      </trkpt>
      <trkpt lat="42.45126" lon="2.64739">
        <ele>524</ele>
        <time>2020-08-06T00:05:55Z</time>
      </trkpt>
      <trkpt lat="42.45116" lon="2.64728">
        <ele>527</ele>
        <time>2020-08-06T00:06:02Z</time>
      </trkpt>
      <trkpt lat="42.45092" lon="2.64731">
        <ele>538</ele>
        <time>2020-08-06T00:06:14Z</time>
      </trkpt>
      <trkpt lat="42.45085" lon="2.64735">
        <ele>543</ele>
        <time>2020-08-06T00:06:18Z</time>
      </trkpt>
      <trkpt lat="42.45091" lon="2.64741">
        <ele>542</ele>
        <time>2020-08-06T00:06:21Z</time>
      </trkpt>
      <trkpt lat="42.45076" lon="2.6475">
        <ele>551</ele>
        <time>2020-08-06T00:06:30Z</time>
      </trkpt>
      <trkpt lat="42.4508" lon="2.64756">
        <ele>550</ele>
        <time>2020-08-06T00:06:33Z</time>
      </trkpt>
      <trkpt lat="42.45088" lon="2.64759">
        <ele>547</ele>
        <time>2020-08-06T00:06:37Z</time>
      </trkpt>
      <trkpt lat="42.45074" lon="2.64772">
        <ele>555</ele>
        <time>2020-08-06T00:06:45Z</time>
      </trkpt>
      <trkpt lat="42.45084" lon="2.64776">
        <ele>551</ele>
        <time>2020-08-06T00:06:50Z</time>
      </trkpt>
      <trkpt lat="42.45078" lon="2.64788">
        <ele>556</ele>
        <time>2020-08-06T00:06:56Z</time>
      </trkpt>
      <trkpt lat="42.45082" lon="2.64793">
        <ele>555</ele>
        <time>2020-08-06T00:06:59Z</time>
      </trkpt>
      <trkpt lat="42.45066" lon="2.64797">
        <ele>563</ele>
        <time>2020-08-06T00:07:07Z</time>
      </trkpt>
      <trkpt lat="42.45065" lon="2.64806">
        <ele>565</ele>
        <time>2020-08-06T00:07:10Z</time>
      </trkpt>
      <trkpt lat="42.45053" lon="2.64805">
        <ele>571</ele>
        <time>2020-08-06T00:07:16Z</time>
      </trkpt>
      <trkpt lat="42.45046" lon="2.64815">
        <ele>577</ele>
        <time>2020-08-06T00:07:21Z</time>
      </trkpt>
      <trkpt lat="42.45041" lon="2.64818">
        <ele>580</ele>
        <time>2020-08-06T00:07:24Z</time>
      </trkpt>
      <trkpt lat="42.45045" lon="2.64829">
        <ele>580</ele>
        <time>2020-08-06T00:07:28Z</time>
      </trkpt>
      <trkpt lat="42.45042" lon="2.64838">
        <ele>582</ele>
        <time>2020-08-06T00:07:32Z</time>
      </trkpt>
      <trkpt lat="42.45029" lon="2.64858">
        <ele>588</ele>
        <time>2020-08-06T00:07:42Z</time>
      </trkpt>
      <trkpt lat="42.45014" lon="2.6489">
        <ele>597</ele>
        <time>2020-08-06T00:07:56Z</time>
      </trkpt>
      <trkpt lat="42.45008" lon="2.64896">
        <ele>601</ele>
        <time>2020-08-06T00:08:00Z</time>
      </trkpt>
      <trkpt lat="42.45008" lon="2.64879">
        <ele>601</ele>
        <time>2020-08-06T00:08:06Z</time>
      </trkpt>
      <trkpt lat="42.45004" lon="2.6488">
        <ele>603</ele>
        <time>2020-08-06T00:08:08Z</time>
      </trkpt>
      <trkpt lat="42.4499" lon="2.649">
        <ele>612</ele>
        <time>2020-08-06T00:08:18Z</time>
      </trkpt>
      <trkpt lat="42.44991" lon="2.64875">
        <ele>611</ele>
        <time>2020-08-06T00:08:27Z</time>
      </trkpt>
      <trkpt lat="42.44974" lon="2.64855">
        <ele>619</ele>
        <time>2020-08-06T00:08:39Z</time>
      </trkpt>
      <trkpt lat="42.44965" lon="2.64849">
        <ele>623</ele>
        <time>2020-08-06T00:08:44Z</time>
      </trkpt>
      <trkpt lat="42.44954" lon="2.64828">
        <ele>625</ele>
        <time>2020-08-06T00:08:53Z</time>
      </trkpt>
      <trkpt lat="42.44949" lon="2.64826">
        <ele>627</ele>
        <time>2020-08-06T00:08:56Z</time>
      </trkpt>
      <trkpt lat="42.44931" lon="2.64833">
        <ele>637</ele>
        <time>2020-08-06T00:09:05Z</time>
      </trkpt>
      <trkpt lat="42.44924" lon="2.64833">
        <ele>641</ele>
        <time>2020-08-06T00:09:09Z</time>
      </trkpt>
      <trkpt lat="42.44921" lon="2.64845">
        <ele>644</ele>
        <time>2020-08-06T00:09:13Z</time>
      </trkpt>
      <trkpt lat="42.44906" lon="2.64849">
        <ele>652</ele>
        <time>2020-08-06T00:09:21Z</time>
      </trkpt>
      <trkpt lat="42.44911" lon="2.64858">
        <ele>651</ele>
        <time>2020-08-06T00:09:25Z</time>
      </trkpt>
      <trkpt lat="42.44901" lon="2.64856">
        <ele>656</ele>
        <time>2020-08-06T00:09:30Z</time>
      </trkpt>
      <trkpt lat="42.44892" lon="2.64858">
        <ele>661</ele>
        <time>2020-08-06T00:09:35Z</time>
      </trkpt>
      <trkpt lat="42.44887" lon="2.64864">
        <ele>665</ele>
        <time>2020-08-06T00:09:38Z</time>
      </trkpt>
      <trkpt lat="42.44892" lon="2.64872">
        <ele>663</ele>
        <time>2020-08-06T00:09:42Z</time>
      </trkpt>
      <trkpt lat="42.44882" lon="2.6487">
        <ele>668</ele>
        <time>2020-08-06T00:09:47Z</time>
      </trkpt>
      <trkpt lat="42.44887" lon="2.64882">
        <ele>667</ele>
        <time>2020-08-06T00:09:52Z</time>
      </trkpt>
      <trkpt lat="42.44903" lon="2.64896">
        <ele>661</ele>
        <time>2020-08-06T00:10:02Z</time>
      </trkpt>
      <trkpt lat="42.44896" lon="2.64918">
        <ele>668</ele>
        <time>2020-08-06T00:10:11Z</time>
      </trkpt>
      <trkpt lat="42.44873" lon="2.64942">
        <ele>676</ele>
        <time>2020-08-06T00:10:25Z</time>
      </trkpt>
      <trkpt lat="42.44826" lon="2.64955">
        <ele>701</ele>
        <time>2020-08-06T00:10:49Z</time>
      </trkpt>
      <trkpt lat="42.44804" lon="2.64973">
        <ele>713</ele>
        <time>2020-08-06T00:11:02Z</time>
      </trkpt>
      <trkpt lat="42.44802" lon="2.64984">
        <ele>713</ele>
        <time>2020-08-06T00:11:06Z</time>
      </trkpt>
      <trkpt lat="42.44792" lon="2.65003">
        <ele>718</ele>
        <time>2020-08-06T00:11:15Z</time>
      </trkpt>
      <trkpt lat="42.44785" lon="2.65039">
        <ele>721</ele>
        <time>2020-08-06T00:11:28Z</time>
      </trkpt>
      <trkpt lat="42.4478" lon="2.65047">
        <ele>724</ele>
        <time>2020-08-06T00:11:32Z</time>
      </trkpt>
      <trkpt lat="42.44781" lon="2.65061">
        <ele>723</ele>
        <time>2020-08-06T00:11:38Z</time>
      </trkpt>
      <trkpt lat="42.44787" lon="2.65071">
        <ele>719</ele>
        <time>2020-08-06T00:11:42Z</time>
      </trkpt>
      <trkpt lat="42.44789" lon="2.65084">
        <ele>717</ele>
        <time>2020-08-06T00:11:47Z</time>
      </trkpt>
      <trkpt lat="42.4477" lon="2.65066">
        <ele>730</ele>
        <time>2020-08-06T00:11:59Z</time>
      </trkpt>
      <trkpt lat="42.44769" lon="2.65072">
        <ele>731</ele>
        <time>2020-08-06T00:12:01Z</time>
      </trkpt>
      <trkpt lat="42.44773" lon="2.65086">
        <ele>727</ele>
        <time>2020-08-06T00:12:07Z</time>
      </trkpt>
      <trkpt lat="42.44773" lon="2.65097">
        <ele>726</ele>
        <time>2020-08-06T00:12:11Z</time>
      </trkpt>
      <trkpt lat="42.44767" lon="2.651">
        <ele>730</ele>
        <time>2020-08-06T00:12:14Z</time>
      </trkpt>
      <trkpt lat="42.44765" lon="2.65123">
        <ele>728</ele>
        <time>2020-08-06T00:12:22Z</time>
      </trkpt>
      <trkpt lat="42.44759" lon="2.65122">
        <ele>732</ele>
        <time>2020-08-06T00:12:25Z</time>
      </trkpt>
      <trkpt lat="42.44756" lon="2.65113">
        <ele>735</ele>
        <time>2020-08-06T00:12:29Z</time>
      </trkpt>
      <trkpt lat="42.4475" lon="2.65108">
        <ele>740</ele>
        <time>2020-08-06T00:12:33Z</time>
      </trkpt>
      <trkpt lat="42.44751" lon="2.65125">
        <ele>737</ele>
        <time>2020-08-06T00:12:39Z</time>
      </trkpt>
      <trkpt lat="42.44747" lon="2.65131">
        <ele>739</ele>
        <time>2020-08-06T00:12:42Z</time>
      </trkpt>
      <trkpt lat="42.44742" lon="2.65125">
        <ele>743</ele>
        <time>2020-08-06T00:12:45Z</time>
      </trkpt>
      <trkpt lat="42.4473" lon="2.6514">
        <ele>747</ele>
        <time>2020-08-06T00:12:53Z</time>
      </trkpt>
      <trkpt lat="42.44721" lon="2.6514">
        <ele>753</ele>
        <time>2020-08-06T00:12:58Z</time>
      </trkpt>
      <trkpt lat="42.44695" lon="2.65134">
        <ele>768</ele>
        <time>2020-08-06T00:13:11Z</time>
      </trkpt>
      <trkpt lat="42.44686" lon="2.65135">
        <ele>773</ele>
        <time>2020-08-06T00:13:16Z</time>
      </trkpt>
      <trkpt lat="42.44679" lon="2.65149">
        <ele>775</ele>
        <time>2020-08-06T00:13:22Z</time>
      </trkpt>
      <trkpt lat="42.44672" lon="2.65157">
        <ele>778</ele>
        <time>2020-08-06T00:13:26Z</time>
      </trkpt>
      <trkpt lat="42.44658" lon="2.65166">
        <ele>785</ele>
        <time>2020-08-06T00:13:34Z</time>
      </trkpt>
      <trkpt lat="42.44655" lon="2.65177">
        <ele>786</ele>
        <time>2020-08-06T00:13:39Z</time>
      </trkpt>
      <trkpt lat="42.44658" lon="2.65185">
        <ele>784</ele>
        <time>2020-08-06T00:13:42Z</time>
      </trkpt>
      <trkpt lat="42.44655" lon="2.65201">
        <ele>785</ele>
        <time>2020-08-06T00:13:48Z</time>
      </trkpt>
      <trkpt lat="42.44645" lon="2.65201">
        <ele>791</ele>
        <time>2020-08-06T00:13:53Z</time>
      </trkpt>
      <trkpt lat="42.44653" lon="2.65219">
        <ele>786</ele>
        <time>2020-08-06T00:14:01Z</time>
      </trkpt>
      <trkpt lat="42.44645" lon="2.65272">
        <ele>787</ele>
        <time>2020-08-06T00:14:21Z</time>
      </trkpt>
      <trkpt lat="42.44584" lon="2.65356">
        <ele>803</ele>
        <time>2020-08-06T00:15:04Z</time>
      </trkpt>
      <trkpt lat="42.44577" lon="2.65364">
        <ele>802</ele>
        <time>2020-08-06T00:15:09Z</time>
      </trkpt>
      <trkpt lat="42.44559" lon="2.65368">
        <ele>804</ele>
        <time>2020-08-06T00:15:18Z</time>
      </trkpt>
      <trkpt lat="42.44526" lon="2.65358">
        <ele>813</ele>
        <time>2020-08-06T00:15:35Z</time>
      </trkpt>
      <trkpt lat="42.44486" lon="2.6536">
        <ele>821</ele>
        <time>2020-08-06T00:15:55Z</time>
      </trkpt>
      <trkpt lat="42.44463" lon="2.65355">
        <ele>828</ele>
        <time>2020-08-06T00:16:07Z</time>
      </trkpt>
      <trkpt lat="42.44457" lon="2.65357">
        <ele>830</ele>
        <time>2020-08-06T00:16:10Z</time>
      </trkpt>
      <trkpt lat="42.4445" lon="2.65367">
        <ele>830</ele>
        <time>2020-08-06T00:16:15Z</time>
      </trkpt>
      <trkpt lat="42.44446" lon="2.65383">
        <ele>829</ele>
        <time>2020-08-06T00:16:21Z</time>
      </trkpt>
      <trkpt lat="42.44445" lon="2.65433">
        <ele>823</ele>
        <time>2020-08-06T00:16:39Z</time>
      </trkpt>
      <trkpt lat="42.44432" lon="2.65449">
        <ele>827</ele>
        <time>2020-08-06T00:16:48Z</time>
      </trkpt>
      <trkpt lat="42.44423" lon="2.65483">
        <ele>828</ele>
        <time>2020-08-06T00:17:02Z</time>
      </trkpt>
      <trkpt lat="42.44418" lon="2.65495">
        <ele>829</ele>
        <time>2020-08-06T00:17:07Z</time>
      </trkpt>
      <trkpt lat="42.4441" lon="2.65504">
        <ele>832</ele>
        <time>2020-08-06T00:17:12Z</time>
      </trkpt>
      <trkpt lat="42.44408" lon="2.65483">
        <ele>834</ele>
        <time>2020-08-06T00:17:20Z</time>
      </trkpt>
      <trkpt lat="42.44378" lon="2.655">
        <ele>843</ele>
        <time>2020-08-06T00:17:36Z</time>
      </trkpt>
      <trkpt lat="42.44309" lon="2.65527">
        <ele>865</ele>
        <time>2020-08-06T00:18:12Z</time>
      </trkpt>
      <trkpt lat="42.44285" lon="2.65533">
        <ele>870</ele>
        <time>2020-08-06T00:18:24Z</time>
      </trkpt>
      <trkpt lat="42.44263" lon="2.65531">
        <ele>876</ele>
        <time>2020-08-06T00:18:35Z</time>
      </trkpt>
      <trkpt lat="42.44248" lon="2.65524">
        <ele>881</ele>
        <time>2020-08-06T00:18:43Z</time>
      </trkpt>
      <trkpt lat="42.44232" lon="2.65544">
        <ele>884</ele>
        <time>2020-08-06T00:18:54Z</time>
      </trkpt>
      <trkpt lat="42.44215" lon="2.65573">
        <ele>888</ele>
        <time>2020-08-06T00:19:08Z</time>
      </trkpt>
      <trkpt lat="42.44221" lon="2.65621">
        <ele>891</ele>
        <time>2020-08-06T00:19:26Z</time>
      </trkpt>
      <trkpt lat="42.44213" lon="2.65682">
        <ele>900</ele>
        <time>2020-08-06T00:19:48Z</time>
      </trkpt>
      <trkpt lat="42.44202" lon="2.65703">
        <ele>902</ele>
        <time>2020-08-06T00:19:58Z</time>
      </trkpt>
      <trkpt lat="42.44188" lon="2.65716">
        <ele>902</ele>
        <time>2020-08-06T00:20:06Z</time>
      </trkpt>
      <trkpt lat="42.44179" lon="2.65721">
        <ele>901</ele>
        <time>2020-08-06T00:20:11Z</time>
      </trkpt>
      <trkpt lat="42.44147" lon="2.65724">
        <ele>898</ele>
        <time>2020-08-06T00:20:27Z</time>
      </trkpt>
      <trkpt lat="42.44147" lon="2.65726">
        <ele>898</ele>
        <time>2020-08-06T00:20:28Z</time>
      </trkpt>
      <trkpt lat="42.44129" lon="2.65723">
        <ele>897</ele>
        <time>2020-08-06T00:20:37Z</time>
      </trkpt>
      <trkpt lat="42.44093" lon="2.65722">
        <ele>896</ele>
        <time>2020-08-06T00:20:55Z</time>
      </trkpt>
      <trkpt lat="42.44073" lon="2.65725">
        <ele>895</ele>
        <time>2020-08-06T00:21:05Z</time>
      </trkpt>
      <trkpt lat="42.44059" lon="2.65731">
        <ele>894</ele>
        <time>2020-08-06T00:21:13Z</time>
      </trkpt>
      <trkpt lat="42.43999" lon="2.65776">
        <ele>881</ele>
        <time>2020-08-06T00:21:47Z</time>
      </trkpt>
      <trkpt lat="42.43989" lon="2.65804">
        <ele>870</ele>
        <time>2020-08-06T00:21:58Z</time>
      </trkpt>
      <trkpt lat="42.43984" lon="2.65809">
        <ele>869</ele>
        <time>2020-08-06T00:22:02Z</time>
      </trkpt>
      <trkpt lat="42.43955" lon="2.65823">
        <ele>866</ele>
        <time>2020-08-06T00:22:17Z</time>
      </trkpt>
      <trkpt lat="42.43928" lon="2.65827">
        <ele>868</ele>
        <time>2020-08-06T00:22:31Z</time>
      </trkpt>
      <trkpt lat="42.43907" lon="2.65795">
        <ele>883</ele>
        <time>2020-08-06T00:22:46Z</time>
      </trkpt>
      <trkpt lat="42.43889" lon="2.65782">
        <ele>888</ele>
        <time>2020-08-06T00:22:57Z</time>
      </trkpt>
      <trkpt lat="42.43861" lon="2.65786">
        <ele>884</ele>
        <time>2020-08-06T00:23:11Z</time>
      </trkpt>
      <trkpt lat="42.43844" lon="2.65794">
        <ele>878</ele>
        <time>2020-08-06T00:23:20Z</time>
      </trkpt>
      <trkpt lat="42.43826" lon="2.65791">
        <ele>879</ele>
        <time>2020-08-06T00:23:29Z</time>
      </trkpt>
      <trkpt lat="42.43803" lon="2.65779">
        <ele>884</ele>
        <time>2020-08-06T00:23:41Z</time>
      </trkpt>
      <trkpt lat="42.43774" lon="2.6579">
        <ele>878</ele>
        <time>2020-08-06T00:23:56Z</time>
      </trkpt>
      <trkpt lat="42.43743" lon="2.65795">
        <ele>877</ele>
        <time>2020-08-06T00:24:12Z</time>
      </trkpt>
      <trkpt lat="42.43708" lon="2.65814">
        <ele>878</ele>
        <time>2020-08-06T00:24:31Z</time>
      </trkpt>
      <trkpt lat="42.43678" lon="2.6584">
        <ele>877</ele>
        <time>2020-08-06T00:24:48Z</time>
      </trkpt>
      <trkpt lat="42.43661" lon="2.65866">
        <ele>873</ele>
        <time>2020-08-06T00:25:01Z</time>
      </trkpt>
      <trkpt lat="42.43651" lon="2.659">
        <ele>864</ele>
        <time>2020-08-06T00:25:15Z</time>
      </trkpt>
      <trkpt lat="42.43639" lon="2.65916">
        <ele>862</ele>
        <time>2020-08-06T00:25:23Z</time>
      </trkpt>
      <trkpt lat="42.43604" lon="2.65926">
        <ele>871</ele>
        <time>2020-08-06T00:25:41Z</time>
      </trkpt>
      <trkpt lat="42.43584" lon="2.65943">
        <ele>876</ele>
        <time>2020-08-06T00:25:53Z</time>
      </trkpt>
      <trkpt lat="42.43578" lon="2.65966">
        <ele>876</ele>
        <time>2020-08-06T00:26:02Z</time>
      </trkpt>
      <trkpt lat="42.43579" lon="2.6598">
        <ele>875</ele>
        <time>2020-08-06T00:26:07Z</time>
      </trkpt>
      <trkpt lat="42.43585" lon="2.65996">
        <ele>871</ele>
        <time>2020-08-06T00:26:14Z</time>
      </trkpt>
      <trkpt lat="42.43611" lon="2.66047">
        <ele>869</ele>
        <time>2020-08-06T00:26:37Z</time>
      </trkpt>
      <trkpt lat="42.43659" lon="2.66082">
        <ele>862</ele>
        <time>2020-08-06T00:27:04Z</time>
      </trkpt>
      <trkpt lat="42.4367" lon="2.66122">
        <ele>861</ele>
        <time>2020-08-06T00:27:20Z</time>
      </trkpt>
      <trkpt lat="42.43673" lon="2.66218">
        <ele>860</ele>
        <time>2020-08-06T00:27:55Z</time>
      </trkpt>
      <trkpt lat="42.43655" lon="2.66212">
        <ele>862</ele>
        <time>2020-08-06T00:28:04Z</time>
      </trkpt>
      <trkpt lat="42.43634" lon="2.66212">
        <ele>862</ele>
        <time>2020-08-06T00:28:15Z</time>
      </trkpt>
      <trkpt lat="42.43585" lon="2.66219">
        <ele>862</ele>
        <time>2020-08-06T00:28:40Z</time>
      </trkpt>
      <trkpt lat="42.43559" lon="2.66219">
        <ele>864</ele>
        <time>2020-08-06T00:28:53Z</time>
      </trkpt>
      <trkpt lat="42.43524" lon="2.66213">
        <ele>869</ele>
        <time>2020-08-06T00:29:10Z</time>
      </trkpt>
      <trkpt lat="42.43506" lon="2.66219">
        <ele>869</ele>
        <time>2020-08-06T00:29:20Z</time>
      </trkpt>
      <trkpt lat="42.43464" lon="2.66227">
        <ele>875</ele>
        <time>2020-08-06T00:29:41Z</time>
      </trkpt>
      <trkpt lat="42.43459" lon="2.66236">
        <ele>874</ele>
        <time>2020-08-06T00:29:45Z</time>
      </trkpt>
      <trkpt lat="42.43467" lon="2.6632">
        <ele>863</ele>
        <time>2020-08-06T00:30:16Z</time>
      </trkpt>
      <trkpt lat="42.43467" lon="2.66341">
        <ele>860</ele>
        <time>2020-08-06T00:30:24Z</time>
      </trkpt>
      <trkpt lat="42.43464" lon="2.66355">
        <ele>859</ele>
        <time>2020-08-06T00:30:29Z</time>
      </trkpt>
      <trkpt lat="42.43459" lon="2.66365">
        <ele>859</ele>
        <time>2020-08-06T00:30:34Z</time>
      </trkpt>
      <trkpt lat="42.43408" lon="2.66406">
        <ele>861</ele>
        <time>2020-08-06T00:31:04Z</time>
      </trkpt>
      <trkpt lat="42.43384" lon="2.66446">
        <ele>851</ele>
        <time>2020-08-06T00:31:23Z</time>
      </trkpt>
      <trkpt lat="42.43381" lon="2.66464">
        <ele>847</ele>
        <time>2020-08-06T00:31:29Z</time>
      </trkpt>
      <trkpt lat="42.43379" lon="2.6653">
        <ele>836</ele>
        <time>2020-08-06T00:31:54Z</time>
      </trkpt>
      <trkpt lat="42.43383" lon="2.6656">
        <ele>832</ele>
        <time>2020-08-06T00:32:05Z</time>
      </trkpt>
      <trkpt lat="42.43387" lon="2.66567">
        <ele>832</ele>
        <time>2020-08-06T00:32:08Z</time>
      </trkpt>
      <trkpt lat="42.43395" lon="2.66571">
        <ele>834</ele>
        <time>2020-08-06T00:32:13Z</time>
      </trkpt>
      <trkpt lat="42.43406" lon="2.66571">
        <ele>837</ele>
        <time>2020-08-06T00:32:18Z</time>
      </trkpt>
      <trkpt lat="42.43424" lon="2.66562">
        <ele>840</ele>
        <time>2020-08-06T00:32:28Z</time>
      </trkpt>
      <trkpt lat="42.43428" lon="2.66564">
        <ele>839</ele>
        <time>2020-08-06T00:32:30Z</time>
      </trkpt>
      <trkpt lat="42.43498" lon="2.66742">
        <ele>821</ele>
        <time>2020-08-06T00:33:44Z</time>
      </trkpt>
      <trkpt lat="42.43493" lon="2.66744">
        <ele>820</ele>
        <time>2020-08-06T00:33:47Z</time>
      </trkpt>
      <trkpt lat="42.43454" lon="2.6674">
        <ele>815</ele>
        <time>2020-08-06T00:34:07Z</time>
      </trkpt>
      <trkpt lat="42.43448" lon="2.66744">
        <ele>813</ele>
        <time>2020-08-06T00:34:10Z</time>
      </trkpt>
      <trkpt lat="42.43414" lon="2.66785">
        <ele>792</ele>
        <time>2020-08-06T00:34:33Z</time>
      </trkpt>
      <trkpt lat="42.43381" lon="2.66802">
        <ele>774</ele>
        <time>2020-08-06T00:34:50Z</time>
      </trkpt>
      <trkpt lat="42.43372" lon="2.66812">
        <ele>768</ele>
        <time>2020-08-06T00:34:56Z</time>
      </trkpt>
      <trkpt lat="42.4337" lon="2.66826">
        <ele>762</ele>
        <time>2020-08-06T00:35:01Z</time>
      </trkpt>
      <trkpt lat="42.43377" lon="2.66837">
        <ele>760</ele>
        <time>2020-08-06T00:35:07Z</time>
      </trkpt>
      <trkpt lat="42.43392" lon="2.66852">
        <ele>757</ele>
        <time>2020-08-06T00:35:16Z</time>
      </trkpt>
      <trkpt lat="42.43393" lon="2.66861">
        <ele>753</ele>
        <time>2020-08-06T00:35:19Z</time>
      </trkpt>
      <trkpt lat="42.43389" lon="2.66873">
        <ele>747</ele>
        <time>2020-08-06T00:35:24Z</time>
      </trkpt>
      <trkpt lat="42.43371" lon="2.66905">
        <ele>728</ele>
        <time>2020-08-06T00:35:39Z</time>
      </trkpt>
      <trkpt lat="42.43336" lon="2.66952">
        <ele>700</ele>
        <time>2020-08-06T00:36:04Z</time>
      </trkpt>
      <trkpt lat="42.4332" lon="2.66966">
        <ele>692</ele>
        <time>2020-08-06T00:36:13Z</time>
      </trkpt>
      <trkpt lat="42.43308" lon="2.66973">
        <ele>688</ele>
        <time>2020-08-06T00:36:20Z</time>
      </trkpt>
      <trkpt lat="42.4328" lon="2.66969">
        <ele>687</ele>
        <time>2020-08-06T00:36:34Z</time>
      </trkpt>
      <trkpt lat="42.43262" lon="2.66961">
        <ele>689</ele>
        <time>2020-08-06T00:36:43Z</time>
      </trkpt>
      <trkpt lat="42.43231" lon="2.66957">
        <ele>686</ele>
        <time>2020-08-06T00:36:59Z</time>
      </trkpt>
      <trkpt lat="42.43155" lon="2.67003">
        <ele>666</ele>
        <time>2020-08-06T00:37:41Z</time>
      </trkpt>
      <trkpt lat="42.43135" lon="2.66999">
        <ele>671</ele>
        <time>2020-08-06T00:37:51Z</time>
      </trkpt>
      <trkpt lat="42.4312" lon="2.66971">
        <ele>678</ele>
        <time>2020-08-06T00:38:04Z</time>
      </trkpt>
      <trkpt lat="42.43117" lon="2.66959">
        <ele>681</ele>
        <time>2020-08-06T00:38:08Z</time>
      </trkpt>
      <trkpt lat="42.43087" lon="2.66955">
        <ele>687</ele>
        <time>2020-08-06T00:38:23Z</time>
      </trkpt>
      <trkpt lat="42.43078" lon="2.66981">
        <ele>687</ele>
        <time>2020-08-06T00:38:34Z</time>
      </trkpt>
      <trkpt lat="42.4308" lon="2.67032">
        <ele>685</ele>
        <time>2020-08-06T00:38:53Z</time>
      </trkpt>
      <trkpt lat="42.43087" lon="2.67059">
        <ele>684</ele>
        <time>2020-08-06T00:39:03Z</time>
      </trkpt>
      <trkpt lat="42.43097" lon="2.67085">
        <ele>681</ele>
        <time>2020-08-06T00:39:14Z</time>
      </trkpt>
      <trkpt lat="42.43096" lon="2.67093">
        <ele>680</ele>
        <time>2020-08-06T00:39:17Z</time>
      </trkpt>
      <trkpt lat="42.43081" lon="2.67111">
        <ele>682</ele>
        <time>2020-08-06T00:39:27Z</time>
      </trkpt>
      <trkpt lat="42.43063" lon="2.67121">
        <ele>683</ele>
        <time>2020-08-06T00:39:37Z</time>
      </trkpt>
      <trkpt lat="42.43033" lon="2.67124">
        <ele>689</ele>
        <time>2020-08-06T00:39:52Z</time>
      </trkpt>
      <trkpt lat="42.42997" lon="2.67117">
        <ele>700</ele>
        <time>2020-08-06T00:40:10Z</time>
      </trkpt>
      <trkpt lat="42.42987" lon="2.67119">
        <ele>703</ele>
        <time>2020-08-06T00:40:15Z</time>
      </trkpt>
      <trkpt lat="42.42961" lon="2.67141">
        <ele>705</ele>
        <time>2020-08-06T00:40:31Z</time>
      </trkpt>
      <trkpt lat="42.4296" lon="2.67155">
        <ele>701</ele>
        <time>2020-08-06T00:40:36Z</time>
      </trkpt>
      <trkpt lat="42.42938" lon="2.67211">
        <ele>694</ele>
        <time>2020-08-06T00:40:59Z</time>
      </trkpt>
      <trkpt lat="42.4293" lon="2.67226">
        <ele>694</ele>
        <time>2020-08-06T00:41:06Z</time>
      </trkpt>
      <trkpt lat="42.42914" lon="2.67247">
        <ele>696</ele>
        <time>2020-08-06T00:41:17Z</time>
      </trkpt>
      <trkpt lat="42.42889" lon="2.67315">
        <ele>702</ele>
        <time>2020-08-06T00:41:45Z</time>
      </trkpt>
      <trkpt lat="42.42884" lon="2.67335">
        <ele>703</ele>
        <time>2020-08-06T00:41:53Z</time>
      </trkpt>
      <trkpt lat="42.42882" lon="2.67397">
        <ele>704</ele>
        <time>2020-08-06T00:42:16Z</time>
      </trkpt>
      <trkpt lat="42.42886" lon="2.67422">
        <ele>701</ele>
        <time>2020-08-06T00:42:25Z</time>
      </trkpt>
      <trkpt lat="42.42933" lon="2.67453">
        <ele>681</ele>
        <time>2020-08-06T00:42:52Z</time>
      </trkpt>
      <trkpt lat="42.42968" lon="2.67484">
        <ele>672</ele>
        <time>2020-08-06T00:43:13Z</time>
      </trkpt>
      <trkpt lat="42.42991" lon="2.67525">
        <ele>663</ele>
        <time>2020-08-06T00:43:32Z</time>
      </trkpt>
      <trkpt lat="42.42996" lon="2.67559">
        <ele>659</ele>
        <time>2020-08-06T00:43:44Z</time>
      </trkpt>
      <trkpt lat="42.42987" lon="2.67598">
        <ele>659</ele>
        <time>2020-08-06T00:43:59Z</time>
      </trkpt>
      <trkpt lat="42.42948" lon="2.67632">
        <ele>663</ele>
        <time>2020-08-06T00:44:23Z</time>
      </trkpt>
      <trkpt lat="42.42905" lon="2.67644">
        <ele>665</ele>
        <time>2020-08-06T00:44:45Z</time>
      </trkpt>
      <trkpt lat="42.42902" lon="2.67654">
        <ele>664</ele>
        <time>2020-08-06T00:44:49Z</time>
      </trkpt>
      <trkpt lat="42.42915" lon="2.67665">
        <ele>660</ele>
        <time>2020-08-06T00:44:56Z</time>
      </trkpt>
      <trkpt lat="42.42963" lon="2.67653">
        <ele>660</ele>
        <time>2020-08-06T00:45:21Z</time>
      </trkpt>
      <trkpt lat="42.4299" lon="2.67651">
        <ele>659</ele>
        <time>2020-08-06T00:45:34Z</time>
      </trkpt>
      <trkpt lat="42.42966" lon="2.67674">
        <ele>661</ele>
        <time>2020-08-06T00:45:49Z</time>
      </trkpt>
      <trkpt lat="42.42967" lon="2.67681">
        <ele>663</ele>
        <time>2020-08-06T00:45:52Z</time>
      </trkpt>
      <trkpt lat="42.42993" lon="2.67681">
        <ele>662</ele>
        <time>2020-08-06T00:46:05Z</time>
      </trkpt>
      <trkpt lat="42.43001" lon="2.67685">
        <ele>663</ele>
        <time>2020-08-06T00:46:09Z</time>
      </trkpt>
      <trkpt lat="42.43002" lon="2.67693">
        <ele>665</ele>
        <time>2020-08-06T00:46:12Z</time>
      </trkpt>
      <trkpt lat="42.43006" lon="2.67696">
        <ele>667</ele>
        <time>2020-08-06T00:46:14Z</time>
      </trkpt>
      <trkpt lat="42.4304" lon="2.67701">
        <ele>674</ele>
        <time>2020-08-06T00:46:31Z</time>
      </trkpt>
      <trkpt lat="42.43054" lon="2.67697">
        <ele>676</ele>
        <time>2020-08-06T00:46:38Z</time>
      </trkpt>
      <trkpt lat="42.43058" lon="2.67685">
        <ele>676</ele>
        <time>2020-08-06T00:46:43Z</time>
      </trkpt>
      <trkpt lat="42.43057" lon="2.67662">
        <ele>673</ele>
        <time>2020-08-06T00:46:52Z</time>
      </trkpt>
      <trkpt lat="42.4306" lon="2.67632">
        <ele>672</ele>
        <time>2020-08-06T00:47:03Z</time>
      </trkpt>
      <trkpt lat="42.43069" lon="2.67595">
        <ele>673</ele>
        <time>2020-08-06T00:47:17Z</time>
      </trkpt>
      <trkpt lat="42.43069" lon="2.67587">
        <ele>673</ele>
        <time>2020-08-06T00:47:20Z</time>
      </trkpt>
      <trkpt lat="42.43068" lon="2.6758">
        <ele>673</ele>
        <time>2020-08-06T00:47:23Z</time>
      </trkpt>
      <trkpt lat="42.43052" lon="2.67557">
        <ele>670</ele>
        <time>2020-08-06T00:47:35Z</time>
      </trkpt>
      <trkpt lat="42.43046" lon="2.67543">
        <ele>670</ele>
        <time>2020-08-06T00:47:41Z</time>
      </trkpt>
      <trkpt lat="42.43024" lon="2.67437">
        <ele>664</ele>
        <time>2020-08-06T00:48:21Z</time>
      </trkpt>
      <trkpt lat="42.43017" lon="2.67417">
        <ele>661</ele>
        <time>2020-08-06T00:48:30Z</time>
      </trkpt>
      <trkpt lat="42.43011" lon="2.6737">
        <ele>654</ele>
        <time>2020-08-06T00:48:47Z</time>
      </trkpt>
      <trkpt lat="42.43012" lon="2.67363">
        <ele>653</ele>
        <time>2020-08-06T00:48:50Z</time>
      </trkpt>
      <trkpt lat="42.43027" lon="2.67339">
        <ele>652</ele>
        <time>2020-08-06T00:49:01Z</time>
      </trkpt>
      <trkpt lat="42.43049" lon="2.67334">
        <ele>655</ele>
        <time>2020-08-06T00:49:13Z</time>
      </trkpt>
      <trkpt lat="42.4308" lon="2.67336">
        <ele>659</ele>
        <time>2020-08-06T00:49:28Z</time>
      </trkpt>
      <trkpt lat="42.43114" lon="2.67334">
        <ele>660</ele>
        <time>2020-08-06T00:49:45Z</time>
      </trkpt>
      <trkpt lat="42.43194" lon="2.67317">
        <ele>660</ele>
        <time>2020-08-06T00:50:26Z</time>
      </trkpt>
      <trkpt lat="42.43207" lon="2.67309">
        <ele>660</ele>
        <time>2020-08-06T00:50:33Z</time>
      </trkpt>
      <trkpt lat="42.4322" lon="2.67299">
        <ele>659</ele>
        <time>2020-08-06T00:50:40Z</time>
      </trkpt>
      <trkpt lat="42.43231" lon="2.67286">
        <ele>657</ele>
        <time>2020-08-06T00:50:48Z</time>
      </trkpt>
      <trkpt lat="42.43238" lon="2.67271">
        <ele>654</ele>
        <time>2020-08-06T00:50:54Z</time>
      </trkpt>
      <trkpt lat="42.43245" lon="2.67228">
        <ele>644</ele>
        <time>2020-08-06T00:51:10Z</time>
      </trkpt>
      <trkpt lat="42.43259" lon="2.67197">
        <ele>639</ele>
        <time>2020-08-06T00:51:24Z</time>
      </trkpt>
      <trkpt lat="42.43264" lon="2.67194">
        <ele>638</ele>
        <time>2020-08-06T00:51:27Z</time>
      </trkpt>
      <trkpt lat="42.4328" lon="2.67192">
        <ele>638</ele>
        <time>2020-08-06T00:51:35Z</time>
      </trkpt>
      <trkpt lat="42.43328" lon="2.67219">
        <ele>650</ele>
        <time>2020-08-06T00:52:01Z</time>
      </trkpt>
      <trkpt lat="42.4337" lon="2.67223">
        <ele>646</ele>
        <time>2020-08-06T00:52:22Z</time>
      </trkpt>
      <trkpt lat="42.43416" lon="2.67234">
        <ele>640</ele>
        <time>2020-08-06T00:52:45Z</time>
      </trkpt>
      <trkpt lat="42.43442" lon="2.67256">
        <ele>638</ele>
        <time>2020-08-06T00:53:00Z</time>
      </trkpt>
      <trkpt lat="42.43456" lon="2.67276">
        <ele>639</ele>
        <time>2020-08-06T00:53:11Z</time>
      </trkpt>
      <trkpt lat="42.43491" lon="2.67308">
        <ele>636</ele>
        <time>2020-08-06T00:53:32Z</time>
      </trkpt>
      <trkpt lat="42.43494" lon="2.67315">
        <ele>637</ele>
        <time>2020-08-06T00:53:35Z</time>
      </trkpt>
      <trkpt lat="42.43495" lon="2.67328">
        <ele>640</ele>
        <time>2020-08-06T00:53:39Z</time>
      </trkpt>
      <trkpt lat="42.43486" lon="2.67352">
        <ele>650</ele>
        <time>2020-08-06T00:53:49Z</time>
      </trkpt>
      <trkpt lat="42.43487" lon="2.67355">
        <ele>650</ele>
        <time>2020-08-06T00:53:51Z</time>
      </trkpt>
      <trkpt lat="42.43494" lon="2.67361">
        <ele>649</ele>
        <time>2020-08-06T00:53:55Z</time>
      </trkpt>
      <trkpt lat="42.4351" lon="2.67364">
        <ele>645</ele>
        <time>2020-08-06T00:54:03Z</time>
      </trkpt>
      <trkpt lat="42.43543" lon="2.67384">
        <ele>643</ele>
        <time>2020-08-06T00:54:21Z</time>
      </trkpt>
      <trkpt lat="42.43564" lon="2.67401">
        <ele>643</ele>
        <time>2020-08-06T00:54:33Z</time>
      </trkpt>
      <trkpt lat="42.43567" lon="2.67409">
        <ele>644</ele>
        <time>2020-08-06T00:54:37Z</time>
      </trkpt>
      <trkpt lat="42.43579" lon="2.67417">
        <ele>644</ele>
        <time>2020-08-06T00:54:43Z</time>
      </trkpt>
      <trkpt lat="42.43598" lon="2.67422">
        <ele>645</ele>
        <time>2020-08-06T00:54:53Z</time>
      </trkpt>
      <trkpt lat="42.43617" lon="2.67412">
        <ele>642</ele>
        <time>2020-08-06T00:55:03Z</time>
      </trkpt>
      <trkpt lat="42.43636" lon="2.67419">
        <ele>644</ele>
        <time>2020-08-06T00:55:13Z</time>
      </trkpt>
      <trkpt lat="42.43649" lon="2.6744">
        <ele>652</ele>
        <time>2020-08-06T00:55:23Z</time>
      </trkpt>
      <trkpt lat="42.43652" lon="2.67458">
        <ele>657</ele>
        <time>2020-08-06T00:55:30Z</time>
      </trkpt>
      <trkpt lat="42.43651" lon="2.6747">
        <ele>661</ele>
        <time>2020-08-06T00:55:34Z</time>
      </trkpt>
      <trkpt lat="42.43655" lon="2.67475">
        <ele>663</ele>
        <time>2020-08-06T00:55:37Z</time>
      </trkpt>
      <trkpt lat="42.43667" lon="2.6747">
        <ele>660</ele>
        <time>2020-08-06T00:55:43Z</time>
      </trkpt>
      <trkpt lat="42.43696" lon="2.67473">
        <ele>662</ele>
        <time>2020-08-06T00:55:58Z</time>
      </trkpt>
      <trkpt lat="42.43699" lon="2.6747">
        <ele>662</ele>
        <time>2020-08-06T00:56:00Z</time>
      </trkpt>
      <trkpt lat="42.43713" lon="2.67468">
        <ele>662</ele>
        <time>2020-08-06T00:56:07Z</time>
      </trkpt>
      <trkpt lat="42.43716" lon="2.67465">
        <ele>662</ele>
        <time>2020-08-06T00:56:09Z</time>
      </trkpt>
      <trkpt lat="42.43719" lon="2.67469">
        <ele>662</ele>
        <time>2020-08-06T00:56:11Z</time>
      </trkpt>
      <trkpt lat="42.43718" lon="2.67474">
        <ele>663</ele>
        <time>2020-08-06T00:56:13Z</time>
      </trkpt>
      <trkpt lat="42.43729" lon="2.67468">
        <ele>663</ele>
        <time>2020-08-06T00:56:19Z</time>
      </trkpt>
      <trkpt lat="42.43731" lon="2.6747">
        <ele>663</ele>
        <time>2020-08-06T00:56:20Z</time>
      </trkpt>
      <trkpt lat="42.4373" lon="2.67482">
        <ele>664</ele>
        <time>2020-08-06T00:56:24Z</time>
      </trkpt>
      <trkpt lat="42.43724" lon="2.67485">
        <ele>664</ele>
        <time>2020-08-06T00:56:28Z</time>
      </trkpt>
      <trkpt lat="42.43716" lon="2.67517">
        <ele>670</ele>
        <time>2020-08-06T00:56:40Z</time>
      </trkpt>
      <trkpt lat="42.43706" lon="2.67537">
        <ele>675</ele>
        <time>2020-08-06T00:56:49Z</time>
      </trkpt>
      <trkpt lat="42.43708" lon="2.67546">
        <ele>677</ele>
        <time>2020-08-06T00:56:52Z</time>
      </trkpt>
      <trkpt lat="42.43707" lon="2.67566">
        <ele>681</ele>
        <time>2020-08-06T00:57:00Z</time>
      </trkpt>
      <trkpt lat="42.43711" lon="2.6758">
        <ele>684</ele>
        <time>2020-08-06T00:57:05Z</time>
      </trkpt>
      <trkpt lat="42.43741" lon="2.6761">
        <ele>686</ele>
        <time>2020-08-06T00:57:24Z</time>
      </trkpt>
      <trkpt lat="42.43753" lon="2.67616">
        <ele>685</ele>
        <time>2020-08-06T00:57:30Z</time>
      </trkpt>
      <trkpt lat="42.43763" lon="2.67625">
        <ele>686</ele>
        <time>2020-08-06T00:57:36Z</time>
      </trkpt>
      <trkpt lat="42.43778" lon="2.6763">
        <ele>684</ele>
        <time>2020-08-06T00:57:44Z</time>
      </trkpt>
      <trkpt lat="42.43792" lon="2.67646">
        <ele>686</ele>
        <time>2020-08-06T00:57:53Z</time>
      </trkpt>
      <trkpt lat="42.43819" lon="2.67656">
        <ele>685</ele>
        <time>2020-08-06T00:58:07Z</time>
      </trkpt>
      <trkpt lat="42.43839" lon="2.67655">
        <ele>681</ele>
        <time>2020-08-06T00:58:17Z</time>
      </trkpt>
      <trkpt lat="42.43846" lon="2.67657">
        <ele>681</ele>
        <time>2020-08-06T00:58:21Z</time>
      </trkpt>
      <trkpt lat="42.43848" lon="2.67655">
        <ele>680</ele>
        <time>2020-08-06T00:58:22Z</time>
      </trkpt>
      <trkpt lat="42.43871" lon="2.67661">
        <ele>679</ele>
        <time>2020-08-06T00:58:34Z</time>
      </trkpt>
      <trkpt lat="42.43907" lon="2.6766">
        <ele>674</ele>
        <time>2020-08-06T00:58:52Z</time>
      </trkpt>
      <trkpt lat="42.43912" lon="2.67658">
        <ele>672</ele>
        <time>2020-08-06T00:58:55Z</time>
      </trkpt>
      <trkpt lat="42.43923" lon="2.6766">
        <ele>670</ele>
        <time>2020-08-06T00:59:00Z</time>
      </trkpt>
      <trkpt lat="42.43931" lon="2.6767">
        <ele>670</ele>
        <time>2020-08-06T00:59:06Z</time>
      </trkpt>
      <trkpt lat="42.43943" lon="2.67698">
        <ele>674</ele>
        <time>2020-08-06T00:59:17Z</time>
      </trkpt>
      <trkpt lat="42.43952" lon="2.67712">
        <ele>675</ele>
        <time>2020-08-06T00:59:24Z</time>
      </trkpt>
      <trkpt lat="42.43955" lon="2.67726">
        <ele>678</ele>
        <time>2020-08-06T00:59:30Z</time>
      </trkpt>
      <trkpt lat="42.4396" lon="2.6773">
        <ele>677</ele>
        <time>2020-08-06T00:59:33Z</time>
      </trkpt>
      <trkpt lat="42.43965" lon="2.67731">
        <ele>675</ele>
        <time>2020-08-06T00:59:35Z</time>
      </trkpt>
      <trkpt lat="42.43984" lon="2.67727">
        <ele>667</ele>
        <time>2020-08-06T00:59:45Z</time>
      </trkpt>
      <trkpt lat="42.44001" lon="2.67736">
        <ele>663</ele>
        <time>2020-08-06T00:59:54Z</time>
      </trkpt>
      <trkpt lat="42.44019" lon="2.6773">
        <ele>656</ele>
        <time>2020-08-06T01:00:03Z</time>
      </trkpt>
      <trkpt lat="42.44033" lon="2.67733">
        <ele>653</ele>
        <time>2020-08-06T01:00:10Z</time>
      </trkpt>
      <trkpt lat="42.44029" lon="2.67726">
        <ele>652</ele>
        <time>2020-08-06T01:00:14Z</time>
      </trkpt>
      <trkpt lat="42.44031" lon="2.67725">
        <ele>651</ele>
        <time>2020-08-06T01:00:15Z</time>
      </trkpt>
      <trkpt lat="42.44044" lon="2.67728">
        <ele>649</ele>
        <time>2020-08-06T01:00:21Z</time>
      </trkpt>
      <trkpt lat="42.44058" lon="2.67721">
        <ele>642</ele>
        <time>2020-08-06T01:00:29Z</time>
      </trkpt>
      <trkpt lat="42.44063" lon="2.67721">
        <ele>641</ele>
        <time>2020-08-06T01:00:31Z</time>
      </trkpt>
      <trkpt lat="42.44079" lon="2.67722">
        <ele>637</ele>
        <time>2020-08-06T01:00:39Z</time>
      </trkpt>
      <trkpt lat="42.44101" lon="2.67731">
        <ele>633</ele>
        <time>2020-08-06T01:00:51Z</time>
      </trkpt>
      <trkpt lat="42.44106" lon="2.6773">
        <ele>631</ele>
        <time>2020-08-06T01:00:53Z</time>
      </trkpt>
      <trkpt lat="42.44121" lon="2.67736">
        <ele>629</ele>
        <time>2020-08-06T01:01:01Z</time>
      </trkpt>
      <trkpt lat="42.44135" lon="2.67737">
        <ele>625</ele>
        <time>2020-08-06T01:01:08Z</time>
      </trkpt>
      <trkpt lat="42.44142" lon="2.67748">
        <ele>626</ele>
        <time>2020-08-06T01:01:13Z</time>
      </trkpt>
      <trkpt lat="42.44143" lon="2.67764">
        <ele>626</ele>
        <time>2020-08-06T01:01:19Z</time>
      </trkpt>
      <trkpt lat="42.44155" lon="2.6777">
        <ele>621</ele>
        <time>2020-08-06T01:01:26Z</time>
      </trkpt>
      <trkpt lat="42.44143" lon="2.67779">
        <ele>625</ele>
        <time>2020-08-06T01:01:33Z</time>
      </trkpt>
      <trkpt lat="42.44116" lon="2.67792">
        <ele>635</ele>
        <time>2020-08-06T01:01:47Z</time>
      </trkpt>
      <trkpt lat="42.44108" lon="2.67805">
        <ele>638</ele>
        <time>2020-08-06T01:01:53Z</time>
      </trkpt>
      <trkpt lat="42.44116" lon="2.6782">
        <ele>635</ele>
        <time>2020-08-06T01:02:00Z</time>
      </trkpt>
      <trkpt lat="42.44125" lon="2.6787">
        <ele>626</ele>
        <time>2020-08-06T01:02:19Z</time>
      </trkpt>
      <trkpt lat="42.4414" lon="2.6791">
        <ele>615</ele>
        <time>2020-08-06T01:02:36Z</time>
      </trkpt>
      <trkpt lat="42.44118" lon="2.67942">
        <ele>617</ele>
        <time>2020-08-06T01:02:52Z</time>
      </trkpt>
      <trkpt lat="42.44111" lon="2.67945">
        <ele>619</ele>
        <time>2020-08-06T01:02:55Z</time>
      </trkpt>
      <trkpt lat="42.441" lon="2.67962">
        <ele>619</ele>
        <time>2020-08-06T01:03:04Z</time>
      </trkpt>
      <trkpt lat="42.44064" lon="2.68004">
        <ele>625</ele>
        <time>2020-08-06T01:03:28Z</time>
      </trkpt>
      <trkpt lat="42.4401" lon="2.68125">
        <ele>613</ele>
        <time>2020-08-06T01:04:20Z</time>
      </trkpt>
      <trkpt lat="42.43995" lon="2.68134">
        <ele>618</ele>
        <time>2020-08-06T01:04:28Z</time>
      </trkpt>
      <trkpt lat="42.43991" lon="2.68139">
        <ele>619</ele>
        <time>2020-08-06T01:04:31Z</time>
      </trkpt>
      <trkpt lat="42.43985" lon="2.68157">
        <ele>617</ele>
        <time>2020-08-06T01:04:38Z</time>
      </trkpt>
      <trkpt lat="42.43985" lon="2.68185">
        <ele>608</ele>
        <time>2020-08-06T01:04:48Z</time>
      </trkpt>
      <trkpt lat="42.43988" lon="2.68196">
        <ele>603</ele>
        <time>2020-08-06T01:04:53Z</time>
      </trkpt>
      <trkpt lat="42.43984" lon="2.68212">
        <ele>601</ele>
        <time>2020-08-06T01:04:59Z</time>
      </trkpt>
      <trkpt lat="42.4397" lon="2.68234">
        <ele>603</ele>
        <time>2020-08-06T01:05:10Z</time>
      </trkpt>
      <trkpt lat="42.43965" lon="2.68248">
        <ele>601</ele>
        <time>2020-08-06T01:05:15Z</time>
      </trkpt>
      <trkpt lat="42.43952" lon="2.68262">
        <ele>605</ele>
        <time>2020-08-06T01:05:24Z</time>
      </trkpt>
      <trkpt lat="42.43944" lon="2.68284">
        <ele>603</ele>
        <time>2020-08-06T01:05:33Z</time>
      </trkpt>
      <trkpt lat="42.43927" lon="2.68306">
        <ele>604</ele>
        <time>2020-08-06T01:05:45Z</time>
      </trkpt>
      <trkpt lat="42.43917" lon="2.68334">
        <ele>599</ele>
        <time>2020-08-06T01:05:56Z</time>
      </trkpt>
      <trkpt lat="42.43896" lon="2.68366">
        <ele>612</ele>
        <time>2020-08-06T01:06:12Z</time>
      </trkpt>
      <trkpt lat="42.43889" lon="2.68394">
        <ele>614</ele>
        <time>2020-08-06T01:06:23Z</time>
      </trkpt>
      <trkpt lat="42.43879" lon="2.6841">
        <ele>617</ele>
        <time>2020-08-06T01:06:31Z</time>
      </trkpt>
      <trkpt lat="42.4387" lon="2.68417">
        <ele>620</ele>
        <time>2020-08-06T01:06:36Z</time>
      </trkpt>
      <trkpt lat="42.43867" lon="2.6843">
        <ele>623</ele>
        <time>2020-08-06T01:06:41Z</time>
      </trkpt>
      <trkpt lat="42.43868" lon="2.68448">
        <ele>625</ele>
        <time>2020-08-06T01:06:47Z</time>
      </trkpt>
      <trkpt lat="42.43869" lon="2.6845">
        <ele>625</ele>
        <time>2020-08-06T01:06:48Z</time>
      </trkpt>
      <trkpt lat="42.43875" lon="2.68448">
        <ele>623</ele>
        <time>2020-08-06T01:06:51Z</time>
      </trkpt>
      <trkpt lat="42.43916" lon="2.68429">
        <ele>608</ele>
        <time>2020-08-06T01:07:13Z</time>
      </trkpt>
      <trkpt lat="42.43937" lon="2.68428">
        <ele>608</ele>
        <time>2020-08-06T01:07:24Z</time>
      </trkpt>
      <trkpt lat="42.43959" lon="2.68421">
        <ele>605</ele>
        <time>2020-08-06T01:07:35Z</time>
      </trkpt>
      <trkpt lat="42.44002" lon="2.68412">
        <ele>602</ele>
        <time>2020-08-06T01:07:57Z</time>
      </trkpt>
      <trkpt lat="42.44008" lon="2.68414">
        <ele>603</ele>
        <time>2020-08-06T01:08:00Z</time>
      </trkpt>
      <trkpt lat="42.44013" lon="2.68424">
        <ele>607</ele>
        <time>2020-08-06T01:08:04Z</time>
      </trkpt>
      <trkpt lat="42.4402" lon="2.68431">
        <ele>611</ele>
        <time>2020-08-06T01:08:09Z</time>
      </trkpt>
      <trkpt lat="42.44035" lon="2.68436">
        <ele>613</ele>
        <time>2020-08-06T01:08:16Z</time>
      </trkpt>
      <trkpt lat="42.44037" lon="2.68439">
        <ele>614</ele>
        <time>2020-08-06T01:08:18Z</time>
      </trkpt>
      <trkpt lat="42.44047" lon="2.68439">
        <ele>614</ele>
        <time>2020-08-06T01:08:23Z</time>
      </trkpt>
      <trkpt lat="42.44052" lon="2.68436">
        <ele>612</ele>
        <time>2020-08-06T01:08:26Z</time>
      </trkpt>
      <trkpt lat="42.44075" lon="2.68431">
        <ele>608</ele>
        <time>2020-08-06T01:08:37Z</time>
      </trkpt>
      <trkpt lat="42.44104" lon="2.6843">
        <ele>611</ele>
        <time>2020-08-06T01:08:52Z</time>
      </trkpt>
      <trkpt lat="42.44119" lon="2.68423">
        <ele>610</ele>
        <time>2020-08-06T01:09:00Z</time>
      </trkpt>
      <trkpt lat="42.44132" lon="2.68409">
        <ele>607</ele>
        <time>2020-08-06T01:09:08Z</time>
      </trkpt>
      <trkpt lat="42.44149" lon="2.68403">
        <ele>607</ele>
        <time>2020-08-06T01:09:17Z</time>
      </trkpt>
      <trkpt lat="42.4416" lon="2.6839">
        <ele>604</ele>
        <time>2020-08-06T01:09:24Z</time>
      </trkpt>
      <trkpt lat="42.44169" lon="2.6837">
        <ele>598</ele>
        <time>2020-08-06T01:09:33Z</time>
      </trkpt>
      <trkpt lat="42.44201" lon="2.68325">
        <ele>585</ele>
        <time>2020-08-06T01:09:56Z</time>
      </trkpt>
      <trkpt lat="42.44207" lon="2.6831">
        <ele>581</ele>
        <time>2020-08-06T01:10:02Z</time>
      </trkpt>
      <trkpt lat="42.44228" lon="2.68292">
        <ele>578</ele>
        <time>2020-08-06T01:10:15Z</time>
      </trkpt>
      <trkpt lat="42.44236" lon="2.68298">
        <ele>582</ele>
        <time>2020-08-06T01:10:19Z</time>
      </trkpt>
      <trkpt lat="42.44237" lon="2.68316">
        <ele>588</ele>
        <time>2020-08-06T01:10:26Z</time>
      </trkpt>
      <trkpt lat="42.44242" lon="2.68333">
        <ele>595</ele>
        <time>2020-08-06T01:10:33Z</time>
      </trkpt>
      <trkpt lat="42.44256" lon="2.68338">
        <ele>595</ele>
        <time>2020-08-06T01:10:40Z</time>
      </trkpt>
      <trkpt lat="42.44263" lon="2.68337">
        <ele>592</ele>
        <time>2020-08-06T01:10:43Z</time>
      </trkpt>
      <trkpt lat="42.44272" lon="2.68349">
        <ele>591</ele>
        <time>2020-08-06T01:10:50Z</time>
      </trkpt>
      <trkpt lat="42.443" lon="2.68364">
        <ele>581</ele>
        <time>2020-08-06T01:11:05Z</time>
      </trkpt>
      <trkpt lat="42.44304" lon="2.68369">
        <ele>581</ele>
        <time>2020-08-06T01:11:07Z</time>
      </trkpt>
      <trkpt lat="42.44329" lon="2.68384">
        <ele>572</ele>
        <time>2020-08-06T01:11:21Z</time>
      </trkpt>
      <trkpt lat="42.44349" lon="2.68388">
        <ele>566</ele>
        <time>2020-08-06T01:11:31Z</time>
      </trkpt>
      <trkpt lat="42.44382" lon="2.68388">
        <ele>555</ele>
        <time>2020-08-06T01:11:48Z</time>
      </trkpt>
      <trkpt lat="42.44386" lon="2.68397">
        <ele>556</ele>
        <time>2020-08-06T01:11:52Z</time>
      </trkpt>
      <trkpt lat="42.44391" lon="2.68429">
        <ele>557</ele>
        <time>2020-08-06T01:12:04Z</time>
      </trkpt>
      <trkpt lat="42.44399" lon="2.68429">
        <ele>554</ele>
        <time>2020-08-06T01:12:08Z</time>
      </trkpt>
      <trkpt lat="42.44403" lon="2.68434">
        <ele>552</ele>
        <time>2020-08-06T01:12:10Z</time>
      </trkpt>
      <trkpt lat="42.44417" lon="2.68436">
        <ele>547</ele>
        <time>2020-08-06T01:12:17Z</time>
      </trkpt>
      <trkpt lat="42.44418" lon="2.68446">
        <ele>546</ele>
        <time>2020-08-06T01:12:21Z</time>
      </trkpt>
      <trkpt lat="42.44411" lon="2.68459">
        <ele>547</ele>
        <time>2020-08-06T01:12:27Z</time>
      </trkpt>
      <trkpt lat="42.44398" lon="2.68472">
        <ele>552</ele>
        <time>2020-08-06T01:12:35Z</time>
      </trkpt>
      <trkpt lat="42.44374" lon="2.68489">
        <ele>561</ele>
        <time>2020-08-06T01:12:49Z</time>
      </trkpt>
      <trkpt lat="42.44352" lon="2.68515">
        <ele>569</ele>
        <time>2020-08-06T01:13:03Z</time>
      </trkpt>
      <trkpt lat="42.44341" lon="2.68522">
        <ele>574</ele>
        <time>2020-08-06T01:13:09Z</time>
      </trkpt>
      <trkpt lat="42.44325" lon="2.68545">
        <ele>580</ele>
        <time>2020-08-06T01:13:21Z</time>
      </trkpt>
      <trkpt lat="42.44328" lon="2.68563">
        <ele>578</ele>
        <time>2020-08-06T01:13:28Z</time>
      </trkpt>
      <trkpt lat="42.44344" lon="2.68579">
        <ele>569</ele>
        <time>2020-08-06T01:13:38Z</time>
      </trkpt>
      <trkpt lat="42.44347" lon="2.68584">
        <ele>567</ele>
        <time>2020-08-06T01:13:40Z</time>
      </trkpt>
      <trkpt lat="42.44346" lon="2.68587">
        <ele>568</ele>
        <time>2020-08-06T01:13:41Z</time>
      </trkpt>
      <trkpt lat="42.44351" lon="2.68594">
        <ele>566</ele>
        <time>2020-08-06T01:13:45Z</time>
      </trkpt>
      <trkpt lat="42.44351" lon="2.68613">
        <ele>566</ele>
        <time>2020-08-06T01:13:52Z</time>
      </trkpt>
      <trkpt lat="42.44346" lon="2.68626">
        <ele>569</ele>
        <time>2020-08-06T01:13:57Z</time>
      </trkpt>
      <trkpt lat="42.44341" lon="2.68625">
        <ele>572</ele>
        <time>2020-08-06T01:14:00Z</time>
      </trkpt>
      <trkpt lat="42.44338" lon="2.68621">
        <ele>574</ele>
        <time>2020-08-06T01:14:02Z</time>
      </trkpt>
      <trkpt lat="42.44336" lon="2.68622">
        <ele>575</ele>
        <time>2020-08-06T01:14:03Z</time>
      </trkpt>
      <trkpt lat="42.44335" lon="2.68631">
        <ele>576</ele>
        <time>2020-08-06T01:14:07Z</time>
      </trkpt>
      <trkpt lat="42.44315" lon="2.68677">
        <ele>588</ele>
        <time>2020-08-06T01:14:26Z</time>
      </trkpt>
      <trkpt lat="42.44307" lon="2.68706">
        <ele>588</ele>
        <time>2020-08-06T01:14:38Z</time>
      </trkpt>
      <trkpt lat="42.44303" lon="2.6871">
        <ele>589</ele>
        <time>2020-08-06T01:14:40Z</time>
      </trkpt>
      <trkpt lat="42.44301" lon="2.68718">
        <ele>589</ele>
        <time>2020-08-06T01:14:43Z</time>
      </trkpt>
      <trkpt lat="42.44294" lon="2.68724">
        <ele>592</ele>
        <time>2020-08-06T01:14:47Z</time>
      </trkpt>
      <trkpt lat="42.44291" lon="2.68733">
        <ele>592</ele>
        <time>2020-08-06T01:14:51Z</time>
      </trkpt>
      <trkpt lat="42.44281" lon="2.68744">
        <ele>596</ele>
        <time>2020-08-06T01:14:58Z</time>
      </trkpt>
      <trkpt lat="42.44272" lon="2.68745">
        <ele>601</ele>
        <time>2020-08-06T01:15:02Z</time>
      </trkpt>
      <trkpt lat="42.44262" lon="2.68751">
        <ele>605</ele>
        <time>2020-08-06T01:15:08Z</time>
      </trkpt>
      <trkpt lat="42.44239" lon="2.68754">
        <ele>618</ele>
        <time>2020-08-06T01:15:19Z</time>
      </trkpt>
      <trkpt lat="42.44233" lon="2.68761">
        <ele>620</ele>
        <time>2020-08-06T01:15:23Z</time>
      </trkpt>
      <trkpt lat="42.44228" lon="2.68763">
        <ele>623</ele>
        <time>2020-08-06T01:15:26Z</time>
      </trkpt>
      <trkpt lat="42.44225" lon="2.68771">
        <ele>623</ele>
        <time>2020-08-06T01:15:29Z</time>
      </trkpt>
      <trkpt lat="42.44199" lon="2.68784">
        <ele>636</ele>
        <time>2020-08-06T01:15:43Z</time>
      </trkpt>
      <trkpt lat="42.4419" lon="2.68799">
        <ele>639</ele>
        <time>2020-08-06T01:15:50Z</time>
      </trkpt>
      <trkpt lat="42.44167" lon="2.68818">
        <ele>650</ele>
        <time>2020-08-06T01:16:03Z</time>
      </trkpt>
      <trkpt lat="42.44159" lon="2.68821">
        <ele>655</ele>
        <time>2020-08-06T01:16:08Z</time>
      </trkpt>
      <trkpt lat="42.44155" lon="2.68829">
        <ele>657</ele>
        <time>2020-08-06T01:16:11Z</time>
      </trkpt>
      <trkpt lat="42.44153" lon="2.68844">
        <ele>657</ele>
        <time>2020-08-06T01:16:17Z</time>
      </trkpt>
      <trkpt lat="42.44159" lon="2.68864">
        <ele>653</ele>
        <time>2020-08-06T01:16:25Z</time>
      </trkpt>
      <trkpt lat="42.44155" lon="2.68886">
        <ele>656</ele>
        <time>2020-08-06T01:16:33Z</time>
      </trkpt>
      <trkpt lat="42.4416" lon="2.689">
        <ele>652</ele>
        <time>2020-08-06T01:16:39Z</time>
      </trkpt>
      <trkpt lat="42.44165" lon="2.68934">
        <ele>651</ele>
        <time>2020-08-06T01:16:52Z</time>
      </trkpt>
      <trkpt lat="42.44161" lon="2.68936">
        <ele>654</ele>
        <time>2020-08-06T01:16:54Z</time>
      </trkpt>
      <trkpt lat="42.4416" lon="2.68942">
        <ele>655</ele>
        <time>2020-08-06T01:16:56Z</time>
      </trkpt>
      <trkpt lat="42.44146" lon="2.68959">
        <ele>665</ele>
        <time>2020-08-06T01:17:06Z</time>
      </trkpt>
      <trkpt lat="42.44149" lon="2.68967">
        <ele>664</ele>
        <time>2020-08-06T01:17:09Z</time>
      </trkpt>
      <trkpt lat="42.44163" lon="2.68987">
        <ele>658</ele>
        <time>2020-08-06T01:17:19Z</time>
      </trkpt>
      <trkpt lat="42.44158" lon="2.68988">
        <ele>661</ele>
        <time>2020-08-06T01:17:22Z</time>
      </trkpt>
      <trkpt lat="42.44162" lon="2.69">
        <ele>660</ele>
        <time>2020-08-06T01:17:26Z</time>
      </trkpt>
      <trkpt lat="42.4416" lon="2.69021">
        <ele>662</ele>
        <time>2020-08-06T01:17:34Z</time>
      </trkpt>
      <trkpt lat="42.44147" lon="2.69046">
        <ele>671</ele>
        <time>2020-08-06T01:17:46Z</time>
      </trkpt>
      <trkpt lat="42.44131" lon="2.69065">
        <ele>682</ele>
        <time>2020-08-06T01:17:56Z</time>
      </trkpt>
      <trkpt lat="42.44128" lon="2.69083">
        <ele>685</ele>
        <time>2020-08-06T01:18:03Z</time>
      </trkpt>
      <trkpt lat="42.4412" lon="2.69091">
        <ele>691</ele>
        <time>2020-08-06T01:18:08Z</time>
      </trkpt>
      <trkpt lat="42.44121" lon="2.69099">
        <ele>692</ele>
        <time>2020-08-06T01:18:11Z</time>
      </trkpt>
      <trkpt lat="42.44108" lon="2.69109">
        <ele>701</ele>
        <time>2020-08-06T01:18:18Z</time>
      </trkpt>
      <trkpt lat="42.44111" lon="2.69134">
        <ele>703</ele>
        <time>2020-08-06T01:18:28Z</time>
      </trkpt>
      <trkpt lat="42.44103" lon="2.69136">
        <ele>708</ele>
        <time>2020-08-06T01:18:32Z</time>
      </trkpt>
      <trkpt lat="42.44101" lon="2.6913">
        <ele>708</ele>
        <time>2020-08-06T01:18:34Z</time>
      </trkpt>
      <trkpt lat="42.44095" lon="2.69134">
        <ele>711</ele>
        <time>2020-08-06T01:18:38Z</time>
      </trkpt>
      <trkpt lat="42.44093" lon="2.69133">
        <ele>712</ele>
        <time>2020-08-06T01:18:39Z</time>
      </trkpt>
      <trkpt lat="42.44092" lon="2.69126">
        <ele>712</ele>
        <time>2020-08-06T01:18:41Z</time>
      </trkpt>
      <trkpt lat="42.4409" lon="2.69125">
        <ele>713</ele>
        <time>2020-08-06T01:18:42Z</time>
      </trkpt>
      <trkpt lat="42.44088" lon="2.69128">
        <ele>714</ele>
        <time>2020-08-06T01:18:44Z</time>
      </trkpt>
      <trkpt lat="42.44088" lon="2.69153">
        <ele>717</ele>
        <time>2020-08-06T01:18:53Z</time>
      </trkpt>
      <trkpt lat="42.44095" lon="2.69164">
        <ele>715</ele>
        <time>2020-08-06T01:18:59Z</time>
      </trkpt>
      <trkpt lat="42.44097" lon="2.6918">
        <ele>717</ele>
        <time>2020-08-06T01:19:04Z</time>
      </trkpt>
      <trkpt lat="42.44105" lon="2.69198">
        <ele>719</ele>
        <time>2020-08-06T01:19:12Z</time>
      </trkpt>
      <trkpt lat="42.44123" lon="2.69217">
        <ele>717</ele>
        <time>2020-08-06T01:19:24Z</time>
      </trkpt>
      <trkpt lat="42.44122" lon="2.69232">
        <ele>722</ele>
        <time>2020-08-06T01:19:29Z</time>
      </trkpt>
      <trkpt lat="42.44126" lon="2.69234">
        <ele>721</ele>
        <time>2020-08-06T01:19:31Z</time>
      </trkpt>
      <trkpt lat="42.44137" lon="2.6926">
        <ele>721</ele>
        <time>2020-08-06T01:19:42Z</time>
      </trkpt>
      <trkpt lat="42.44138" lon="2.69283">
        <ele>720</ele>
        <time>2020-08-06T01:19:51Z</time>
      </trkpt>
      <trkpt lat="42.44133" lon="2.69303">
        <ele>721</ele>
        <time>2020-08-06T01:19:59Z</time>
      </trkpt>
      <trkpt lat="42.44117" lon="2.69323">
        <ele>726</ele>
        <time>2020-08-06T01:20:10Z</time>
      </trkpt>
      <trkpt lat="42.44093" lon="2.69339">
        <ele>732</ele>
        <time>2020-08-06T01:20:23Z</time>
      </trkpt>
      <trkpt lat="42.44072" lon="2.69346">
        <ele>735</ele>
        <time>2020-08-06T01:20:34Z</time>
      </trkpt>
      <trkpt lat="42.44039" lon="2.69347">
        <ele>742</ele>
        <time>2020-08-06T01:20:50Z</time>
      </trkpt>
      <trkpt lat="42.44027" lon="2.69351">
        <ele>743</ele>
        <time>2020-08-06T01:20:57Z</time>
      </trkpt>
      <trkpt lat="42.44021" lon="2.69361">
        <ele>742</ele>
        <time>2020-08-06T01:21:01Z</time>
      </trkpt>
      <trkpt lat="42.44006" lon="2.69372">
        <ele>743</ele>
        <time>2020-08-06T01:21:10Z</time>
      </trkpt>
      <trkpt lat="42.43991" lon="2.69375">
        <ele>746</ele>
        <time>2020-08-06T01:21:17Z</time>
      </trkpt>
      <trkpt lat="42.43976" lon="2.69374">
        <ele>750</ele>
        <time>2020-08-06T01:21:25Z</time>
      </trkpt>
      <trkpt lat="42.43961" lon="2.69381">
        <ele>753</ele>
        <time>2020-08-06T01:21:33Z</time>
      </trkpt>
      <trkpt lat="42.43956" lon="2.69395">
        <ele>753</ele>
        <time>2020-08-06T01:21:39Z</time>
      </trkpt>
      <trkpt lat="42.43965" lon="2.69414">
        <ele>747</ele>
        <time>2020-08-06T01:21:47Z</time>
      </trkpt>
      <trkpt lat="42.43969" lon="2.69454">
        <ele>744</ele>
        <time>2020-08-06T01:22:02Z</time>
      </trkpt>
      <trkpt lat="42.43982" lon="2.69493">
        <ele>738</ele>
        <time>2020-08-06T01:22:18Z</time>
      </trkpt>
      <trkpt lat="42.4398" lon="2.695">
        <ele>739</ele>
        <time>2020-08-06T01:22:20Z</time>
      </trkpt>
      <trkpt lat="42.43964" lon="2.69526">
        <ele>741</ele>
        <time>2020-08-06T01:22:33Z</time>
      </trkpt>
      <trkpt lat="42.43949" lon="2.6954">
        <ele>745</ele>
        <time>2020-08-06T01:22:42Z</time>
      </trkpt>
      <trkpt lat="42.43927" lon="2.69555">
        <ele>753</ele>
        <time>2020-08-06T01:22:54Z</time>
      </trkpt>
      <trkpt lat="42.43919" lon="2.69565">
        <ele>755</ele>
        <time>2020-08-06T01:23:00Z</time>
      </trkpt>
      <trkpt lat="42.43909" lon="2.696">
        <ele>753</ele>
        <time>2020-08-06T01:23:14Z</time>
      </trkpt>
      <trkpt lat="42.43899" lon="2.69614">
        <ele>754</ele>
        <time>2020-08-06T01:23:21Z</time>
      </trkpt>
      <trkpt lat="42.43896" lon="2.69642">
        <ele>748</ele>
        <time>2020-08-06T01:23:31Z</time>
      </trkpt>
      <trkpt lat="42.43884" lon="2.6966">
        <ele>749</ele>
        <time>2020-08-06T01:23:40Z</time>
      </trkpt>
      <trkpt lat="42.43879" lon="2.6968">
        <ele>746</ele>
        <time>2020-08-06T01:23:48Z</time>
      </trkpt>
      <trkpt lat="42.43872" lon="2.69692">
        <ele>747</ele>
        <time>2020-08-06T01:23:54Z</time>
      </trkpt>
      <trkpt lat="42.43872" lon="2.69696">
        <ele>745</ele>
        <time>2020-08-06T01:23:55Z</time>
      </trkpt>
      <trkpt lat="42.43867" lon="2.69704">
        <ele>745</ele>
        <time>2020-08-06T01:23:59Z</time>
      </trkpt>
      <trkpt lat="42.43844" lon="2.69714">
        <ele>754</ele>
        <time>2020-08-06T01:24:11Z</time>
      </trkpt>
      <trkpt lat="42.43836" lon="2.69723">
        <ele>755</ele>
        <time>2020-08-06T01:24:16Z</time>
      </trkpt>
      <trkpt lat="42.4382" lon="2.69757">
        <ele>748</ele>
        <time>2020-08-06T01:24:31Z</time>
      </trkpt>
      <trkpt lat="42.4382" lon="2.69769">
        <ele>744</ele>
        <time>2020-08-06T01:24:36Z</time>
      </trkpt>
      <trkpt lat="42.43815" lon="2.69785">
        <ele>740</ele>
        <time>2020-08-06T01:24:42Z</time>
      </trkpt>
      <trkpt lat="42.43804" lon="2.69796">
        <ele>738</ele>
        <time>2020-08-06T01:24:49Z</time>
      </trkpt>
      <trkpt lat="42.43798" lon="2.69796">
        <ele>740</ele>
        <time>2020-08-06T01:24:52Z</time>
      </trkpt>
      <trkpt lat="42.43788" lon="2.69804">
        <ele>739</ele>
        <time>2020-08-06T01:24:58Z</time>
      </trkpt>
      <trkpt lat="42.43775" lon="2.69808">
        <ele>740</ele>
        <time>2020-08-06T01:25:04Z</time>
      </trkpt>
      <trkpt lat="42.43754" lon="2.69822">
        <ele>739</ele>
        <time>2020-08-06T01:25:16Z</time>
      </trkpt>
      <trkpt lat="42.43738" lon="2.69826">
        <ele>741</ele>
        <time>2020-08-06T01:25:24Z</time>
      </trkpt>
      <trkpt lat="42.43719" lon="2.69836">
        <ele>743</ele>
        <time>2020-08-06T01:25:35Z</time>
      </trkpt>
      <trkpt lat="42.43716" lon="2.69842">
        <ele>741</ele>
        <time>2020-08-06T01:25:37Z</time>
      </trkpt>
      <trkpt lat="42.43726" lon="2.69864">
        <ele>730</ele>
        <time>2020-08-06T01:25:47Z</time>
      </trkpt>
      <trkpt lat="42.43721" lon="2.69885">
        <ele>723</ele>
        <time>2020-08-06T01:25:55Z</time>
      </trkpt>
      <trkpt lat="42.43707" lon="2.69889">
        <ele>724</ele>
        <time>2020-08-06T01:26:02Z</time>
      </trkpt>
      <trkpt lat="42.43697" lon="2.69895">
        <ele>724</ele>
        <time>2020-08-06T01:26:08Z</time>
      </trkpt>
      <trkpt lat="42.43685" lon="2.6989">
        <ele>729</ele>
        <time>2020-08-06T01:26:14Z</time>
      </trkpt>
      <trkpt lat="42.43674" lon="2.69896">
        <ele>729</ele>
        <time>2020-08-06T01:26:20Z</time>
      </trkpt>
      <trkpt lat="42.43648" lon="2.69896">
        <ele>738</ele>
        <time>2020-08-06T01:26:33Z</time>
      </trkpt>
      <trkpt lat="42.43644" lon="2.69901">
        <ele>737</ele>
        <time>2020-08-06T01:26:35Z</time>
      </trkpt>
      <trkpt lat="42.43636" lon="2.699">
        <ele>741</ele>
        <time>2020-08-06T01:26:39Z</time>
      </trkpt>
      <trkpt lat="42.43627" lon="2.69904">
        <ele>743</ele>
        <time>2020-08-06T01:26:44Z</time>
      </trkpt>
      <trkpt lat="42.43621" lon="2.69904">
        <ele>746</ele>
        <time>2020-08-06T01:26:47Z</time>
      </trkpt>
      <trkpt lat="42.43614" lon="2.69926">
        <ele>739</ele>
        <time>2020-08-06T01:26:56Z</time>
      </trkpt>
      <trkpt lat="42.43595" lon="2.69945">
        <ele>740</ele>
        <time>2020-08-06T01:27:08Z</time>
      </trkpt>
      <trkpt lat="42.43576" lon="2.69976">
        <ele>737</ele>
        <time>2020-08-06T01:27:23Z</time>
      </trkpt>
      <trkpt lat="42.43566" lon="2.69984">
        <ele>738</ele>
        <time>2020-08-06T01:27:29Z</time>
      </trkpt>
      <trkpt lat="42.43556" lon="2.69986">
        <ele>742</ele>
        <time>2020-08-06T01:27:34Z</time>
      </trkpt>
      <trkpt lat="42.43551" lon="2.69984">
        <ele>745</ele>
        <time>2020-08-06T01:27:36Z</time>
      </trkpt>
      <trkpt lat="42.43538" lon="2.69985">
        <ele>750</ele>
        <time>2020-08-06T01:27:43Z</time>
      </trkpt>
      <trkpt lat="42.43534" lon="2.69996">
        <ele>748</ele>
        <time>2020-08-06T01:27:47Z</time>
      </trkpt>
      <trkpt lat="42.43534" lon="2.70013">
        <ele>745</ele>
        <time>2020-08-06T01:27:54Z</time>
      </trkpt>
      <trkpt lat="42.43539" lon="2.70033">
        <ele>741</ele>
        <time>2020-08-06T01:28:01Z</time>
      </trkpt>
      <trkpt lat="42.43545" lon="2.70082">
        <ele>734</ele>
        <time>2020-08-06T01:28:20Z</time>
      </trkpt>
      <trkpt lat="42.43538" lon="2.70137">
        <ele>735</ele>
        <time>2020-08-06T01:28:40Z</time>
      </trkpt>
      <trkpt lat="42.43529" lon="2.70162">
        <ele>735</ele>
        <time>2020-08-06T01:28:51Z</time>
      </trkpt>
      <trkpt lat="42.43512" lon="2.70176">
        <ele>738</ele>
        <time>2020-08-06T01:29:01Z</time>
      </trkpt>
      <trkpt lat="42.43502" lon="2.70179">
        <ele>740</ele>
        <time>2020-08-06T01:29:06Z</time>
      </trkpt>
      <trkpt lat="42.43489" lon="2.70172">
        <ele>744</ele>
        <time>2020-08-06T01:29:13Z</time>
      </trkpt>
      <trkpt lat="42.43473" lon="2.70158">
        <ele>750</ele>
        <time>2020-08-06T01:29:22Z</time>
      </trkpt>
      <trkpt lat="42.43463" lon="2.70139">
        <ele>755</ele>
        <time>2020-08-06T01:29:31Z</time>
      </trkpt>
      <trkpt lat="42.43459" lon="2.70139">
        <ele>756</ele>
        <time>2020-08-06T01:29:33Z</time>
      </trkpt>
      <trkpt lat="42.43456" lon="2.70144">
        <ele>757</ele>
        <time>2020-08-06T01:29:35Z</time>
      </trkpt>
      <trkpt lat="42.43453" lon="2.70164">
        <ele>757</ele>
        <time>2020-08-06T01:29:43Z</time>
      </trkpt>
      <trkpt lat="42.43454" lon="2.70174">
        <ele>757</ele>
        <time>2020-08-06T01:29:46Z</time>
      </trkpt>
      <trkpt lat="42.43475" lon="2.70222">
        <ele>751</ele>
        <time>2020-08-06T01:30:07Z</time>
      </trkpt>
      <trkpt lat="42.43476" lon="2.7024">
        <ele>752</ele>
        <time>2020-08-06T01:30:14Z</time>
      </trkpt>
      <trkpt lat="42.43462" lon="2.70348">
        <ele>765</ele>
        <time>2020-08-06T01:30:54Z</time>
      </trkpt>
      <trkpt lat="42.43452" lon="2.7037">
        <ele>770</ele>
        <time>2020-08-06T01:31:04Z</time>
      </trkpt>
      <trkpt lat="42.43456" lon="2.70393">
        <ele>769</ele>
        <time>2020-08-06T01:31:13Z</time>
      </trkpt>
      <trkpt lat="42.43455" lon="2.70413">
        <ele>770</ele>
        <time>2020-08-06T01:31:20Z</time>
      </trkpt>
      <trkpt lat="42.43443" lon="2.7045">
        <ele>773</ele>
        <time>2020-08-06T01:31:35Z</time>
      </trkpt>
      <trkpt lat="42.43435" lon="2.70488">
        <ele>773</ele>
        <time>2020-08-06T01:31:49Z</time>
      </trkpt>
      <trkpt lat="42.43426" lon="2.70502">
        <ele>773</ele>
        <time>2020-08-06T01:31:56Z</time>
      </trkpt>
      <trkpt lat="42.43393" lon="2.70513">
        <ele>779</ele>
        <time>2020-08-06T01:32:13Z</time>
      </trkpt>
      <trkpt lat="42.43353" lon="2.7051">
        <ele>787</ele>
        <time>2020-08-06T01:32:33Z</time>
      </trkpt>
      <trkpt lat="42.43343" lon="2.70504">
        <ele>789</ele>
        <time>2020-08-06T01:32:39Z</time>
      </trkpt>
      <trkpt lat="42.43318" lon="2.70479">
        <ele>797</ele>
        <time>2020-08-06T01:32:54Z</time>
      </trkpt>
      <trkpt lat="42.43309" lon="2.70478">
        <ele>798</ele>
        <time>2020-08-06T01:32:59Z</time>
      </trkpt>
      <trkpt lat="42.43303" lon="2.70486">
        <ele>798</ele>
        <time>2020-08-06T01:33:03Z</time>
      </trkpt>
      <trkpt lat="42.43303" lon="2.70496">
        <ele>796</ele>
        <time>2020-08-06T01:33:07Z</time>
      </trkpt>
      <trkpt lat="42.43311" lon="2.70528">
        <ele>794</ele>
        <time>2020-08-06T01:33:19Z</time>
      </trkpt>
      <trkpt lat="42.43311" lon="2.70547">
        <ele>793</ele>
        <time>2020-08-06T01:33:26Z</time>
      </trkpt>
      <trkpt lat="42.43308" lon="2.70564">
        <ele>794</ele>
        <time>2020-08-06T01:33:33Z</time>
      </trkpt>
      <trkpt lat="42.43305" lon="2.70568">
        <ele>795</ele>
        <time>2020-08-06T01:33:35Z</time>
      </trkpt>
      <trkpt lat="42.43297" lon="2.70567">
        <ele>797</ele>
        <time>2020-08-06T01:33:39Z</time>
      </trkpt>
      <trkpt lat="42.43274" lon="2.70558">
        <ele>802</ele>
        <time>2020-08-06T01:33:51Z</time>
      </trkpt>
      <trkpt lat="42.43267" lon="2.70552">
        <ele>803</ele>
        <time>2020-08-06T01:33:55Z</time>
      </trkpt>
      <trkpt lat="42.43248" lon="2.70519">
        <ele>805</ele>
        <time>2020-08-06T01:34:10Z</time>
      </trkpt>
      <trkpt lat="42.4322" lon="2.70483">
        <ele>812</ele>
        <time>2020-08-06T01:34:30Z</time>
      </trkpt>
      <trkpt lat="42.43183" lon="2.70461">
        <ele>821</ele>
        <time>2020-08-06T01:34:50Z</time>
      </trkpt>
      <trkpt lat="42.43166" lon="2.70462">
        <ele>824</ele>
        <time>2020-08-06T01:34:59Z</time>
      </trkpt>
      <trkpt lat="42.43139" lon="2.70448">
        <ele>831</ele>
        <time>2020-08-06T01:35:13Z</time>
      </trkpt>
      <trkpt lat="42.43135" lon="2.70444">
        <ele>832</ele>
        <time>2020-08-06T01:35:15Z</time>
      </trkpt>
      <trkpt lat="42.43134" lon="2.70434">
        <ele>832</ele>
        <time>2020-08-06T01:35:19Z</time>
      </trkpt>
      <trkpt lat="42.43144" lon="2.7042">
        <ele>830</ele>
        <time>2020-08-06T01:35:26Z</time>
      </trkpt>
      <trkpt lat="42.43165" lon="2.70405">
        <ele>828</ele>
        <time>2020-08-06T01:35:38Z</time>
      </trkpt>
      <trkpt lat="42.43218" lon="2.70385">
        <ele>827</ele>
        <time>2020-08-06T01:36:06Z</time>
      </trkpt>
      <trkpt lat="42.43239" lon="2.70384">
        <ele>824</ele>
        <time>2020-08-06T01:36:16Z</time>
      </trkpt>
      <trkpt lat="42.43251" lon="2.70377">
        <ele>823</ele>
        <time>2020-08-06T01:36:23Z</time>
      </trkpt>
      <trkpt lat="42.43257" lon="2.70363">
        <ele>826</ele>
        <time>2020-08-06T01:36:29Z</time>
      </trkpt>
      <trkpt lat="42.43258" lon="2.70346">
        <ele>830</ele>
        <time>2020-08-06T01:36:35Z</time>
      </trkpt>
      <trkpt lat="42.43265" lon="2.7032">
        <ele>833</ele>
        <time>2020-08-06T01:36:45Z</time>
      </trkpt>
      <trkpt lat="42.43276" lon="2.70301">
        <ele>833</ele>
        <time>2020-08-06T01:36:54Z</time>
      </trkpt>
      <trkpt lat="42.43292" lon="2.70289">
        <ele>830</ele>
        <time>2020-08-06T01:37:03Z</time>
      </trkpt>
      <trkpt lat="42.43292" lon="2.70281">
        <ele>831</ele>
        <time>2020-08-06T01:37:06Z</time>
      </trkpt>
      <trkpt lat="42.43284" lon="2.70274">
        <ele>833</ele>
        <time>2020-08-06T01:37:11Z</time>
      </trkpt>
      <trkpt lat="42.43278" lon="2.70273">
        <ele>835</ele>
        <time>2020-08-06T01:37:14Z</time>
      </trkpt>
      <trkpt lat="42.43273" lon="2.70269">
        <ele>836</ele>
        <time>2020-08-06T01:37:17Z</time>
      </trkpt>
      <trkpt lat="42.43266" lon="2.7027">
        <ele>838</ele>
        <time>2020-08-06T01:37:21Z</time>
      </trkpt>
      <trkpt lat="42.43262" lon="2.70265">
        <ele>839</ele>
        <time>2020-08-06T01:37:23Z</time>
      </trkpt>
      <trkpt lat="42.43249" lon="2.70262">
        <ele>843</ele>
        <time>2020-08-06T01:37:30Z</time>
      </trkpt>
      <trkpt lat="42.43236" lon="2.70263">
        <ele>846</ele>
        <time>2020-08-06T01:37:36Z</time>
      </trkpt>
      <trkpt lat="42.43218" lon="2.70257">
        <ele>851</ele>
        <time>2020-08-06T01:37:46Z</time>
      </trkpt>
      <trkpt lat="42.43211" lon="2.70258">
        <ele>853</ele>
        <time>2020-08-06T01:37:49Z</time>
      </trkpt>
      <trkpt lat="42.43199" lon="2.70249">
        <ele>857</ele>
        <time>2020-08-06T01:37:56Z</time>
      </trkpt>
      <trkpt lat="42.43184" lon="2.7025">
        <ele>861</ele>
        <time>2020-08-06T01:38:04Z</time>
      </trkpt>
      <trkpt lat="42.43156" lon="2.70258">
        <ele>867</ele>
        <time>2020-08-06T01:38:18Z</time>
      </trkpt>
      <trkpt lat="42.43133" lon="2.70258">
        <ele>873</ele>
        <time>2020-08-06T01:38:29Z</time>
      </trkpt>
      <trkpt lat="42.4312" lon="2.70262">
        <ele>876</ele>
        <time>2020-08-06T01:38:36Z</time>
      </trkpt>
      <trkpt lat="42.43109" lon="2.70256">
        <ele>880</ele>
        <time>2020-08-06T01:38:42Z</time>
      </trkpt>
      <trkpt lat="42.43093" lon="2.70263">
        <ele>883</ele>
        <time>2020-08-06T01:38:50Z</time>
      </trkpt>
      <trkpt lat="42.43083" lon="2.70264">
        <ele>886</ele>
        <time>2020-08-06T01:38:56Z</time>
      </trkpt>
      <trkpt lat="42.43078" lon="2.70262">
        <ele>888</ele>
        <time>2020-08-06T01:38:58Z</time>
      </trkpt>
      <trkpt lat="42.43076" lon="2.7025">
        <ele>891</ele>
        <time>2020-08-06T01:39:03Z</time>
      </trkpt>
      <trkpt lat="42.43072" lon="2.70242">
        <ele>891</ele>
        <time>2020-08-06T01:39:06Z</time>
      </trkpt>
      <trkpt lat="42.43067" lon="2.70238">
        <ele>892</ele>
        <time>2020-08-06T01:39:09Z</time>
      </trkpt>
      <trkpt lat="42.43063" lon="2.70236">
        <ele>894</ele>
        <time>2020-08-06T01:39:11Z</time>
      </trkpt>
      <trkpt lat="42.43056" lon="2.70237">
        <ele>896</ele>
        <time>2020-08-06T01:39:15Z</time>
      </trkpt>
      <trkpt lat="42.43052" lon="2.70234">
        <ele>897</ele>
        <time>2020-08-06T01:39:17Z</time>
      </trkpt>
      <trkpt lat="42.43044" lon="2.70238">
        <ele>901</ele>
        <time>2020-08-06T01:39:21Z</time>
      </trkpt>
      <trkpt lat="42.43037" lon="2.70229">
        <ele>903</ele>
        <time>2020-08-06T01:39:26Z</time>
      </trkpt>
      <trkpt lat="42.43016" lon="2.70213">
        <ele>910</ele>
        <time>2020-08-06T01:39:38Z</time>
      </trkpt>
      <trkpt lat="42.43007" lon="2.70213">
        <ele>913</ele>
        <time>2020-08-06T01:39:43Z</time>
      </trkpt>
      <trkpt lat="42.43003" lon="2.70209">
        <ele>915</ele>
        <time>2020-08-06T01:39:45Z</time>
      </trkpt>
      <trkpt lat="42.42961" lon="2.70211">
        <ele>929</ele>
        <time>2020-08-06T01:40:06Z</time>
      </trkpt>
      <trkpt lat="42.42949" lon="2.70205">
        <ele>934</ele>
        <time>2020-08-06T01:40:13Z</time>
      </trkpt>
      <trkpt lat="42.42945" lon="2.70207">
        <ele>935</ele>
        <time>2020-08-06T01:40:15Z</time>
      </trkpt>
      <trkpt lat="42.42941" lon="2.70201">
        <ele>937</ele>
        <time>2020-08-06T01:40:18Z</time>
      </trkpt>
      <trkpt lat="42.42934" lon="2.70197">
        <ele>939</ele>
        <time>2020-08-06T01:40:22Z</time>
      </trkpt>
      <trkpt lat="42.42931" lon="2.70188">
        <ele>941</ele>
        <time>2020-08-06T01:40:25Z</time>
      </trkpt>
      <trkpt lat="42.42911" lon="2.70163">
        <ele>951</ele>
        <time>2020-08-06T01:40:39Z</time>
      </trkpt>
      <trkpt lat="42.42907" lon="2.70164">
        <ele>953</ele>
        <time>2020-08-06T01:40:41Z</time>
      </trkpt>
      <trkpt lat="42.42894" lon="2.70154">
        <ele>959</ele>
        <time>2020-08-06T01:40:48Z</time>
      </trkpt>
      <trkpt lat="42.42889" lon="2.70156">
        <ele>961</ele>
        <time>2020-08-06T01:40:51Z</time>
      </trkpt>
      <trkpt lat="42.42889" lon="2.70164">
        <ele>962</ele>
        <time>2020-08-06T01:40:54Z</time>
      </trkpt>
      <trkpt lat="42.42886" lon="2.70165">
        <ele>963</ele>
        <time>2020-08-06T01:40:55Z</time>
      </trkpt>
      <trkpt lat="42.42881" lon="2.70177">
        <ele>964</ele>
        <time>2020-08-06T01:41:01Z</time>
      </trkpt>
      <trkpt lat="42.42854" lon="2.70195">
        <ele>973</ele>
        <time>2020-08-06T01:41:16Z</time>
      </trkpt>
      <trkpt lat="42.42839" lon="2.70197">
        <ele>980</ele>
        <time>2020-08-06T01:41:23Z</time>
      </trkpt>
      <trkpt lat="42.42808" lon="2.70212">
        <ele>989</ele>
        <time>2020-08-06T01:41:40Z</time>
      </trkpt>
      <trkpt lat="42.42798" lon="2.70209">
        <ele>994</ele>
        <time>2020-08-06T01:41:45Z</time>
      </trkpt>
      <trkpt lat="42.42773" lon="2.70211">
        <ele>1004</ele>
        <time>2020-08-06T01:41:57Z</time>
      </trkpt>
      <trkpt lat="42.42761" lon="2.70209">
        <ele>1010</ele>
        <time>2020-08-06T01:42:03Z</time>
      </trkpt>
      <trkpt lat="42.42744" lon="2.70214">
        <ele>1015</ele>
        <time>2020-08-06T01:42:12Z</time>
      </trkpt>
      <trkpt lat="42.42735" lon="2.70218">
        <ele>1017</ele>
        <time>2020-08-06T01:42:17Z</time>
      </trkpt>
      <trkpt lat="42.42729" lon="2.70226">
        <ele>1017</ele>
        <time>2020-08-06T01:42:21Z</time>
      </trkpt>
      <trkpt lat="42.42707" lon="2.70233">
        <ele>1023</ele>
        <time>2020-08-06T01:42:32Z</time>
      </trkpt>
      <trkpt lat="42.42698" lon="2.70241">
        <ele>1024</ele>
        <time>2020-08-06T01:42:38Z</time>
      </trkpt>
      <trkpt lat="42.42685" lon="2.70247">
        <ele>1028</ele>
        <time>2020-08-06T01:42:45Z</time>
      </trkpt>
      <trkpt lat="42.4268" lon="2.70253">
        <ele>1028</ele>
        <time>2020-08-06T01:42:48Z</time>
      </trkpt>
      <trkpt lat="42.42659" lon="2.70262">
        <ele>1034</ele>
        <time>2020-08-06T01:42:59Z</time>
      </trkpt>
      <trkpt lat="42.42649" lon="2.70271">
        <ele>1036</ele>
        <time>2020-08-06T01:43:05Z</time>
      </trkpt>
      <trkpt lat="42.42643" lon="2.70272">
        <ele>1038</ele>
        <time>2020-08-06T01:43:08Z</time>
      </trkpt>
      <trkpt lat="42.42639" lon="2.7027">
        <ele>1040</ele>
        <time>2020-08-06T01:43:10Z</time>
      </trkpt>
      <trkpt lat="42.42627" lon="2.70286">
        <ele>1043</ele>
        <time>2020-08-06T01:43:19Z</time>
      </trkpt>
      <trkpt lat="42.42623" lon="2.70284">
        <ele>1045</ele>
        <time>2020-08-06T01:43:21Z</time>
      </trkpt>
      <trkpt lat="42.42619" lon="2.70266">
        <ele>1047</ele>
        <time>2020-08-06T01:43:28Z</time>
      </trkpt>
      <trkpt lat="42.42615" lon="2.70263">
        <ele>1048</ele>
        <time>2020-08-06T01:43:30Z</time>
      </trkpt>
      <trkpt lat="42.42607" lon="2.70266">
        <ele>1051</ele>
        <time>2020-08-06T01:43:34Z</time>
      </trkpt>
      <trkpt lat="42.42603" lon="2.70264">
        <ele>1052</ele>
        <time>2020-08-06T01:43:36Z</time>
      </trkpt>
      <trkpt lat="42.42585" lon="2.70243">
        <ele>1057</ele>
        <time>2020-08-06T01:43:48Z</time>
      </trkpt>
      <trkpt lat="42.42579" lon="2.70241">
        <ele>1057</ele>
        <time>2020-08-06T01:43:51Z</time>
      </trkpt>
      <trkpt lat="42.42564" lon="2.70261">
        <ele>1057</ele>
        <time>2020-08-06T01:44:02Z</time>
      </trkpt>
      <trkpt lat="42.42557" lon="2.70264">
        <ele>1057</ele>
        <time>2020-08-06T01:44:05Z</time>
      </trkpt>
      <trkpt lat="42.42539" lon="2.70284">
        <ele>1061</ele>
        <time>2020-08-06T01:44:17Z</time>
      </trkpt>
      <trkpt lat="42.42517" lon="2.70294">
        <ele>1064</ele>
        <time>2020-08-06T01:44:29Z</time>
      </trkpt>
      <trkpt lat="42.42469" lon="2.70339">
        <ele>1072</ele>
        <time>2020-08-06T01:44:58Z</time>
      </trkpt>
      <trkpt lat="42.42464" lon="2.70341">
        <ele>1071</ele>
        <time>2020-08-06T01:45:00Z</time>
      </trkpt>
      <trkpt lat="42.42454" lon="2.7036">
        <ele>1076</ele>
        <time>2020-08-06T01:45:09Z</time>
      </trkpt>
      <trkpt lat="42.42429" lon="2.70388">
        <ele>1080</ele>
        <time>2020-08-06T01:45:25Z</time>
      </trkpt>
      <trkpt lat="42.42422" lon="2.70406">
        <ele>1084</ele>
        <time>2020-08-06T01:45:33Z</time>
      </trkpt>
      <trkpt lat="42.42411" lon="2.7042">
        <ele>1087</ele>
        <time>2020-08-06T01:45:40Z</time>
      </trkpt>
      <trkpt lat="42.42407" lon="2.70429">
        <ele>1089</ele>
        <time>2020-08-06T01:45:44Z</time>
      </trkpt>
      <trkpt lat="42.42389" lon="2.70446">
        <ele>1092</ele>
        <time>2020-08-06T01:45:55Z</time>
      </trkpt>
      <trkpt lat="42.42379" lon="2.70471">
        <ele>1098</ele>
        <time>2020-08-06T01:46:06Z</time>
      </trkpt>
      <trkpt lat="42.42363" lon="2.70493">
        <ele>1102</ele>
        <time>2020-08-06T01:46:17Z</time>
      </trkpt>
      <trkpt lat="42.42357" lon="2.7053">
        <ele>1113</ele>
        <time>2020-08-06T01:46:31Z</time>
      </trkpt>
      <trkpt lat="42.42344" lon="2.7055">
        <ele>1115</ele>
        <time>2020-08-06T01:46:41Z</time>
      </trkpt>
      <trkpt lat="42.42347" lon="2.70567">
        <ele>1121</ele>
        <time>2020-08-06T01:46:47Z</time>
      </trkpt>
      <trkpt lat="42.42356" lon="2.70584">
        <ele>1130</ele>
        <time>2020-08-06T01:46:55Z</time>
      </trkpt>
      <trkpt lat="42.42356" lon="2.70589">
        <ele>1131</ele>
        <time>2020-08-06T01:46:57Z</time>
      </trkpt>
      <trkpt lat="42.42353" lon="2.70594">
        <ele>1131</ele>
        <time>2020-08-06T01:46:59Z</time>
      </trkpt>
      <trkpt lat="42.4235" lon="2.70621">
        <ele>1138</ele>
        <time>2020-08-06T01:47:09Z</time>
      </trkpt>
      <trkpt lat="42.42346" lon="2.70659">
        <ele>1147</ele>
        <time>2020-08-06T01:47:24Z</time>
      </trkpt>
      <trkpt lat="42.42347" lon="2.70673">
        <ele>1151</ele>
        <time>2020-08-06T01:47:29Z</time>
      </trkpt>
      <trkpt lat="42.42335" lon="2.7071">
        <ele>1161</ele>
        <time>2020-08-06T01:47:44Z</time>
      </trkpt>
      <trkpt lat="42.42335" lon="2.70716">
        <ele>1164</ele>
        <time>2020-08-06T01:47:46Z</time>
      </trkpt>
      <trkpt lat="42.4234" lon="2.70721">
        <ele>1166</ele>
        <time>2020-08-06T01:47:49Z</time>
      </trkpt>
      <trkpt lat="42.42342" lon="2.70732">
        <ele>1170</ele>
        <time>2020-08-06T01:47:53Z</time>
      </trkpt>
      <trkpt lat="42.42332" lon="2.7075">
        <ele>1175</ele>
        <time>2020-08-06T01:48:02Z</time>
      </trkpt>
      <trkpt lat="42.42327" lon="2.70776">
        <ele>1183</ele>
        <time>2020-08-06T01:48:12Z</time>
      </trkpt>
      <trkpt lat="42.42327" lon="2.70794">
        <ele>1187</ele>
        <time>2020-08-06T01:48:18Z</time>
      </trkpt>
      <trkpt lat="42.42314" lon="2.70815">
        <ele>1195</ele>
        <time>2020-08-06T01:48:28Z</time>
      </trkpt>
      <trkpt lat="42.423" lon="2.70868">
        <ele>1207</ele>
        <time>2020-08-06T01:48:49Z</time>
      </trkpt>
      <trkpt lat="42.42308" lon="2.70905">
        <ele>1212</ele>
        <time>2020-08-06T01:49:03Z</time>
      </trkpt>
      <trkpt lat="42.42305" lon="2.70951">
        <ele>1221</ele>
        <time>2020-08-06T01:49:20Z</time>
      </trkpt>
      <trkpt lat="42.42308" lon="2.70976">
        <ele>1226</ele>
        <time>2020-08-06T01:49:30Z</time>
      </trkpt>
      <trkpt lat="42.42305" lon="2.71021">
        <ele>1236</ele>
        <time>2020-08-06T01:49:46Z</time>
      </trkpt>
      <trkpt lat="42.42306" lon="2.71049">
        <ele>1241</ele>
        <time>2020-08-06T01:49:57Z</time>
      </trkpt>
      <trkpt lat="42.42311" lon="2.71079">
        <ele>1246</ele>
        <time>2020-08-06T01:50:08Z</time>
      </trkpt>
      <trkpt lat="42.42304" lon="2.71105">
        <ele>1250</ele>
        <time>2020-08-06T01:50:18Z</time>
      </trkpt>
      <trkpt lat="42.42293" lon="2.71108">
        <ele>1252</ele>
        <time>2020-08-06T01:50:24Z</time>
      </trkpt>
      <trkpt lat="42.42285" lon="2.71107">
        <ele>1254</ele>
        <time>2020-08-06T01:50:28Z</time>
      </trkpt>
      <trkpt lat="42.42267" lon="2.71136">
        <ele>1262</ele>
        <time>2020-08-06T01:50:42Z</time>
      </trkpt>
      <trkpt lat="42.42257" lon="2.71143">
        <ele>1265</ele>
        <time>2020-08-06T01:50:48Z</time>
      </trkpt>
      <trkpt lat="42.42255" lon="2.71157">
        <ele>1268</ele>
        <time>2020-08-06T01:50:53Z</time>
      </trkpt>
      <trkpt lat="42.42247" lon="2.71172">
        <ele>1273</ele>
        <time>2020-08-06T01:51:00Z</time>
      </trkpt>
      <trkpt lat="42.42243" lon="2.71187">
        <ele>1277</ele>
        <time>2020-08-06T01:51:06Z</time>
      </trkpt>
      <trkpt lat="42.42236" lon="2.71197">
        <ele>1282</ele>
        <time>2020-08-06T01:51:11Z</time>
      </trkpt>
      <trkpt lat="42.42231" lon="2.71212">
        <ele>1286</ele>
        <time>2020-08-06T01:51:17Z</time>
      </trkpt>
      <trkpt lat="42.42229" lon="2.71239">
        <ele>1291</ele>
        <time>2020-08-06T01:51:27Z</time>
      </trkpt>
      <trkpt lat="42.42224" lon="2.71253">
        <ele>1294</ele>
        <time>2020-08-06T01:51:33Z</time>
      </trkpt>
      <trkpt lat="42.42222" lon="2.71272">
        <ele>1297</ele>
        <time>2020-08-06T01:51:40Z</time>
      </trkpt>
      <trkpt lat="42.422" lon="2.71312">
        <ele>1309</ele>
        <time>2020-08-06T01:51:58Z</time>
      </trkpt>
      <trkpt lat="42.42198" lon="2.71327">
        <ele>1312</ele>
        <time>2020-08-06T01:52:04Z</time>
      </trkpt>
      <trkpt lat="42.422" lon="2.71345">
        <ele>1314</ele>
        <time>2020-08-06T01:52:10Z</time>
      </trkpt>
      <trkpt lat="42.42188" lon="2.71374">
        <ele>1324</ele>
        <time>2020-08-06T01:52:23Z</time>
      </trkpt>
      <trkpt lat="42.42188" lon="2.7138">
        <ele>1325</ele>
        <time>2020-08-06T01:52:25Z</time>
      </trkpt>
      <trkpt lat="42.42179" lon="2.71389">
        <ele>1330</ele>
        <time>2020-08-06T01:52:31Z</time>
      </trkpt>
      <trkpt lat="42.42177" lon="2.71395">
        <ele>1332</ele>
        <time>2020-08-06T01:52:33Z</time>
      </trkpt>
      <trkpt lat="42.42174" lon="2.71425">
        <ele>1340</ele>
        <time>2020-08-06T01:52:44Z</time>
      </trkpt>
      <trkpt lat="42.42176" lon="2.71443">
        <ele>1343</ele>
        <time>2020-08-06T01:52:51Z</time>
      </trkpt>
      <trkpt lat="42.42161" lon="2.7146">
        <ele>1353</ele>
        <time>2020-08-06T01:53:01Z</time>
      </trkpt>
      <trkpt lat="42.42154" lon="2.71483">
        <ele>1360</ele>
        <time>2020-08-06T01:53:10Z</time>
      </trkpt>
      <trkpt lat="42.42158" lon="2.71486">
        <ele>1360</ele>
        <time>2020-08-06T01:53:12Z</time>
      </trkpt>
      <trkpt lat="42.42161" lon="2.71499">
        <ele>1362</ele>
        <time>2020-08-06T01:53:17Z</time>
      </trkpt>
      <trkpt lat="42.42149" lon="2.71519">
        <ele>1369</ele>
        <time>2020-08-06T01:53:27Z</time>
      </trkpt>
      <trkpt lat="42.42159" lon="2.71543">
        <ele>1372</ele>
        <time>2020-08-06T01:53:37Z</time>
      </trkpt>
      <trkpt lat="42.42162" lon="2.7156">
        <ele>1375</ele>
        <time>2020-08-06T01:53:43Z</time>
      </trkpt>
      <trkpt lat="42.42159" lon="2.71582">
        <ele>1381</ele>
        <time>2020-08-06T01:53:52Z</time>
      </trkpt>
      <trkpt lat="42.42167" lon="2.7163">
        <ele>1385</ele>
        <time>2020-08-06T01:54:10Z</time>
      </trkpt>
      <trkpt lat="42.42173" lon="2.71646">
        <ele>1384</ele>
        <time>2020-08-06T01:54:16Z</time>
      </trkpt>
      <trkpt lat="42.42175" lon="2.71687">
        <ele>1386</ele>
        <time>2020-08-06T01:54:32Z</time>
      </trkpt>
      <trkpt lat="42.42182" lon="2.7171">
        <ele>1383</ele>
        <time>2020-08-06T01:54:41Z</time>
      </trkpt>
      <trkpt lat="42.4218" lon="2.71728">
        <ele>1384</ele>
        <time>2020-08-06T01:54:48Z</time>
      </trkpt>
      <trkpt lat="42.42184" lon="2.71745">
        <ele>1383</ele>
        <time>2020-08-06T01:54:54Z</time>
      </trkpt>
      <trkpt lat="42.42187" lon="2.71781">
        <ele>1380</ele>
        <time>2020-08-06T01:55:07Z</time>
      </trkpt>
      <trkpt lat="42.42214" lon="2.71835">
        <ele>1371</ele>
        <time>2020-08-06T01:55:32Z</time>
      </trkpt>
      <trkpt lat="42.42214" lon="2.71843">
        <ele>1370</ele>
        <time>2020-08-06T01:55:35Z</time>
      </trkpt>
      <trkpt lat="42.42229" lon="2.71871">
        <ele>1366</ele>
        <time>2020-08-06T01:55:47Z</time>
      </trkpt>
      <trkpt lat="42.42235" lon="2.71915">
        <ele>1364</ele>
        <time>2020-08-06T01:56:04Z</time>
      </trkpt>
      <trkpt lat="42.42222" lon="2.71965">
        <ele>1361</ele>
        <time>2020-08-06T01:56:23Z</time>
      </trkpt>
      <trkpt lat="42.42218" lon="2.72015">
        <ele>1357</ele>
        <time>2020-08-06T01:56:42Z</time>
      </trkpt>
      <trkpt lat="42.42242" lon="2.72084">
        <ele>1356</ele>
        <time>2020-08-06T01:57:10Z</time>
      </trkpt>
      <trkpt lat="42.42246" lon="2.72115">
        <ele>1361</ele>
        <time>2020-08-06T01:57:22Z</time>
      </trkpt>
      <trkpt lat="42.4227" lon="2.72135">
        <ele>1358</ele>
        <time>2020-08-06T01:57:36Z</time>
      </trkpt>
      <trkpt lat="42.42271" lon="2.72204">
        <ele>1368</ele>
        <time>2020-08-06T01:58:01Z</time>
      </trkpt>
      <trkpt lat="42.42259" lon="2.72283">
        <ele>1381</ele>
        <time>2020-08-06T01:58:31Z</time>
      </trkpt>
      <trkpt lat="42.4228" lon="2.7237">
        <ele>1385</ele>
        <time>2020-08-06T01:59:05Z</time>
      </trkpt>
      <trkpt lat="42.42299" lon="2.7243">
        <ele>1389</ele>
        <time>2020-08-06T01:59:29Z</time>
      </trkpt>
      <trkpt lat="42.42306" lon="2.72634">
        <ele>1393</ele>
        <time>2020-08-06T02:00:45Z</time>
      </trkpt>
      <trkpt lat="42.42316" lon="2.72734">
        <ele>1404</ele>
        <time>2020-08-06T02:01:22Z</time>
      </trkpt>
      <trkpt lat="42.42297" lon="2.72793">
        <ele>1409</ele>
        <time>2020-08-06T02:01:46Z</time>
      </trkpt>
      <trkpt lat="42.42276" lon="2.72846">
        <ele>1413</ele>
        <time>2020-08-06T02:02:08Z</time>
      </trkpt>
      <trkpt lat="42.42269" lon="2.72911">
        <ele>1413</ele>
        <time>2020-08-06T02:02:32Z</time>
      </trkpt>
      <trkpt lat="42.42277" lon="2.72972">
        <ele>1417</ele>
        <time>2020-08-06T02:02:55Z</time>
      </trkpt>
      <trkpt lat="42.42267" lon="2.73047">
        <ele>1425</ele>
        <time>2020-08-06T02:03:23Z</time>
      </trkpt>
      <trkpt lat="42.42318" lon="2.73054">
        <ele>1418</ele>
        <time>2020-08-06T02:03:49Z</time>
      </trkpt>
      <trkpt lat="42.42329" lon="2.73067">
        <ele>1417</ele>
        <time>2020-08-06T02:03:56Z</time>
      </trkpt>
      <trkpt lat="42.42338" lon="2.73133">
        <ele>1411</ele>
        <time>2020-08-06T02:04:21Z</time>
      </trkpt>
      <trkpt lat="42.42328" lon="2.73223">
        <ele>1401</ele>
        <time>2020-08-06T02:04:55Z</time>
      </trkpt>
      <trkpt lat="42.42314" lon="2.73269">
        <ele>1393</ele>
        <time>2020-08-06T02:05:13Z</time>
      </trkpt>
      <trkpt lat="42.42261" lon="2.73334">
        <ele>1382</ele>
        <time>2020-08-06T02:05:49Z</time>
      </trkpt>
      <trkpt lat="42.42221" lon="2.73374">
        <ele>1376</ele>
        <time>2020-08-06T02:06:14Z</time>
      </trkpt>
      <trkpt lat="42.42164" lon="2.734">
        <ele>1375</ele>
        <time>2020-08-06T02:06:44Z</time>
      </trkpt>
      <trkpt lat="42.42139" lon="2.73432">
        <ele>1367</ele>
        <time>2020-08-06T02:07:01Z</time>
      </trkpt>
      <trkpt lat="42.42098" lon="2.73442">
        <ele>1363</ele>
        <time>2020-08-06T02:07:22Z</time>
      </trkpt>
      <trkpt lat="42.42087" lon="2.73471">
        <ele>1355</ele>
        <time>2020-08-06T02:07:34Z</time>
      </trkpt>
      <trkpt lat="42.42108" lon="2.73545">
        <ele>1340</ele>
        <time>2020-08-06T02:08:03Z</time>
      </trkpt>
      <trkpt lat="42.42149" lon="2.73564">
        <ele>1339</ele>
        <time>2020-08-06T02:08:25Z</time>
      </trkpt>
      <trkpt lat="42.42193" lon="2.73551">
        <ele>1339</ele>
        <time>2020-08-06T02:08:47Z</time>
      </trkpt>
      <trkpt lat="42.42225" lon="2.73512">
        <ele>1341</ele>
        <time>2020-08-06T02:09:09Z</time>
      </trkpt>
      <trkpt lat="42.42263" lon="2.73497">
        <ele>1343</ele>
        <time>2020-08-06T02:09:29Z</time>
      </trkpt>
      <trkpt lat="42.42268" lon="2.73568">
        <ele>1331</ele>
        <time>2020-08-06T02:09:55Z</time>
      </trkpt>
      <trkpt lat="42.42292" lon="2.73689">
        <ele>1314</ele>
        <time>2020-08-06T02:10:41Z</time>
      </trkpt>
      <trkpt lat="42.42337" lon="2.73832">
        <ele>1284</ele>
        <time>2020-08-06T02:11:39Z</time>
      </trkpt>
      <trkpt lat="42.42355" lon="2.7387">
        <ele>1274</ele>
        <time>2020-08-06T02:11:55Z</time>
      </trkpt>
      <trkpt lat="42.42301" lon="2.73832">
        <ele>1276</ele>
        <time>2020-08-06T02:12:26Z</time>
      </trkpt>
      <trkpt lat="42.42302" lon="2.73856">
        <ele>1269</ele>
        <time>2020-08-06T02:12:35Z</time>
      </trkpt>
      <trkpt lat="42.42313" lon="2.73899">
        <ele>1260</ele>
        <time>2020-08-06T02:12:52Z</time>
      </trkpt>
      <trkpt lat="42.42335" lon="2.73958">
        <ele>1247</ele>
        <time>2020-08-06T02:13:16Z</time>
      </trkpt>
      <trkpt lat="42.42385" lon="2.74015">
        <ele>1236</ele>
        <time>2020-08-06T02:13:49Z</time>
      </trkpt>
      <trkpt lat="42.42364" lon="2.74024">
        <ele>1233</ele>
        <time>2020-08-06T02:14:00Z</time>
      </trkpt>
      <trkpt lat="42.42263" lon="2.73955">
        <ele>1237</ele>
        <time>2020-08-06T02:14:56Z</time>
      </trkpt>
      <trkpt lat="42.42241" lon="2.73966">
        <ele>1236</ele>
        <time>2020-08-06T02:15:08Z</time>
      </trkpt>
      <trkpt lat="42.42226" lon="2.74075">
        <ele>1223</ele>
        <time>2020-08-06T02:15:49Z</time>
      </trkpt>
      <trkpt lat="42.42214" lon="2.74134">
        <ele>1216</ele>
        <time>2020-08-06T02:16:12Z</time>
      </trkpt>
      <trkpt lat="42.42181" lon="2.74219">
        <ele>1209</ele>
        <time>2020-08-06T02:16:47Z</time>
      </trkpt>
      <trkpt lat="42.42175" lon="2.74274">
        <ele>1198</ele>
        <time>2020-08-06T02:17:08Z</time>
      </trkpt>
      <trkpt lat="42.42154" lon="2.74307">
        <ele>1198</ele>
        <time>2020-08-06T02:17:24Z</time>
      </trkpt>
      <trkpt lat="42.42129" lon="2.74439">
        <ele>1182</ele>
        <time>2020-08-06T02:18:14Z</time>
      </trkpt>
      <trkpt lat="42.4207" lon="2.74593">
        <ele>1162</ele>
        <time>2020-08-06T02:19:18Z</time>
      </trkpt>
      <trkpt lat="42.42047" lon="2.74628">
        <ele>1155</ele>
        <time>2020-08-06T02:19:35Z</time>
      </trkpt>
      <trkpt lat="42.4179" lon="2.74863">
        <ele>1123</ele>
        <time>2020-08-06T02:22:11Z</time>
      </trkpt>
      <trkpt lat="42.41795" lon="2.74879">
        <ele>1120</ele>
        <time>2020-08-06T02:22:17Z</time>
      </trkpt>
      <trkpt lat="42.41824" lon="2.74856">
        <ele>1118</ele>
        <time>2020-08-06T02:22:34Z</time>
      </trkpt>
      <trkpt lat="42.4192" lon="2.74879">
        <ele>1103</ele>
        <time>2020-08-06T02:23:23Z</time>
      </trkpt>
      <trkpt lat="42.4192" lon="2.74891">
        <ele>1100</ele>
        <time>2020-08-06T02:23:27Z</time>
      </trkpt>
      <trkpt lat="42.41844" lon="2.74946">
        <ele>1096</ele>
        <time>2020-08-06T02:24:10Z</time>
      </trkpt>
      <trkpt lat="42.4183" lon="2.75027">
        <ele>1082</ele>
        <time>2020-08-06T02:24:41Z</time>
      </trkpt>
      <trkpt lat="42.4181" lon="2.75101">
        <ele>1072</ele>
        <time>2020-08-06T02:25:10Z</time>
      </trkpt>
      <trkpt lat="42.4172" lon="2.75282">
        <ele>1047</ele>
        <time>2020-08-06T02:26:31Z</time>
      </trkpt>
      <trkpt lat="42.41623" lon="2.75354">
        <ele>1040</ele>
        <time>2020-08-06T02:27:26Z</time>
      </trkpt>
      <trkpt lat="42.41544" lon="2.75449">
        <ele>1030</ele>
        <time>2020-08-06T02:28:19Z</time>
      </trkpt>
      <trkpt lat="42.41493" lon="2.75553">
        <ele>1021</ele>
        <time>2020-08-06T02:29:05Z</time>
      </trkpt>
      <trkpt lat="42.41479" lon="2.75719">
        <ele>1002</ele>
        <time>2020-08-06T02:30:07Z</time>
      </trkpt>
      <trkpt lat="42.41415" lon="2.75869">
        <ele>993</ele>
        <time>2020-08-06T02:31:11Z</time>
      </trkpt>
      <trkpt lat="42.41412" lon="2.7593">
        <ele>986</ele>
        <time>2020-08-06T02:31:33Z</time>
      </trkpt>
      <trkpt lat="42.41427" lon="2.75991">
        <ele>979</ele>
        <time>2020-08-06T02:31:57Z</time>
      </trkpt>
      <trkpt lat="42.41396" lon="2.76074">
        <ele>965</ele>
        <time>2020-08-06T02:32:31Z</time>
      </trkpt>
      <trkpt lat="42.41312" lon="2.76147">
        <ele>952</ele>
        <time>2020-08-06T02:33:21Z</time>
      </trkpt>
      <trkpt lat="42.41235" lon="2.76325">
        <ele>924</ele>
        <time>2020-08-06T02:34:38Z</time>
      </trkpt>
      <trkpt lat="42.41205" lon="2.76475">
        <ele>913</ele>
        <time>2020-08-06T02:35:35Z</time>
      </trkpt>
      <trkpt lat="42.41167" lon="2.76578">
        <ele>910</ele>
        <time>2020-08-06T02:36:18Z</time>
      </trkpt>
      <trkpt lat="42.41149" lon="2.7677">
        <ele>882</ele>
        <time>2020-08-06T02:37:29Z</time>
      </trkpt>
      <trkpt lat="42.41154" lon="2.76893">
        <ele>879</ele>
        <time>2020-08-06T02:38:15Z</time>
      </trkpt>
      <trkpt lat="42.41122" lon="2.76982">
        <ele>883</ele>
        <time>2020-08-06T02:38:51Z</time>
      </trkpt>
      <trkpt lat="42.41054" lon="2.77021">
        <ele>868</ele>
        <time>2020-08-06T02:39:28Z</time>
      </trkpt>
      <trkpt lat="42.41018" lon="2.77118">
        <ele>869</ele>
        <time>2020-08-06T02:40:08Z</time>
      </trkpt>
      <trkpt lat="42.40927" lon="2.7721">
        <ele>846</ele>
        <time>2020-08-06T02:41:05Z</time>
      </trkpt>
      <trkpt lat="42.40945" lon="2.77252">
        <ele>852</ele>
        <time>2020-08-06T02:41:23Z</time>
      </trkpt>
      <trkpt lat="42.41017" lon="2.77274">
        <ele>851</ele>
        <time>2020-08-06T02:42:00Z</time>
      </trkpt>
      <trkpt lat="42.41128" lon="2.77273">
        <ele>858</ele>
        <time>2020-08-06T02:42:55Z</time>
      </trkpt>
      <trkpt lat="42.41199" lon="2.77361">
        <ele>844</ele>
        <time>2020-08-06T02:43:44Z</time>
      </trkpt>
      <trkpt lat="42.4121" lon="2.77414">
        <ele>835</ele>
        <time>2020-08-06T02:44:04Z</time>
      </trkpt>
      <trkpt lat="42.4121" lon="2.77454">
        <ele>830</ele>
        <time>2020-08-06T02:44:19Z</time>
      </trkpt>
      <trkpt lat="42.41202" lon="2.77531">
        <ele>819</ele>
        <time>2020-08-06T02:44:47Z</time>
      </trkpt>
      <trkpt lat="42.41202" lon="2.77574">
        <ele>816</ele>
        <time>2020-08-06T02:45:03Z</time>
      </trkpt>
      <trkpt lat="42.41194" lon="2.77611">
        <ele>813</ele>
        <time>2020-08-06T02:45:18Z</time>
      </trkpt>
      <trkpt lat="42.41163" lon="2.77669">
        <ele>804</ele>
        <time>2020-08-06T02:45:44Z</time>
      </trkpt>
      <trkpt lat="42.41158" lon="2.77723">
        <ele>802</ele>
        <time>2020-08-06T02:46:04Z</time>
      </trkpt>
      <trkpt lat="42.41137" lon="2.77764">
        <ele>790</ele>
        <time>2020-08-06T02:46:23Z</time>
      </trkpt>
      <trkpt lat="42.41107" lon="2.7788">
        <ele>767</ele>
        <time>2020-08-06T02:47:08Z</time>
      </trkpt>
      <trkpt lat="42.41127" lon="2.7792">
        <ele>767</ele>
        <time>2020-08-06T02:47:26Z</time>
      </trkpt>
      <trkpt lat="42.41184" lon="2.77919">
        <ele>778</ele>
        <time>2020-08-06T02:47:54Z</time>
      </trkpt>
      <trkpt lat="42.41199" lon="2.78014">
        <ele>751</ele>
        <time>2020-08-06T02:48:30Z</time>
      </trkpt>
      <trkpt lat="42.41222" lon="2.78078">
        <ele>737</ele>
        <time>2020-08-06T02:48:57Z</time>
      </trkpt>
      <trkpt lat="42.41245" lon="2.78097">
        <ele>737</ele>
        <time>2020-08-06T02:49:10Z</time>
      </trkpt>
      <trkpt lat="42.41257" lon="2.78104">
        <ele>735</ele>
        <time>2020-08-06T02:49:17Z</time>
      </trkpt>
      <trkpt lat="42.41271" lon="2.78106">
        <ele>734</ele>
        <time>2020-08-06T02:49:24Z</time>
      </trkpt>
      <trkpt lat="42.41288" lon="2.78104">
        <ele>733</ele>
        <time>2020-08-06T02:49:32Z</time>
      </trkpt>
      <trkpt lat="42.41306" lon="2.78096">
        <ele>734</ele>
        <time>2020-08-06T02:49:42Z</time>
      </trkpt>
      <trkpt lat="42.41341" lon="2.78074">
        <ele>736</ele>
        <time>2020-08-06T02:50:01Z</time>
      </trkpt>
      <trkpt lat="42.41359" lon="2.78067">
        <ele>734</ele>
        <time>2020-08-06T02:50:10Z</time>
      </trkpt>
      <trkpt lat="42.41386" lon="2.7806">
        <ele>731</ele>
        <time>2020-08-06T02:50:24Z</time>
      </trkpt>
      <trkpt lat="42.414" lon="2.78061">
        <ele>729</ele>
        <time>2020-08-06T02:50:31Z</time>
      </trkpt>
      <trkpt lat="42.41428" lon="2.78074">
        <ele>723</ele>
        <time>2020-08-06T02:50:46Z</time>
      </trkpt>
      <trkpt lat="42.41442" lon="2.78088">
        <ele>721</ele>
        <time>2020-08-06T02:50:55Z</time>
      </trkpt>
      <trkpt lat="42.41472" lon="2.78127">
        <ele>715</ele>
        <time>2020-08-06T02:51:15Z</time>
      </trkpt>
      <trkpt lat="42.41483" lon="2.78151">
        <ele>713</ele>
        <time>2020-08-06T02:51:26Z</time>
      </trkpt>
      <trkpt lat="42.41519" lon="2.78148">
        <ele>714</ele>
        <time>2020-08-06T02:51:44Z</time>
      </trkpt>
      <trkpt lat="42.41519" lon="2.78144">
        <ele>714</ele>
        <time>2020-08-06T02:51:45Z</time>
      </trkpt>
      <trkpt lat="42.41535" lon="2.78133">
        <ele>715</ele>
        <time>2020-08-06T02:51:54Z</time>
      </trkpt>
      <trkpt lat="42.41619" lon="2.78129">
        <ele>716</ele>
        <time>2020-08-06T02:52:36Z</time>
      </trkpt>
      <trkpt lat="42.41665" lon="2.78107">
        <ele>712</ele>
        <time>2020-08-06T02:53:01Z</time>
      </trkpt>
      <trkpt lat="42.41715" lon="2.78077">
        <ele>705</ele>
        <time>2020-08-06T02:53:28Z</time>
      </trkpt>
      <trkpt lat="42.41736" lon="2.78057">
        <ele>700</ele>
        <time>2020-08-06T02:53:41Z</time>
      </trkpt>
      <trkpt lat="42.41769" lon="2.78046">
        <ele>693</ele>
        <time>2020-08-06T02:53:58Z</time>
      </trkpt>
      <trkpt lat="42.41794" lon="2.78043">
        <ele>688</ele>
        <time>2020-08-06T02:54:11Z</time>
      </trkpt>
      <trkpt lat="42.4187" lon="2.78053">
        <ele>679</ele>
        <time>2020-08-06T02:54:49Z</time>
      </trkpt>
      <trkpt lat="42.41927" lon="2.78069">
        <ele>674</ele>
        <time>2020-08-06T02:55:18Z</time>
      </trkpt>
      <trkpt lat="42.41989" lon="2.78078">
        <ele>660</ele>
        <time>2020-08-06T02:55:49Z</time>
      </trkpt>
      <trkpt lat="42.41995" lon="2.78073">
        <ele>659</ele>
        <time>2020-08-06T02:55:53Z</time>
      </trkpt>
      <trkpt lat="42.42001" lon="2.78081">
        <ele>656</ele>
        <time>2020-08-06T02:55:57Z</time>
      </trkpt>
      <trkpt lat="42.42012" lon="2.78089">
        <ele>655</ele>
        <time>2020-08-06T02:56:03Z</time>
      </trkpt>
      <trkpt lat="42.42055" lon="2.78112">
        <ele>649</ele>
        <time>2020-08-06T02:56:26Z</time>
      </trkpt>
      <trkpt lat="42.42084" lon="2.78131">
        <ele>644</ele>
        <time>2020-08-06T02:56:42Z</time>
      </trkpt>
      <trkpt lat="42.42117" lon="2.78173">
        <ele>637</ele>
        <time>2020-08-06T02:57:05Z</time>
      </trkpt>
      <trkpt lat="42.42135" lon="2.78188">
        <ele>636</ele>
        <time>2020-08-06T02:57:16Z</time>
      </trkpt>
      <trkpt lat="42.42235" lon="2.78163">
        <ele>606</ele>
        <time>2020-08-06T02:58:07Z</time>
      </trkpt>
      <trkpt lat="42.42277" lon="2.78156">
        <ele>597</ele>
        <time>2020-08-06T02:58:28Z</time>
      </trkpt>
      <trkpt lat="42.42288" lon="2.78164">
        <ele>594</ele>
        <time>2020-08-06T02:58:34Z</time>
      </trkpt>
      <trkpt lat="42.423" lon="2.78169">
        <ele>591</ele>
        <time>2020-08-06T02:58:40Z</time>
      </trkpt>
      <trkpt lat="42.42311" lon="2.78185">
        <ele>588</ele>
        <time>2020-08-06T02:58:48Z</time>
      </trkpt>
      <trkpt lat="42.42325" lon="2.78219">
        <ele>581</ele>
        <time>2020-08-06T02:59:03Z</time>
      </trkpt>
      <trkpt lat="42.42334" lon="2.78275">
        <ele>576</ele>
        <time>2020-08-06T02:59:24Z</time>
      </trkpt>
      <trkpt lat="42.42441" lon="2.7843">
        <ele>558</ele>
        <time>2020-08-06T03:00:42Z</time>
      </trkpt>
      <trkpt lat="42.42451" lon="2.78441">
        <ele>557</ele>
        <time>2020-08-06T03:00:49Z</time>
      </trkpt>
      <trkpt lat="42.42459" lon="2.78448">
        <ele>556</ele>
        <time>2020-08-06T03:00:53Z</time>
      </trkpt>
      <trkpt lat="42.42481" lon="2.78446">
        <ele>553</ele>
        <time>2020-08-06T03:01:05Z</time>
      </trkpt>
      <trkpt lat="42.42499" lon="2.78455">
        <ele>551</ele>
        <time>2020-08-06T03:01:14Z</time>
      </trkpt>
      <trkpt lat="42.42506" lon="2.78456">
        <ele>550</ele>
        <time>2020-08-06T03:01:18Z</time>
      </trkpt>
      <trkpt lat="42.42504" lon="2.78459">
        <ele>550</ele>
        <time>2020-08-06T03:01:19Z</time>
      </trkpt>
      <trkpt lat="42.42512" lon="2.78466">
        <ele>549</ele>
        <time>2020-08-06T03:01:24Z</time>
      </trkpt>
      <trkpt lat="42.42561" lon="2.78502">
        <ele>544</ele>
        <time>2020-08-06T03:01:52Z</time>
      </trkpt>
      <trkpt lat="42.42584" lon="2.78523">
        <ele>542</ele>
        <time>2020-08-06T03:02:06Z</time>
      </trkpt>
      <trkpt lat="42.42593" lon="2.78541">
        <ele>541</ele>
        <time>2020-08-06T03:02:14Z</time>
      </trkpt>
      <trkpt lat="42.426" lon="2.7857">
        <ele>542</ele>
        <time>2020-08-06T03:02:25Z</time>
      </trkpt>
      <trkpt lat="42.42611" lon="2.78599">
        <ele>543</ele>
        <time>2020-08-06T03:02:37Z</time>
      </trkpt>
    </trkseg>
  </trk>
</gpx>